<?xml version="1.0" encoding="UTF-8" standalone="no" ?>
<gpx xmlns="http://www.topografix.com/GPX/1/1" xmlns:xsi="http://www.w3.org/2001/XMLSchema-instance" xsi:schemaLocation="http://www.topografix.com/GPX/1/1 http://www.topografix.com/GPX/1/1/gpx.xsd" version="1.1" creator="VisuGPX - https://www.visugpx.com">
  <metadata>
    <name>Turquie: itinéraire prévisionnel</name>
  </metadata>
  <trk>
    <name><![CDATA[2_De Malatya à Avanos]]></name>
    <extensions>
      <line xmlns="http://www.topografix.com/GPX/gpx_style/0/2">
        <color>00FF00</color>
        <width>4</width>
      </line>
    </extensions>
    <trkseg>
      <trkpt lat="38.3502" lon="38.30926">
        <ele>960.723164</ele>
        <time>2021-11-15T11:36:31.464Z</time>
      </trkpt>
      <trkpt lat="38.35025" lon="38.30884">
        <ele>960.723164</ele>
        <time>2021-11-15T11:36:39.182Z</time>
      </trkpt>
      <trkpt lat="38.3501" lon="38.30824">
        <ele>960.723164</ele>
        <time>2021-11-15T11:36:51.699Z</time>
      </trkpt>
      <trkpt lat="38.34987" lon="38.30714">
        <ele>960.463607</ele>
        <time>2021-11-15T11:37:13.254Z</time>
      </trkpt>
      <trkpt lat="38.34985" lon="38.30707">
        <ele>960.444524</ele>
        <time>2021-11-15T11:37:14.633Z</time>
      </trkpt>
      <trkpt lat="38.34969" lon="38.30628">
        <ele>960.241522</ele>
        <time>2021-11-15T11:37:28.352Z</time>
      </trkpt>
      <trkpt lat="38.34959" lon="38.30436">
        <ele>958.359193</ele>
        <time>2021-11-15T11:37:57.665Z</time>
      </trkpt>
      <trkpt lat="38.34954" lon="38.30348">
        <ele>957.366636</ele>
        <time>2021-11-15T11:38:10.532Z</time>
      </trkpt>
      <trkpt lat="38.34949" lon="38.30273">
        <ele>956.641997</ele>
        <time>2021-11-15T11:38:21.890Z</time>
      </trkpt>
      <trkpt lat="38.34943" lon="38.30204">
        <ele>955.974307</ele>
        <time>2021-11-15T11:38:33.275Z</time>
      </trkpt>
      <trkpt lat="38.34946" lon="38.30202">
        <ele>955.935756</ele>
        <time>2021-11-15T11:38:33.883Z</time>
      </trkpt>
      <trkpt lat="38.34958" lon="38.30197">
        <ele>955.773956</ele>
        <time>2021-11-15T11:38:36.736Z</time>
      </trkpt>
      <trkpt lat="38.3497" lon="38.30173">
        <ele>955.504148</ele>
        <time>2021-11-15T11:38:41.246Z</time>
      </trkpt>
      <trkpt lat="38.34985" lon="38.30114">
        <ele>954.498089</ele>
        <time>2021-11-15T11:38:50.849Z</time>
      </trkpt>
      <trkpt lat="38.34987" lon="38.30104">
        <ele>954.298546</ele>
        <time>2021-11-15T11:38:52.330Z</time>
      </trkpt>
      <trkpt lat="38.34988" lon="38.30093">
        <ele>954.08985</ele>
        <time>2021-11-15T11:38:53.970Z</time>
      </trkpt>
      <trkpt lat="38.34985" lon="38.30051">
        <ele>953.280968</ele>
        <time>2021-11-15T11:38:59.936Z</time>
      </trkpt>
      <trkpt lat="38.34978" lon="38.30018">
        <ele>952.625095</ele>
        <time>2021-11-15T11:39:04.504Z</time>
      </trkpt>
      <trkpt lat="38.35046" lon="38.29988">
        <ele>950.858418</ele>
        <time>2021-11-15T11:39:16.296Z</time>
      </trkpt>
      <trkpt lat="38.3507" lon="38.29991">
        <ele>950.126619</ele>
        <time>2021-11-15T11:39:20.272Z</time>
      </trkpt>
      <trkpt lat="38.35081" lon="38.29992">
        <ele>949.780586</ele>
        <time>2021-11-15T11:39:22.143Z</time>
      </trkpt>
      <trkpt lat="38.35097" lon="38.29996">
        <ele>949.305967</ele>
        <time>2021-11-15T11:39:24.756Z</time>
      </trkpt>
      <trkpt lat="38.35102" lon="38.29998">
        <ele>949.142039</ele>
        <time>2021-11-15T11:39:25.586Z</time>
      </trkpt>
      <trkpt lat="38.35114" lon="38.30002">
        <ele>948.764051</ele>
        <time>2021-11-15T11:39:27.627Z</time>
      </trkpt>
      <trkpt lat="38.35118" lon="38.30002">
        <ele>948.664281</ele>
        <time>2021-11-15T11:39:28.164Z</time>
      </trkpt>
      <trkpt lat="38.35121" lon="38.30001">
        <ele>948.564259</ele>
        <time>2021-11-15T11:39:28.689Z</time>
      </trkpt>
      <trkpt lat="38.35129" lon="38.29995">
        <ele>948.27357</ele>
        <time>2021-11-15T11:39:30.285Z</time>
      </trkpt>
      <trkpt lat="38.35131" lon="38.29991">
        <ele>948.172353</ele>
        <time>2021-11-15T11:39:30.786Z</time>
      </trkpt>
      <trkpt lat="38.35131" lon="38.29987">
        <ele>948.074131</ele>
        <time>2021-11-15T11:39:31.287Z</time>
      </trkpt>
      <trkpt lat="38.35132" lon="38.29983">
        <ele>947.974951</ele>
        <time>2021-11-15T11:39:31.812Z</time>
      </trkpt>
      <trkpt lat="38.35131" lon="38.29978">
        <ele>947.874186</ele>
        <time>2021-11-15T11:39:32.338Z</time>
      </trkpt>
      <trkpt lat="38.35135" lon="38.29917">
        <ele>946.414475</ele>
        <time>2021-11-15T11:39:40.254Z</time>
      </trkpt>
      <trkpt lat="38.35136" lon="38.299">
        <ele>946.018913</ele>
        <time>2021-11-15T11:39:42.521Z</time>
      </trkpt>
      <trkpt lat="38.35141" lon="38.29829">
        <ele>944.948744</ele>
        <time>2021-11-15T11:39:52.366Z</time>
      </trkpt>
      <trkpt lat="38.35143" lon="38.29791">
        <ele>944.535684</ele>
        <time>2021-11-15T11:39:57.852Z</time>
      </trkpt>
      <trkpt lat="38.35145" lon="38.29742">
        <ele>943.98444</ele>
        <time>2021-11-15T11:40:05.361Z</time>
      </trkpt>
      <trkpt lat="38.35148" lon="38.29604">
        <ele>942.732521</ele>
        <time>2021-11-15T11:40:25.959Z</time>
      </trkpt>
      <trkpt lat="38.35134" lon="38.29508">
        <ele>942.251203</ele>
        <time>2021-11-15T11:40:40.928Z</time>
      </trkpt>
      <trkpt lat="38.35132" lon="38.29497">
        <ele>942.191343</ele>
        <time>2021-11-15T11:40:42.746Z</time>
      </trkpt>
      <trkpt lat="38.35162" lon="38.29482">
        <ele>941.986681</ele>
        <time>2021-11-15T11:40:50.023Z</time>
      </trkpt>
      <trkpt lat="38.3516" lon="38.29458">
        <ele>941.866042</ele>
        <time>2021-11-15T11:40:54.429Z</time>
      </trkpt>
      <trkpt lat="38.35157" lon="38.29408">
        <ele>941.738567</ele>
        <time>2021-11-15T11:41:03.802Z</time>
      </trkpt>
      <trkpt lat="38.35154" lon="38.29371">
        <ele>941.663588</ele>
        <time>2021-11-15T11:41:10.556Z</time>
      </trkpt>
      <trkpt lat="38.35147" lon="38.29276">
        <ele>941.474654</ele>
        <time>2021-11-15T11:41:26.995Z</time>
      </trkpt>
      <trkpt lat="38.35143" lon="38.29253">
        <ele>941.426891</ele>
        <time>2021-11-15T11:41:31.031Z</time>
      </trkpt>
      <trkpt lat="38.35134" lon="38.29237">
        <ele>941.388208</ele>
        <time>2021-11-15T11:41:34.340Z</time>
      </trkpt>
      <trkpt lat="38.35261" lon="38.29118">
        <ele>940.725015</ele>
        <time>2021-11-15T11:42:08.098Z</time>
      </trkpt>
      <trkpt lat="38.35259" lon="38.29087">
        <ele>940.617795</ele>
        <time>2021-11-15T11:42:13.291Z</time>
      </trkpt>
      <trkpt lat="38.35255" lon="38.29033">
        <ele>940.710706</ele>
        <time>2021-11-15T11:42:22.583Z</time>
      </trkpt>
      <trkpt lat="38.35253" lon="38.29009">
        <ele>940.782018</ele>
        <time>2021-11-15T11:42:27.057Z</time>
      </trkpt>
      <trkpt lat="38.35243" lon="38.28949">
        <ele>940.963425</ele>
        <time>2021-11-15T11:42:38.725Z</time>
      </trkpt>
      <trkpt lat="38.35234" lon="38.28895">
        <ele>941.128105</ele>
        <time>2021-11-15T11:42:50.229Z</time>
      </trkpt>
      <trkpt lat="38.35216" lon="38.28796">
        <ele>941.766104</ele>
        <time>2021-11-15T11:43:11.856Z</time>
      </trkpt>
      <trkpt lat="38.35215" lon="38.2879">
        <ele>941.816572</ele>
        <time>2021-11-15T11:43:12.942Z</time>
      </trkpt>
      <trkpt lat="38.3521" lon="38.28758">
        <ele>942.105277</ele>
        <time>2021-11-15T11:43:20.255Z</time>
      </trkpt>
      <trkpt lat="38.35179" lon="38.28572">
        <ele>943.521483</ele>
        <time>2021-11-15T11:44:02.353Z</time>
      </trkpt>
      <trkpt lat="38.35157" lon="38.28469">
        <ele>943.940288</ele>
        <time>2021-11-15T11:44:23.773Z</time>
      </trkpt>
      <trkpt lat="38.35137" lon="38.28386">
        <ele>944.084487</ele>
        <time>2021-11-15T11:44:39.029Z</time>
      </trkpt>
      <trkpt lat="38.35179" lon="38.28369">
        <ele>943.758777</ele>
        <time>2021-11-15T11:44:47.716Z</time>
      </trkpt>
      <trkpt lat="38.35171" lon="38.28345">
        <ele>943.60504</ele>
        <time>2021-11-15T11:44:51.726Z</time>
      </trkpt>
      <trkpt lat="38.35127" lon="38.28205">
        <ele>942.727093</ele>
        <time>2021-11-15T11:45:14.609Z</time>
      </trkpt>
      <trkpt lat="38.35112" lon="38.28183">
        <ele>942.570694</ele>
        <time>2021-11-15T11:45:19.198Z</time>
      </trkpt>
      <trkpt lat="38.35105" lon="38.28167">
        <ele>942.475433</ele>
        <time>2021-11-15T11:45:22.003Z</time>
      </trkpt>
      <trkpt lat="38.35047" lon="38.27987">
        <ele>941.560615</ele>
        <time>2021-11-15T11:45:52.875Z</time>
      </trkpt>
      <trkpt lat="38.34997" lon="38.27828">
        <ele>941.228773</ele>
        <time>2021-11-15T11:46:21.516Z</time>
      </trkpt>
      <trkpt lat="38.34987" lon="38.27799">
        <ele>941.19755</ele>
        <time>2021-11-15T11:46:27.177Z</time>
      </trkpt>
      <trkpt lat="38.34946" lon="38.27673">
        <ele>941.366449</ele>
        <time>2021-11-15T11:46:52.100Z</time>
      </trkpt>
      <trkpt lat="38.34936" lon="38.27633">
        <ele>941.418415</ele>
        <time>2021-11-15T11:46:59.758Z</time>
      </trkpt>
      <trkpt lat="38.34914" lon="38.27565">
        <ele>941.411254</ele>
        <time>2021-11-15T11:47:12.834Z</time>
      </trkpt>
      <trkpt lat="38.34906" lon="38.27552">
        <ele>941.380886</ele>
        <time>2021-11-15T11:47:15.673Z</time>
      </trkpt>
      <trkpt lat="38.34907" lon="38.27546">
        <ele>941.369193</ele>
        <time>2021-11-15T11:47:16.756Z</time>
      </trkpt>
      <trkpt lat="38.34904" lon="38.27534">
        <ele>941.346172</ele>
        <time>2021-11-15T11:47:18.943Z</time>
      </trkpt>
      <trkpt lat="38.349" lon="38.27529">
        <ele>941.334441</ele>
        <time>2021-11-15T11:47:20.052Z</time>
      </trkpt>
      <trkpt lat="38.34898" lon="38.27528">
        <ele>941.328971</ele>
        <time>2021-11-15T11:47:20.576Z</time>
      </trkpt>
      <trkpt lat="38.34897" lon="38.27509">
        <ele>941.294403</ele>
        <time>2021-11-15T11:47:23.745Z</time>
      </trkpt>
      <trkpt lat="38.34895" lon="38.27213">
        <ele>940.613432</ele>
        <time>2021-11-15T11:48:12.126Z</time>
      </trkpt>
      <trkpt lat="38.34885" lon="38.27144">
        <ele>940.432287</ele>
        <time>2021-11-15T11:48:23.854Z</time>
      </trkpt>
      <trkpt lat="38.34685" lon="38.2645">
        <ele>939.595889</ele>
        <time>2021-11-15T11:50:30.975Z</time>
      </trkpt>
      <trkpt lat="38.346" lon="38.26173">
        <ele>937.710638</ele>
        <time>2021-11-15T11:51:16.509Z</time>
      </trkpt>
      <trkpt lat="38.34585" lon="38.26128">
        <ele>937.330509</ele>
        <time>2021-11-15T11:51:23.788Z</time>
      </trkpt>
      <trkpt lat="38.34586" lon="38.26124">
        <ele>937.298524</ele>
        <time>2021-11-15T11:51:24.403Z</time>
      </trkpt>
      <trkpt lat="38.34587" lon="38.2612">
        <ele>937.265854</ele>
        <time>2021-11-15T11:51:25.029Z</time>
      </trkpt>
      <trkpt lat="38.34587" lon="38.26116">
        <ele>937.233916</ele>
        <time>2021-11-15T11:51:25.644Z</time>
      </trkpt>
      <trkpt lat="38.34586" lon="38.26112">
        <ele>937.201443</ele>
        <time>2021-11-15T11:51:26.262Z</time>
      </trkpt>
      <trkpt lat="38.34585" lon="38.26108">
        <ele>937.169548</ele>
        <time>2021-11-15T11:51:26.881Z</time>
      </trkpt>
      <trkpt lat="38.34583" lon="38.26105">
        <ele>937.136961</ele>
        <time>2021-11-15T11:51:27.498Z</time>
      </trkpt>
      <trkpt lat="38.3458" lon="38.26101">
        <ele>937.089042</ele>
        <time>2021-11-15T11:51:28.423Z</time>
      </trkpt>
      <trkpt lat="38.34575" lon="38.26098">
        <ele>937.040898</ele>
        <time>2021-11-15T11:51:29.351Z</time>
      </trkpt>
      <trkpt lat="38.34573" lon="38.26098">
        <ele>937.020906</ele>
        <time>2021-11-15T11:51:29.737Z</time>
      </trkpt>
      <trkpt lat="38.34557" lon="38.26042">
        <ele>936.550494</ele>
        <time>2021-11-15T11:51:38.659Z</time>
      </trkpt>
      <trkpt lat="38.34179" lon="38.24777">
        <ele>925.963206</ele>
        <time>2021-11-15T11:55:03.469Z</time>
      </trkpt>
      <trkpt lat="38.34119" lon="38.24584">
        <ele>924.686319</ele>
        <time>2021-11-15T11:55:35.706Z</time>
      </trkpt>
      <trkpt lat="38.34114" lon="38.24568">
        <ele>924.602007</ele>
        <time>2021-11-15T11:55:38.534Z</time>
      </trkpt>
      <trkpt lat="38.3411" lon="38.24553">
        <ele>924.529295</ele>
        <time>2021-11-15T11:55:41.113Z</time>
      </trkpt>
      <trkpt lat="38.34048" lon="38.24347">
        <ele>923.542149</ele>
        <time>2021-11-15T11:56:16.432Z</time>
      </trkpt>
      <trkpt lat="38.34027" lon="38.24265">
        <ele>923.173099</ele>
        <time>2021-11-15T11:56:29.769Z</time>
      </trkpt>
      <trkpt lat="38.34014" lon="38.24183">
        <ele>922.814457</ele>
        <time>2021-11-15T11:56:43.111Z</time>
      </trkpt>
      <trkpt lat="38.34013" lon="38.24173">
        <ele>922.773108</ele>
        <time>2021-11-15T11:56:44.510Z</time>
      </trkpt>
      <trkpt lat="38.34013" lon="38.24161">
        <ele>922.722521</ele>
        <time>2021-11-15T11:56:46.480Z</time>
      </trkpt>
      <trkpt lat="38.34012" lon="38.2415">
        <ele>922.672762</ele>
        <time>2021-11-15T11:56:48.305Z</time>
      </trkpt>
      <trkpt lat="38.33996" lon="38.2368">
        <ele>924.381851</ele>
        <time>2021-11-15T11:58:16.970Z</time>
      </trkpt>
      <trkpt lat="38.33991" lon="38.23566">
        <ele>925.792032</ele>
        <time>2021-11-15T11:58:42.616Z</time>
      </trkpt>
      <trkpt lat="38.33982" lon="38.23567">
        <ele>925.926338</ele>
        <time>2021-11-15T11:58:45.254Z</time>
      </trkpt>
      <trkpt lat="38.33972" lon="38.23568">
        <ele>926.079578</ele>
        <time>2021-11-15T11:58:48.289Z</time>
      </trkpt>
      <trkpt lat="38.33888" lon="38.23577">
        <ele>927.343971</ele>
        <time>2021-11-15T11:59:14.925Z</time>
      </trkpt>
      <trkpt lat="38.33884" lon="38.23569">
        <ele>927.430305</ele>
        <time>2021-11-15T11:59:16.989Z</time>
      </trkpt>
      <trkpt lat="38.33883" lon="38.23559">
        <ele>927.523612</ele>
        <time>2021-11-15T11:59:19.456Z</time>
      </trkpt>
      <trkpt lat="38.33886" lon="38.23554">
        <ele>927.580585</ele>
        <time>2021-11-15T11:59:20.886Z</time>
      </trkpt>
      <trkpt lat="38.33886" lon="38.2355">
        <ele>927.621979</ele>
        <time>2021-11-15T11:59:21.858Z</time>
      </trkpt>
      <trkpt lat="38.33884" lon="38.23517">
        <ele>927.919863</ele>
        <time>2021-11-15T11:59:28.798Z</time>
      </trkpt>
      <trkpt lat="38.33881" lon="38.23466">
        <ele>928.387888</ele>
        <time>2021-11-15T11:59:39.658Z</time>
      </trkpt>
      <trkpt lat="38.33879" lon="38.23453">
        <ele>928.514113</ele>
        <time>2021-11-15T11:59:42.526Z</time>
      </trkpt>
      <trkpt lat="38.33873" lon="38.2341">
        <ele>928.914423</ele>
        <time>2021-11-15T11:59:51.701Z</time>
      </trkpt>
      <trkpt lat="38.33874" lon="38.23407">
        <ele>928.946642</ele>
        <time>2021-11-15T11:59:52.433Z</time>
      </trkpt>
      <trkpt lat="38.33875" lon="38.23403">
        <ele>928.979249</ele>
        <time>2021-11-15T11:59:53.147Z</time>
      </trkpt>
      <trkpt lat="38.33875" lon="38.234">
        <ele>929.004107</ele>
        <time>2021-11-15T11:59:53.714Z</time>
      </trkpt>
      <trkpt lat="38.33899" lon="38.2335">
        <ele>929.430364</ele>
        <time>2021-11-15T12:00:06.089Z</time>
      </trkpt>
      <trkpt lat="38.33889" lon="38.23342">
        <ele>929.519018</ele>
        <time>2021-11-15T12:00:09.331Z</time>
      </trkpt>
      <trkpt lat="38.33848" lon="38.23302">
        <ele>929.902949</ele>
        <time>2021-11-15T12:00:22.752Z</time>
      </trkpt>
      <trkpt lat="38.33809" lon="38.23264">
        <ele>930.265603</ele>
        <time>2021-11-15T12:00:34.975Z</time>
      </trkpt>
      <trkpt lat="38.33769" lon="38.23225">
        <ele>930.699416</ele>
        <time>2021-11-15T12:00:47.968Z</time>
      </trkpt>
      <trkpt lat="38.33759" lon="38.23215">
        <ele>930.874075</ele>
        <time>2021-11-15T12:00:51.611Z</time>
      </trkpt>
      <trkpt lat="38.33729" lon="38.23187">
        <ele>931.360944</ele>
        <time>2021-11-15T12:01:01.872Z</time>
      </trkpt>
      <trkpt lat="38.33689" lon="38.23148">
        <ele>932.042024</ele>
        <time>2021-11-15T12:01:16.723Z</time>
      </trkpt>
      <trkpt lat="38.3365" lon="38.23112">
        <ele>932.680853</ele>
        <time>2021-11-15T12:01:30.688Z</time>
      </trkpt>
      <trkpt lat="38.3361" lon="38.23074">
        <ele>933.492048</ele>
        <time>2021-11-15T12:01:45.400Z</time>
      </trkpt>
      <trkpt lat="38.33591" lon="38.23044">
        <ele>934.049631</ele>
        <time>2021-11-15T12:01:54.462Z</time>
      </trkpt>
      <trkpt lat="38.33581" lon="38.22928">
        <ele>935.711226</ele>
        <time>2021-11-15T12:02:22.637Z</time>
      </trkpt>
      <trkpt lat="38.3358" lon="38.22917">
        <ele>935.867879</ele>
        <time>2021-11-15T12:02:25.359Z</time>
      </trkpt>
      <trkpt lat="38.3353" lon="38.22923">
        <ele>936.800544</ele>
        <time>2021-11-15T12:02:41.182Z</time>
      </trkpt>
      <trkpt lat="38.33524" lon="38.22868">
        <ele>937.62562</ele>
        <time>2021-11-15T12:02:54.650Z</time>
      </trkpt>
      <trkpt lat="38.33517" lon="38.22809">
        <ele>938.500434</ele>
        <time>2021-11-15T12:03:08.842Z</time>
      </trkpt>
      <trkpt lat="38.3351" lon="38.22748">
        <ele>939.410357</ele>
        <time>2021-11-15T12:03:23.528Z</time>
      </trkpt>
      <trkpt lat="38.33503" lon="38.22686">
        <ele>940.206675</ele>
        <time>2021-11-15T12:03:38.315Z</time>
      </trkpt>
      <trkpt lat="38.33489" lon="38.22553">
        <ele>941.845746</ele>
        <time>2021-11-15T12:04:10.025Z</time>
      </trkpt>
      <trkpt lat="38.33476" lon="38.22481">
        <ele>942.488456</ele>
        <time>2021-11-15T12:04:26.299Z</time>
      </trkpt>
      <trkpt lat="38.33458" lon="38.22391">
        <ele>942.729771</ele>
        <time>2021-11-15T12:04:44.711Z</time>
      </trkpt>
      <trkpt lat="38.33438" lon="38.22237">
        <ele>942.773622</ele>
        <time>2021-11-15T12:05:11.370Z</time>
      </trkpt>
      <trkpt lat="38.33429" lon="38.22169">
        <ele>942.426404</ele>
        <time>2021-11-15T12:05:21.955Z</time>
      </trkpt>
      <trkpt lat="38.33434" lon="38.22091">
        <ele>942.025986</ele>
        <time>2021-11-15T12:05:33.649Z</time>
      </trkpt>
      <trkpt lat="38.33438" lon="38.22063">
        <ele>941.881093</ele>
        <time>2021-11-15T12:05:37.928Z</time>
      </trkpt>
      <trkpt lat="38.33461" lon="38.21993">
        <ele>942.201839</ele>
        <time>2021-11-15T12:05:50.431Z</time>
      </trkpt>
      <trkpt lat="38.3347" lon="38.21965">
        <ele>942.360389</ele>
        <time>2021-11-15T12:05:56.188Z</time>
      </trkpt>
      <trkpt lat="38.33476" lon="38.21935">
        <ele>942.518406</ele>
        <time>2021-11-15T12:06:02.096Z</time>
      </trkpt>
      <trkpt lat="38.33488" lon="38.21901">
        <ele>942.710989</ele>
        <time>2021-11-15T12:06:10.203Z</time>
      </trkpt>
      <trkpt lat="38.33526" lon="38.21819">
        <ele>943.562425</ele>
        <time>2021-11-15T12:06:31.848Z</time>
      </trkpt>
      <trkpt lat="38.33561" lon="38.2177">
        <ele>944.621188</ele>
        <time>2021-11-15T12:06:48.202Z</time>
      </trkpt>
      <trkpt lat="38.33584" lon="38.21749">
        <ele>945.209039</ele>
        <time>2021-11-15T12:06:57.732Z</time>
      </trkpt>
      <trkpt lat="38.33612" lon="38.21727">
        <ele>945.869468</ele>
        <time>2021-11-15T12:07:07.975Z</time>
      </trkpt>
      <trkpt lat="38.33697" lon="38.21656">
        <ele>947.134443</ele>
        <time>2021-11-15T12:07:37.402Z</time>
      </trkpt>
      <trkpt lat="38.33745" lon="38.21613">
        <ele>947.557798</ele>
        <time>2021-11-15T12:07:51.282Z</time>
      </trkpt>
      <trkpt lat="38.33781" lon="38.21575">
        <ele>947.895001</ele>
        <time>2021-11-15T12:08:01.764Z</time>
      </trkpt>
      <trkpt lat="38.33806" lon="38.21538">
        <ele>948.038684</ele>
        <time>2021-11-15T12:08:10.333Z</time>
      </trkpt>
      <trkpt lat="38.33835" lon="38.21473">
        <ele>948.147159</ele>
        <time>2021-11-15T12:08:23.288Z</time>
      </trkpt>
      <trkpt lat="38.33854" lon="38.21403">
        <ele>948.253676</ele>
        <time>2021-11-15T12:08:36.805Z</time>
      </trkpt>
      <trkpt lat="38.33864" lon="38.21287">
        <ele>948.43375</ele>
        <time>2021-11-15T12:08:58.381Z</time>
      </trkpt>
      <trkpt lat="38.3387" lon="38.21212">
        <ele>948.556504</ele>
        <time>2021-11-15T12:09:12.282Z</time>
      </trkpt>
      <trkpt lat="38.33876" lon="38.20982">
        <ele>948.627543</ele>
        <time>2021-11-15T12:09:52.559Z</time>
      </trkpt>
      <trkpt lat="38.33881" lon="38.20919">
        <ele>948.597949</ele>
        <time>2021-11-15T12:10:03.269Z</time>
      </trkpt>
      <trkpt lat="38.33915" lon="38.2061">
        <ele>948.338935</ele>
        <time>2021-11-15T12:10:56.389Z</time>
      </trkpt>
      <trkpt lat="38.3393" lon="38.20402">
        <ele>948.388319</ele>
        <time>2021-11-15T12:11:32.850Z</time>
      </trkpt>
      <trkpt lat="38.33932" lon="38.20333">
        <ele>948.575276</ele>
        <time>2021-11-15T12:11:45.753Z</time>
      </trkpt>
      <trkpt lat="38.33927" lon="38.20293">
        <ele>948.683519</ele>
        <time>2021-11-15T12:11:53.324Z</time>
      </trkpt>
      <trkpt lat="38.33926" lon="38.20215">
        <ele>948.894222</ele>
        <time>2021-11-15T12:12:08.257Z</time>
      </trkpt>
      <trkpt lat="38.33931" lon="38.20191">
        <ele>948.883882</ele>
        <time>2021-11-15T12:12:12.927Z</time>
      </trkpt>
      <trkpt lat="38.33941" lon="38.20172">
        <ele>948.871327</ele>
        <time>2021-11-15T12:12:17.190Z</time>
      </trkpt>
      <trkpt lat="38.33962" lon="38.20153">
        <ele>948.853137</ele>
        <time>2021-11-15T12:12:23.282Z</time>
      </trkpt>
      <trkpt lat="38.33986" lon="38.20141">
        <ele>948.835348</ele>
        <time>2021-11-15T12:12:29.041Z</time>
      </trkpt>
      <trkpt lat="38.34013" lon="38.20135">
        <ele>948.816251</ele>
        <time>2021-11-15T12:12:35.217Z</time>
      </trkpt>
      <trkpt lat="38.34026" lon="38.20132">
        <ele>948.807174</ele>
        <time>2021-11-15T12:12:37.988Z</time>
      </trkpt>
      <trkpt lat="38.34041" lon="38.20128">
        <ele>948.796297</ele>
        <time>2021-11-15T12:12:41.274Z</time>
      </trkpt>
      <trkpt lat="38.34036" lon="38.2011">
        <ele>948.786335</ele>
        <time>2021-11-15T12:12:44.168Z</time>
      </trkpt>
      <trkpt lat="38.34027" lon="38.2008">
        <ele>948.740214</ele>
        <time>2021-11-15T12:12:49.197Z</time>
      </trkpt>
      <trkpt lat="38.34003" lon="38.2003">
        <ele>948.382313</ele>
        <time>2021-11-15T12:12:58.066Z</time>
      </trkpt>
      <trkpt lat="38.33932" lon="38.19885">
        <ele>947.389134</ele>
        <time>2021-11-15T12:13:24.269Z</time>
      </trkpt>
      <trkpt lat="38.33925" lon="38.19871">
        <ele>947.420727</ele>
        <time>2021-11-15T12:13:26.914Z</time>
      </trkpt>
      <trkpt lat="38.33924" lon="38.19868">
        <ele>947.427094</ele>
        <time>2021-11-15T12:13:27.419Z</time>
      </trkpt>
      <trkpt lat="38.33918" lon="38.19856">
        <ele>947.456988</ele>
        <time>2021-11-15T12:13:29.925Z</time>
      </trkpt>
      <trkpt lat="38.33881" lon="38.19781">
        <ele>947.631253</ele>
        <time>2021-11-15T12:13:45.530Z</time>
      </trkpt>
      <trkpt lat="38.33862" lon="38.19731">
        <ele>947.738479</ele>
        <time>2021-11-15T12:13:56.173Z</time>
      </trkpt>
      <trkpt lat="38.33856" lon="38.19651">
        <ele>948.083556</ele>
        <time>2021-11-15T12:14:13.042Z</time>
      </trkpt>
      <trkpt lat="38.33854" lon="38.19579">
        <ele>948.611793</ele>
        <time>2021-11-15T12:14:28.074Z</time>
      </trkpt>
      <trkpt lat="38.3385" lon="38.1946">
        <ele>949.487585</ele>
        <time>2021-11-15T12:14:51.883Z</time>
      </trkpt>
      <trkpt lat="38.33849" lon="38.19435">
        <ele>949.73409</ele>
        <time>2021-11-15T12:14:57.302Z</time>
      </trkpt>
      <trkpt lat="38.33847" lon="38.19364">
        <ele>950.447428</ele>
        <time>2021-11-15T12:15:11.744Z</time>
      </trkpt>
      <trkpt lat="38.33837" lon="38.19366">
        <ele>950.574083</ele>
        <time>2021-11-15T12:15:14.527Z</time>
      </trkpt>
      <trkpt lat="38.33779" lon="38.19366">
        <ele>951.316255</ele>
        <time>2021-11-15T12:15:30.561Z</time>
      </trkpt>
      <trkpt lat="38.33651" lon="38.19371">
        <ele>953.569045</ele>
        <time>2021-11-15T12:16:10.153Z</time>
      </trkpt>
      <trkpt lat="38.33605" lon="38.19372">
        <ele>954.47192</ele>
        <time>2021-11-15T12:16:24.635Z</time>
      </trkpt>
      <trkpt lat="38.33587" lon="38.19372">
        <ele>954.83265</ele>
        <time>2021-11-15T12:16:30.526Z</time>
      </trkpt>
      <trkpt lat="38.3354" lon="38.19367">
        <ele>955.634461</ele>
        <time>2021-11-15T12:16:45.149Z</time>
      </trkpt>
      <trkpt lat="38.33493" lon="38.19361">
        <ele>956.273971</ele>
        <time>2021-11-15T12:16:59.804Z</time>
      </trkpt>
      <trkpt lat="38.33492" lon="38.19342">
        <ele>956.470511</ele>
        <time>2021-11-15T12:17:04.346Z</time>
      </trkpt>
      <trkpt lat="38.33492" lon="38.19291">
        <ele>957.004419</ele>
        <time>2021-11-15T12:17:15.753Z</time>
      </trkpt>
      <trkpt lat="38.33491" lon="38.19177">
        <ele>957.84673</ele>
        <time>2021-11-15T12:17:38.383Z</time>
      </trkpt>
      <trkpt lat="38.33491" lon="38.19138">
        <ele>957.915976</ele>
        <time>2021-11-15T12:17:45.828Z</time>
      </trkpt>
      <trkpt lat="38.33488" lon="38.18995">
        <ele>958.171375</ele>
        <time>2021-11-15T12:18:12.434Z</time>
      </trkpt>
      <trkpt lat="38.33486" lon="38.18799">
        <ele>958.215884</ele>
        <time>2021-11-15T12:18:47.958Z</time>
      </trkpt>
      <trkpt lat="38.33485" lon="38.18703">
        <ele>958.441074</ele>
        <time>2021-11-15T12:19:05.602Z</time>
      </trkpt>
      <trkpt lat="38.33484" lon="38.18607">
        <ele>958.81021</ele>
        <time>2021-11-15T12:19:24.153Z</time>
      </trkpt>
      <trkpt lat="38.33484" lon="38.18595">
        <ele>958.857898</ele>
        <time>2021-11-15T12:19:26.756Z</time>
      </trkpt>
      <trkpt lat="38.33482" lon="38.18436">
        <ele>960.190031</ele>
        <time>2021-11-15T12:20:00.556Z</time>
      </trkpt>
      <trkpt lat="38.33482" lon="38.18375">
        <ele>960.889842</ele>
        <time>2021-11-15T12:20:15.111Z</time>
      </trkpt>
      <trkpt lat="38.3346" lon="38.18377">
        <ele>961.214152</ele>
        <time>2021-11-15T12:20:21.826Z</time>
      </trkpt>
      <trkpt lat="38.33309" lon="38.18389">
        <ele>963.544175</ele>
        <time>2021-11-15T12:21:07.598Z</time>
      </trkpt>
      <trkpt lat="38.33297" lon="38.18387">
        <ele>963.735595</ele>
        <time>2021-11-15T12:21:11.090Z</time>
      </trkpt>
      <trkpt lat="38.33292" lon="38.18374">
        <ele>963.917058</ele>
        <time>2021-11-15T12:21:14.386Z</time>
      </trkpt>
      <trkpt lat="38.33286" lon="38.18279">
        <ele>964.746312</ele>
        <time>2021-11-15T12:21:35.269Z</time>
      </trkpt>
      <trkpt lat="38.33285" lon="38.18266">
        <ele>964.801043</ele>
        <time>2021-11-15T12:21:38.041Z</time>
      </trkpt>
      <trkpt lat="38.33274" lon="38.18111">
        <ele>965.453869</ele>
        <time>2021-11-15T12:22:08.940Z</time>
      </trkpt>
      <trkpt lat="38.33264" lon="38.17639">
        <ele>963.631568</ele>
        <time>2021-11-15T12:23:27.282Z</time>
      </trkpt>
      <trkpt lat="38.33263" lon="38.176">
        <ele>963.553339</ele>
        <time>2021-11-15T12:23:33.961Z</time>
      </trkpt>
      <trkpt lat="38.33262" lon="38.1755">
        <ele>963.47471</ele>
        <time>2021-11-15T12:23:42.421Z</time>
      </trkpt>
      <trkpt lat="38.33259" lon="38.17397">
        <ele>963.300671</ele>
        <time>2021-11-15T12:24:09.530Z</time>
      </trkpt>
      <trkpt lat="38.33258" lon="38.173">
        <ele>963.942043</ele>
        <time>2021-11-15T12:24:28.754Z</time>
      </trkpt>
      <trkpt lat="38.33248" lon="38.17282">
        <ele>964.087882</ele>
        <time>2021-11-15T12:24:33.253Z</time>
      </trkpt>
      <trkpt lat="38.3307" lon="38.17049">
        <ele>967.280733</ele>
        <time>2021-11-15T12:25:47.110Z</time>
      </trkpt>
      <trkpt lat="38.33035" lon="38.16995">
        <ele>967.795913</ele>
        <time>2021-11-15T12:26:03.034Z</time>
      </trkpt>
      <trkpt lat="38.32979" lon="38.16947">
        <ele>968.381977</ele>
        <time>2021-11-15T12:26:21.298Z</time>
      </trkpt>
      <trkpt lat="38.32986" lon="38.16906">
        <ele>968.671556</ele>
        <time>2021-11-15T12:26:29.837Z</time>
      </trkpt>
      <trkpt lat="38.33025" lon="38.1676">
        <ele>968.54426</ele>
        <time>2021-11-15T12:26:58.059Z</time>
      </trkpt>
      <trkpt lat="38.33116" lon="38.1664">
        <ele>967.71512</ele>
        <time>2021-11-15T12:27:24.710Z</time>
      </trkpt>
      <trkpt lat="38.33174" lon="38.1656">
        <ele>966.784797</ele>
        <time>2021-11-15T12:27:41.719Z</time>
      </trkpt>
      <trkpt lat="38.33183" lon="38.16548">
        <ele>966.647237</ele>
        <time>2021-11-15T12:27:44.198Z</time>
      </trkpt>
      <trkpt lat="38.33247" lon="38.16466">
        <ele>965.723256</ele>
        <time>2021-11-15T12:28:02.130Z</time>
      </trkpt>
      <trkpt lat="38.33467" lon="38.16312">
        <ele>963.188913</ele>
        <time>2021-11-15T12:28:53.462Z</time>
      </trkpt>
      <trkpt lat="38.33485" lon="38.16265">
        <ele>962.761496</ele>
        <time>2021-11-15T12:29:01.572Z</time>
      </trkpt>
      <trkpt lat="38.33495" lon="38.16211">
        <ele>962.090037</ele>
        <time>2021-11-15T12:29:10.027Z</time>
      </trkpt>
      <trkpt lat="38.33499" lon="38.1617">
        <ele>961.493764</ele>
        <time>2021-11-15T12:29:16.144Z</time>
      </trkpt>
      <trkpt lat="38.33497" lon="38.1613">
        <ele>960.919149</ele>
        <time>2021-11-15T12:29:22.019Z</time>
      </trkpt>
      <trkpt lat="38.33497" lon="38.16111">
        <ele>960.655067</ele>
        <time>2021-11-15T12:29:24.735Z</time>
      </trkpt>
      <trkpt lat="38.33506" lon="38.161">
        <ele>960.416004</ele>
        <time>2021-11-15T12:29:27.132Z</time>
      </trkpt>
      <trkpt lat="38.33538" lon="38.16077">
        <ele>959.744753</ele>
        <time>2021-11-15T12:29:33.806Z</time>
      </trkpt>
      <trkpt lat="38.33548" lon="38.16066">
        <ele>959.50728</ele>
        <time>2021-11-15T12:29:36.178Z</time>
      </trkpt>
      <trkpt lat="38.33534" lon="38.15992">
        <ele>958.500832</ele>
        <time>2021-11-15T12:29:47.065Z</time>
      </trkpt>
      <trkpt lat="38.33517" lon="38.15941">
        <ele>957.779482</ele>
        <time>2021-11-15T12:29:55.108Z</time>
      </trkpt>
      <trkpt lat="38.33506" lon="38.1592">
        <ele>957.449621</ele>
        <time>2021-11-15T12:29:58.932Z</time>
      </trkpt>
      <trkpt lat="38.33478" lon="38.15865">
        <ele>956.602299</ele>
        <time>2021-11-15T12:30:08.881Z</time>
      </trkpt>
      <trkpt lat="38.33448" lon="38.15824">
        <ele>956.071112</ele>
        <time>2021-11-15T12:30:17.665Z</time>
      </trkpt>
      <trkpt lat="38.33407" lon="38.15774">
        <ele>955.541594</ele>
        <time>2021-11-15T12:30:29.524Z</time>
      </trkpt>
      <trkpt lat="38.33406" lon="38.15756">
        <ele>955.416577</ele>
        <time>2021-11-15T12:30:32.257Z</time>
      </trkpt>
      <trkpt lat="38.33412" lon="38.15742">
        <ele>955.296953</ele>
        <time>2021-11-15T12:30:35.092Z</time>
      </trkpt>
      <trkpt lat="38.33454" lon="38.15687">
        <ele>954.738427</ele>
        <time>2021-11-15T12:30:47.515Z</time>
      </trkpt>
      <trkpt lat="38.33481" lon="38.15647">
        <ele>954.24249</ele>
        <time>2021-11-15T12:30:55.793Z</time>
      </trkpt>
      <trkpt lat="38.33481" lon="38.15622">
        <ele>953.998683</ele>
        <time>2021-11-15T12:30:59.553Z</time>
      </trkpt>
      <trkpt lat="38.33472" lon="38.15567">
        <ele>953.422675</ele>
        <time>2021-11-15T12:31:08.221Z</time>
      </trkpt>
      <trkpt lat="38.33443" lon="38.15459">
        <ele>952.307559</ele>
        <time>2021-11-15T12:31:25.332Z</time>
      </trkpt>
      <trkpt lat="38.33439" lon="38.15425">
        <ele>952.159948</ele>
        <time>2021-11-15T12:31:30.605Z</time>
      </trkpt>
      <trkpt lat="38.33445" lon="38.1537">
        <ele>951.924168</ele>
        <time>2021-11-15T12:31:39.491Z</time>
      </trkpt>
      <trkpt lat="38.33432" lon="38.15353">
        <ele>951.820965</ele>
        <time>2021-11-15T12:31:43.243Z</time>
      </trkpt>
      <trkpt lat="38.3343" lon="38.15351">
        <ele>951.808119</ele>
        <time>2021-11-15T12:31:44.003Z</time>
      </trkpt>
      <trkpt lat="38.33349" lon="38.1528">
        <ele>951.448633</ele>
        <time>2021-11-15T12:32:06.442Z</time>
      </trkpt>
      <trkpt lat="38.33341" lon="38.15272">
        <ele>951.515939</ele>
        <time>2021-11-15T12:32:09.214Z</time>
      </trkpt>
      <trkpt lat="38.33285" lon="38.15221">
        <ele>951.964544</ele>
        <time>2021-11-15T12:32:27.340Z</time>
      </trkpt>
      <trkpt lat="38.33267" lon="38.15206">
        <ele>952.103885</ele>
        <time>2021-11-15T12:32:33.274Z</time>
      </trkpt>
      <trkpt lat="38.33269" lon="38.15202">
        <ele>952.131198</ele>
        <time>2021-11-15T12:32:34.301Z</time>
      </trkpt>
      <trkpt lat="38.33279" lon="38.15184">
        <ele>952.244483</ele>
        <time>2021-11-15T12:32:38.966Z</time>
      </trkpt>
      <trkpt lat="38.33311" lon="38.15132">
        <ele>952.524349</ele>
        <time>2021-11-15T12:32:51.982Z</time>
      </trkpt>
      <trkpt lat="38.33349" lon="38.15068">
        <ele>952.539869</ele>
        <time>2021-11-15T12:33:06.717Z</time>
      </trkpt>
      <trkpt lat="38.33412" lon="38.14961">
        <ele>952.565721</ele>
        <time>2021-11-15T12:33:29.154Z</time>
      </trkpt>
      <trkpt lat="38.33474" lon="38.14856">
        <ele>952.251745</ele>
        <time>2021-11-15T12:33:50.723Z</time>
      </trkpt>
      <trkpt lat="38.33517" lon="38.14784">
        <ele>952.029492</ele>
        <time>2021-11-15T12:34:05.682Z</time>
      </trkpt>
      <trkpt lat="38.3358" lon="38.14671">
        <ele>951.71058</ele>
        <time>2021-11-15T12:34:29.055Z</time>
      </trkpt>
      <trkpt lat="38.33808" lon="38.14297">
        <ele>949.859494</ele>
        <time>2021-11-15T12:35:46.290Z</time>
      </trkpt>
      <trkpt lat="38.33953" lon="38.14056">
        <ele>946.236835</ele>
        <time>2021-11-15T12:36:30.443Z</time>
      </trkpt>
      <trkpt lat="38.33977" lon="38.14017">
        <ele>944.666957</ele>
        <time>2021-11-15T12:36:36.501Z</time>
      </trkpt>
      <trkpt lat="38.34017" lon="38.13952">
        <ele>941.460357</ele>
        <time>2021-11-15T12:36:46.590Z</time>
      </trkpt>
      <trkpt lat="38.34006" lon="38.13925">
        <ele>940.283846</ele>
        <time>2021-11-15T12:36:50.279Z</time>
      </trkpt>
      <trkpt lat="38.33993" lon="38.13884">
        <ele>938.572877</ele>
        <time>2021-11-15T12:36:55.660Z</time>
      </trkpt>
      <trkpt lat="38.33985" lon="38.13825">
        <ele>936.1051</ele>
        <time>2021-11-15T12:37:02.755Z</time>
      </trkpt>
      <trkpt lat="38.33989" lon="38.13805">
        <ele>935.15501</ele>
        <time>2021-11-15T12:37:05.171Z</time>
      </trkpt>
      <trkpt lat="38.34013" lon="38.13774">
        <ele>933.12993</ele>
        <time>2021-11-15T12:37:10.367Z</time>
      </trkpt>
      <trkpt lat="38.34025" lon="38.13749">
        <ele>931.766668</ele>
        <time>2021-11-15T12:37:13.873Z</time>
      </trkpt>
      <trkpt lat="38.34025" lon="38.13693">
        <ele>929.217987</ele>
        <time>2021-11-15T12:37:20.580Z</time>
      </trkpt>
      <trkpt lat="38.34019" lon="38.13685">
        <ele>928.65192</ele>
        <time>2021-11-15T12:37:22.063Z</time>
      </trkpt>
      <trkpt lat="38.33994" lon="38.13685">
        <ele>927.182726</ele>
        <time>2021-11-15T12:37:26.038Z</time>
      </trkpt>
      <trkpt lat="38.33973" lon="38.13673">
        <ele>926.260951</ele>
        <time>2021-11-15T12:37:29.668Z</time>
      </trkpt>
      <trkpt lat="38.33928" lon="38.13633">
        <ele>924.644741</ele>
        <time>2021-11-15T12:37:38.776Z</time>
      </trkpt>
      <trkpt lat="38.33926" lon="38.13621">
        <ele>924.354784</ele>
        <time>2021-11-15T12:37:40.359Z</time>
      </trkpt>
      <trkpt lat="38.33948" lon="38.13579">
        <ele>923.183175</ele>
        <time>2021-11-15T12:37:47.360Z</time>
      </trkpt>
      <trkpt lat="38.33994" lon="38.13519">
        <ele>921.289087</ele>
        <time>2021-11-15T12:37:59.749Z</time>
      </trkpt>
      <trkpt lat="38.34032" lon="38.13439">
        <ele>920.38762</ele>
        <time>2021-11-15T12:38:14.357Z</time>
      </trkpt>
      <trkpt lat="38.34036" lon="38.13422">
        <ele>920.218312</ele>
        <time>2021-11-15T12:38:17.169Z</time>
      </trkpt>
      <trkpt lat="38.34033" lon="38.13404">
        <ele>920.038745</ele>
        <time>2021-11-15T12:38:20.122Z</time>
      </trkpt>
      <trkpt lat="38.34061" lon="38.13316">
        <ele>919.119748</ele>
        <time>2021-11-15T12:38:34.920Z</time>
      </trkpt>
      <trkpt lat="38.34075" lon="38.13237">
        <ele>918.175095</ele>
        <time>2021-11-15T12:38:47.238Z</time>
      </trkpt>
      <trkpt lat="38.34085" lon="38.13215">
        <ele>917.876327</ele>
        <time>2021-11-15T12:38:51.069Z</time>
      </trkpt>
      <trkpt lat="38.34125" lon="38.13146">
        <ele>916.869901</ele>
        <time>2021-11-15T12:39:03.634Z</time>
      </trkpt>
      <trkpt lat="38.34176" lon="38.13084">
        <ele>916.26241</ele>
        <time>2021-11-15T12:39:17.525Z</time>
      </trkpt>
      <trkpt lat="38.34199" lon="38.13058">
        <ele>916.128041</ele>
        <time>2021-11-15T12:39:23.809Z</time>
      </trkpt>
      <trkpt lat="38.34235" lon="38.13043">
        <ele>915.962857</ele>
        <time>2021-11-15T12:39:31.976Z</time>
      </trkpt>
      <trkpt lat="38.34247" lon="38.13029">
        <ele>915.889843</ele>
        <time>2021-11-15T12:39:35.936Z</time>
      </trkpt>
      <trkpt lat="38.34277" lon="38.12983">
        <ele>915.685812</ele>
        <time>2021-11-15T12:39:46.694Z</time>
      </trkpt>
      <trkpt lat="38.34288" lon="38.12955">
        <ele>915.758082</ele>
        <time>2021-11-15T12:39:52.964Z</time>
      </trkpt>
      <trkpt lat="38.34302" lon="38.12881">
        <ele>916.083435</ele>
        <time>2021-11-15T12:40:08.567Z</time>
      </trkpt>
      <trkpt lat="38.3434" lon="38.12811">
        <ele>916.451948</ele>
        <time>2021-11-15T12:40:26.737Z</time>
      </trkpt>
      <trkpt lat="38.3435" lon="38.12744">
        <ele>916.492461</ele>
        <time>2021-11-15T12:40:40.192Z</time>
      </trkpt>
      <trkpt lat="38.34425" lon="38.12528">
        <ele>914.859511</ele>
        <time>2021-11-15T12:41:17.400Z</time>
      </trkpt>
      <trkpt lat="38.3443" lon="38.12515">
        <ele>914.697549</ele>
        <time>2021-11-15T12:41:19.573Z</time>
      </trkpt>
      <trkpt lat="38.34435" lon="38.12502">
        <ele>914.542437</ele>
        <time>2021-11-15T12:41:21.456Z</time>
      </trkpt>
      <trkpt lat="38.34442" lon="38.12386">
        <ele>913.251267</ele>
        <time>2021-11-15T12:41:38.539Z</time>
      </trkpt>
      <trkpt lat="38.3445" lon="38.12336">
        <ele>912.693143</ele>
        <time>2021-11-15T12:41:46.551Z</time>
      </trkpt>
      <trkpt lat="38.34468" lon="38.12296">
        <ele>913.144639</ele>
        <time>2021-11-15T12:41:54.307Z</time>
      </trkpt>
      <trkpt lat="38.34483" lon="38.12275">
        <ele>913.465823</ele>
        <time>2021-11-15T12:41:59.794Z</time>
      </trkpt>
      <trkpt lat="38.34487" lon="38.12271">
        <ele>913.53765</ele>
        <time>2021-11-15T12:42:00.691Z</time>
      </trkpt>
      <trkpt lat="38.34483" lon="38.12264">
        <ele>913.634704</ele>
        <time>2021-11-15T12:42:03.358Z</time>
      </trkpt>
      <trkpt lat="38.34475" lon="38.12177">
        <ele>914.621053</ele>
        <time>2021-11-15T12:42:23.504Z</time>
      </trkpt>
      <trkpt lat="38.34487" lon="38.12052">
        <ele>916.747032</ele>
        <time>2021-11-15T12:43:00.526Z</time>
      </trkpt>
      <trkpt lat="38.34501" lon="38.11956">
        <ele>918.826512</ele>
        <time>2021-11-15T12:43:28.026Z</time>
      </trkpt>
      <trkpt lat="38.34502" lon="38.11934">
        <ele>919.301063</ele>
        <time>2021-11-15T12:43:34.363Z</time>
      </trkpt>
      <trkpt lat="38.34507" lon="38.11901">
        <ele>920.017803</ele>
        <time>2021-11-15T12:43:42.660Z</time>
      </trkpt>
      <trkpt lat="38.34552" lon="38.11658">
        <ele>920.353309</ele>
        <time>2021-11-15T12:44:27.937Z</time>
      </trkpt>
      <trkpt lat="38.34556" lon="38.11642">
        <ele>920.253111</ele>
        <time>2021-11-15T12:44:30.570Z</time>
      </trkpt>
      <trkpt lat="38.34553" lon="38.11623">
        <ele>920.139343</ele>
        <time>2021-11-15T12:44:33.381Z</time>
      </trkpt>
      <trkpt lat="38.34546" lon="38.11541">
        <ele>919.658152</ele>
        <time>2021-11-15T12:44:45.990Z</time>
      </trkpt>
      <trkpt lat="38.3456" lon="38.1146">
        <ele>919.168661</ele>
        <time>2021-11-15T12:44:59.256Z</time>
      </trkpt>
      <trkpt lat="38.34591" lon="38.11325">
        <ele>920.363292</ele>
        <time>2021-11-15T12:45:27.759Z</time>
      </trkpt>
      <trkpt lat="38.34616" lon="38.11121">
        <ele>922.771263</ele>
        <time>2021-11-15T12:46:20.484Z</time>
      </trkpt>
      <trkpt lat="38.34619" lon="38.11023">
        <ele>924.075641</ele>
        <time>2021-11-15T12:46:43.053Z</time>
      </trkpt>
      <trkpt lat="38.34618" lon="38.11003">
        <ele>924.339124</ele>
        <time>2021-11-15T12:46:47.835Z</time>
      </trkpt>
      <trkpt lat="38.34617" lon="38.1099">
        <ele>924.42687</ele>
        <time>2021-11-15T12:46:49.965Z</time>
      </trkpt>
      <trkpt lat="38.34612" lon="38.10911">
        <ele>924.326588</ele>
        <time>2021-11-15T12:47:04.851Z</time>
      </trkpt>
      <trkpt lat="38.34591" lon="38.10752">
        <ele>924.215816</ele>
        <time>2021-11-15T12:47:30.981Z</time>
      </trkpt>
      <trkpt lat="38.34538" lon="38.10513">
        <ele>925.640643</ele>
        <time>2021-11-15T12:48:21.481Z</time>
      </trkpt>
      <trkpt lat="38.34522" lon="38.10404">
        <ele>927.319571</ele>
        <time>2021-11-15T12:48:50.029Z</time>
      </trkpt>
      <trkpt lat="38.34521" lon="38.10383">
        <ele>927.643577</ele>
        <time>2021-11-15T12:48:55.664Z</time>
      </trkpt>
      <trkpt lat="38.34521" lon="38.10364">
        <ele>927.923698</ele>
        <time>2021-11-15T12:49:00.169Z</time>
      </trkpt>
      <trkpt lat="38.34518" lon="38.10335">
        <ele>928.366952</ele>
        <time>2021-11-15T12:49:07.637Z</time>
      </trkpt>
      <trkpt lat="38.34516" lon="38.10319">
        <ele>928.587922</ele>
        <time>2021-11-15T12:49:11.588Z</time>
      </trkpt>
      <trkpt lat="38.34515" lon="38.10306">
        <ele>928.682645</ele>
        <time>2021-11-15T12:49:14.856Z</time>
      </trkpt>
      <trkpt lat="38.3451" lon="38.10207">
        <ele>929.4212</ele>
        <time>2021-11-15T12:49:38.355Z</time>
      </trkpt>
      <trkpt lat="38.34505" lon="38.09924">
        <ele>930.263072</ele>
        <time>2021-11-15T12:50:29.524Z</time>
      </trkpt>
      <trkpt lat="38.34504" lon="38.09858">
        <ele>930.281218</ele>
        <time>2021-11-15T12:50:41.631Z</time>
      </trkpt>
      <trkpt lat="38.34506" lon="38.09843">
        <ele>930.320137</ele>
        <time>2021-11-15T12:50:44.016Z</time>
      </trkpt>
      <trkpt lat="38.34567" lon="38.09387">
        <ele>931.341866</ele>
        <time>2021-11-15T12:52:14.477Z</time>
      </trkpt>
      <trkpt lat="38.3457" lon="38.09156">
        <ele>930.036506</ele>
        <time>2021-11-15T12:52:51.981Z</time>
      </trkpt>
      <trkpt lat="38.34581" lon="38.09097">
        <ele>929.259858</ele>
        <time>2021-11-15T12:53:00.898Z</time>
      </trkpt>
      <trkpt lat="38.34614" lon="38.08998">
        <ele>927.896313</ele>
        <time>2021-11-15T12:53:16.631Z</time>
      </trkpt>
      <trkpt lat="38.34616" lon="38.08991">
        <ele>927.810215</ele>
        <time>2021-11-15T12:53:17.476Z</time>
      </trkpt>
      <trkpt lat="38.34619" lon="38.08982">
        <ele>927.685784</ele>
        <time>2021-11-15T12:53:18.906Z</time>
      </trkpt>
      <trkpt lat="38.34652" lon="38.08875">
        <ele>927.268718</ele>
        <time>2021-11-15T12:53:36.831Z</time>
      </trkpt>
      <trkpt lat="38.34698" lon="38.08746">
        <ele>927.067214</ele>
        <time>2021-11-15T12:54:04.431Z</time>
      </trkpt>
      <trkpt lat="38.34712" lon="38.08713">
        <ele>927.309582</ele>
        <time>2021-11-15T12:54:12.668Z</time>
      </trkpt>
      <trkpt lat="38.34713" lon="38.08701">
        <ele>927.384127</ele>
        <time>2021-11-15T12:54:15.398Z</time>
      </trkpt>
      <trkpt lat="38.34739" lon="38.08641">
        <ele>927.828797</ele>
        <time>2021-11-15T12:54:30.374Z</time>
      </trkpt>
      <trkpt lat="38.34751" lon="38.08625">
        <ele>927.968408</ele>
        <time>2021-11-15T12:54:35.014Z</time>
      </trkpt>
      <trkpt lat="38.34755" lon="38.08615">
        <ele>928.038688</ele>
        <time>2021-11-15T12:54:37.627Z</time>
      </trkpt>
      <trkpt lat="38.3476" lon="38.08612">
        <ele>928.082361</ele>
        <time>2021-11-15T12:54:38.898Z</time>
      </trkpt>
      <trkpt lat="38.34822" lon="38.0849">
        <ele>928.507472</ele>
        <time>2021-11-15T12:55:07.454Z</time>
      </trkpt>
      <trkpt lat="38.34908" lon="38.08362">
        <ele>928.387056</ele>
        <time>2021-11-15T12:55:37.563Z</time>
      </trkpt>
      <trkpt lat="38.35039" lon="38.0814">
        <ele>923.780905</ele>
        <time>2021-11-15T12:56:21.073Z</time>
      </trkpt>
      <trkpt lat="38.35043" lon="38.08128">
        <ele>923.248792</ele>
        <time>2021-11-15T12:56:22.640Z</time>
      </trkpt>
      <trkpt lat="38.35039" lon="38.08103">
        <ele>922.181845</ele>
        <time>2021-11-15T12:56:25.926Z</time>
      </trkpt>
      <trkpt lat="38.35005" lon="38.08055">
        <ele>919.504768</ele>
        <time>2021-11-15T12:56:33.656Z</time>
      </trkpt>
      <trkpt lat="38.34956" lon="38.07899">
        <ele>906.254037</ele>
        <time>2021-11-15T12:56:52.465Z</time>
      </trkpt>
      <trkpt lat="38.34934" lon="38.07867">
        <ele>902.168284</ele>
        <time>2021-11-15T12:56:57.039Z</time>
      </trkpt>
      <trkpt lat="38.34929" lon="38.07793">
        <ele>895.066343</ele>
        <time>2021-11-15T12:57:04.918Z</time>
      </trkpt>
      <trkpt lat="38.34887" lon="38.07705">
        <ele>884.37037</ele>
        <time>2021-11-15T12:57:15.876Z</time>
      </trkpt>
      <trkpt lat="38.34866" lon="38.07638">
        <ele>876.881951</ele>
        <time>2021-11-15T12:57:23.637Z</time>
      </trkpt>
      <trkpt lat="38.34846" lon="38.07605">
        <ele>872.465719</ele>
        <time>2021-11-15T12:57:28.300Z</time>
      </trkpt>
      <trkpt lat="38.3483" lon="38.07545">
        <ele>869.037957</ele>
        <time>2021-11-15T12:57:35.432Z</time>
      </trkpt>
      <trkpt lat="38.3482" lon="38.0753">
        <ele>868.158728</ele>
        <time>2021-11-15T12:57:37.726Z</time>
      </trkpt>
      <trkpt lat="38.34781" lon="38.07518">
        <ele>865.861378</ele>
        <time>2021-11-15T12:57:43.935Z</time>
      </trkpt>
      <trkpt lat="38.34747" lon="38.07493">
        <ele>863.636179</ele>
        <time>2021-11-15T12:57:50.391Z</time>
      </trkpt>
      <trkpt lat="38.34692" lon="38.07477">
        <ele>861.260418</ele>
        <time>2021-11-15T12:58:00.864Z</time>
      </trkpt>
      <trkpt lat="38.34639" lon="38.07439">
        <ele>861.611321</ele>
        <time>2021-11-15T12:58:14.557Z</time>
      </trkpt>
      <trkpt lat="38.34623" lon="38.07414">
        <ele>861.757984</ele>
        <time>2021-11-15T12:58:20.755Z</time>
      </trkpt>
      <trkpt lat="38.34592" lon="38.07339">
        <ele>862.142493</ele>
        <time>2021-11-15T12:58:39.923Z</time>
      </trkpt>
      <trkpt lat="38.34575" lon="38.07312">
        <ele>862.805246</ele>
        <time>2021-11-15T12:58:49.346Z</time>
      </trkpt>
      <trkpt lat="38.34561" lon="38.07257">
        <ele>864.814839</ele>
        <time>2021-11-15T12:59:06.319Z</time>
      </trkpt>
      <trkpt lat="38.34555" lon="38.07251">
        <ele>865.147445</ele>
        <time>2021-11-15T12:59:09.244Z</time>
      </trkpt>
      <trkpt lat="38.34522" lon="38.07265">
        <ele>866.694041</ele>
        <time>2021-11-15T12:59:23.853Z</time>
      </trkpt>
      <trkpt lat="38.34501" lon="38.07263">
        <ele>867.604926</ele>
        <time>2021-11-15T12:59:32.821Z</time>
      </trkpt>
      <trkpt lat="38.34426" lon="38.07231">
        <ele>871.083698</ele>
        <time>2021-11-15T13:00:08.881Z</time>
      </trkpt>
      <trkpt lat="38.34372" lon="38.07218">
        <ele>873.422351</ele>
        <time>2021-11-15T13:00:34.992Z</time>
      </trkpt>
      <trkpt lat="38.34351" lon="38.07202">
        <ele>874.476678</ele>
        <time>2021-11-15T13:00:45.778Z</time>
      </trkpt>
      <trkpt lat="38.3432" lon="38.07195">
        <ele>875.795371</ele>
        <time>2021-11-15T13:00:58.101Z</time>
      </trkpt>
      <trkpt lat="38.34316" lon="38.07159">
        <ele>876.971111</ele>
        <time>2021-11-15T13:01:07.783Z</time>
      </trkpt>
      <trkpt lat="38.34298" lon="38.07143">
        <ele>877.800766</ele>
        <time>2021-11-15T13:01:14.739Z</time>
      </trkpt>
      <trkpt lat="38.34295" lon="38.07107">
        <ele>877.537387</ele>
        <time>2021-11-15T13:01:22.459Z</time>
      </trkpt>
      <trkpt lat="38.34269" lon="38.07097">
        <ele>877.280954</ele>
        <time>2021-11-15T13:01:29.022Z</time>
      </trkpt>
      <trkpt lat="38.34226" lon="38.07056">
        <ele>876.785385</ele>
        <time>2021-11-15T13:01:39.909Z</time>
      </trkpt>
      <trkpt lat="38.3421" lon="38.07005">
        <ele>876.390224</ele>
        <time>2021-11-15T13:01:47.417Z</time>
      </trkpt>
      <trkpt lat="38.34187" lon="38.06906">
        <ele>875.317403</ele>
        <time>2021-11-15T13:02:01.220Z</time>
      </trkpt>
      <trkpt lat="38.34167" lon="38.06903">
        <ele>875.012189</ele>
        <time>2021-11-15T13:02:04.965Z</time>
      </trkpt>
      <trkpt lat="38.34134" lon="38.06875">
        <ele>874.415446</ele>
        <time>2021-11-15T13:02:12.500Z</time>
      </trkpt>
      <trkpt lat="38.34122" lon="38.06844">
        <ele>874.00778</ele>
        <time>2021-11-15T13:02:17.989Z</time>
      </trkpt>
      <trkpt lat="38.34113" lon="38.06807">
        <ele>873.55503</ele>
        <time>2021-11-15T13:02:24.669Z</time>
      </trkpt>
      <trkpt lat="38.341" lon="38.06797">
        <ele>873.529056</ele>
        <time>2021-11-15T13:02:28.213Z</time>
      </trkpt>
      <trkpt lat="38.34088" lon="38.06796">
        <ele>873.680328</ele>
        <time>2021-11-15T13:02:31.538Z</time>
      </trkpt>
      <trkpt lat="38.34065" lon="38.06818">
        <ele>874.029916</ele>
        <time>2021-11-15T13:02:39.911Z</time>
      </trkpt>
      <trkpt lat="38.34051" lon="38.0682">
        <ele>874.189883</ele>
        <time>2021-11-15T13:02:44.183Z</time>
      </trkpt>
      <trkpt lat="38.3404" lon="38.06803">
        <ele>874.401973</ele>
        <time>2021-11-15T13:02:49.275Z</time>
      </trkpt>
      <trkpt lat="38.34006" lon="38.06796">
        <ele>874.812864</ele>
        <time>2021-11-15T13:03:00.381Z</time>
      </trkpt>
      <trkpt lat="38.33947" lon="38.06745">
        <ele>875.447523</ele>
        <time>2021-11-15T13:03:21.468Z</time>
      </trkpt>
      <trkpt lat="38.33933" lon="38.06722">
        <ele>874.914779</ele>
        <time>2021-11-15T13:03:27.293Z</time>
      </trkpt>
      <trkpt lat="38.33924" lon="38.0667">
        <ele>873.951573</ele>
        <time>2021-11-15T13:03:35.766Z</time>
      </trkpt>
      <trkpt lat="38.33921" lon="38.0662">
        <ele>873.022832</ele>
        <time>2021-11-15T13:03:43.415Z</time>
      </trkpt>
      <trkpt lat="38.33913" lon="38.06608">
        <ele>872.740452</ele>
        <time>2021-11-15T13:03:45.526Z</time>
      </trkpt>
      <trkpt lat="38.33866" lon="38.06577">
        <ele>871.506337</ele>
        <time>2021-11-15T13:03:53.896Z</time>
      </trkpt>
      <trkpt lat="38.33853" lon="38.06555">
        <ele>870.121448</ele>
        <time>2021-11-15T13:03:57.154Z</time>
      </trkpt>
      <trkpt lat="38.33832" lon="38.06493">
        <ele>866.057501</ele>
        <time>2021-11-15T13:04:05.080Z</time>
      </trkpt>
      <trkpt lat="38.33822" lon="38.06484">
        <ele>865.117659</ele>
        <time>2021-11-15T13:04:06.939Z</time>
      </trkpt>
      <trkpt lat="38.33804" lon="38.06483">
        <ele>863.795887</ele>
        <time>2021-11-15T13:04:09.449Z</time>
      </trkpt>
      <trkpt lat="38.3382" lon="38.06459">
        <ele>861.920671</ele>
        <time>2021-11-15T13:04:13.001Z</time>
      </trkpt>
      <trkpt lat="38.33873" lon="38.06383">
        <ele>856.684681</ele>
        <time>2021-11-15T13:04:24.601Z</time>
      </trkpt>
      <trkpt lat="38.33873" lon="38.06369">
        <ele>856.235704</ele>
        <time>2021-11-15T13:04:26.135Z</time>
      </trkpt>
      <trkpt lat="38.33939" lon="38.06308">
        <ele>852.913767</ele>
        <time>2021-11-15T13:04:38.168Z</time>
      </trkpt>
      <trkpt lat="38.33994" lon="38.06267">
        <ele>850.282007</ele>
        <time>2021-11-15T13:04:49.653Z</time>
      </trkpt>
      <trkpt lat="38.34139" lon="38.06141">
        <ele>857.98278</ele>
        <time>2021-11-15T13:06:03.375Z</time>
      </trkpt>
      <trkpt lat="38.34157" lon="38.06126">
        <ele>859.329077</ele>
        <time>2021-11-15T13:06:15.242Z</time>
      </trkpt>
      <trkpt lat="38.34321" lon="38.0598">
        <ele>872.289779</ele>
        <time>2021-11-15T13:07:53.917Z</time>
      </trkpt>
      <trkpt lat="38.34402" lon="38.059">
        <ele>878.268802</ele>
        <time>2021-11-15T13:08:41.612Z</time>
      </trkpt>
      <trkpt lat="38.34479" lon="38.05813">
        <ele>882.007706</ele>
        <time>2021-11-15T13:09:23.898Z</time>
      </trkpt>
      <trkpt lat="38.34527" lon="38.05746">
        <ele>883.554511</ele>
        <time>2021-11-15T13:09:46.055Z</time>
      </trkpt>
      <trkpt lat="38.34652" lon="38.05543">
        <ele>883.106204</ele>
        <time>2021-11-15T13:10:24.424Z</time>
      </trkpt>
      <trkpt lat="38.34706" lon="38.05454">
        <ele>883.639072</ele>
        <time>2021-11-15T13:10:42.317Z</time>
      </trkpt>
      <trkpt lat="38.34793" lon="38.05312">
        <ele>886.002769</ele>
        <time>2021-11-15T13:11:25.048Z</time>
      </trkpt>
      <trkpt lat="38.34957" lon="38.04999">
        <ele>898.614603</ele>
        <time>2021-11-15T13:13:24.063Z</time>
      </trkpt>
      <trkpt lat="38.35097" lon="38.04732">
        <ele>910.936512</ele>
        <time>2021-11-15T13:15:08.401Z</time>
      </trkpt>
      <trkpt lat="38.35148" lon="38.04644">
        <ele>915.698628</ele>
        <time>2021-11-15T13:15:47.650Z</time>
      </trkpt>
      <trkpt lat="38.35178" lon="38.04593">
        <ele>918.452635</ele>
        <time>2021-11-15T13:16:10.189Z</time>
      </trkpt>
      <trkpt lat="38.35184" lon="38.04582">
        <ele>919.019187</ele>
        <time>2021-11-15T13:16:15.479Z</time>
      </trkpt>
      <trkpt lat="38.35236" lon="38.04476">
        <ele>923.281046</ele>
        <time>2021-11-15T13:16:56.731Z</time>
      </trkpt>
      <trkpt lat="38.35245" lon="38.04454">
        <ele>924.107164</ele>
        <time>2021-11-15T13:17:04.853Z</time>
      </trkpt>
      <trkpt lat="38.35244" lon="38.04438">
        <ele>924.678034</ele>
        <time>2021-11-15T13:17:09.556Z</time>
      </trkpt>
      <trkpt lat="38.35236" lon="38.04424">
        <ele>925.2443</ele>
        <time>2021-11-15T13:17:15.157Z</time>
      </trkpt>
      <trkpt lat="38.35216" lon="38.04412">
        <ele>926.218253</ele>
        <time>2021-11-15T13:17:22.681Z</time>
      </trkpt>
      <trkpt lat="38.35196" lon="38.04391">
        <ele>927.026643</ele>
        <time>2021-11-15T13:17:31.158Z</time>
      </trkpt>
      <trkpt lat="38.35102" lon="38.04178">
        <ele>930.172642</ele>
        <time>2021-11-15T13:18:24.973Z</time>
      </trkpt>
      <trkpt lat="38.34763" lon="38.03378">
        <ele>938.050052</ele>
        <time>2021-11-15T13:21:34.783Z</time>
      </trkpt>
      <trkpt lat="38.347" lon="38.03221">
        <ele>939.088473</ele>
        <time>2021-11-15T13:22:11.737Z</time>
      </trkpt>
      <trkpt lat="38.34649" lon="38.03093">
        <ele>937.803537</ele>
        <time>2021-11-15T13:22:34.132Z</time>
      </trkpt>
      <trkpt lat="38.34571" lon="38.02899">
        <ele>934.726107</ele>
        <time>2021-11-15T13:23:02.676Z</time>
      </trkpt>
      <trkpt lat="38.3453" lon="38.02776">
        <ele>932.77421</ele>
        <time>2021-11-15T13:23:21.449Z</time>
      </trkpt>
      <trkpt lat="38.345" lon="38.02666">
        <ele>933.35966</ele>
        <time>2021-11-15T13:23:42.568Z</time>
      </trkpt>
      <trkpt lat="38.34471" lon="38.02468">
        <ele>935.502163</ele>
        <time>2021-11-15T13:24:28.763Z</time>
      </trkpt>
      <trkpt lat="38.34466" lon="38.0238">
        <ele>937.018963</ele>
        <time>2021-11-15T13:24:50.883Z</time>
      </trkpt>
      <trkpt lat="38.34462" lon="38.0194">
        <ele>945.511807</ele>
        <time>2021-11-15T13:26:42.184Z</time>
      </trkpt>
      <trkpt lat="38.34458" lon="38.01009">
        <ele>964.030015</ele>
        <time>2021-11-15T13:30:37.997Z</time>
      </trkpt>
      <trkpt lat="38.34456" lon="38.00756">
        <ele>969.513194</ele>
        <time>2021-11-15T13:31:44.857Z</time>
      </trkpt>
      <trkpt lat="38.34455" lon="38.00579">
        <ele>973.026137</ele>
        <time>2021-11-15T13:32:30.234Z</time>
      </trkpt>
      <trkpt lat="38.34455" lon="38.00318">
        <ele>977.7499</ele>
        <time>2021-11-15T13:33:34.048Z</time>
      </trkpt>
      <trkpt lat="38.34454" lon="38.00111">
        <ele>981.561395</ele>
        <time>2021-11-15T13:34:25.087Z</time>
      </trkpt>
      <trkpt lat="38.34454" lon="37.99871">
        <ele>986.159694</ele>
        <time>2021-11-15T13:35:25.799Z</time>
      </trkpt>
      <trkpt lat="38.34453" lon="37.99715">
        <ele>989.05875</ele>
        <time>2021-11-15T13:36:04.603Z</time>
      </trkpt>
      <trkpt lat="38.34451" lon="37.99542">
        <ele>992.244787</ele>
        <time>2021-11-15T13:36:47.029Z</time>
      </trkpt>
      <trkpt lat="38.3445" lon="37.99386">
        <ele>995.195335</ele>
        <time>2021-11-15T13:37:26.076Z</time>
      </trkpt>
      <trkpt lat="38.34449" lon="37.99276">
        <ele>997.413761</ele>
        <time>2021-11-15T13:37:54.484Z</time>
      </trkpt>
      <trkpt lat="38.34447" lon="37.98893">
        <ele>1005.332588</ele>
        <time>2021-11-15T13:39:33.082Z</time>
      </trkpt>
      <trkpt lat="38.34446" lon="37.98489">
        <ele>1014.523609</ele>
        <time>2021-11-15T13:41:18.819Z</time>
      </trkpt>
      <trkpt lat="38.34446" lon="37.9847">
        <ele>1014.980734</ele>
        <time>2021-11-15T13:41:24.344Z</time>
      </trkpt>
      <trkpt lat="38.34448" lon="37.98236">
        <ele>1021.785365</ele>
        <time>2021-11-15T13:42:33.420Z</time>
      </trkpt>
      <trkpt lat="38.34446" lon="37.97999">
        <ele>1028.760861</ele>
        <time>2021-11-15T13:43:43.287Z</time>
      </trkpt>
      <trkpt lat="38.34446" lon="37.97978">
        <ele>1029.354136</ele>
        <time>2021-11-15T13:43:49.070Z</time>
      </trkpt>
      <trkpt lat="38.34446" lon="37.9772">
        <ele>1036.214364</ele>
        <time>2021-11-15T13:45:01.702Z</time>
      </trkpt>
      <trkpt lat="38.34447" lon="37.97559">
        <ele>1040.217271</ele>
        <time>2021-11-15T13:45:45.213Z</time>
      </trkpt>
      <trkpt lat="38.34447" lon="37.97534">
        <ele>1040.856564</ele>
        <time>2021-11-15T13:45:52.217Z</time>
      </trkpt>
      <trkpt lat="38.34447" lon="37.97523">
        <ele>1041.118781</ele>
        <time>2021-11-15T13:45:55.084Z</time>
      </trkpt>
      <trkpt lat="38.34448" lon="37.97475">
        <ele>1042.381448</ele>
        <time>2021-11-15T13:46:08.304Z</time>
      </trkpt>
      <trkpt lat="38.3445" lon="37.97418">
        <ele>1043.910923</ele>
        <time>2021-11-15T13:46:24.438Z</time>
      </trkpt>
      <trkpt lat="38.34452" lon="37.97305">
        <ele>1046.911406</ele>
        <time>2021-11-15T13:46:56.156Z</time>
      </trkpt>
      <trkpt lat="38.34452" lon="37.97224">
        <ele>1049.161616</ele>
        <time>2021-11-15T13:47:19.751Z</time>
      </trkpt>
      <trkpt lat="38.3445" lon="37.97128">
        <ele>1051.849629</ele>
        <time>2021-11-15T13:47:47.760Z</time>
      </trkpt>
      <trkpt lat="38.34449" lon="37.97107">
        <ele>1052.419028</ele>
        <time>2021-11-15T13:47:53.715Z</time>
      </trkpt>
      <trkpt lat="38.34451" lon="37.97097">
        <ele>1052.72911</ele>
        <time>2021-11-15T13:47:56.946Z</time>
      </trkpt>
      <trkpt lat="38.3448" lon="37.97013">
        <ele>1054.978105</ele>
        <time>2021-11-15T13:48:22.123Z</time>
      </trkpt>
      <trkpt lat="38.34501" lon="37.96969">
        <ele>1056.109536</ele>
        <time>2021-11-15T13:48:35.788Z</time>
      </trkpt>
      <trkpt lat="38.34504" lon="37.96955">
        <ele>1056.428267</ele>
        <time>2021-11-15T13:48:39.412Z</time>
      </trkpt>
      <trkpt lat="38.34512" lon="37.96925">
        <ele>1057.123554</ele>
        <time>2021-11-15T13:48:47.865Z</time>
      </trkpt>
      <trkpt lat="38.34536" lon="37.96803">
        <ele>1059.845489</ele>
        <time>2021-11-15T13:49:19.275Z</time>
      </trkpt>
      <trkpt lat="38.34536" lon="37.96803">
        <ele>1059.845489</ele>
        <time>2021-11-15T13:49:19.390Z</time>
      </trkpt>
      <trkpt lat="38.34547" lon="37.96745">
        <ele>1061.094345</ele>
        <time>2021-11-15T13:49:33.171Z</time>
      </trkpt>
      <trkpt lat="38.34552" lon="37.96718">
        <ele>1061.664851</ele>
        <time>2021-11-15T13:49:39.733Z</time>
      </trkpt>
      <trkpt lat="38.34553" lon="37.96713">
        <ele>1061.776547</ele>
        <time>2021-11-15T13:49:41.484Z</time>
      </trkpt>
      <trkpt lat="38.34561" lon="37.96697">
        <ele>1062.168017</ele>
        <time>2021-11-15T13:49:46.157Z</time>
      </trkpt>
      <trkpt lat="38.34565" lon="37.96691">
        <ele>1062.317025</ele>
        <time>2021-11-15T13:49:48.049Z</time>
      </trkpt>
      <trkpt lat="38.34578" lon="37.96683">
        <ele>1062.696749</ele>
        <time>2021-11-15T13:49:52.700Z</time>
      </trkpt>
      <trkpt lat="38.34616" lon="37.96676">
        <ele>1063.899922</ele>
        <time>2021-11-15T13:50:06.728Z</time>
      </trkpt>
      <trkpt lat="38.34661" lon="37.96676">
        <ele>1066.601957</ele>
        <time>2021-11-15T13:50:23.219Z</time>
      </trkpt>
      <trkpt lat="38.34709" lon="37.96675">
        <ele>1069.522607</ele>
        <time>2021-11-15T13:50:45.577Z</time>
      </trkpt>
      <trkpt lat="38.34788" lon="37.96662">
        <ele>1074.385691</ele>
        <time>2021-11-15T13:51:25.909Z</time>
      </trkpt>
      <trkpt lat="38.34815" lon="37.96648">
        <ele>1076.890373</ele>
        <time>2021-11-15T13:51:43.180Z</time>
      </trkpt>
      <trkpt lat="38.34827" lon="37.96642">
        <ele>1077.990755</ele>
        <time>2021-11-15T13:51:50.991Z</time>
      </trkpt>
      <trkpt lat="38.34847" lon="37.96625">
        <ele>1080.198952</ele>
        <time>2021-11-15T13:52:05.878Z</time>
      </trkpt>
      <trkpt lat="38.34864" lon="37.96601">
        <ele>1082.452887</ele>
        <time>2021-11-15T13:52:22.306Z</time>
      </trkpt>
      <trkpt lat="38.34877" lon="37.96574">
        <ele>1084.721142</ele>
        <time>2021-11-15T13:52:37.425Z</time>
      </trkpt>
      <trkpt lat="38.34883" lon="37.96532">
        <ele>1087.714206</ele>
        <time>2021-11-15T13:52:57.206Z</time>
      </trkpt>
      <trkpt lat="38.34884" lon="37.96517">
        <ele>1088.790869</ele>
        <time>2021-11-15T13:53:05.444Z</time>
      </trkpt>
      <trkpt lat="38.34886" lon="37.96437">
        <ele>1093.22721</ele>
        <time>2021-11-15T13:53:37.026Z</time>
      </trkpt>
      <trkpt lat="38.34893" lon="37.96402">
        <ele>1094.97407</ele>
        <time>2021-11-15T13:53:50.697Z</time>
      </trkpt>
      <trkpt lat="38.34896" lon="37.96391">
        <ele>1095.542213</ele>
        <time>2021-11-15T13:53:54.898Z</time>
      </trkpt>
      <trkpt lat="38.34902" lon="37.9638">
        <ele>1096.228887</ele>
        <time>2021-11-15T13:54:01.132Z</time>
      </trkpt>
      <trkpt lat="38.34907" lon="37.96369">
        <ele>1096.827285</ele>
        <time>2021-11-15T13:54:05.078Z</time>
      </trkpt>
      <trkpt lat="38.34918" lon="37.96363">
        <ele>1097.566309</ele>
        <time>2021-11-15T13:54:09.718Z</time>
      </trkpt>
      <trkpt lat="38.34924" lon="37.96359">
        <ele>1097.996725</ele>
        <time>2021-11-15T13:54:13.816Z</time>
      </trkpt>
      <trkpt lat="38.35108" lon="37.9636">
        <ele>1108.344664</ele>
        <time>2021-11-15T13:55:29.976Z</time>
      </trkpt>
      <trkpt lat="38.35163" lon="37.96337">
        <ele>1111.41379</ele>
        <time>2021-11-15T13:55:55.628Z</time>
      </trkpt>
      <trkpt lat="38.35191" lon="37.96307">
        <ele>1114.249484</ele>
        <time>2021-11-15T13:56:13.703Z</time>
      </trkpt>
      <trkpt lat="38.35196" lon="37.96302">
        <ele>1114.726343</ele>
        <time>2021-11-15T13:56:18.088Z</time>
      </trkpt>
      <trkpt lat="38.35255" lon="37.96225">
        <ele>1121.226938</ele>
        <time>2021-11-15T13:57:04.089Z</time>
      </trkpt>
      <trkpt lat="38.35279" lon="37.96203">
        <ele>1123.522702</ele>
        <time>2021-11-15T13:57:20.983Z</time>
      </trkpt>
      <trkpt lat="38.35313" lon="37.96183">
        <ele>1126.380531</ele>
        <time>2021-11-15T13:57:41.877Z</time>
      </trkpt>
      <trkpt lat="38.3533" lon="37.96173">
        <ele>1127.766871</ele>
        <time>2021-11-15T13:57:51.750Z</time>
      </trkpt>
      <trkpt lat="38.35392" lon="37.96148">
        <ele>1132.541242</ele>
        <time>2021-11-15T13:58:24.458Z</time>
      </trkpt>
      <trkpt lat="38.35421" lon="37.96128">
        <ele>1134.967133</ele>
        <time>2021-11-15T13:58:41.329Z</time>
      </trkpt>
      <trkpt lat="38.3548" lon="37.96067">
        <ele>1140.807708</ele>
        <time>2021-11-15T13:59:19.533Z</time>
      </trkpt>
      <trkpt lat="38.35497" lon="37.96058">
        <ele>1142.328283</ele>
        <time>2021-11-15T13:59:29.295Z</time>
      </trkpt>
      <trkpt lat="38.35515" lon="37.96057">
        <ele>1143.85036</ele>
        <time>2021-11-15T13:59:38.287Z</time>
      </trkpt>
      <trkpt lat="38.35562" lon="37.96073">
        <ele>1147.87495</ele>
        <time>2021-11-15T14:00:07.230Z</time>
      </trkpt>
      <trkpt lat="38.35592" lon="37.96074">
        <ele>1150.431368</ele>
        <time>2021-11-15T14:00:24.033Z</time>
      </trkpt>
      <trkpt lat="38.35596" lon="37.96073">
        <ele>1150.729902</ele>
        <time>2021-11-15T14:00:27.153Z</time>
      </trkpt>
      <trkpt lat="38.35661" lon="37.96045">
        <ele>1156.557481</ele>
        <time>2021-11-15T14:01:06.071Z</time>
      </trkpt>
      <trkpt lat="38.35672" lon="37.96038">
        <ele>1157.560993</ele>
        <time>2021-11-15T14:01:14.247Z</time>
      </trkpt>
      <trkpt lat="38.35682" lon="37.96031">
        <ele>1158.564505</ele>
        <time>2021-11-15T14:01:20.665Z</time>
      </trkpt>
      <trkpt lat="38.35702" lon="37.96006">
        <ele>1160.944638</ele>
        <time>2021-11-15T14:01:36.995Z</time>
      </trkpt>
      <trkpt lat="38.35771" lon="37.95883">
        <ele>1170.548885</ele>
        <time>2021-11-15T14:02:43.095Z</time>
      </trkpt>
      <trkpt lat="38.35823" lon="37.95764">
        <ele>1177.470055</ele>
        <time>2021-11-15T14:03:32.515Z</time>
      </trkpt>
      <trkpt lat="38.35864" lon="37.95691">
        <ele>1181.961436</ele>
        <time>2021-11-15T14:04:05.099Z</time>
      </trkpt>
      <trkpt lat="38.35914" lon="37.95615">
        <ele>1186.856329</ele>
        <time>2021-11-15T14:04:41.405Z</time>
      </trkpt>
      <trkpt lat="38.35942" lon="37.9555">
        <ele>1190.497134</ele>
        <time>2021-11-15T14:05:08.838Z</time>
      </trkpt>
      <trkpt lat="38.3596" lon="37.95521">
        <ele>1192.463914</ele>
        <time>2021-11-15T14:05:22.982Z</time>
      </trkpt>
      <trkpt lat="38.36012" lon="37.95475">
        <ele>1197.541716</ele>
        <time>2021-11-15T14:05:55.345Z</time>
      </trkpt>
      <trkpt lat="38.36043" lon="37.95442">
        <ele>1200.792829</ele>
        <time>2021-11-15T14:06:17.104Z</time>
      </trkpt>
      <trkpt lat="38.36281" lon="37.95253">
        <ele>1226.021411</ele>
        <time>2021-11-15T14:09:03.907Z</time>
      </trkpt>
      <trkpt lat="38.36331" lon="37.95219">
        <ele>1231.280312</ele>
        <time>2021-11-15T14:09:38.046Z</time>
      </trkpt>
      <trkpt lat="38.36406" lon="37.95186">
        <ele>1238.70452</ele>
        <time>2021-11-15T14:10:25.777Z</time>
      </trkpt>
      <trkpt lat="38.36601" lon="37.95133">
        <ele>1256.400778</ele>
        <time>2021-11-15T14:12:21.076Z</time>
      </trkpt>
      <trkpt lat="38.36642" lon="37.95131">
        <ele>1259.734267</ele>
        <time>2021-11-15T14:12:44.257Z</time>
      </trkpt>
      <trkpt lat="38.36844" lon="37.95171">
        <ele>1275.284645</ele>
        <time>2021-11-15T14:14:33.700Z</time>
      </trkpt>
      <trkpt lat="38.36958" lon="37.95203">
        <ele>1283.003182</ele>
        <time>2021-11-15T14:15:29.609Z</time>
      </trkpt>
      <trkpt lat="38.36992" lon="37.95216">
        <ele>1284.604504</ele>
        <time>2021-11-15T14:15:44.690Z</time>
      </trkpt>
      <trkpt lat="38.37129" lon="37.95278">
        <ele>1291.123145</ele>
        <time>2021-11-15T14:16:40.560Z</time>
      </trkpt>
      <trkpt lat="38.37192" lon="37.95279">
        <ele>1293.845922</ele>
        <time>2021-11-15T14:17:03.304Z</time>
      </trkpt>
      <trkpt lat="38.37227" lon="37.95264">
        <ele>1295.411727</ele>
        <time>2021-11-15T14:17:17.257Z</time>
      </trkpt>
      <trkpt lat="38.37283" lon="37.95219">
        <ele>1298.249645</ele>
        <time>2021-11-15T14:17:44.739Z</time>
      </trkpt>
      <trkpt lat="38.37312" lon="37.95176">
        <ele>1300.876804</ele>
        <time>2021-11-15T14:18:04.834Z</time>
      </trkpt>
      <trkpt lat="38.37327" lon="37.95139">
        <ele>1302.830827</ele>
        <time>2021-11-15T14:18:20.228Z</time>
      </trkpt>
      <trkpt lat="38.37338" lon="37.95096">
        <ele>1304.940524</ele>
        <time>2021-11-15T14:18:37.109Z</time>
      </trkpt>
      <trkpt lat="38.37343" lon="37.95038">
        <ele>1307.637886</ele>
        <time>2021-11-15T14:18:58.693Z</time>
      </trkpt>
      <trkpt lat="38.37336" lon="37.94996">
        <ele>1309.530602</ele>
        <time>2021-11-15T14:19:14.348Z</time>
      </trkpt>
      <trkpt lat="38.37324" lon="37.94957">
        <ele>1311.19408</ele>
        <time>2021-11-15T14:19:29.643Z</time>
      </trkpt>
      <trkpt lat="38.37298" lon="37.94902">
        <ele>1313.735215</ele>
        <time>2021-11-15T14:19:52.233Z</time>
      </trkpt>
      <trkpt lat="38.36865" lon="37.94235">
        <ele>1342.380671</ele>
        <time>2021-11-15T14:24:15.158Z</time>
      </trkpt>
      <trkpt lat="38.36799" lon="37.94157">
        <ele>1345.901545</ele>
        <time>2021-11-15T14:24:49.845Z</time>
      </trkpt>
      <trkpt lat="38.36752" lon="37.94122">
        <ele>1347.769079</ele>
        <time>2021-11-15T14:25:10.061Z</time>
      </trkpt>
      <trkpt lat="38.36322" lon="37.93832">
        <ele>1358.707782</ele>
        <time>2021-11-15T14:27:44.544Z</time>
      </trkpt>
      <trkpt lat="38.36287" lon="37.93779">
        <ele>1359.204049</ele>
        <time>2021-11-15T14:27:55.632Z</time>
      </trkpt>
      <trkpt lat="38.36254" lon="37.93706">
        <ele>1358.899258</ele>
        <time>2021-11-15T14:28:08.192Z</time>
      </trkpt>
      <trkpt lat="38.36243" lon="37.93634">
        <ele>1358.629773</ele>
        <time>2021-11-15T14:28:19.043Z</time>
      </trkpt>
      <trkpt lat="38.36243" lon="37.93601">
        <ele>1358.512717</ele>
        <time>2021-11-15T14:28:23.955Z</time>
      </trkpt>
      <trkpt lat="38.36248" lon="37.93558">
        <ele>1359.409269</ele>
        <time>2021-11-15T14:28:31.518Z</time>
      </trkpt>
      <trkpt lat="38.36261" lon="37.93507">
        <ele>1361.246747</ele>
        <time>2021-11-15T14:28:47.023Z</time>
      </trkpt>
      <trkpt lat="38.36283" lon="37.93451">
        <ele>1363.376546</ele>
        <time>2021-11-15T14:29:07.300Z</time>
      </trkpt>
      <trkpt lat="38.3631" lon="37.93407">
        <ele>1365.304402</ele>
        <time>2021-11-15T14:29:28.133Z</time>
      </trkpt>
      <trkpt lat="38.36335" lon="37.93368">
        <ele>1367.440378</ele>
        <time>2021-11-15T14:29:48.386Z</time>
      </trkpt>
      <trkpt lat="38.3634" lon="37.93359">
        <ele>1368.060767</ele>
        <time>2021-11-15T14:29:54.611Z</time>
      </trkpt>
      <trkpt lat="38.36501" lon="37.93116">
        <ele>1383.477179</ele>
        <time>2021-11-15T14:31:57.872Z</time>
      </trkpt>
      <trkpt lat="38.36535" lon="37.93072">
        <ele>1385.885698</ele>
        <time>2021-11-15T14:32:15.179Z</time>
      </trkpt>
      <trkpt lat="38.36565" lon="37.93046">
        <ele>1387.66587</ele>
        <time>2021-11-15T14:32:27.160Z</time>
      </trkpt>
      <trkpt lat="38.36627" lon="37.9301">
        <ele>1389.375403</ele>
        <time>2021-11-15T14:32:48.264Z</time>
      </trkpt>
      <trkpt lat="38.36742" lon="37.92995">
        <ele>1392.323896</ele>
        <time>2021-11-15T14:33:24.405Z</time>
      </trkpt>
      <trkpt lat="38.36789" lon="37.92973">
        <ele>1394.58533</ele>
        <time>2021-11-15T14:33:42.285Z</time>
      </trkpt>
      <trkpt lat="38.3691" lon="37.92887">
        <ele>1401.030479</ele>
        <time>2021-11-15T14:34:41.045Z</time>
      </trkpt>
      <trkpt lat="38.37007" lon="37.92805">
        <ele>1408.529656</ele>
        <time>2021-11-15T14:35:37.700Z</time>
      </trkpt>
      <trkpt lat="38.37041" lon="37.9276">
        <ele>1411.705542</ele>
        <time>2021-11-15T14:36:02.473Z</time>
      </trkpt>
      <trkpt lat="38.37164" lon="37.92517">
        <ele>1426.261131</ele>
        <time>2021-11-15T14:37:52.507Z</time>
      </trkpt>
      <trkpt lat="38.37245" lon="37.92409">
        <ele>1432.965736</ele>
        <time>2021-11-15T14:38:44.912Z</time>
      </trkpt>
      <trkpt lat="38.37386" lon="37.92237">
        <ele>1442.723564</ele>
        <time>2021-11-15T14:40:06.860Z</time>
      </trkpt>
      <trkpt lat="38.37536" lon="37.92016">
        <ele>1453.161588</ele>
        <time>2021-11-15T14:41:39.528Z</time>
      </trkpt>
      <trkpt lat="38.3756" lon="37.9197">
        <ele>1455.030603</ele>
        <time>2021-11-15T14:41:57.070Z</time>
      </trkpt>
      <trkpt lat="38.37618" lon="37.91806">
        <ele>1460.421235</ele>
        <time>2021-11-15T14:42:51.869Z</time>
      </trkpt>
      <trkpt lat="38.37642" lon="37.91711">
        <ele>1462.729226</ele>
        <time>2021-11-15T14:43:19.044Z</time>
      </trkpt>
      <trkpt lat="38.37766" lon="37.91043">
        <ele>1471.471733</ele>
        <time>2021-11-15T14:45:51.713Z</time>
      </trkpt>
      <trkpt lat="38.37795" lon="37.90895">
        <ele>1471.927214</ele>
        <time>2021-11-15T14:46:21.949Z</time>
      </trkpt>
      <trkpt lat="38.37812" lon="37.90808">
        <ele>1471.704508</ele>
        <time>2021-11-15T14:46:36.370Z</time>
      </trkpt>
      <trkpt lat="38.37817" lon="37.90785">
        <ele>1471.644571</ele>
        <time>2021-11-15T14:46:39.913Z</time>
      </trkpt>
      <trkpt lat="38.37829" lon="37.90722">
        <ele>1470.926401</ele>
        <time>2021-11-15T14:46:49.026Z</time>
      </trkpt>
      <trkpt lat="38.37842" lon="37.90693">
        <ele>1470.303614</ele>
        <time>2021-11-15T14:46:53.632Z</time>
      </trkpt>
      <trkpt lat="38.37845" lon="37.90689">
        <ele>1470.194059</ele>
        <time>2021-11-15T14:46:54.392Z</time>
      </trkpt>
      <trkpt lat="38.3785" lon="37.9068">
        <ele>1469.988103</ele>
        <time>2021-11-15T14:46:55.982Z</time>
      </trkpt>
      <trkpt lat="38.37852" lon="37.9066">
        <ele>1469.622377</ele>
        <time>2021-11-15T14:46:58.610Z</time>
      </trkpt>
      <trkpt lat="38.37844" lon="37.90654">
        <ele>1469.395808</ele>
        <time>2021-11-15T14:47:00.258Z</time>
      </trkpt>
      <trkpt lat="38.37828" lon="37.9064">
        <ele>1468.930726</ele>
        <time>2021-11-15T14:47:03.634Z</time>
      </trkpt>
      <trkpt lat="38.37792" lon="37.90603">
        <ele>1467.836896</ele>
        <time>2021-11-15T14:47:11.370Z</time>
      </trkpt>
      <trkpt lat="38.37747" lon="37.90533">
        <ele>1465.317845</ele>
        <time>2021-11-15T14:47:22.943Z</time>
      </trkpt>
      <trkpt lat="38.37729" lon="37.90478">
        <ele>1463.436517</ele>
        <time>2021-11-15T14:47:30.408Z</time>
      </trkpt>
      <trkpt lat="38.37655" lon="37.89978">
        <ele>1443.507574</ele>
        <time>2021-11-15T14:48:30.761Z</time>
      </trkpt>
      <trkpt lat="38.37628" lon="37.89754">
        <ele>1431.877877</ele>
        <time>2021-11-15T14:48:56.035Z</time>
      </trkpt>
      <trkpt lat="38.37623" lon="37.89696">
        <ele>1428.759452</ele>
        <time>2021-11-15T14:49:02.654Z</time>
      </trkpt>
      <trkpt lat="38.37619" lon="37.89651">
        <ele>1426.82615</ele>
        <time>2021-11-15T14:49:07.939Z</time>
      </trkpt>
      <trkpt lat="38.37615" lon="37.896">
        <ele>1424.701023</ele>
        <time>2021-11-15T14:49:13.849Z</time>
      </trkpt>
      <trkpt lat="38.37604" lon="37.89551">
        <ele>1422.544144</ele>
        <time>2021-11-15T14:49:19.886Z</time>
      </trkpt>
      <trkpt lat="38.37583" lon="37.89502">
        <ele>1420.173637</ele>
        <time>2021-11-15T14:49:26.749Z</time>
      </trkpt>
      <trkpt lat="38.37478" lon="37.89361">
        <ele>1411.196167</ele>
        <time>2021-11-15T14:49:49.303Z</time>
      </trkpt>
      <trkpt lat="38.37445" lon="37.89269">
        <ele>1406.115892</ele>
        <time>2021-11-15T14:50:00.603Z</time>
      </trkpt>
      <trkpt lat="38.37435" lon="37.8922">
        <ele>1403.357311</ele>
        <time>2021-11-15T14:50:06.216Z</time>
      </trkpt>
      <trkpt lat="38.37429" lon="37.89143">
        <ele>1399.077088</ele>
        <time>2021-11-15T14:50:14.894Z</time>
      </trkpt>
      <trkpt lat="38.37429" lon="37.89032">
        <ele>1392.87957</ele>
        <time>2021-11-15T14:50:27.446Z</time>
      </trkpt>
      <trkpt lat="38.37438" lon="37.88914">
        <ele>1386.242112</ele>
        <time>2021-11-15T14:50:40.662Z</time>
      </trkpt>
      <trkpt lat="38.37444" lon="37.88858">
        <ele>1383.059119</ele>
        <time>2021-11-15T14:50:47.007Z</time>
      </trkpt>
      <trkpt lat="38.37445" lon="37.88849">
        <ele>1382.579547</ele>
        <time>2021-11-15T14:50:47.934Z</time>
      </trkpt>
      <trkpt lat="38.37455" lon="37.88787">
        <ele>1379.065433</ele>
        <time>2021-11-15T14:50:54.948Z</time>
      </trkpt>
      <trkpt lat="38.37557" lon="37.88287">
        <ele>1350.826496</ele>
        <time>2021-11-15T14:51:52.898Z</time>
      </trkpt>
      <trkpt lat="38.37552" lon="37.8824">
        <ele>1348.38454</ele>
        <time>2021-11-15T14:51:58.322Z</time>
      </trkpt>
      <trkpt lat="38.37548" lon="37.88211">
        <ele>1346.862333</ele>
        <time>2021-11-15T14:52:01.718Z</time>
      </trkpt>
      <trkpt lat="38.37543" lon="37.88194">
        <ele>1345.905073</ele>
        <time>2021-11-15T14:52:03.868Z</time>
      </trkpt>
      <trkpt lat="38.37528" lon="37.88158">
        <ele>1344.293427</ele>
        <time>2021-11-15T14:52:08.521Z</time>
      </trkpt>
      <trkpt lat="38.37489" lon="37.88092">
        <ele>1341.395667</ele>
        <time>2021-11-15T14:52:18.098Z</time>
      </trkpt>
      <trkpt lat="38.37447" lon="37.8803">
        <ele>1338.522415</ele>
        <time>2021-11-15T14:52:28.181Z</time>
      </trkpt>
      <trkpt lat="38.37442" lon="37.88022">
        <ele>1338.144721</ele>
        <time>2021-11-15T14:52:29.427Z</time>
      </trkpt>
      <trkpt lat="38.37405" lon="37.87955">
        <ele>1337.33227</ele>
        <time>2021-11-15T14:52:40.789Z</time>
      </trkpt>
      <trkpt lat="38.37381" lon="37.87897">
        <ele>1337.406075</ele>
        <time>2021-11-15T14:52:50.706Z</time>
      </trkpt>
      <trkpt lat="38.37349" lon="37.87785">
        <ele>1338.00217</ele>
        <time>2021-11-15T14:53:18.801Z</time>
      </trkpt>
      <trkpt lat="38.37343" lon="37.87726">
        <ele>1340.225151</ele>
        <time>2021-11-15T14:53:36.681Z</time>
      </trkpt>
      <trkpt lat="38.37343" lon="37.87672">
        <ele>1342.235692</ele>
        <time>2021-11-15T14:53:54.437Z</time>
      </trkpt>
      <trkpt lat="38.37357" lon="37.87312">
        <ele>1357.539013</ele>
        <time>2021-11-15T14:56:04.612Z</time>
      </trkpt>
      <trkpt lat="38.3735" lon="37.87258">
        <ele>1359.307043</ele>
        <time>2021-11-15T14:56:21.923Z</time>
      </trkpt>
      <trkpt lat="38.37338" lon="37.87204">
        <ele>1361.13989</ele>
        <time>2021-11-15T14:56:38.723Z</time>
      </trkpt>
      <trkpt lat="38.37293" lon="37.87107">
        <ele>1364.734959</ele>
        <time>2021-11-15T14:57:10.012Z</time>
      </trkpt>
      <trkpt lat="38.37255" lon="37.87044">
        <ele>1367.03235</ele>
        <time>2021-11-15T14:57:31.259Z</time>
      </trkpt>
      <trkpt lat="38.37178" lon="37.86958">
        <ele>1370.872079</ele>
        <time>2021-11-15T14:58:10.092Z</time>
      </trkpt>
      <trkpt lat="38.37128" lon="37.8689">
        <ele>1374.162225</ele>
        <time>2021-11-15T14:58:41.353Z</time>
      </trkpt>
      <trkpt lat="38.37053" lon="37.86758">
        <ele>1378.818315</ele>
        <time>2021-11-15T14:59:34.452Z</time>
      </trkpt>
      <trkpt lat="38.37005" lon="37.86642">
        <ele>1378.38665</ele>
        <time>2021-11-15T15:00:01.608Z</time>
      </trkpt>
      <trkpt lat="38.36969" lon="37.8649">
        <ele>1371.802753</ele>
        <time>2021-11-15T15:00:19.986Z</time>
      </trkpt>
      <trkpt lat="38.36965" lon="37.86471">
        <ele>1370.406633</ele>
        <time>2021-11-15T15:00:22.044Z</time>
      </trkpt>
      <trkpt lat="38.36947" lon="37.86423">
        <ele>1366.616599</ele>
        <time>2021-11-15T15:00:27.686Z</time>
      </trkpt>
      <trkpt lat="38.36849" lon="37.86247">
        <ele>1350.8073</ele>
        <time>2021-11-15T15:00:50.251Z</time>
      </trkpt>
      <trkpt lat="38.36807" lon="37.86186">
        <ele>1344.872776</ele>
        <time>2021-11-15T15:00:59.109Z</time>
      </trkpt>
      <trkpt lat="38.36528" lon="37.85938">
        <ele>1341.869387</ele>
        <time>2021-11-15T15:02:06.751Z</time>
      </trkpt>
      <trkpt lat="38.36435" lon="37.85845">
        <ele>1345.608291</ele>
        <time>2021-11-15T15:02:48.354Z</time>
      </trkpt>
      <trkpt lat="38.36426" lon="37.85837">
        <ele>1346.018544</ele>
        <time>2021-11-15T15:02:53.071Z</time>
      </trkpt>
      <trkpt lat="38.36394" lon="37.85807">
        <ele>1347.531695</ele>
        <time>2021-11-15T15:03:09.275Z</time>
      </trkpt>
      <trkpt lat="38.36343" lon="37.8574">
        <ele>1351.29027</ele>
        <time>2021-11-15T15:03:41.539Z</time>
      </trkpt>
      <trkpt lat="38.36323" lon="37.85692">
        <ele>1353.858269</ele>
        <time>2021-11-15T15:04:01.453Z</time>
      </trkpt>
      <trkpt lat="38.36311" lon="37.85638">
        <ele>1356.532284</ele>
        <time>2021-11-15T15:04:22.187Z</time>
      </trkpt>
      <trkpt lat="38.36291" lon="37.8545">
        <ele>1366.040797</ele>
        <time>2021-11-15T15:05:35.030Z</time>
      </trkpt>
      <trkpt lat="38.36265" lon="37.85399">
        <ele>1369.142567</ele>
        <time>2021-11-15T15:05:58.151Z</time>
      </trkpt>
      <trkpt lat="38.36238" lon="37.8536">
        <ele>1371.786679</ele>
        <time>2021-11-15T15:06:17.728Z</time>
      </trkpt>
      <trkpt lat="38.36204" lon="37.85331">
        <ele>1374.302698</ele>
        <time>2021-11-15T15:06:37.247Z</time>
      </trkpt>
      <trkpt lat="38.36109" lon="37.85288">
        <ele>1380.359805</ele>
        <time>2021-11-15T15:07:22.886Z</time>
      </trkpt>
      <trkpt lat="38.3608" lon="37.85268">
        <ele>1382.363665</ele>
        <time>2021-11-15T15:07:37.996Z</time>
      </trkpt>
      <trkpt lat="38.36035" lon="37.85213">
        <ele>1386.722032</ele>
        <time>2021-11-15T15:08:07.103Z</time>
      </trkpt>
      <trkpt lat="38.35935" lon="37.85048">
        <ele>1399.019464</ele>
        <time>2021-11-15T15:09:32.960Z</time>
      </trkpt>
      <trkpt lat="38.35802" lon="37.84811">
        <ele>1418.675005</ele>
        <time>2021-11-15T15:11:47.139Z</time>
      </trkpt>
      <trkpt lat="38.35776" lon="37.84756">
        <ele>1422.99667</ele>
        <time>2021-11-15T15:12:15.333Z</time>
      </trkpt>
      <trkpt lat="38.35748" lon="37.84675">
        <ele>1428.334009</ele>
        <time>2021-11-15T15:12:51.789Z</time>
      </trkpt>
      <trkpt lat="38.35725" lon="37.84585">
        <ele>1433.558934</ele>
        <time>2021-11-15T15:13:28.863Z</time>
      </trkpt>
      <trkpt lat="38.35705" lon="37.8454">
        <ele>1436.434646</ele>
        <time>2021-11-15T15:13:48.646Z</time>
      </trkpt>
      <trkpt lat="38.35675" lon="37.84493">
        <ele>1439.845837</ele>
        <time>2021-11-15T15:14:11.780Z</time>
      </trkpt>
      <trkpt lat="38.35528" lon="37.84304">
        <ele>1455.873559</ele>
        <time>2021-11-15T15:15:59.047Z</time>
      </trkpt>
      <trkpt lat="38.35386" lon="37.84157">
        <ele>1473.31828</ele>
        <time>2021-11-15T15:17:53.297Z</time>
      </trkpt>
      <trkpt lat="38.35364" lon="37.84127">
        <ele>1476.579462</ele>
        <time>2021-11-15T15:18:14.175Z</time>
      </trkpt>
      <trkpt lat="38.35349" lon="37.84087">
        <ele>1480.161297</ele>
        <time>2021-11-15T15:18:36.801Z</time>
      </trkpt>
      <trkpt lat="38.35342" lon="37.84053">
        <ele>1482.963236</ele>
        <time>2021-11-15T15:18:54.369Z</time>
      </trkpt>
      <trkpt lat="38.35346" lon="37.83966">
        <ele>1489.521892</ele>
        <time>2021-11-15T15:19:37.068Z</time>
      </trkpt>
      <trkpt lat="38.35397" lon="37.83836">
        <ele>1499.814225</ele>
        <time>2021-11-15T15:20:42.644Z</time>
      </trkpt>
      <trkpt lat="38.35443" lon="37.8374">
        <ele>1507.486712</ele>
        <time>2021-11-15T15:21:31.584Z</time>
      </trkpt>
      <trkpt lat="38.35451" lon="37.83692">
        <ele>1510.778837</ele>
        <time>2021-11-15T15:21:53.230Z</time>
      </trkpt>
      <trkpt lat="38.35451" lon="37.83647">
        <ele>1513.788489</ele>
        <time>2021-11-15T15:22:13.082Z</time>
      </trkpt>
      <trkpt lat="38.35445" lon="37.83592">
        <ele>1517.509772</ele>
        <time>2021-11-15T15:22:38.051Z</time>
      </trkpt>
      <trkpt lat="38.35409" lon="37.83494">
        <ele>1524.777136</ele>
        <time>2021-11-15T15:23:27.849Z</time>
      </trkpt>
      <trkpt lat="38.35365" lon="37.83444">
        <ele>1529.823893</ele>
        <time>2021-11-15T15:24:02.623Z</time>
      </trkpt>
      <trkpt lat="38.35246" lon="37.83331">
        <ele>1539.955846</ele>
        <time>2021-11-15T15:25:18.052Z</time>
      </trkpt>
      <trkpt lat="38.35078" lon="37.83193">
        <ele>1550.789128</ele>
        <time>2021-11-15T15:26:38.571Z</time>
      </trkpt>
      <trkpt lat="38.35063" lon="37.83177">
        <ele>1551.795494</ele>
        <time>2021-11-15T15:26:46.980Z</time>
      </trkpt>
      <trkpt lat="38.34973" lon="37.83082">
        <ele>1559.462286</ele>
        <time>2021-11-15T15:27:42.678Z</time>
      </trkpt>
      <trkpt lat="38.34862" lon="37.83005">
        <ele>1568.599855</ele>
        <time>2021-11-15T15:28:51.890Z</time>
      </trkpt>
      <trkpt lat="38.34763" lon="37.82937">
        <ele>1576.838087</ele>
        <time>2021-11-15T15:29:51.720Z</time>
      </trkpt>
      <trkpt lat="38.34613" lon="37.82846">
        <ele>1586.347835</ele>
        <time>2021-11-15T15:31:07.551Z</time>
      </trkpt>
      <trkpt lat="38.34517" lon="37.82789">
        <ele>1590.3642</ele>
        <time>2021-11-15T15:31:47.054Z</time>
      </trkpt>
      <trkpt lat="38.34488" lon="37.82773">
        <ele>1591.105452</ele>
        <time>2021-11-15T15:31:57.471Z</time>
      </trkpt>
      <trkpt lat="38.34269" lon="37.82646">
        <ele>1595.229583</ele>
        <time>2021-11-15T15:33:03.540Z</time>
      </trkpt>
      <trkpt lat="38.34219" lon="37.82591">
        <ele>1596.57369</ele>
        <time>2021-11-15T15:33:21.202Z</time>
      </trkpt>
      <trkpt lat="38.34167" lon="37.82505">
        <ele>1598.936501</ele>
        <time>2021-11-15T15:33:47.076Z</time>
      </trkpt>
      <trkpt lat="38.3412" lon="37.82387">
        <ele>1603.448884</ele>
        <time>2021-11-15T15:34:28.204Z</time>
      </trkpt>
      <trkpt lat="38.3401" lon="37.82002">
        <ele>1625.916088</ele>
        <time>2021-11-15T15:37:17.891Z</time>
      </trkpt>
      <trkpt lat="38.33931" lon="37.8181">
        <ele>1632.665479</ele>
        <time>2021-11-15T15:38:25.983Z</time>
      </trkpt>
      <trkpt lat="38.33872" lon="37.81716">
        <ele>1630.062186</ele>
        <time>2021-11-15T15:38:42.616Z</time>
      </trkpt>
      <trkpt lat="38.33763" lon="37.81563">
        <ele>1623.909831</ele>
        <time>2021-11-15T15:39:06.480Z</time>
      </trkpt>
      <trkpt lat="38.33558" lon="37.81244">
        <ele>1611.398594</ele>
        <time>2021-11-15T15:39:57.849Z</time>
      </trkpt>
      <trkpt lat="38.3348" lon="37.81145">
        <ele>1608.326152</ele>
        <time>2021-11-15T15:40:16.274Z</time>
      </trkpt>
      <trkpt lat="38.33163" lon="37.8077">
        <ele>1600.508925</ele>
        <time>2021-11-15T15:41:32.272Z</time>
      </trkpt>
      <trkpt lat="38.3304" lon="37.80584">
        <ele>1605.13556</ele>
        <time>2021-11-15T15:42:25.317Z</time>
      </trkpt>
      <trkpt lat="38.32935" lon="37.80416">
        <ele>1618.774979</ele>
        <time>2021-11-15T15:44:07.264Z</time>
      </trkpt>
      <trkpt lat="38.3287" lon="37.80279">
        <ele>1632.626352</ele>
        <time>2021-11-15T15:45:38.974Z</time>
      </trkpt>
      <trkpt lat="38.32796" lon="37.80106">
        <ele>1643.078707</ele>
        <time>2021-11-15T15:47:01.856Z</time>
      </trkpt>
      <trkpt lat="38.32581" lon="37.7973">
        <ele>1650.776691</ele>
        <time>2021-11-15T15:48:30.091Z</time>
      </trkpt>
      <trkpt lat="38.32491" lon="37.79526">
        <ele>1665.020529</ele>
        <time>2021-11-15T15:50:17.164Z</time>
      </trkpt>
      <trkpt lat="38.32416" lon="37.79356">
        <ele>1678.970079</ele>
        <time>2021-11-15T15:51:57.606Z</time>
      </trkpt>
      <trkpt lat="38.3235" lon="37.79139">
        <ele>1691.121825</ele>
        <time>2021-11-15T15:53:24.070Z</time>
      </trkpt>
      <trkpt lat="38.32329" lon="37.79017">
        <ele>1695.559054</ele>
        <time>2021-11-15T15:54:00.063Z</time>
      </trkpt>
      <trkpt lat="38.32325" lon="37.78849">
        <ele>1699.819902</ele>
        <time>2021-11-15T15:54:45.835Z</time>
      </trkpt>
      <trkpt lat="38.32367" lon="37.785">
        <ele>1707.274366</ele>
        <time>2021-11-15T15:56:19.014Z</time>
      </trkpt>
      <trkpt lat="38.32404" lon="37.78342">
        <ele>1709.27174</ele>
        <time>2021-11-15T15:56:57.327Z</time>
      </trkpt>
      <trkpt lat="38.32714" lon="37.76697">
        <ele>1705.399317</ele>
        <time>2021-11-15T16:01:53.323Z</time>
      </trkpt>
      <trkpt lat="38.32763" lon="37.76572">
        <ele>1701.301305</ele>
        <time>2021-11-15T16:02:11.703Z</time>
      </trkpt>
      <trkpt lat="38.32817" lon="37.76448">
        <ele>1692.971101</ele>
        <time>2021-11-15T16:02:27.204Z</time>
      </trkpt>
      <trkpt lat="38.32839" lon="37.76409">
        <ele>1690.026549</ele>
        <time>2021-11-15T16:02:32.303Z</time>
      </trkpt>
      <trkpt lat="38.32936" lon="37.76246">
        <ele>1675.00869</ele>
        <time>2021-11-15T16:02:54.115Z</time>
      </trkpt>
      <trkpt lat="38.33189" lon="37.75863">
        <ele>1654.398638</ele>
        <time>2021-11-15T16:03:53.732Z</time>
      </trkpt>
      <trkpt lat="38.33319" lon="37.75716">
        <ele>1644.598102</ele>
        <time>2021-11-15T16:04:19.664Z</time>
      </trkpt>
      <trkpt lat="38.3335" lon="37.7568">
        <ele>1641.302504</ele>
        <time>2021-11-15T16:04:25.644Z</time>
      </trkpt>
      <trkpt lat="38.33439" lon="37.75568">
        <ele>1631.529862</ele>
        <time>2021-11-15T16:04:43.076Z</time>
      </trkpt>
      <trkpt lat="38.33664" lon="37.75244">
        <ele>1605.768075</ele>
        <time>2021-11-15T16:05:30.977Z</time>
      </trkpt>
      <trkpt lat="38.33679" lon="37.75222">
        <ele>1604.08294</ele>
        <time>2021-11-15T16:05:34.219Z</time>
      </trkpt>
      <trkpt lat="38.33681" lon="37.75221">
        <ele>1603.906455</ele>
        <time>2021-11-15T16:05:34.604Z</time>
      </trkpt>
      <trkpt lat="38.33684" lon="37.7522">
        <ele>1603.723479</ele>
        <time>2021-11-15T16:05:34.990Z</time>
      </trkpt>
      <trkpt lat="38.33687" lon="37.75218">
        <ele>1603.492314</ele>
        <time>2021-11-15T16:05:35.501Z</time>
      </trkpt>
      <trkpt lat="38.33691" lon="37.75212">
        <ele>1603.03365</ele>
        <time>2021-11-15T16:05:36.517Z</time>
      </trkpt>
      <trkpt lat="38.33693" lon="37.75208">
        <ele>1602.804169</ele>
        <time>2021-11-15T16:05:37.024Z</time>
      </trkpt>
      <trkpt lat="38.33698" lon="37.75213">
        <ele>1602.347686</ele>
        <time>2021-11-15T16:05:37.963Z</time>
      </trkpt>
      <trkpt lat="38.33746" lon="37.75125">
        <ele>1596.727792</ele>
        <time>2021-11-15T16:05:50.111Z</time>
      </trkpt>
      <trkpt lat="38.33818" lon="37.74989">
        <ele>1588.362287</ele>
        <time>2021-11-15T16:06:08.872Z</time>
      </trkpt>
      <trkpt lat="38.33865" lon="37.74867">
        <ele>1581.686667</ele>
        <time>2021-11-15T16:06:24.398Z</time>
      </trkpt>
      <trkpt lat="38.33874" lon="37.74861">
        <ele>1581.051303</ele>
        <time>2021-11-15T16:06:25.848Z</time>
      </trkpt>
      <trkpt lat="38.33875" lon="37.74847">
        <ele>1580.349468</ele>
        <time>2021-11-15T16:06:27.429Z</time>
      </trkpt>
      <trkpt lat="38.33875" lon="37.74807">
        <ele>1578.310346</ele>
        <time>2021-11-15T16:06:32.113Z</time>
      </trkpt>
      <trkpt lat="38.33873" lon="37.74794">
        <ele>1577.613329</ele>
        <time>2021-11-15T16:06:33.658Z</time>
      </trkpt>
      <trkpt lat="38.33862" lon="37.74725">
        <ele>1574.037251</ele>
        <time>2021-11-15T16:06:41.630Z</time>
      </trkpt>
      <trkpt lat="38.33861" lon="37.74706">
        <ele>1573.046546</ele>
        <time>2021-11-15T16:06:43.780Z</time>
      </trkpt>
      <trkpt lat="38.33859" lon="37.74642">
        <ele>1569.816744</ele>
        <time>2021-11-15T16:06:50.989Z</time>
      </trkpt>
      <trkpt lat="38.33856" lon="37.74624">
        <ele>1568.792281</ele>
        <time>2021-11-15T16:06:53.156Z</time>
      </trkpt>
      <trkpt lat="38.33848" lon="37.74577">
        <ele>1566.024794</ele>
        <time>2021-11-15T16:06:58.571Z</time>
      </trkpt>
      <trkpt lat="38.33824" lon="37.74405">
        <ele>1555.983149</ele>
        <time>2021-11-15T16:07:17.856Z</time>
      </trkpt>
      <trkpt lat="38.33825" lon="37.7434">
        <ele>1554.035168</ele>
        <time>2021-11-15T16:07:25.101Z</time>
      </trkpt>
      <trkpt lat="38.33844" lon="37.74271">
        <ele>1551.783844</ele>
        <time>2021-11-15T16:07:33.951Z</time>
      </trkpt>
      <trkpt lat="38.33877" lon="37.74225">
        <ele>1549.911205</ele>
        <time>2021-11-15T16:07:42.151Z</time>
      </trkpt>
      <trkpt lat="38.33925" lon="37.74184">
        <ele>1550.842492</ele>
        <time>2021-11-15T16:07:54.324Z</time>
      </trkpt>
      <trkpt lat="38.34105" lon="37.74086">
        <ele>1563.059174</ele>
        <time>2021-11-15T16:09:30.902Z</time>
      </trkpt>
      <trkpt lat="38.34119" lon="37.74076">
        <ele>1564.570868</ele>
        <time>2021-11-15T16:09:41.501Z</time>
      </trkpt>
      <trkpt lat="38.34141" lon="37.74054">
        <ele>1567.259235</ele>
        <time>2021-11-15T16:09:59.771Z</time>
      </trkpt>
      <trkpt lat="38.3417" lon="37.7401">
        <ele>1571.669499</ele>
        <time>2021-11-15T16:10:30.287Z</time>
      </trkpt>
      <trkpt lat="38.34222" lon="37.73876">
        <ele>1582.32005</ele>
        <time>2021-11-15T16:11:48.211Z</time>
      </trkpt>
      <trkpt lat="38.34237" lon="37.73849">
        <ele>1584.629149</ele>
        <time>2021-11-15T16:12:02.568Z</time>
      </trkpt>
      <trkpt lat="38.34265" lon="37.73815">
        <ele>1588.033852</ele>
        <time>2021-11-15T16:12:23.140Z</time>
      </trkpt>
      <trkpt lat="38.34676" lon="37.7346">
        <ele>1618.38473</ele>
        <time>2021-11-15T16:16:12.069Z</time>
      </trkpt>
      <trkpt lat="38.34813" lon="37.73325">
        <ele>1627.961671</ele>
        <time>2021-11-15T16:17:25.464Z</time>
      </trkpt>
      <trkpt lat="38.34899" lon="37.7325">
        <ele>1633.987909</ele>
        <time>2021-11-15T16:18:13.204Z</time>
      </trkpt>
      <trkpt lat="38.34949" lon="37.73204">
        <ele>1638.314399</ele>
        <time>2021-11-15T16:18:43.596Z</time>
      </trkpt>
      <trkpt lat="38.35002" lon="37.73155">
        <ele>1642.895388</ele>
        <time>2021-11-15T16:19:18.005Z</time>
      </trkpt>
      <trkpt lat="38.35062" lon="37.73092">
        <ele>1647.552293</ele>
        <time>2021-11-15T16:19:58.467Z</time>
      </trkpt>
      <trkpt lat="38.35088" lon="37.73057">
        <ele>1649.529291</ele>
        <time>2021-11-15T16:20:17.111Z</time>
      </trkpt>
      <trkpt lat="38.35153" lon="37.72967">
        <ele>1654.499049</ele>
        <time>2021-11-15T16:20:55.281Z</time>
      </trkpt>
      <trkpt lat="38.35219" lon="37.72862">
        <ele>1655.962829</ele>
        <time>2021-11-15T16:21:23.813Z</time>
      </trkpt>
      <trkpt lat="38.35248" lon="37.72813">
        <ele>1656.554575</ele>
        <time>2021-11-15T16:21:34.066Z</time>
      </trkpt>
      <trkpt lat="38.35467" lon="37.72499">
        <ele>1661.145238</ele>
        <time>2021-11-15T16:23:00.915Z</time>
      </trkpt>
      <trkpt lat="38.35495" lon="37.72448">
        <ele>1662.148977</ele>
        <time>2021-11-15T16:23:19.372Z</time>
      </trkpt>
      <trkpt lat="38.35513" lon="37.72404">
        <ele>1663.307242</ele>
        <time>2021-11-15T16:23:34.532Z</time>
      </trkpt>
      <trkpt lat="38.35524" lon="37.72349">
        <ele>1664.814911</ele>
        <time>2021-11-15T16:23:52.059Z</time>
      </trkpt>
      <trkpt lat="38.3553" lon="37.72258">
        <ele>1667.201951</ele>
        <time>2021-11-15T16:24:19.222Z</time>
      </trkpt>
      <trkpt lat="38.35493" lon="37.71877">
        <ele>1671.700417</ele>
        <time>2021-11-15T16:25:43.280Z</time>
      </trkpt>
      <trkpt lat="38.35478" lon="37.71676">
        <ele>1672.503619</ele>
        <time>2021-11-15T16:26:17.637Z</time>
      </trkpt>
      <trkpt lat="38.35477" lon="37.71639">
        <ele>1672.608721</ele>
        <time>2021-11-15T16:26:23.889Z</time>
      </trkpt>
      <trkpt lat="38.35483" lon="37.71594">
        <ele>1672.737699</ele>
        <time>2021-11-15T16:26:31.839Z</time>
      </trkpt>
      <trkpt lat="38.35504" lon="37.71543">
        <ele>1672.899148</ele>
        <time>2021-11-15T16:26:43.127Z</time>
      </trkpt>
      <trkpt lat="38.35521" lon="37.71518">
        <ele>1673.684654</ele>
        <time>2021-11-15T16:26:50.805Z</time>
      </trkpt>
      <trkpt lat="38.35593" lon="37.71464">
        <ele>1676.853908</ele>
        <time>2021-11-15T16:27:18.945Z</time>
      </trkpt>
      <trkpt lat="38.35686" lon="37.71409">
        <ele>1681.041201</ele>
        <time>2021-11-15T16:28:05.632Z</time>
      </trkpt>
      <trkpt lat="38.35709" lon="37.71389">
        <ele>1682.371498</ele>
        <time>2021-11-15T16:28:18.828Z</time>
      </trkpt>
      <trkpt lat="38.35731" lon="37.7136">
        <ele>1683.897352</ele>
        <time>2021-11-15T16:28:33.508Z</time>
      </trkpt>
      <trkpt lat="38.35753" lon="37.71321">
        <ele>1685.727179</ele>
        <time>2021-11-15T16:28:50.099Z</time>
      </trkpt>
      <trkpt lat="38.35765" lon="37.7129">
        <ele>1686.992431</ele>
        <time>2021-11-15T16:29:00.589Z</time>
      </trkpt>
      <trkpt lat="38.35774" lon="37.71256">
        <ele>1688.349978</ele>
        <time>2021-11-15T16:29:10.828Z</time>
      </trkpt>
      <trkpt lat="38.35781" lon="37.71203">
        <ele>1688.012282</ele>
        <time>2021-11-15T16:29:24.533Z</time>
      </trkpt>
      <trkpt lat="38.35785" lon="37.70938">
        <ele>1683.595155</ele>
        <time>2021-11-15T16:29:59.907Z</time>
      </trkpt>
      <trkpt lat="38.35785" lon="37.70931">
        <ele>1683.382514</ele>
        <time>2021-11-15T16:30:00.573Z</time>
      </trkpt>
      <trkpt lat="38.35786" lon="37.7083">
        <ele>1679.956885</ele>
        <time>2021-11-15T16:30:12.611Z</time>
      </trkpt>
      <trkpt lat="38.35805" lon="37.70698">
        <ele>1674.40797</ele>
        <time>2021-11-15T16:30:28.170Z</time>
      </trkpt>
      <trkpt lat="38.35954" lon="37.70127">
        <ele>1647.979645</ele>
        <time>2021-11-15T16:31:38.175Z</time>
      </trkpt>
      <trkpt lat="38.35967" lon="37.70032">
        <ele>1643.337248</ele>
        <time>2021-11-15T16:31:49.428Z</time>
      </trkpt>
      <trkpt lat="38.35964" lon="37.7001">
        <ele>1642.264478</ele>
        <time>2021-11-15T16:31:51.961Z</time>
      </trkpt>
      <trkpt lat="38.35955" lon="37.69948">
        <ele>1639.224287</ele>
        <time>2021-11-15T16:31:59.115Z</time>
      </trkpt>
      <trkpt lat="38.35939" lon="37.69906">
        <ele>1636.642858</ele>
        <time>2021-11-15T16:32:04.413Z</time>
      </trkpt>
      <trkpt lat="38.35918" lon="37.69868">
        <ele>1633.391769</ele>
        <time>2021-11-15T16:32:09.513Z</time>
      </trkpt>
      <trkpt lat="38.35885" lon="37.6983">
        <ele>1629.420952</ele>
        <time>2021-11-15T16:32:15.657Z</time>
      </trkpt>
      <trkpt lat="38.35853" lon="37.69802">
        <ele>1625.959535</ele>
        <time>2021-11-15T16:32:20.955Z</time>
      </trkpt>
      <trkpt lat="38.3563" lon="37.69637">
        <ele>1601.488791</ele>
        <time>2021-11-15T16:32:55.992Z</time>
      </trkpt>
      <trkpt lat="38.35601" lon="37.69603">
        <ele>1598.24395</ele>
        <time>2021-11-15T16:33:01.588Z</time>
      </trkpt>
      <trkpt lat="38.35572" lon="37.69554">
        <ele>1594.410096</ele>
        <time>2021-11-15T16:33:08.271Z</time>
      </trkpt>
      <trkpt lat="38.35555" lon="37.69523">
        <ele>1592.047409</ele>
        <time>2021-11-15T16:33:12.420Z</time>
      </trkpt>
      <trkpt lat="38.35542" lon="37.69483">
        <ele>1589.332961</ele>
        <time>2021-11-15T16:33:17.278Z</time>
      </trkpt>
      <trkpt lat="38.35533" lon="37.69443">
        <ele>1588.252592</ele>
        <time>2021-11-15T16:33:22.158Z</time>
      </trkpt>
      <trkpt lat="38.35529" lon="37.69393">
        <ele>1587.010395</ele>
        <time>2021-11-15T16:33:28.137Z</time>
      </trkpt>
      <trkpt lat="38.35533" lon="37.69351">
        <ele>1585.953517</ele>
        <time>2021-11-15T16:33:33.413Z</time>
      </trkpt>
      <trkpt lat="38.35542" lon="37.69316">
        <ele>1585.016699</ele>
        <time>2021-11-15T16:33:38.315Z</time>
      </trkpt>
      <trkpt lat="38.35644" lon="37.69022">
        <ele>1583.546686</ele>
        <time>2021-11-15T16:34:38.368Z</time>
      </trkpt>
      <trkpt lat="38.35649" lon="37.68952">
        <ele>1582.647557</ele>
        <time>2021-11-15T16:34:49.530Z</time>
      </trkpt>
      <trkpt lat="38.35647" lon="37.68921">
        <ele>1582.24881</ele>
        <time>2021-11-15T16:34:53.973Z</time>
      </trkpt>
      <trkpt lat="38.35632" lon="37.6888">
        <ele>1581.678164</ele>
        <time>2021-11-15T16:34:59.933Z</time>
      </trkpt>
      <trkpt lat="38.35599" lon="37.68815">
        <ele>1580.196748</ele>
        <time>2021-11-15T16:35:09.767Z</time>
      </trkpt>
      <trkpt lat="38.35545" lon="37.68737">
        <ele>1577.031689</ele>
        <time>2021-11-15T16:35:22.425Z</time>
      </trkpt>
      <trkpt lat="38.3549" lon="37.68641">
        <ele>1573.648638</ele>
        <time>2021-11-15T16:35:36.931Z</time>
      </trkpt>
      <trkpt lat="38.35465" lon="37.68597">
        <ele>1572.598496</ele>
        <time>2021-11-15T16:35:43.915Z</time>
      </trkpt>
      <trkpt lat="38.35429" lon="37.68543">
        <ele>1571.232967</ele>
        <time>2021-11-15T16:35:53.410Z</time>
      </trkpt>
      <trkpt lat="38.35373" lon="37.68469">
        <ele>1569.652328</ele>
        <time>2021-11-15T16:36:08.122Z</time>
      </trkpt>
      <trkpt lat="38.35344" lon="37.68423">
        <ele>1569.682774</ele>
        <time>2021-11-15T16:36:17.412Z</time>
      </trkpt>
      <trkpt lat="38.35245" lon="37.68285">
        <ele>1570.125746</ele>
        <time>2021-11-15T16:36:53.462Z</time>
      </trkpt>
      <trkpt lat="38.35185" lon="37.68196">
        <ele>1571.283772</ele>
        <time>2021-11-15T16:37:21.230Z</time>
      </trkpt>
      <trkpt lat="38.3511" lon="37.68087">
        <ele>1571.436008</ele>
        <time>2021-11-15T16:37:50.510Z</time>
      </trkpt>
      <trkpt lat="38.35053" lon="37.68014">
        <ele>1570.578136</ele>
        <time>2021-11-15T16:38:06.273Z</time>
      </trkpt>
      <trkpt lat="38.34663" lon="37.6746">
        <ele>1551.559053</ele>
        <time>2021-11-15T16:39:39.856Z</time>
      </trkpt>
      <trkpt lat="38.34617" lon="37.67371">
        <ele>1552.196971</ele>
        <time>2021-11-15T16:39:54.056Z</time>
      </trkpt>
      <trkpt lat="38.34597" lon="37.67321">
        <ele>1552.539995</ele>
        <time>2021-11-15T16:40:06.174Z</time>
      </trkpt>
      <trkpt lat="38.34582" lon="37.67271">
        <ele>1552.864814</ele>
        <time>2021-11-15T16:40:21.917Z</time>
      </trkpt>
      <trkpt lat="38.34571" lon="37.67214">
        <ele>1556.18588</ele>
        <time>2021-11-15T16:40:44.106Z</time>
      </trkpt>
      <trkpt lat="38.34568" lon="37.67147">
        <ele>1560.881483</ele>
        <time>2021-11-15T16:41:15.002Z</time>
      </trkpt>
      <trkpt lat="38.34565" lon="37.67018">
        <ele>1569.953457</ele>
        <time>2021-11-15T16:42:21.918Z</time>
      </trkpt>
      <trkpt lat="38.3457" lon="37.66839">
        <ele>1582.731432</ele>
        <time>2021-11-15T16:43:47.237Z</time>
      </trkpt>
      <trkpt lat="38.34572" lon="37.66809">
        <ele>1584.907384</ele>
        <time>2021-11-15T16:43:59.119Z</time>
      </trkpt>
      <trkpt lat="38.34577" lon="37.66675">
        <ele>1591.954542</ele>
        <time>2021-11-15T16:44:48.663Z</time>
      </trkpt>
      <trkpt lat="38.34603" lon="37.66151">
        <ele>1619.165028</ele>
        <time>2021-11-15T16:48:07.740Z</time>
      </trkpt>
      <trkpt lat="38.34634" lon="37.65901">
        <ele>1633.784277</ele>
        <time>2021-11-15T16:49:52.021Z</time>
      </trkpt>
      <trkpt lat="38.34636" lon="37.65838">
        <ele>1637.416287</ele>
        <time>2021-11-15T16:50:17.435Z</time>
      </trkpt>
      <trkpt lat="38.34632" lon="37.65787">
        <ele>1640.347393</ele>
        <time>2021-11-15T16:50:37.867Z</time>
      </trkpt>
      <trkpt lat="38.3462" lon="37.65743">
        <ele>1643.001788</ele>
        <time>2021-11-15T16:50:56.251Z</time>
      </trkpt>
      <trkpt lat="38.34546" lon="37.65575">
        <ele>1654.443829</ele>
        <time>2021-11-15T16:52:14.910Z</time>
      </trkpt>
      <trkpt lat="38.34527" lon="37.65505">
        <ele>1658.953717</ele>
        <time>2021-11-15T16:52:46.723Z</time>
      </trkpt>
      <trkpt lat="38.34514" lon="37.65431">
        <ele>1663.616713</ele>
        <time>2021-11-15T16:53:19.272Z</time>
      </trkpt>
      <trkpt lat="38.34475" lon="37.65092">
        <ele>1685.376543</ele>
        <time>2021-11-15T16:55:45.356Z</time>
      </trkpt>
      <trkpt lat="38.34477" lon="37.6472">
        <ele>1709.871522</ele>
        <time>2021-11-15T16:58:28.558Z</time>
      </trkpt>
      <trkpt lat="38.34499" lon="37.64519">
        <ele>1723.744342</ele>
        <time>2021-11-15T17:00:00.568Z</time>
      </trkpt>
      <trkpt lat="38.345" lon="37.64463">
        <ele>1727.52753</ele>
        <time>2021-11-15T17:00:25.729Z</time>
      </trkpt>
      <trkpt lat="38.34496" lon="37.64411">
        <ele>1731.053938</ele>
        <time>2021-11-15T17:00:48.949Z</time>
      </trkpt>
      <trkpt lat="38.34485" lon="37.64365">
        <ele>1734.28975</ele>
        <time>2021-11-15T17:01:09.961Z</time>
      </trkpt>
      <trkpt lat="38.34415" lon="37.64213">
        <ele>1745.87681</ele>
        <time>2021-11-15T17:02:26.812Z</time>
      </trkpt>
      <trkpt lat="38.34387" lon="37.64133">
        <ele>1751.632229</ele>
        <time>2021-11-15T17:03:05.131Z</time>
      </trkpt>
      <trkpt lat="38.34374" lon="37.64024">
        <ele>1758.783648</ele>
        <time>2021-11-15T17:03:53.460Z</time>
      </trkpt>
      <trkpt lat="38.34365" lon="37.63874">
        <ele>1768.33833</ele>
        <time>2021-11-15T17:04:58.217Z</time>
      </trkpt>
      <trkpt lat="38.34358" lon="37.63823">
        <ele>1771.383226</ele>
        <time>2021-11-15T17:05:19.868Z</time>
      </trkpt>
      <trkpt lat="38.34336" lon="37.63737">
        <ele>1776.773264</ele>
        <time>2021-11-15T17:05:57.325Z</time>
      </trkpt>
      <trkpt lat="38.34299" lon="37.63659">
        <ele>1781.940882</ele>
        <time>2021-11-15T17:06:33.925Z</time>
      </trkpt>
      <trkpt lat="38.34195" lon="37.63489">
        <ele>1792.854059</ele>
        <time>2021-11-15T17:07:56.191Z</time>
      </trkpt>
      <trkpt lat="38.3416" lon="37.63421">
        <ele>1795.75575</ele>
        <time>2021-11-15T17:08:23.783Z</time>
      </trkpt>
      <trkpt lat="38.34129" lon="37.63342">
        <ele>1798.982699</ele>
        <time>2021-11-15T17:08:52.031Z</time>
      </trkpt>
      <trkpt lat="38.34066" lon="37.63155">
        <ele>1802.798483</ele>
        <time>2021-11-15T17:09:43.200Z</time>
      </trkpt>
      <trkpt lat="38.34039" lon="37.63039">
        <ele>1803.614181</ele>
        <time>2021-11-15T17:10:05.151Z</time>
      </trkpt>
      <trkpt lat="38.34028" lon="37.62929">
        <ele>1803.271322</ele>
        <time>2021-11-15T17:10:22.523Z</time>
      </trkpt>
      <trkpt lat="38.34031" lon="37.62923">
        <ele>1803.250997</ele>
        <time>2021-11-15T17:10:23.563Z</time>
      </trkpt>
      <trkpt lat="38.34032" lon="37.62917">
        <ele>1803.231104</ele>
        <time>2021-11-15T17:10:24.584Z</time>
      </trkpt>
      <trkpt lat="38.34032" lon="37.62911">
        <ele>1803.21094</ele>
        <time>2021-11-15T17:10:25.598Z</time>
      </trkpt>
      <trkpt lat="38.3403" lon="37.62905">
        <ele>1803.190738</ele>
        <time>2021-11-15T17:10:26.601Z</time>
      </trkpt>
      <trkpt lat="38.34027" lon="37.629">
        <ele>1803.170494</ele>
        <time>2021-11-15T17:10:27.578Z</time>
      </trkpt>
      <trkpt lat="38.3402" lon="37.62841">
        <ele>1803.052713</ele>
        <time>2021-11-15T17:10:36.820Z</time>
      </trkpt>
      <trkpt lat="38.34016" lon="37.62767">
        <ele>1803.020155</ele>
        <time>2021-11-15T17:10:48.845Z</time>
      </trkpt>
      <trkpt lat="38.34018" lon="37.62698">
        <ele>1802.989643</ele>
        <time>2021-11-15T17:11:01.084Z</time>
      </trkpt>
      <trkpt lat="38.34024" lon="37.62632">
        <ele>1802.980311</ele>
        <time>2021-11-15T17:11:13.667Z</time>
      </trkpt>
      <trkpt lat="38.34052" lon="37.62493">
        <ele>1803.51563</ele>
        <time>2021-11-15T17:11:41.628Z</time>
      </trkpt>
      <trkpt lat="38.34064" lon="37.62443">
        <ele>1803.710403</ele>
        <time>2021-11-15T17:11:51.640Z</time>
      </trkpt>
      <trkpt lat="38.34165" lon="37.62192">
        <ele>1803.406865</ele>
        <time>2021-11-15T17:12:40.497Z</time>
      </trkpt>
      <trkpt lat="38.34434" lon="37.61578">
        <ele>1795.945256</ele>
        <time>2021-11-15T17:14:23.465Z</time>
      </trkpt>
      <trkpt lat="38.34542" lon="37.61315">
        <ele>1790.02669</ele>
        <time>2021-11-15T17:15:01.307Z</time>
      </trkpt>
      <trkpt lat="38.34582" lon="37.61251">
        <ele>1788.719801</ele>
        <time>2021-11-15T17:15:12.720Z</time>
      </trkpt>
      <trkpt lat="38.34637" lon="37.61188">
        <ele>1788.709687</ele>
        <time>2021-11-15T17:15:29.229Z</time>
      </trkpt>
      <trkpt lat="38.34677" lon="37.61155">
        <ele>1789.422572</ele>
        <time>2021-11-15T17:15:42.799Z</time>
      </trkpt>
      <trkpt lat="38.34741" lon="37.61114">
        <ele>1790.503592</ele>
        <time>2021-11-15T17:16:07.060Z</time>
      </trkpt>
      <trkpt lat="38.3484" lon="37.61078">
        <ele>1789.974315</ele>
        <time>2021-11-15T17:16:37.555Z</time>
      </trkpt>
      <trkpt lat="38.34888" lon="37.61071">
        <ele>1789.517708</ele>
        <time>2021-11-15T17:16:47.278Z</time>
      </trkpt>
      <trkpt lat="38.35289" lon="37.61077">
        <ele>1767.805834</ele>
        <time>2021-11-15T17:17:46.013Z</time>
      </trkpt>
      <trkpt lat="38.35341" lon="37.61086">
        <ele>1764.50567</ele>
        <time>2021-11-15T17:17:53.577Z</time>
      </trkpt>
      <trkpt lat="38.3542" lon="37.6111">
        <ele>1759.39482</ele>
        <time>2021-11-15T17:18:05.269Z</time>
      </trkpt>
      <trkpt lat="38.35575" lon="37.61186">
        <ele>1751.110274</ele>
        <time>2021-11-15T17:18:29.981Z</time>
      </trkpt>
      <trkpt lat="38.35634" lon="37.61204">
        <ele>1748.398007</ele>
        <time>2021-11-15T17:18:40.035Z</time>
      </trkpt>
      <trkpt lat="38.35987" lon="37.61233">
        <ele>1739.804597</ele>
        <time>2021-11-15T17:19:43.991Z</time>
      </trkpt>
      <trkpt lat="38.36241" lon="37.61249">
        <ele>1713.985413</ele>
        <time>2021-11-15T17:20:18.416Z</time>
      </trkpt>
      <trkpt lat="38.36289" lon="37.61247">
        <ele>1707.96894</ele>
        <time>2021-11-15T17:20:24.684Z</time>
      </trkpt>
      <trkpt lat="38.36383" lon="37.61208">
        <ele>1696.921062</ele>
        <time>2021-11-15T17:20:37.648Z</time>
      </trkpt>
      <trkpt lat="38.36421" lon="37.6118">
        <ele>1693.32429</ele>
        <time>2021-11-15T17:20:43.481Z</time>
      </trkpt>
      <trkpt lat="38.36475" lon="37.61127">
        <ele>1687.698563</ele>
        <time>2021-11-15T17:20:53.057Z</time>
      </trkpt>
      <trkpt lat="38.36632" lon="37.60917">
        <ele>1680.304088</ele>
        <time>2021-11-15T17:21:32.951Z</time>
      </trkpt>
      <trkpt lat="38.36658" lon="37.60892">
        <ele>1679.450037</ele>
        <time>2021-11-15T17:21:39.276Z</time>
      </trkpt>
      <trkpt lat="38.36689" lon="37.60872">
        <ele>1678.532933</ele>
        <time>2021-11-15T17:21:45.706Z</time>
      </trkpt>
      <trkpt lat="38.36745" lon="37.60855">
        <ele>1677.030132</ele>
        <time>2021-11-15T17:21:55.488Z</time>
      </trkpt>
      <trkpt lat="38.36802" lon="37.60852">
        <ele>1674.917913</ele>
        <time>2021-11-15T17:22:04.539Z</time>
      </trkpt>
      <trkpt lat="38.36854" lon="37.60864">
        <ele>1671.120849</ele>
        <time>2021-11-15T17:22:12.225Z</time>
      </trkpt>
      <trkpt lat="38.36876" lon="37.60876">
        <ele>1669.324405</ele>
        <time>2021-11-15T17:22:15.758Z</time>
      </trkpt>
      <trkpt lat="38.36997" lon="37.60983">
        <ele>1657.223622</ele>
        <time>2021-11-15T17:22:36.035Z</time>
      </trkpt>
      <trkpt lat="38.37052" lon="37.61006">
        <ele>1651.626595</ele>
        <time>2021-11-15T17:22:43.897Z</time>
      </trkpt>
      <trkpt lat="38.37212" lon="37.6103">
        <ele>1636.09078</ele>
        <time>2021-11-15T17:23:05.886Z</time>
      </trkpt>
      <trkpt lat="38.37325" lon="37.61072">
        <ele>1625.103591</ele>
        <time>2021-11-15T17:23:21.973Z</time>
      </trkpt>
      <trkpt lat="38.37353" lon="37.61077">
        <ele>1622.768042</ele>
        <time>2021-11-15T17:23:25.762Z</time>
      </trkpt>
      <trkpt lat="38.37412" lon="37.61076">
        <ele>1617.76736</ele>
        <time>2021-11-15T17:23:33.972Z</time>
      </trkpt>
      <trkpt lat="38.37467" lon="37.61056">
        <ele>1612.866911</ele>
        <time>2021-11-15T17:23:42.167Z</time>
      </trkpt>
      <trkpt lat="38.37567" lon="37.6098">
        <ele>1604.342448</ele>
        <time>2021-11-15T17:23:58.752Z</time>
      </trkpt>
      <trkpt lat="38.37592" lon="37.60953">
        <ele>1601.957832</ele>
        <time>2021-11-15T17:24:03.407Z</time>
      </trkpt>
      <trkpt lat="38.37596" lon="37.60952">
        <ele>1601.632528</ele>
        <time>2021-11-15T17:24:04.055Z</time>
      </trkpt>
      <trkpt lat="38.376" lon="37.60949">
        <ele>1601.304699</ele>
        <time>2021-11-15T17:24:04.713Z</time>
      </trkpt>
      <trkpt lat="38.37604" lon="37.60946">
        <ele>1600.981281</ele>
        <time>2021-11-15T17:24:05.369Z</time>
      </trkpt>
      <trkpt lat="38.37607" lon="37.6094">
        <ele>1600.564885</ele>
        <time>2021-11-15T17:24:06.184Z</time>
      </trkpt>
      <trkpt lat="38.37608" lon="37.60933">
        <ele>1600.150362</ele>
        <time>2021-11-15T17:24:06.984Z</time>
      </trkpt>
      <trkpt lat="38.37621" lon="37.60919">
        <ele>1598.774534</ele>
        <time>2021-11-15T17:24:09.347Z</time>
      </trkpt>
      <trkpt lat="38.37676" lon="37.60847">
        <ele>1591.780456</ele>
        <time>2021-11-15T17:24:20.289Z</time>
      </trkpt>
      <trkpt lat="38.37747" lon="37.60732">
        <ele>1581.662359</ele>
        <time>2021-11-15T17:24:35.930Z</time>
      </trkpt>
      <trkpt lat="38.37803" lon="37.60587">
        <ele>1570.706019</ele>
        <time>2021-11-15T17:24:53.517Z</time>
      </trkpt>
      <trkpt lat="38.37843" lon="37.605">
        <ele>1564.442506</ele>
        <time>2021-11-15T17:25:04.663Z</time>
      </trkpt>
      <trkpt lat="38.37976" lon="37.60141">
        <ele>1541.763113</ele>
        <time>2021-11-15T17:25:49.002Z</time>
      </trkpt>
      <trkpt lat="38.38065" lon="37.59934">
        <ele>1529.322621</ele>
        <time>2021-11-15T17:26:15.771Z</time>
      </trkpt>
      <trkpt lat="38.38146" lon="37.5971">
        <ele>1515.511521</ele>
        <time>2021-11-15T17:26:43.248Z</time>
      </trkpt>
      <trkpt lat="38.38163" lon="37.59675">
        <ele>1513.184637</ele>
        <time>2021-11-15T17:26:47.811Z</time>
      </trkpt>
      <trkpt lat="38.38246" lon="37.59541">
        <ele>1503.447923</ele>
        <time>2021-11-15T17:27:06.914Z</time>
      </trkpt>
      <trkpt lat="38.38409" lon="37.59291">
        <ele>1484.942369</ele>
        <time>2021-11-15T17:27:43.069Z</time>
      </trkpt>
      <trkpt lat="38.38433" lon="37.59241">
        <ele>1481.794474</ele>
        <time>2021-11-15T17:27:49.591Z</time>
      </trkpt>
      <trkpt lat="38.38507" lon="37.59016">
        <ele>1470.243805</ele>
        <time>2021-11-15T17:28:17.785Z</time>
      </trkpt>
      <trkpt lat="38.38534" lon="37.58969">
        <ele>1467.686569</ele>
        <time>2021-11-15T17:28:24.623Z</time>
      </trkpt>
      <trkpt lat="38.38562" lon="37.58936">
        <ele>1465.55441</ele>
        <time>2021-11-15T17:28:30.392Z</time>
      </trkpt>
      <trkpt lat="38.38589" lon="37.58912">
        <ele>1463.676329</ele>
        <time>2021-11-15T17:28:35.471Z</time>
      </trkpt>
      <trkpt lat="38.38775" lon="37.58821">
        <ele>1451.388185</ele>
        <time>2021-11-15T17:29:04.579Z</time>
      </trkpt>
      <trkpt lat="38.38837" lon="37.58774">
        <ele>1446.425723</ele>
        <time>2021-11-15T17:29:14.782Z</time>
      </trkpt>
      <trkpt lat="38.3888" lon="37.58732">
        <ele>1442.251267</ele>
        <time>2021-11-15T17:29:22.437Z</time>
      </trkpt>
      <trkpt lat="38.39063" lon="37.58482">
        <ele>1421.503089</ele>
        <time>2021-11-15T17:30:00.040Z</time>
      </trkpt>
      <trkpt lat="38.39098" lon="37.58445">
        <ele>1418.054364</ele>
        <time>2021-11-15T17:30:06.574Z</time>
      </trkpt>
      <trkpt lat="38.39196" lon="37.58369">
        <ele>1410.24529</ele>
        <time>2021-11-15T17:30:23.153Z</time>
      </trkpt>
      <trkpt lat="38.39265" lon="37.58298">
        <ele>1404.218771</ele>
        <time>2021-11-15T17:30:35.946Z</time>
      </trkpt>
      <trkpt lat="38.39307" lon="37.5823">
        <ele>1399.512628</ele>
        <time>2021-11-15T17:30:45.640Z</time>
      </trkpt>
      <trkpt lat="38.39337" lon="37.58156">
        <ele>1394.960785</ele>
        <time>2021-11-15T17:30:54.878Z</time>
      </trkpt>
      <trkpt lat="38.39374" lon="37.58044">
        <ele>1388.948155</ele>
        <time>2021-11-15T17:31:08.664Z</time>
      </trkpt>
      <trkpt lat="38.39382" lon="37.58022">
        <ele>1387.802808</ele>
        <time>2021-11-15T17:31:11.399Z</time>
      </trkpt>
      <trkpt lat="38.39408" lon="37.57939">
        <ele>1383.595154</ele>
        <time>2021-11-15T17:31:21.829Z</time>
      </trkpt>
      <trkpt lat="38.39433" lon="37.57879">
        <ele>1380.973259</ele>
        <time>2021-11-15T17:31:29.905Z</time>
      </trkpt>
      <trkpt lat="38.39463" lon="37.57826">
        <ele>1378.928536</ele>
        <time>2021-11-15T17:31:37.753Z</time>
      </trkpt>
      <trkpt lat="38.39498" lon="37.57782">
        <ele>1376.963864</ele>
        <time>2021-11-15T17:31:45.553Z</time>
      </trkpt>
      <trkpt lat="38.39559" lon="37.57725">
        <ele>1374.044855</ele>
        <time>2021-11-15T17:31:57.888Z</time>
      </trkpt>
      <trkpt lat="38.39597" lon="37.57697">
        <ele>1372.476379</ele>
        <time>2021-11-15T17:32:05.077Z</time>
      </trkpt>
      <trkpt lat="38.39608" lon="37.57689">
        <ele>1372.014677</ele>
        <time>2021-11-15T17:32:07.218Z</time>
      </trkpt>
      <trkpt lat="38.39653" lon="37.57666">
        <ele>1370.266518</ele>
        <time>2021-11-15T17:32:15.084Z</time>
      </trkpt>
      <trkpt lat="38.3972" lon="37.57647">
        <ele>1367.453518</ele>
        <time>2021-11-15T17:32:25.803Z</time>
      </trkpt>
      <trkpt lat="38.39984" lon="37.57617">
        <ele>1350.807331</ele>
        <time>2021-11-15T17:33:04.582Z</time>
      </trkpt>
      <trkpt lat="38.40045" lon="37.57608">
        <ele>1346.399299</ele>
        <time>2021-11-15T17:33:13.156Z</time>
      </trkpt>
      <trkpt lat="38.40096" lon="37.57593">
        <ele>1342.154429</ele>
        <time>2021-11-15T17:33:20.456Z</time>
      </trkpt>
      <trkpt lat="38.40171" lon="37.5756">
        <ele>1335.494053</ele>
        <time>2021-11-15T17:33:31.402Z</time>
      </trkpt>
      <trkpt lat="38.40386" lon="37.57419">
        <ele>1316.258119</ele>
        <time>2021-11-15T17:34:05.417Z</time>
      </trkpt>
      <trkpt lat="38.40503" lon="37.57372">
        <ele>1306.578918</ele>
        <time>2021-11-15T17:34:22.776Z</time>
      </trkpt>
      <trkpt lat="38.40624" lon="37.57348">
        <ele>1296.74032</ele>
        <time>2021-11-15T17:34:39.877Z</time>
      </trkpt>
      <trkpt lat="38.40724" lon="37.57353">
        <ele>1288.637792</ele>
        <time>2021-11-15T17:34:53.745Z</time>
      </trkpt>
      <trkpt lat="38.4085" lon="37.57383">
        <ele>1280.669076</ele>
        <time>2021-11-15T17:35:12.117Z</time>
      </trkpt>
      <trkpt lat="38.41211" lon="37.57567">
        <ele>1263.508811</ele>
        <time>2021-11-15T17:36:12.737Z</time>
      </trkpt>
      <trkpt lat="38.41264" lon="37.5759">
        <ele>1261.333274</ele>
        <time>2021-11-15T17:36:21.747Z</time>
      </trkpt>
      <trkpt lat="38.41356" lon="37.57617">
        <ele>1257.963267</ele>
        <time>2021-11-15T17:36:36.883Z</time>
      </trkpt>
      <trkpt lat="38.41505" lon="37.57634">
        <ele>1252.928617</ele>
        <time>2021-11-15T17:37:00.904Z</time>
      </trkpt>
      <trkpt lat="38.42092" lon="37.57666">
        <ele>1234.081878</ele>
        <time>2021-11-15T17:38:36.916Z</time>
      </trkpt>
      <trkpt lat="38.42178" lon="37.57671">
        <ele>1231.072876</ele>
        <time>2021-11-15T17:38:50.701Z</time>
      </trkpt>
      <trkpt lat="38.42239" lon="37.57674">
        <ele>1228.676928</ele>
        <time>2021-11-15T17:39:00.390Z</time>
      </trkpt>
      <trkpt lat="38.42606" lon="37.57691">
        <ele>1213.546561</ele>
        <time>2021-11-15T17:39:57.289Z</time>
      </trkpt>
      <trkpt lat="38.42717" lon="37.57709">
        <ele>1209.391659</ele>
        <time>2021-11-15T17:40:15.207Z</time>
      </trkpt>
      <trkpt lat="38.42801" lon="37.57735">
        <ele>1206.655935</ele>
        <time>2021-11-15T17:40:29.405Z</time>
      </trkpt>
      <trkpt lat="38.43031" lon="37.57859">
        <ele>1199.23167</ele>
        <time>2021-11-15T17:41:10.684Z</time>
      </trkpt>
      <trkpt lat="38.43134" lon="37.57907">
        <ele>1195.753283</ele>
        <time>2021-11-15T17:41:28.720Z</time>
      </trkpt>
      <trkpt lat="38.43472" lon="37.58003">
        <ele>1185.21614</ele>
        <time>2021-11-15T17:42:24.625Z</time>
      </trkpt>
      <trkpt lat="38.43509" lon="37.58019">
        <ele>1184.279124</ele>
        <time>2021-11-15T17:42:31.995Z</time>
      </trkpt>
      <trkpt lat="38.43535" lon="37.58029">
        <ele>1183.649396</ele>
        <time>2021-11-15T17:42:37.080Z</time>
      </trkpt>
      <trkpt lat="38.43578" lon="37.58037">
        <ele>1183.335403</ele>
        <time>2021-11-15T17:42:46.221Z</time>
      </trkpt>
      <trkpt lat="38.43681" lon="37.58072">
        <ele>1182.802841</ele>
        <time>2021-11-15T17:43:10.281Z</time>
      </trkpt>
      <trkpt lat="38.43854" lon="37.58169">
        <ele>1179.696388</ele>
        <time>2021-11-15T17:43:44.929Z</time>
      </trkpt>
      <trkpt lat="38.43921" lon="37.58206">
        <ele>1177.245394</ele>
        <time>2021-11-15T17:43:56.484Z</time>
      </trkpt>
      <trkpt lat="38.43964" lon="37.58227">
        <ele>1175.31075</ele>
        <time>2021-11-15T17:44:03.679Z</time>
      </trkpt>
      <trkpt lat="38.44105" lon="37.58282">
        <ele>1168.772323</ele>
        <time>2021-11-15T17:44:26.146Z</time>
      </trkpt>
      <trkpt lat="38.44184" lon="37.58307">
        <ele>1164.898561</ele>
        <time>2021-11-15T17:44:38.482Z</time>
      </trkpt>
      <trkpt lat="38.44402" lon="37.58348">
        <ele>1154.540179</ele>
        <time>2021-11-15T17:45:12.112Z</time>
      </trkpt>
      <trkpt lat="38.44528" lon="37.58358">
        <ele>1149.968763</ele>
        <time>2021-11-15T17:45:31.929Z</time>
      </trkpt>
      <trkpt lat="38.4464" lon="37.58356">
        <ele>1146.652953</ele>
        <time>2021-11-15T17:45:50.684Z</time>
      </trkpt>
      <trkpt lat="38.44901" lon="37.58335">
        <ele>1141.451064</ele>
        <time>2021-11-15T17:46:36.444Z</time>
      </trkpt>
      <trkpt lat="38.45038" lon="37.58326">
        <ele>1140.767133</ele>
        <time>2021-11-15T17:47:04.540Z</time>
      </trkpt>
      <trkpt lat="38.4519" lon="37.58319">
        <ele>1140.006773</ele>
        <time>2021-11-15T17:47:42.469Z</time>
      </trkpt>
      <trkpt lat="38.46317" lon="37.58509">
        <ele>1128.288216</ele>
        <time>2021-11-15T17:51:19.322Z</time>
      </trkpt>
      <trkpt lat="38.46423" lon="37.58539">
        <ele>1125.997804</ele>
        <time>2021-11-15T17:51:38.339Z</time>
      </trkpt>
      <trkpt lat="38.46461" lon="37.58554">
        <ele>1124.93653</ele>
        <time>2021-11-15T17:51:44.966Z</time>
      </trkpt>
      <trkpt lat="38.46629" lon="37.58618">
        <ele>1119.574261</ele>
        <time>2021-11-15T17:52:13.606Z</time>
      </trkpt>
      <trkpt lat="38.46691" lon="37.58642">
        <ele>1117.390239</ele>
        <time>2021-11-15T17:52:23.965Z</time>
      </trkpt>
      <trkpt lat="38.46732" lon="37.5866">
        <ele>1115.816291</ele>
        <time>2021-11-15T17:52:30.897Z</time>
      </trkpt>
      <trkpt lat="38.46735" lon="37.58663">
        <ele>1115.647157</ele>
        <time>2021-11-15T17:52:31.592Z</time>
      </trkpt>
      <trkpt lat="38.4674" lon="37.58665">
        <ele>1115.478985</ele>
        <time>2021-11-15T17:52:32.306Z</time>
      </trkpt>
      <trkpt lat="38.46744" lon="37.58665">
        <ele>1115.309206</ele>
        <time>2021-11-15T17:52:33.002Z</time>
      </trkpt>
      <trkpt lat="38.46769" lon="37.58671">
        <ele>1114.337327</ele>
        <time>2021-11-15T17:52:36.978Z</time>
      </trkpt>
      <trkpt lat="38.46822" lon="37.58684">
        <ele>1112.266032</ele>
        <time>2021-11-15T17:52:45.406Z</time>
      </trkpt>
      <trkpt lat="38.46903" lon="37.5871">
        <ele>1109.046419</ele>
        <time>2021-11-15T17:52:58.654Z</time>
      </trkpt>
      <trkpt lat="38.46917" lon="37.58714">
        <ele>1108.52436</ele>
        <time>2021-11-15T17:53:00.823Z</time>
      </trkpt>
      <trkpt lat="38.47106" lon="37.58781">
        <ele>1101.186695</ele>
        <time>2021-11-15T17:53:32.096Z</time>
      </trkpt>
      <trkpt lat="38.47245" lon="37.5883">
        <ele>1095.828594</ele>
        <time>2021-11-15T17:53:54.716Z</time>
      </trkpt>
      <trkpt lat="38.47284" lon="37.5884">
        <ele>1094.746575</ele>
        <time>2021-11-15T17:54:01.274Z</time>
      </trkpt>
      <trkpt lat="38.47325" lon="37.58852">
        <ele>1093.620468</ele>
        <time>2021-11-15T17:54:08.414Z</time>
      </trkpt>
      <trkpt lat="38.47359" lon="37.58861">
        <ele>1092.705149</ele>
        <time>2021-11-15T17:54:14.276Z</time>
      </trkpt>
      <trkpt lat="38.47385" lon="37.58864">
        <ele>1092.002902</ele>
        <time>2021-11-15T17:54:18.766Z</time>
      </trkpt>
      <trkpt lat="38.47409" lon="37.58866">
        <ele>1091.348443</ele>
        <time>2021-11-15T17:54:23.094Z</time>
      </trkpt>
      <trkpt lat="38.47482" lon="37.58868">
        <ele>1089.960767</ele>
        <time>2021-11-15T17:54:36.297Z</time>
      </trkpt>
      <trkpt lat="38.47514" lon="37.58866">
        <ele>1089.345795</ele>
        <time>2021-11-15T17:54:42.180Z</time>
      </trkpt>
      <trkpt lat="38.47634" lon="37.58853">
        <ele>1086.407441</ele>
        <time>2021-11-15T17:55:03.114Z</time>
      </trkpt>
      <trkpt lat="38.47725" lon="37.5883">
        <ele>1083.36263</ele>
        <time>2021-11-15T17:55:18.027Z</time>
      </trkpt>
      <trkpt lat="38.47749" lon="37.58821">
        <ele>1082.543985</ele>
        <time>2021-11-15T17:55:22.053Z</time>
      </trkpt>
      <trkpt lat="38.47774" lon="37.58812">
        <ele>1081.484035</ele>
        <time>2021-11-15T17:55:26.089Z</time>
      </trkpt>
      <trkpt lat="38.47852" lon="37.58774">
        <ele>1077.031394</ele>
        <time>2021-11-15T17:55:38.803Z</time>
      </trkpt>
      <trkpt lat="38.47853" lon="37.58774">
        <ele>1076.985525</ele>
        <time>2021-11-15T17:55:38.916Z</time>
      </trkpt>
      <trkpt lat="38.47914" lon="37.58735">
        <ele>1073.35173</ele>
        <time>2021-11-15T17:55:49.025Z</time>
      </trkpt>
      <trkpt lat="38.48449" lon="37.58345">
        <ele>1032.70483</ele>
        <time>2021-11-15T17:57:17.537Z</time>
      </trkpt>
      <trkpt lat="38.48538" lon="37.58301">
        <ele>1027.858999</ele>
        <time>2021-11-15T17:57:32.196Z</time>
      </trkpt>
      <trkpt lat="38.48583" lon="37.58285">
        <ele>1026.044281</ele>
        <time>2021-11-15T17:57:39.752Z</time>
      </trkpt>
      <trkpt lat="38.48643" lon="37.58274">
        <ele>1024.586947</ele>
        <time>2021-11-15T17:57:49.818Z</time>
      </trkpt>
      <trkpt lat="38.48941" lon="37.58272">
        <ele>1018.601364</ele>
        <time>2021-11-15T17:58:42.876Z</time>
      </trkpt>
      <trkpt lat="38.49074" lon="37.58257">
        <ele>1016.500687</ele>
        <time>2021-11-15T17:59:07.335Z</time>
      </trkpt>
      <trkpt lat="38.49157" lon="37.58231">
        <ele>1014.965344</ele>
        <time>2021-11-15T17:59:22.951Z</time>
      </trkpt>
      <trkpt lat="38.49229" lon="37.58198">
        <ele>1013.505532</ele>
        <time>2021-11-15T17:59:36.684Z</time>
      </trkpt>
      <trkpt lat="38.49271" lon="37.58177">
        <ele>1012.626787</ele>
        <time>2021-11-15T17:59:44.540Z</time>
      </trkpt>
      <trkpt lat="38.49356" lon="37.58134">
        <ele>1009.966903</ele>
        <time>2021-11-15T17:59:59.662Z</time>
      </trkpt>
      <trkpt lat="38.49523" lon="37.5805">
        <ele>1005.418184</ele>
        <time>2021-11-15T18:00:28.858Z</time>
      </trkpt>
      <trkpt lat="38.49611" lon="37.58004">
        <ele>1003.522287</ele>
        <time>2021-11-15T18:00:46.314Z</time>
      </trkpt>
      <trkpt lat="38.49666" lon="37.57962">
        <ele>1003.819292</ele>
        <time>2021-11-15T18:01:01.043Z</time>
      </trkpt>
      <trkpt lat="38.49734" lon="37.57884">
        <ele>1004.234756</ele>
        <time>2021-11-15T18:01:24.976Z</time>
      </trkpt>
      <trkpt lat="38.49772" lon="37.57819">
        <ele>1004.672387</ele>
        <time>2021-11-15T18:01:42.253Z</time>
      </trkpt>
      <trkpt lat="38.4981" lon="37.57705">
        <ele>1005.425225</ele>
        <time>2021-11-15T18:02:06.850Z</time>
      </trkpt>
      <trkpt lat="38.49822" lon="37.57606">
        <ele>1005.92835</ele>
        <time>2021-11-15T18:02:25.324Z</time>
      </trkpt>
      <trkpt lat="38.49814" lon="37.5749">
        <ele>1006.4062</ele>
        <time>2021-11-15T18:02:46.996Z</time>
      </trkpt>
      <trkpt lat="38.49774" lon="37.5721">
        <ele>1008.125346</ele>
        <time>2021-11-15T18:03:44.396Z</time>
      </trkpt>
      <trkpt lat="38.49771" lon="37.57104">
        <ele>1008.180848</ele>
        <time>2021-11-15T18:04:04.736Z</time>
      </trkpt>
      <trkpt lat="38.49786" lon="37.56976">
        <ele>1008.201838</ele>
        <time>2021-11-15T18:04:26.363Z</time>
      </trkpt>
      <trkpt lat="38.49834" lon="37.56861">
        <ele>1006.706689</ele>
        <time>2021-11-15T18:04:45.664Z</time>
      </trkpt>
      <trkpt lat="38.49882" lon="37.56782">
        <ele>1005.556818</ele>
        <time>2021-11-15T18:04:59.471Z</time>
      </trkpt>
      <trkpt lat="38.49929" lon="37.56727">
        <ele>1003.869399</ele>
        <time>2021-11-15T18:05:10.306Z</time>
      </trkpt>
      <trkpt lat="38.49983" lon="37.56686">
        <ele>1002.198275</ele>
        <time>2021-11-15T18:05:20.821Z</time>
      </trkpt>
      <trkpt lat="38.50052" lon="37.56646">
        <ele>1000.08627</ele>
        <time>2021-11-15T18:05:33.415Z</time>
      </trkpt>
      <trkpt lat="38.5052" lon="37.56409">
        <ele>985.331128</ele>
        <time>2021-11-15T18:06:56.196Z</time>
      </trkpt>
      <trkpt lat="38.50622" lon="37.56354">
        <ele>984.049019</ele>
        <time>2021-11-15T18:07:16.668Z</time>
      </trkpt>
      <trkpt lat="38.5068" lon="37.5631">
        <ele>983.415058</ele>
        <time>2021-11-15T18:07:30.848Z</time>
      </trkpt>
      <trkpt lat="38.50728" lon="37.56251">
        <ele>983.667623</ele>
        <time>2021-11-15T18:07:46.745Z</time>
      </trkpt>
      <trkpt lat="38.50758" lon="37.56203">
        <ele>984.022984</ele>
        <time>2021-11-15T18:07:59.482Z</time>
      </trkpt>
      <trkpt lat="38.50784" lon="37.56125">
        <ele>984.517645</ele>
        <time>2021-11-15T18:08:17.092Z</time>
      </trkpt>
      <trkpt lat="38.50798" lon="37.56051">
        <ele>984.852477</ele>
        <time>2021-11-15T18:08:31.894Z</time>
      </trkpt>
      <trkpt lat="38.50803" lon="37.56027">
        <ele>984.950247</ele>
        <time>2021-11-15T18:08:36.730Z</time>
      </trkpt>
      <trkpt lat="38.50804" lon="37.5594">
        <ele>985.296668</ele>
        <time>2021-11-15T18:08:53.000Z</time>
      </trkpt>
      <trkpt lat="38.5079" lon="37.55854">
        <ele>985.699544</ele>
        <time>2021-11-15T18:09:08.798Z</time>
      </trkpt>
      <trkpt lat="38.50436" lon="37.5458">
        <ele>994.019376</ele>
        <time>2021-11-15T18:13:36.757Z</time>
      </trkpt>
      <trkpt lat="38.50408" lon="37.54463">
        <ele>995.993206</ele>
        <time>2021-11-15T18:14:06.674Z</time>
      </trkpt>
      <trkpt lat="38.50402" lon="37.54395">
        <ele>997.083499</ele>
        <time>2021-11-15T18:14:23.490Z</time>
      </trkpt>
      <trkpt lat="38.50398" lon="37.54356">
        <ele>997.720638</ele>
        <time>2021-11-15T18:14:33.306Z</time>
      </trkpt>
      <trkpt lat="38.50406" lon="37.54261">
        <ele>998.93139</ele>
        <time>2021-11-15T18:14:55.924Z</time>
      </trkpt>
      <trkpt lat="38.50499" lon="37.53817">
        <ele>1002.649574</ele>
        <time>2021-11-15T18:16:34.323Z</time>
      </trkpt>
      <trkpt lat="38.50501" lon="37.53744">
        <ele>1002.442673</ele>
        <time>2021-11-15T18:16:45.280Z</time>
      </trkpt>
      <trkpt lat="38.50493" lon="37.53678">
        <ele>1002.159162</ele>
        <time>2021-11-15T18:16:54.633Z</time>
      </trkpt>
      <trkpt lat="38.50474" lon="37.53615">
        <ele>1000.980748</ele>
        <time>2021-11-15T18:17:03.646Z</time>
      </trkpt>
      <trkpt lat="38.50453" lon="37.53561">
        <ele>999.939935</ele>
        <time>2021-11-15T18:17:11.545Z</time>
      </trkpt>
      <trkpt lat="38.50412" lon="37.53498">
        <ele>998.517611</ele>
        <time>2021-11-15T18:17:22.524Z</time>
      </trkpt>
      <trkpt lat="38.50289" lon="37.53335">
        <ele>995.753821</ele>
        <time>2021-11-15T18:17:54.962Z</time>
      </trkpt>
      <trkpt lat="38.50255" lon="37.53273">
        <ele>995.160106</ele>
        <time>2021-11-15T18:18:06.293Z</time>
      </trkpt>
      <trkpt lat="38.5023" lon="37.53199">
        <ele>994.621496</ele>
        <time>2021-11-15T18:18:18.499Z</time>
      </trkpt>
      <trkpt lat="38.50216" lon="37.53126">
        <ele>994.119508</ele>
        <time>2021-11-15T18:18:30.226Z</time>
      </trkpt>
      <trkpt lat="38.50216" lon="37.53024">
        <ele>994.202878</ele>
        <time>2021-11-15T18:18:47.711Z</time>
      </trkpt>
      <trkpt lat="38.50222" lon="37.52936">
        <ele>994.392187</ele>
        <time>2021-11-15T18:19:04.114Z</time>
      </trkpt>
      <trkpt lat="38.50245" lon="37.52852">
        <ele>994.774522</ele>
        <time>2021-11-15T18:19:21.951Z</time>
      </trkpt>
      <trkpt lat="38.50277" lon="37.52787">
        <ele>995.363017</ele>
        <time>2021-11-15T18:19:37.827Z</time>
      </trkpt>
      <trkpt lat="38.50329" lon="37.52721">
        <ele>996.081662</ele>
        <time>2021-11-15T18:19:57.325Z</time>
      </trkpt>
      <trkpt lat="38.5037" lon="37.52678">
        <ele>996.628152</ele>
        <time>2021-11-15T18:20:11.210Z</time>
      </trkpt>
      <trkpt lat="38.50675" lon="37.52467">
        <ele>1000.430216</ele>
        <time>2021-11-15T18:21:43.124Z</time>
      </trkpt>
      <trkpt lat="38.50691" lon="37.52458">
        <ele>1000.651454</ele>
        <time>2021-11-15T18:21:48.382Z</time>
      </trkpt>
      <trkpt lat="38.50811" lon="37.52394">
        <ele>1002.267259</ele>
        <time>2021-11-15T18:22:24.489Z</time>
      </trkpt>
      <trkpt lat="38.51063" lon="37.52276">
        <ele>1002.856051</ele>
        <time>2021-11-15T18:23:29.917Z</time>
      </trkpt>
      <trkpt lat="38.51361" lon="37.52143">
        <ele>998.279175</ele>
        <time>2021-11-15T18:24:26.262Z</time>
      </trkpt>
      <trkpt lat="38.51468" lon="37.52106">
        <ele>996.75712</ele>
        <time>2021-11-15T18:24:46.455Z</time>
      </trkpt>
      <trkpt lat="38.51583" lon="37.52083">
        <ele>996.405214</ele>
        <time>2021-11-15T18:25:09.918Z</time>
      </trkpt>
      <trkpt lat="38.51681" lon="37.52072">
        <ele>996.586836</ele>
        <time>2021-11-15T18:25:34.205Z</time>
      </trkpt>
      <trkpt lat="38.52004" lon="37.52073">
        <ele>1002.468045</ele>
        <time>2021-11-15T18:27:09.659Z</time>
      </trkpt>
      <trkpt lat="38.52108" lon="37.52068">
        <ele>1004.966541</ele>
        <time>2021-11-15T18:27:43.616Z</time>
      </trkpt>
      <trkpt lat="38.52194" lon="37.52049">
        <ele>1007.220364</ele>
        <time>2021-11-15T18:28:12.442Z</time>
      </trkpt>
      <trkpt lat="38.52265" lon="37.52023">
        <ele>1008.915254</ele>
        <time>2021-11-15T18:28:36.420Z</time>
      </trkpt>
      <trkpt lat="38.52358" lon="37.51977">
        <ele>1011.081302</ele>
        <time>2021-11-15T18:29:07.728Z</time>
      </trkpt>
      <trkpt lat="38.52442" lon="37.5192">
        <ele>1011.990351</ele>
        <time>2021-11-15T18:29:34.304Z</time>
      </trkpt>
      <trkpt lat="38.53108" lon="37.51422">
        <ele>1014.295333</ele>
        <time>2021-11-15T18:32:31.966Z</time>
      </trkpt>
      <trkpt lat="38.53205" lon="37.51363">
        <ele>1014.457748</ele>
        <time>2021-11-15T18:32:56.648Z</time>
      </trkpt>
      <trkpt lat="38.5333" lon="37.513">
        <ele>1014.581576</ele>
        <time>2021-11-15T18:33:27.572Z</time>
      </trkpt>
      <trkpt lat="38.5344" lon="37.51258">
        <ele>1014.17645</ele>
        <time>2021-11-15T18:33:51.755Z</time>
      </trkpt>
      <trkpt lat="38.5362" lon="37.51209">
        <ele>1013.72948</ele>
        <time>2021-11-15T18:34:29.182Z</time>
      </trkpt>
      <trkpt lat="38.53788" lon="37.51169">
        <ele>1014.410365</ele>
        <time>2021-11-15T18:35:10.456Z</time>
      </trkpt>
      <trkpt lat="38.53986" lon="37.51148">
        <ele>1016.424179</ele>
        <time>2021-11-15T18:36:03.468Z</time>
      </trkpt>
      <trkpt lat="38.54047" lon="37.51113">
        <ele>1017.17249</ele>
        <time>2021-11-15T18:36:21.821Z</time>
      </trkpt>
      <trkpt lat="38.54095" lon="37.51063">
        <ele>1017.705768</ele>
        <time>2021-11-15T18:36:38.786Z</time>
      </trkpt>
      <trkpt lat="38.54176" lon="37.50966">
        <ele>1018.60532</ele>
        <time>2021-11-15T18:37:06.689Z</time>
      </trkpt>
      <trkpt lat="38.54214" lon="37.50937">
        <ele>1018.550111</ele>
        <time>2021-11-15T18:37:16.637Z</time>
      </trkpt>
      <trkpt lat="38.54269" lon="37.50925">
        <ele>1018.480774</ele>
        <time>2021-11-15T18:37:28.435Z</time>
      </trkpt>
      <trkpt lat="38.54329" lon="37.50928">
        <ele>1018.406619</ele>
        <time>2021-11-15T18:37:40.896Z</time>
      </trkpt>
      <trkpt lat="38.54376" lon="37.50951">
        <ele>1018.368172</ele>
        <time>2021-11-15T18:37:51.476Z</time>
      </trkpt>
      <trkpt lat="38.54414" lon="37.50988">
        <ele>1018.341568</ele>
        <time>2021-11-15T18:38:01.719Z</time>
      </trkpt>
      <trkpt lat="38.54504" lon="37.51117">
        <ele>1018.373524</ele>
        <time>2021-11-15T18:38:32.315Z</time>
      </trkpt>
      <trkpt lat="38.54558" lon="37.51173">
        <ele>1018.530029</ele>
        <time>2021-11-15T18:38:48.729Z</time>
      </trkpt>
      <trkpt lat="38.54596" lon="37.51199">
        <ele>1018.625747</ele>
        <time>2021-11-15T18:38:58.692Z</time>
      </trkpt>
      <trkpt lat="38.54641" lon="37.51211">
        <ele>1018.763423</ele>
        <time>2021-11-15T18:39:09.344Z</time>
      </trkpt>
      <trkpt lat="38.54689" lon="37.51211">
        <ele>1018.966105</ele>
        <time>2021-11-15T18:39:20.518Z</time>
      </trkpt>
      <trkpt lat="38.54776" lon="37.51182">
        <ele>1019.347167</ele>
        <time>2021-11-15T18:39:42.123Z</time>
      </trkpt>
      <trkpt lat="38.54811" lon="37.5115">
        <ele>1019.625355</ele>
        <time>2021-11-15T18:39:52.845Z</time>
      </trkpt>
      <trkpt lat="38.54837" lon="37.5111">
        <ele>1019.990394</ele>
        <time>2021-11-15T18:40:02.788Z</time>
      </trkpt>
      <trkpt lat="38.54855" lon="37.51055">
        <ele>1020.418206</ele>
        <time>2021-11-15T18:40:14.596Z</time>
      </trkpt>
      <trkpt lat="38.54855" lon="37.50994">
        <ele>1020.847403</ele>
        <time>2021-11-15T18:40:26.590Z</time>
      </trkpt>
      <trkpt lat="38.54825" lon="37.50864">
        <ele>1023.193107</ele>
        <time>2021-11-15T18:40:57.977Z</time>
      </trkpt>
      <trkpt lat="38.54818" lon="37.50809">
        <ele>1024.356138</ele>
        <time>2021-11-15T18:41:13.013Z</time>
      </trkpt>
      <trkpt lat="38.54819" lon="37.50769">
        <ele>1025.189466</ele>
        <time>2021-11-15T18:41:24.515Z</time>
      </trkpt>
      <trkpt lat="38.54819" lon="37.50746">
        <ele>1025.677847</ele>
        <time>2021-11-15T18:41:31.801Z</time>
      </trkpt>
      <trkpt lat="38.54837" lon="37.50551">
        <ele>1029.835794</ele>
        <time>2021-11-15T18:42:26.806Z</time>
      </trkpt>
      <trkpt lat="38.54865" lon="37.50342">
        <ele>1030.702693</ele>
        <time>2021-11-15T18:43:05.863Z</time>
      </trkpt>
      <trkpt lat="38.54875" lon="37.50262">
        <ele>1030.468634</ele>
        <time>2021-11-15T18:43:17.587Z</time>
      </trkpt>
      <trkpt lat="38.54936" lon="37.49927">
        <ele>1027.194663</ele>
        <time>2021-11-15T18:44:07.404Z</time>
      </trkpt>
      <trkpt lat="38.54955" lon="37.49849">
        <ele>1026.56247</ele>
        <time>2021-11-15T18:44:20.181Z</time>
      </trkpt>
      <trkpt lat="38.54986" lon="37.4976">
        <ele>1026.487597</ele>
        <time>2021-11-15T18:44:36.721Z</time>
      </trkpt>
      <trkpt lat="38.55025" lon="37.49685">
        <ele>1026.53119</ele>
        <time>2021-11-15T18:44:52.930Z</time>
      </trkpt>
      <trkpt lat="38.55061" lon="37.49636">
        <ele>1026.582909</ele>
        <time>2021-11-15T18:45:05.416Z</time>
      </trkpt>
      <trkpt lat="38.55215" lon="37.49462">
        <ele>1027.215298</ele>
        <time>2021-11-15T18:45:53.483Z</time>
      </trkpt>
      <trkpt lat="38.55495" lon="37.49179">
        <ele>1028.757337</ele>
        <time>2021-11-15T18:47:17.858Z</time>
      </trkpt>
      <trkpt lat="38.55619" lon="37.49091">
        <ele>1030.481576</ele>
        <time>2021-11-15T18:47:55.905Z</time>
      </trkpt>
      <trkpt lat="38.55659" lon="37.49073">
        <ele>1031.766953</ele>
        <time>2021-11-15T18:48:09.401Z</time>
      </trkpt>
      <trkpt lat="38.55739" lon="37.49037">
        <ele>1034.687325</ele>
        <time>2021-11-15T18:48:39.649Z</time>
      </trkpt>
      <trkpt lat="38.55908" lon="37.4899">
        <ele>1041.221603</ele>
        <time>2021-11-15T18:49:50.501Z</time>
      </trkpt>
      <trkpt lat="38.55909" lon="37.48989">
        <ele>1041.237758</ele>
        <time>2021-11-15T18:49:51.049Z</time>
      </trkpt>
      <trkpt lat="38.55988" lon="37.48973">
        <ele>1043.904656</ele>
        <time>2021-11-15T18:50:19.233Z</time>
      </trkpt>
      <trkpt lat="38.56177" lon="37.48934">
        <ele>1043.85672</ele>
        <time>2021-11-15T18:51:01.350Z</time>
      </trkpt>
      <trkpt lat="38.56256" lon="37.48918">
        <ele>1041.935778</ele>
        <time>2021-11-15T18:51:14.657Z</time>
      </trkpt>
      <trkpt lat="38.56301" lon="37.48909">
        <ele>1040.868264</ele>
        <time>2021-11-15T18:51:21.793Z</time>
      </trkpt>
      <trkpt lat="38.56453" lon="37.48869">
        <ele>1038.680907</ele>
        <time>2021-11-15T18:51:48.625Z</time>
      </trkpt>
      <trkpt lat="38.56514" lon="37.48837">
        <ele>1038.463032</ele>
        <time>2021-11-15T18:52:05.431Z</time>
      </trkpt>
      <trkpt lat="38.56584" lon="37.48778">
        <ele>1041.290794</ele>
        <time>2021-11-15T18:52:33.400Z</time>
      </trkpt>
      <trkpt lat="38.5664" lon="37.48699">
        <ele>1044.08468</ele>
        <time>2021-11-15T18:53:07.098Z</time>
      </trkpt>
      <trkpt lat="38.56708" lon="37.48567">
        <ele>1050.987747</ele>
        <time>2021-11-15T18:54:03.182Z</time>
      </trkpt>
      <trkpt lat="38.56723" lon="37.48534">
        <ele>1052.630282</ele>
        <time>2021-11-15T18:54:16.510Z</time>
      </trkpt>
      <trkpt lat="38.56748" lon="37.48487">
        <ele>1055.051318</ele>
        <time>2021-11-15T18:54:36.512Z</time>
      </trkpt>
      <trkpt lat="38.56822" lon="37.48337">
        <ele>1062.392907</ele>
        <time>2021-11-15T18:55:36.479Z</time>
      </trkpt>
      <trkpt lat="38.56848" lon="37.48273">
        <ele>1065.795967</ele>
        <time>2021-11-15T18:55:59.772Z</time>
      </trkpt>
      <trkpt lat="38.56885" lon="37.48138">
        <ele>1073.130405</ele>
        <time>2021-11-15T18:56:53.188Z</time>
      </trkpt>
      <trkpt lat="38.569" lon="37.48055">
        <ele>1078.28457</ele>
        <time>2021-11-15T18:57:29.932Z</time>
      </trkpt>
      <trkpt lat="38.56907" lon="37.4796">
        <ele>1084.993498</ele>
        <time>2021-11-15T18:58:15.641Z</time>
      </trkpt>
      <trkpt lat="38.56903" lon="37.47825">
        <ele>1093.636803</ele>
        <time>2021-11-15T18:59:18.322Z</time>
      </trkpt>
      <trkpt lat="38.56902" lon="37.47799">
        <ele>1094.862071</ele>
        <time>2021-11-15T18:59:30.004Z</time>
      </trkpt>
      <trkpt lat="38.56894" lon="37.47741">
        <ele>1097.703281</ele>
        <time>2021-11-15T18:59:52.052Z</time>
      </trkpt>
      <trkpt lat="38.5684" lon="37.47451">
        <ele>1108.808818</ele>
        <time>2021-11-15T19:01:20.585Z</time>
      </trkpt>
      <trkpt lat="38.56828" lon="37.47344">
        <ele>1113.061321</ele>
        <time>2021-11-15T19:01:53.599Z</time>
      </trkpt>
      <trkpt lat="38.56835" lon="37.47207">
        <ele>1119.005215</ele>
        <time>2021-11-15T19:02:42.423Z</time>
      </trkpt>
      <trkpt lat="38.56876" lon="37.46918">
        <ele>1135.017526</ele>
        <time>2021-11-15T19:04:40.925Z</time>
      </trkpt>
      <trkpt lat="38.56875" lon="37.46806">
        <ele>1140.831131</ele>
        <time>2021-11-15T19:05:24.488Z</time>
      </trkpt>
      <trkpt lat="38.56854" lon="37.46702">
        <ele>1146.140507</ele>
        <time>2021-11-15T19:06:03.362Z</time>
      </trkpt>
      <trkpt lat="38.56809" lon="37.46579">
        <ele>1152.094152</ele>
        <time>2021-11-15T19:06:49.896Z</time>
      </trkpt>
      <trkpt lat="38.56788" lon="37.46488">
        <ele>1156.563433</ele>
        <time>2021-11-15T19:07:22.252Z</time>
      </trkpt>
      <trkpt lat="38.56785" lon="37.46461">
        <ele>1158.026856</ele>
        <time>2021-11-15T19:07:32.440Z</time>
      </trkpt>
      <trkpt lat="38.56787" lon="37.46394">
        <ele>1161.572</ele>
        <time>2021-11-15T19:07:59.120Z</time>
      </trkpt>
      <trkpt lat="38.56802" lon="37.46314">
        <ele>1165.970848</ele>
        <time>2021-11-15T19:08:31.903Z</time>
      </trkpt>
      <trkpt lat="38.56805" lon="37.46299">
        <ele>1166.825237</ele>
        <time>2021-11-15T19:08:39.374Z</time>
      </trkpt>
      <trkpt lat="38.56809" lon="37.46295">
        <ele>1167.143165</ele>
        <time>2021-11-15T19:08:41.695Z</time>
      </trkpt>
      <trkpt lat="38.56812" lon="37.46291">
        <ele>1167.469787</ele>
        <time>2021-11-15T19:08:44.015Z</time>
      </trkpt>
      <trkpt lat="38.56813" lon="37.46286">
        <ele>1167.741018</ele>
        <time>2021-11-15T19:08:45.881Z</time>
      </trkpt>
      <trkpt lat="38.56814" lon="37.46281">
        <ele>1168.012207</ele>
        <time>2021-11-15T19:08:47.604Z</time>
      </trkpt>
      <trkpt lat="38.56813" lon="37.46277">
        <ele>1168.277845</ele>
        <time>2021-11-15T19:08:49.224Z</time>
      </trkpt>
      <trkpt lat="38.56826" lon="37.46242">
        <ele>1170.419585</ele>
        <time>2021-11-15T19:09:05.449Z</time>
      </trkpt>
      <trkpt lat="38.56838" lon="37.46208">
        <ele>1172.529809</ele>
        <time>2021-11-15T19:09:21.082Z</time>
      </trkpt>
      <trkpt lat="38.56864" lon="37.46167">
        <ele>1175.433197</ele>
        <time>2021-11-15T19:09:42.280Z</time>
      </trkpt>
      <trkpt lat="38.56885" lon="37.46142">
        <ele>1177.491763</ele>
        <time>2021-11-15T19:09:57.512Z</time>
      </trkpt>
      <trkpt lat="38.56932" lon="37.461">
        <ele>1180.96803</ele>
        <time>2021-11-15T19:10:24.379Z</time>
      </trkpt>
      <trkpt lat="38.5698" lon="37.46073">
        <ele>1183.304861</ele>
        <time>2021-11-15T19:10:46.355Z</time>
      </trkpt>
      <trkpt lat="38.57021" lon="37.46061">
        <ele>1185.174605</ele>
        <time>2021-11-15T19:11:02.800Z</time>
      </trkpt>
      <trkpt lat="38.57086" lon="37.46056">
        <ele>1188.044028</ele>
        <time>2021-11-15T19:11:25.840Z</time>
      </trkpt>
      <trkpt lat="38.57111" lon="37.46062">
        <ele>1188.982061</ele>
        <time>2021-11-15T19:11:34.358Z</time>
      </trkpt>
      <trkpt lat="38.57166" lon="37.46082">
        <ele>1191.08513</ele>
        <time>2021-11-15T19:11:53.444Z</time>
      </trkpt>
      <trkpt lat="38.57226" lon="37.46123">
        <ele>1193.619062</ele>
        <time>2021-11-15T19:12:17.192Z</time>
      </trkpt>
      <trkpt lat="38.57391" lon="37.46254">
        <ele>1205.794763</ele>
        <time>2021-11-15T19:13:48.973Z</time>
      </trkpt>
      <trkpt lat="38.57507" lon="37.4636">
        <ele>1219.105296</ele>
        <time>2021-11-15T19:15:19.192Z</time>
      </trkpt>
      <trkpt lat="38.57611" lon="37.46442">
        <ele>1229.37692</ele>
        <time>2021-11-15T19:16:31.991Z</time>
      </trkpt>
      <trkpt lat="38.57701" lon="37.46498">
        <ele>1236.955892</ele>
        <time>2021-11-15T19:17:20.536Z</time>
      </trkpt>
      <trkpt lat="38.57745" lon="37.46505">
        <ele>1239.631658</ele>
        <time>2021-11-15T19:17:40.433Z</time>
      </trkpt>
      <trkpt lat="38.57805" lon="37.46498">
        <ele>1243.121561</ele>
        <time>2021-11-15T19:18:06.443Z</time>
      </trkpt>
      <trkpt lat="38.57842" lon="37.46477">
        <ele>1245.41229</ele>
        <time>2021-11-15T19:18:23.998Z</time>
      </trkpt>
      <trkpt lat="38.57884" lon="37.46437">
        <ele>1248.679165</ele>
        <time>2021-11-15T19:18:48.320Z</time>
      </trkpt>
      <trkpt lat="38.579" lon="37.46416">
        <ele>1250.434986</ele>
        <time>2021-11-15T19:18:59.157Z</time>
      </trkpt>
      <trkpt lat="38.5804" lon="37.46154">
        <ele>1272.480465</ele>
        <time>2021-11-15T19:21:15.946Z</time>
      </trkpt>
      <trkpt lat="38.58103" lon="37.46085">
        <ele>1281.444418</ele>
        <time>2021-11-15T19:22:18.328Z</time>
      </trkpt>
      <trkpt lat="38.5814" lon="37.46063">
        <ele>1287.155318</ele>
        <time>2021-11-15T19:22:52.083Z</time>
      </trkpt>
      <trkpt lat="38.58168" lon="37.46056">
        <ele>1291.186061</ele>
        <time>2021-11-15T19:23:16.104Z</time>
      </trkpt>
      <trkpt lat="38.58213" lon="37.46048">
        <ele>1297.661995</ele>
        <time>2021-11-15T19:23:54.708Z</time>
      </trkpt>
      <trkpt lat="38.58284" lon="37.46059">
        <ele>1307.146489</ele>
        <time>2021-11-15T19:24:50.922Z</time>
      </trkpt>
      <trkpt lat="38.5853" lon="37.46198">
        <ele>1329.258785</ele>
        <time>2021-11-15T19:27:23.067Z</time>
      </trkpt>
      <trkpt lat="38.58666" lon="37.46288">
        <ele>1336.590205</ele>
        <time>2021-11-15T19:28:16.018Z</time>
      </trkpt>
      <trkpt lat="38.58679" lon="37.46293">
        <ele>1337.029044</ele>
        <time>2021-11-15T19:28:19.971Z</time>
      </trkpt>
      <trkpt lat="38.58681" lon="37.46297">
        <ele>1337.169616</ele>
        <time>2021-11-15T19:28:21.449Z</time>
      </trkpt>
      <trkpt lat="38.58685" lon="37.463">
        <ele>1337.309761</ele>
        <time>2021-11-15T19:28:22.788Z</time>
      </trkpt>
      <trkpt lat="38.58689" lon="37.46302">
        <ele>1337.463305</ele>
        <time>2021-11-15T19:28:24.152Z</time>
      </trkpt>
      <trkpt lat="38.58694" lon="37.46301">
        <ele>1337.617913</ele>
        <time>2021-11-15T19:28:25.401Z</time>
      </trkpt>
      <trkpt lat="38.58712" lon="37.46311">
        <ele>1338.277673</ele>
        <time>2021-11-15T19:28:32.081Z</time>
      </trkpt>
      <trkpt lat="38.58851" lon="37.46356">
        <ele>1344.255071</ele>
        <time>2021-11-15T19:29:28.978Z</time>
      </trkpt>
      <trkpt lat="38.58906" lon="37.46356">
        <ele>1346.787001</ele>
        <time>2021-11-15T19:29:51.901Z</time>
      </trkpt>
      <trkpt lat="38.58954" lon="37.46344">
        <ele>1349.119661</ele>
        <time>2021-11-15T19:30:12.700Z</time>
      </trkpt>
      <trkpt lat="38.59139" lon="37.46279">
        <ele>1358.909923</ele>
        <time>2021-11-15T19:31:35.047Z</time>
      </trkpt>
      <trkpt lat="38.59256" lon="37.46253">
        <ele>1364.773099</ele>
        <time>2021-11-15T19:32:24.993Z</time>
      </trkpt>
      <trkpt lat="38.59605" lon="37.46221">
        <ele>1382.099213</ele>
        <time>2021-11-15T19:34:50.771Z</time>
      </trkpt>
      <trkpt lat="38.59663" lon="37.4622">
        <ele>1385.160149</ele>
        <time>2021-11-15T19:35:16.310Z</time>
      </trkpt>
      <trkpt lat="38.59721" lon="37.46228">
        <ele>1388.814155</ele>
        <time>2021-11-15T19:35:42.950Z</time>
      </trkpt>
      <trkpt lat="38.59977" lon="37.46316">
        <ele>1406.139575</ele>
        <time>2021-11-15T19:37:51.701Z</time>
      </trkpt>
      <trkpt lat="38.6003" lon="37.46352">
        <ele>1410.367728</ele>
        <time>2021-11-15T19:38:23.591Z</time>
      </trkpt>
      <trkpt lat="38.60057" lon="37.4638">
        <ele>1412.851799</ele>
        <time>2021-11-15T19:38:42.050Z</time>
      </trkpt>
      <trkpt lat="38.60088" lon="37.46442">
        <ele>1416.940205</ele>
        <time>2021-11-15T19:39:12.499Z</time>
      </trkpt>
      <trkpt lat="38.60107" lon="37.466">
        <ele>1423.536384</ele>
        <time>2021-11-15T19:40:11.361Z</time>
      </trkpt>
      <trkpt lat="38.60128" lon="37.4666">
        <ele>1425.544907</ele>
        <time>2021-11-15T19:40:30.044Z</time>
      </trkpt>
      <trkpt lat="38.60149" lon="37.46699">
        <ele>1426.990042</ele>
        <time>2021-11-15T19:40:41.408Z</time>
      </trkpt>
      <trkpt lat="38.60169" lon="37.46721">
        <ele>1427.741997</ele>
        <time>2021-11-15T19:40:48.449Z</time>
      </trkpt>
      <trkpt lat="38.60199" lon="37.46746">
        <ele>1427.654095</ele>
        <time>2021-11-15T19:40:57.221Z</time>
      </trkpt>
      <trkpt lat="38.60218" lon="37.46754">
        <ele>1427.605376</ele>
        <time>2021-11-15T19:41:01.469Z</time>
      </trkpt>
      <trkpt lat="38.6029" lon="37.46765">
        <ele>1427.429572</ele>
        <time>2021-11-15T19:41:15.563Z</time>
      </trkpt>
      <trkpt lat="38.60638" lon="37.46772">
        <ele>1426.366073</ele>
        <time>2021-11-15T19:42:25.228Z</time>
      </trkpt>
      <trkpt lat="38.60812" lon="37.46793">
        <ele>1428.97289</ele>
        <time>2021-11-15T19:43:18.010Z</time>
      </trkpt>
      <trkpt lat="38.61066" lon="37.46795">
        <ele>1435.083623</ele>
        <time>2021-11-15T19:44:39.957Z</time>
      </trkpt>
      <trkpt lat="38.61145" lon="37.46787">
        <ele>1436.572481</ele>
        <time>2021-11-15T19:45:06.791Z</time>
      </trkpt>
      <trkpt lat="38.61176" lon="37.46774">
        <ele>1437.175593</ele>
        <time>2021-11-15T19:45:16.693Z</time>
      </trkpt>
      <trkpt lat="38.61206" lon="37.46746">
        <ele>1437.868422</ele>
        <time>2021-11-15T19:45:27.145Z</time>
      </trkpt>
      <trkpt lat="38.61244" lon="37.46682">
        <ele>1437.026805</ele>
        <time>2021-11-15T19:45:41.449Z</time>
      </trkpt>
      <trkpt lat="38.61303" lon="37.46564">
        <ele>1434.010774</ele>
        <time>2021-11-15T19:45:59.198Z</time>
      </trkpt>
      <trkpt lat="38.61344" lon="37.465">
        <ele>1431.552741</ele>
        <time>2021-11-15T19:46:08.738Z</time>
      </trkpt>
      <trkpt lat="38.61505" lon="37.46343">
        <ele>1425.183973</ele>
        <time>2021-11-15T19:46:40.095Z</time>
      </trkpt>
      <trkpt lat="38.61529" lon="37.46303">
        <ele>1425.189163</ele>
        <time>2021-11-15T19:46:49.919Z</time>
      </trkpt>
      <trkpt lat="38.61545" lon="37.46265">
        <ele>1425.193731</ele>
        <time>2021-11-15T19:47:00.295Z</time>
      </trkpt>
      <trkpt lat="38.61557" lon="37.46213">
        <ele>1425.19927</ele>
        <time>2021-11-15T19:47:15.293Z</time>
      </trkpt>
      <trkpt lat="38.61559" lon="37.46159">
        <ele>1425.911499</ele>
        <time>2021-11-15T19:47:31.808Z</time>
      </trkpt>
      <trkpt lat="38.61555" lon="37.46117">
        <ele>1426.515761</ele>
        <time>2021-11-15T19:47:44.276Z</time>
      </trkpt>
      <trkpt lat="38.6153" lon="37.46023">
        <ele>1427.93166</ele>
        <time>2021-11-15T19:48:08.296Z</time>
      </trkpt>
      <trkpt lat="38.61482" lon="37.4588">
        <ele>1425.133205</ele>
        <time>2021-11-15T19:48:29.475Z</time>
      </trkpt>
      <trkpt lat="38.61479" lon="37.45809">
        <ele>1423.11438</ele>
        <time>2021-11-15T19:48:37.681Z</time>
      </trkpt>
      <trkpt lat="38.61489" lon="37.45756">
        <ele>1421.382071</ele>
        <time>2021-11-15T19:48:43.909Z</time>
      </trkpt>
      <trkpt lat="38.615" lon="37.45725">
        <ele>1419.874759</ele>
        <time>2021-11-15T19:48:47.898Z</time>
      </trkpt>
      <trkpt lat="38.61567" lon="37.45586">
        <ele>1412.863192</ele>
        <time>2021-11-15T19:49:06.767Z</time>
      </trkpt>
      <trkpt lat="38.61618" lon="37.45437">
        <ele>1407.212627</ele>
        <time>2021-11-15T19:49:26.197Z</time>
      </trkpt>
      <trkpt lat="38.61639" lon="37.45365">
        <ele>1404.662351</ele>
        <time>2021-11-15T19:49:35.603Z</time>
      </trkpt>
      <trkpt lat="38.61642" lon="37.45362">
        <ele>1404.467625</ele>
        <time>2021-11-15T19:49:36.335Z</time>
      </trkpt>
      <trkpt lat="38.61645" lon="37.45358">
        <ele>1404.272586</ele>
        <time>2021-11-15T19:49:37.078Z</time>
      </trkpt>
      <trkpt lat="38.61647" lon="37.45352">
        <ele>1404.185997</ele>
        <time>2021-11-15T19:49:37.843Z</time>
      </trkpt>
      <trkpt lat="38.61647" lon="37.45346">
        <ele>1404.103746</ele>
        <time>2021-11-15T19:49:38.621Z</time>
      </trkpt>
      <trkpt lat="38.61654" lon="37.45326">
        <ele>1403.781968</ele>
        <time>2021-11-15T19:49:41.424Z</time>
      </trkpt>
      <trkpt lat="38.61699" lon="37.45238">
        <ele>1402.290903</ele>
        <time>2021-11-15T19:49:55.464Z</time>
      </trkpt>
      <trkpt lat="38.61748" lon="37.4519">
        <ele>1401.18103</ele>
        <time>2021-11-15T19:50:07.187Z</time>
      </trkpt>
      <trkpt lat="38.61931" lon="37.45103">
        <ele>1402.479483</ele>
        <time>2021-11-15T19:50:58.437Z</time>
      </trkpt>
      <trkpt lat="38.61968" lon="37.45076">
        <ele>1402.907608</ele>
        <time>2021-11-15T19:51:09.743Z</time>
      </trkpt>
      <trkpt lat="38.62028" lon="37.45014">
        <ele>1403.670349</ele>
        <time>2021-11-15T19:51:29.434Z</time>
      </trkpt>
      <trkpt lat="38.62052" lon="37.44996">
        <ele>1403.951622</ele>
        <time>2021-11-15T19:51:36.720Z</time>
      </trkpt>
      <trkpt lat="38.62101" lon="37.44978">
        <ele>1404.692019</ele>
        <time>2021-11-15T19:51:50.127Z</time>
      </trkpt>
      <trkpt lat="38.62156" lon="37.44978">
        <ele>1405.79593</ele>
        <time>2021-11-15T19:52:05.921Z</time>
      </trkpt>
      <trkpt lat="38.62182" lon="37.44986">
        <ele>1406.319984</ele>
        <time>2021-11-15T19:52:13.980Z</time>
      </trkpt>
      <trkpt lat="38.62224" lon="37.45011">
        <ele>1407.233764</ele>
        <time>2021-11-15T19:52:28.713Z</time>
      </trkpt>
      <trkpt lat="38.62267" lon="37.45062">
        <ele>1408.582358</ele>
        <time>2021-11-15T19:52:48.711Z</time>
      </trkpt>
      <trkpt lat="38.62378" lon="37.45268">
        <ele>1412.908094</ele>
        <time>2021-11-15T19:53:52.744Z</time>
      </trkpt>
      <trkpt lat="38.625" lon="37.45458">
        <ele>1414.712239</ele>
        <time>2021-11-15T19:54:37.547Z</time>
      </trkpt>
      <trkpt lat="38.62619" lon="37.45632">
        <ele>1417.344761</ele>
        <time>2021-11-15T19:55:26.623Z</time>
      </trkpt>
      <trkpt lat="38.62655" lon="37.45674">
        <ele>1418.60275</ele>
        <time>2021-11-15T19:55:43.877Z</time>
      </trkpt>
      <trkpt lat="38.62694" lon="37.45704">
        <ele>1419.766081</ele>
        <time>2021-11-15T19:56:00.017Z</time>
      </trkpt>
      <trkpt lat="38.62752" lon="37.45727">
        <ele>1420.80276</ele>
        <time>2021-11-15T19:56:21.287Z</time>
      </trkpt>
      <trkpt lat="38.62807" lon="37.45727">
        <ele>1421.411586</ele>
        <time>2021-11-15T19:56:39.951Z</time>
      </trkpt>
      <trkpt lat="38.63171" lon="37.45645">
        <ele>1424.564017</ele>
        <time>2021-11-15T19:58:08.784Z</time>
      </trkpt>
      <trkpt lat="38.63267" lon="37.45608">
        <ele>1424.384192</ele>
        <time>2021-11-15T19:58:30.773Z</time>
      </trkpt>
      <trkpt lat="38.63306" lon="37.45578">
        <ele>1423.589524</ele>
        <time>2021-11-15T19:58:40.197Z</time>
      </trkpt>
      <trkpt lat="38.63339" lon="37.45534">
        <ele>1422.756276</ele>
        <time>2021-11-15T19:58:49.097Z</time>
      </trkpt>
      <trkpt lat="38.6336" lon="37.45493">
        <ele>1422.087042</ele>
        <time>2021-11-15T19:58:55.702Z</time>
      </trkpt>
      <trkpt lat="38.6338" lon="37.45426">
        <ele>1419.904009</ele>
        <time>2021-11-15T19:59:04.734Z</time>
      </trkpt>
      <trkpt lat="38.63414" lon="37.45237">
        <ele>1410.764081</ele>
        <time>2021-11-15T19:59:26.651Z</time>
      </trkpt>
      <trkpt lat="38.63437" lon="37.45168">
        <ele>1405.271454</ele>
        <time>2021-11-15T19:59:34.689Z</time>
      </trkpt>
      <trkpt lat="38.63471" lon="37.4511">
        <ele>1399.911683</ele>
        <time>2021-11-15T19:59:42.403Z</time>
      </trkpt>
      <trkpt lat="38.63492" lon="37.45086">
        <ele>1397.227985</ele>
        <time>2021-11-15T19:59:46.245Z</time>
      </trkpt>
      <trkpt lat="38.63532" lon="37.45054">
        <ele>1392.74893</ele>
        <time>2021-11-15T19:59:52.652Z</time>
      </trkpt>
      <trkpt lat="38.63594" lon="37.45028">
        <ele>1386.575484</ele>
        <time>2021-11-15T20:00:01.552Z</time>
      </trkpt>
      <trkpt lat="38.63748" lon="37.45028">
        <ele>1372.906685</ele>
        <time>2021-11-15T20:00:22.845Z</time>
      </trkpt>
      <trkpt lat="38.63807" lon="37.45015">
        <ele>1368.357046</ele>
        <time>2021-11-15T20:00:31.193Z</time>
      </trkpt>
      <trkpt lat="38.63853" lon="37.44995">
        <ele>1364.587749</ele>
        <time>2021-11-15T20:00:38.160Z</time>
      </trkpt>
      <trkpt lat="38.64039" lon="37.44886">
        <ele>1350.552751</ele>
        <time>2021-11-15T20:01:07.602Z</time>
      </trkpt>
      <trkpt lat="38.64225" lon="37.44834">
        <ele>1337.232959</ele>
        <time>2021-11-15T20:01:35.033Z</time>
      </trkpt>
      <trkpt lat="38.6427" lon="37.44814">
        <ele>1333.613074</ele>
        <time>2021-11-15T20:01:41.722Z</time>
      </trkpt>
      <trkpt lat="38.64864" lon="37.44458">
        <ele>1283.680774</ele>
        <time>2021-11-15T20:03:14.225Z</time>
      </trkpt>
      <trkpt lat="38.64952" lon="37.44429">
        <ele>1279.054533</ele>
        <time>2021-11-15T20:03:27.857Z</time>
      </trkpt>
      <trkpt lat="38.6504" lon="37.44423">
        <ele>1274.646809</ele>
        <time>2021-11-15T20:03:41.406Z</time>
      </trkpt>
      <trkpt lat="38.65053" lon="37.44425">
        <ele>1274.132541</ele>
        <time>2021-11-15T20:03:43.454Z</time>
      </trkpt>
      <trkpt lat="38.65058" lon="37.44425">
        <ele>1273.961118</ele>
        <time>2021-11-15T20:03:44.211Z</time>
      </trkpt>
      <trkpt lat="38.65062" lon="37.44424">
        <ele>1273.793699</ele>
        <time>2021-11-15T20:03:44.973Z</time>
      </trkpt>
      <trkpt lat="38.65079" lon="37.44423">
        <ele>1273.155582</ele>
        <time>2021-11-15T20:03:47.669Z</time>
      </trkpt>
      <trkpt lat="38.65134" lon="37.44427">
        <ele>1271.18051</ele>
        <time>2021-11-15T20:03:56.363Z</time>
      </trkpt>
      <trkpt lat="38.65203" lon="37.44445">
        <ele>1268.610665</ele>
        <time>2021-11-15T20:04:07.586Z</time>
      </trkpt>
      <trkpt lat="38.65261" lon="37.4447">
        <ele>1266.884412</ele>
        <time>2021-11-15T20:04:17.580Z</time>
      </trkpt>
      <trkpt lat="38.65418" lon="37.44564">
        <ele>1262.564367</ele>
        <time>2021-11-15T20:04:47.886Z</time>
      </trkpt>
      <trkpt lat="38.65445" lon="37.44572">
        <ele>1261.814569</ele>
        <time>2021-11-15T20:04:52.778Z</time>
      </trkpt>
      <trkpt lat="38.65486" lon="37.44571">
        <ele>1260.696884</ele>
        <time>2021-11-15T20:04:59.787Z</time>
      </trkpt>
      <trkpt lat="38.65548" lon="37.44543">
        <ele>1258.895392</ele>
        <time>2021-11-15T20:05:10.702Z</time>
      </trkpt>
      <trkpt lat="38.65775" lon="37.44392">
        <ele>1246.334553</ele>
        <time>2021-11-15T20:05:49.559Z</time>
      </trkpt>
      <trkpt lat="38.65861" lon="37.44344">
        <ele>1240.953348</ele>
        <time>2021-11-15T20:06:03.253Z</time>
      </trkpt>
      <trkpt lat="38.66317" lon="37.44211">
        <ele>1212.704646</ele>
        <time>2021-11-15T20:07:11.106Z</time>
      </trkpt>
      <trkpt lat="38.66353" lon="37.44201">
        <ele>1210.890607</ele>
        <time>2021-11-15T20:07:16.892Z</time>
      </trkpt>
      <trkpt lat="38.66442" lon="37.44175">
        <ele>1207.452612</ele>
        <time>2021-11-15T20:07:31.788Z</time>
      </trkpt>
      <trkpt lat="38.66804" lon="37.44067">
        <ele>1200.93456</ele>
        <time>2021-11-15T20:08:38.799Z</time>
      </trkpt>
      <trkpt lat="38.66869" lon="37.44038">
        <ele>1200.19701</ele>
        <time>2021-11-15T20:08:52.044Z</time>
      </trkpt>
      <trkpt lat="38.67101" lon="37.43883">
        <ele>1198.538181</ele>
        <time>2021-11-15T20:09:44.960Z</time>
      </trkpt>
      <trkpt lat="38.67121" lon="37.43869">
        <ele>1198.61628</ele>
        <time>2021-11-15T20:09:49.621Z</time>
      </trkpt>
      <trkpt lat="38.67178" lon="37.4383">
        <ele>1198.843747</ele>
        <time>2021-11-15T20:10:04.030Z</time>
      </trkpt>
      <trkpt lat="38.67874" lon="37.43352">
        <ele>1208.204971</ele>
        <time>2021-11-15T20:13:38.193Z</time>
      </trkpt>
      <trkpt lat="38.67964" lon="37.43281">
        <ele>1211.693166</ele>
        <time>2021-11-15T20:14:14.208Z</time>
      </trkpt>
      <trkpt lat="38.6804" lon="37.43211">
        <ele>1215.145468</ele>
        <time>2021-11-15T20:14:50.511Z</time>
      </trkpt>
      <trkpt lat="38.68139" lon="37.43101">
        <ele>1222.004007</ele>
        <time>2021-11-15T20:15:47.352Z</time>
      </trkpt>
      <trkpt lat="38.6838" lon="37.42793">
        <ele>1240.453522</ele>
        <time>2021-11-15T20:18:24.403Z</time>
      </trkpt>
      <trkpt lat="38.68444" lon="37.42732">
        <ele>1242.311316</ele>
        <time>2021-11-15T20:18:50.703Z</time>
      </trkpt>
      <trkpt lat="38.68515" lon="37.42691">
        <ele>1240.668493</ele>
        <time>2021-11-15T20:19:05.970Z</time>
      </trkpt>
      <trkpt lat="38.68554" lon="37.42675">
        <ele>1239.801149</ele>
        <time>2021-11-15T20:19:12.556Z</time>
      </trkpt>
      <trkpt lat="38.68785" lon="37.42598">
        <ele>1223.864324</ele>
        <time>2021-11-15T20:19:46.252Z</time>
      </trkpt>
      <trkpt lat="38.68863" lon="37.42549">
        <ele>1217.880532</ele>
        <time>2021-11-15T20:19:58.346Z</time>
      </trkpt>
      <trkpt lat="38.68926" lon="37.42484">
        <ele>1212.754655</ele>
        <time>2021-11-15T20:20:10.289Z</time>
      </trkpt>
      <trkpt lat="38.68969" lon="37.42422">
        <ele>1210.760738</ele>
        <time>2021-11-15T20:20:20.364Z</time>
      </trkpt>
      <trkpt lat="38.69003" lon="37.42341">
        <ele>1208.530425</ele>
        <time>2021-11-15T20:20:32.673Z</time>
      </trkpt>
      <trkpt lat="38.69024" lon="37.42274">
        <ele>1207.580893</ele>
        <time>2021-11-15T20:20:43.556Z</time>
      </trkpt>
      <trkpt lat="38.69036" lon="37.42226">
        <ele>1207.539116</ele>
        <time>2021-11-15T20:20:51.748Z</time>
      </trkpt>
      <trkpt lat="38.69048" lon="37.42168">
        <ele>1207.489719</ele>
        <time>2021-11-15T20:21:02.166Z</time>
      </trkpt>
      <trkpt lat="38.69069" lon="37.42101">
        <ele>1207.43009</ele>
        <time>2021-11-15T20:21:16.083Z</time>
      </trkpt>
      <trkpt lat="38.69095" lon="37.42014">
        <ele>1208.07018</ele>
        <time>2021-11-15T20:21:34.168Z</time>
      </trkpt>
      <trkpt lat="38.6911" lon="37.41987">
        <ele>1208.345782</ele>
        <time>2021-11-15T20:21:41.303Z</time>
      </trkpt>
      <trkpt lat="38.69113" lon="37.41983">
        <ele>1208.391935</ele>
        <time>2021-11-15T20:21:42.497Z</time>
      </trkpt>
      <trkpt lat="38.69115" lon="37.41978">
        <ele>1208.443511</ele>
        <time>2021-11-15T20:21:43.797Z</time>
      </trkpt>
      <trkpt lat="38.69121" lon="37.4196">
        <ele>1208.598103</ele>
        <time>2021-11-15T20:21:47.937Z</time>
      </trkpt>
      <trkpt lat="38.69162" lon="37.41901">
        <ele>1209.250127</ele>
        <time>2021-11-15T20:22:04.835Z</time>
      </trkpt>
      <trkpt lat="38.69186" lon="37.41875">
        <ele>1209.672644</ele>
        <time>2021-11-15T20:22:13.399Z</time>
      </trkpt>
      <trkpt lat="38.69785" lon="37.41333">
        <ele>1219.340536</ele>
        <time>2021-11-15T20:25:38.372Z</time>
      </trkpt>
      <trkpt lat="38.70434" lon="37.40659">
        <ele>1217.959788</ele>
        <time>2021-11-15T20:28:35.521Z</time>
      </trkpt>
      <trkpt lat="38.70688" lon="37.40384">
        <ele>1219.402569</ele>
        <time>2021-11-15T20:29:56.379Z</time>
      </trkpt>
      <trkpt lat="38.70762" lon="37.40292">
        <ele>1219.936116</ele>
        <time>2021-11-15T20:30:20.867Z</time>
      </trkpt>
      <trkpt lat="38.70809" lon="37.40215">
        <ele>1220.370181</ele>
        <time>2021-11-15T20:30:38.863Z</time>
      </trkpt>
      <trkpt lat="38.70833" lon="37.40172">
        <ele>1220.599627</ele>
        <time>2021-11-15T20:30:48.821Z</time>
      </trkpt>
      <trkpt lat="38.7089" lon="37.40035">
        <ele>1222.383675</ele>
        <time>2021-11-15T20:31:23.462Z</time>
      </trkpt>
      <trkpt lat="38.70896" lon="37.4002">
        <ele>1222.580191</ele>
        <time>2021-11-15T20:31:27.198Z</time>
      </trkpt>
      <trkpt lat="38.709" lon="37.40017">
        <ele>1222.652037</ele>
        <time>2021-11-15T20:31:28.541Z</time>
      </trkpt>
      <trkpt lat="38.70902" lon="37.40011">
        <ele>1222.727066</ele>
        <time>2021-11-15T20:31:29.802Z</time>
      </trkpt>
      <trkpt lat="38.70903" lon="37.40005">
        <ele>1222.801944</ele>
        <time>2021-11-15T20:31:31.191Z</time>
      </trkpt>
      <trkpt lat="38.70907" lon="37.39991">
        <ele>1222.989119</ele>
        <time>2021-11-15T20:31:35.151Z</time>
      </trkpt>
      <trkpt lat="38.7113" lon="37.39404">
        <ele>1231.096189</ele>
        <time>2021-11-15T20:34:02.560Z</time>
      </trkpt>
      <trkpt lat="38.71133" lon="37.3939">
        <ele>1231.251133</ele>
        <time>2021-11-15T20:34:05.743Z</time>
      </trkpt>
      <trkpt lat="38.71137" lon="37.39376">
        <ele>1231.398347</ele>
        <time>2021-11-15T20:34:08.484Z</time>
      </trkpt>
      <trkpt lat="38.71153" lon="37.39293">
        <ele>1232.001201</ele>
        <time>2021-11-15T20:34:25.457Z</time>
      </trkpt>
      <trkpt lat="38.71183" lon="37.39045">
        <ele>1232.580025</ele>
        <time>2021-11-15T20:35:10.578Z</time>
      </trkpt>
      <trkpt lat="38.71194" lon="37.38979">
        <ele>1232.678047</ele>
        <time>2021-11-15T20:35:22.331Z</time>
      </trkpt>
      <trkpt lat="38.71233" lon="37.38853">
        <ele>1233.064669</ele>
        <time>2021-11-15T20:35:46.578Z</time>
      </trkpt>
      <trkpt lat="38.71277" lon="37.38755">
        <ele>1233.949718</ele>
        <time>2021-11-15T20:36:08.720Z</time>
      </trkpt>
      <trkpt lat="38.71302" lon="37.38714">
        <ele>1234.359994</ele>
        <time>2021-11-15T20:36:19.935Z</time>
      </trkpt>
      <trkpt lat="38.71364" lon="37.38628">
        <ele>1236.096688</ele>
        <time>2021-11-15T20:36:47.282Z</time>
      </trkpt>
      <trkpt lat="38.71427" lon="37.38559">
        <ele>1237.991376</ele>
        <time>2021-11-15T20:37:14.065Z</time>
      </trkpt>
      <trkpt lat="38.71668" lon="37.38371">
        <ele>1244.836662</ele>
        <time>2021-11-15T20:38:47.864Z</time>
      </trkpt>
      <trkpt lat="38.71723" lon="37.38304">
        <ele>1246.105692</ele>
        <time>2021-11-15T20:39:09.390Z</time>
      </trkpt>
      <trkpt lat="38.71749" lon="37.38255">
        <ele>1246.640723</ele>
        <time>2021-11-15T20:39:21.185Z</time>
      </trkpt>
      <trkpt lat="38.71862" lon="37.37935">
        <ele>1244.825557</ele>
        <time>2021-11-15T20:40:15.324Z</time>
      </trkpt>
      <trkpt lat="38.71892" lon="37.37855">
        <ele>1244.223998</ele>
        <time>2021-11-15T20:40:28.490Z</time>
      </trkpt>
      <trkpt lat="38.71927" lon="37.37749">
        <ele>1243.489968</ele>
        <time>2021-11-15T20:40:46.161Z</time>
      </trkpt>
      <trkpt lat="38.71987" lon="37.37571">
        <ele>1242.559351</ele>
        <time>2021-11-15T20:41:16.210Z</time>
      </trkpt>
      <trkpt lat="38.72031" lon="37.37439">
        <ele>1242.230778</ele>
        <time>2021-11-15T20:41:40.333Z</time>
      </trkpt>
      <trkpt lat="38.7214" lon="37.36951">
        <ele>1243.669775</ele>
        <time>2021-11-15T20:43:16.436Z</time>
      </trkpt>
      <trkpt lat="38.72178" lon="37.36759">
        <ele>1242.744547</ele>
        <time>2021-11-15T20:43:47.348Z</time>
      </trkpt>
      <trkpt lat="38.72181" lon="37.36735">
        <ele>1242.501449</ele>
        <time>2021-11-15T20:43:50.784Z</time>
      </trkpt>
      <trkpt lat="38.72184" lon="37.36696">
        <ele>1242.105613</ele>
        <time>2021-11-15T20:43:56.466Z</time>
      </trkpt>
      <trkpt lat="38.72186" lon="37.36628">
        <ele>1241.418257</ele>
        <time>2021-11-15T20:44:06.146Z</time>
      </trkpt>
      <trkpt lat="38.72167" lon="37.36492">
        <ele>1240.36852</ele>
        <time>2021-11-15T20:44:26.089Z</time>
      </trkpt>
      <trkpt lat="38.72161" lon="37.36454">
        <ele>1240.331032</ele>
        <time>2021-11-15T20:44:32.231Z</time>
      </trkpt>
      <trkpt lat="38.72156" lon="37.36417">
        <ele>1240.294495</ele>
        <time>2021-11-15T20:44:38.460Z</time>
      </trkpt>
      <trkpt lat="38.72149" lon="37.36367">
        <ele>1240.245494</ele>
        <time>2021-11-15T20:44:47.277Z</time>
      </trkpt>
      <trkpt lat="38.72136" lon="37.36308">
        <ele>1240.186202</ele>
        <time>2021-11-15T20:44:58.711Z</time>
      </trkpt>
      <trkpt lat="38.7203" lon="37.35972">
        <ele>1244.347976</ele>
        <time>2021-11-15T20:46:18.167Z</time>
      </trkpt>
      <trkpt lat="38.72017" lon="37.35895">
        <ele>1245.451483</ele>
        <time>2021-11-15T20:46:36.631Z</time>
      </trkpt>
      <trkpt lat="38.72008" lon="37.35822">
        <ele>1246.659394</ele>
        <time>2021-11-15T20:46:55.652Z</time>
      </trkpt>
      <trkpt lat="38.72008" lon="37.35817">
        <ele>1246.748572</ele>
        <time>2021-11-15T20:46:56.993Z</time>
      </trkpt>
      <trkpt lat="38.72007" lon="37.35812">
        <ele>1246.835939</ele>
        <time>2021-11-15T20:46:58.148Z</time>
      </trkpt>
      <trkpt lat="38.72004" lon="37.35727">
        <ele>1248.320231</ele>
        <time>2021-11-15T20:47:19.271Z</time>
      </trkpt>
      <trkpt lat="38.72006" lon="37.35696">
        <ele>1248.872156</ele>
        <time>2021-11-15T20:47:26.328Z</time>
      </trkpt>
      <trkpt lat="38.72008" lon="37.35681">
        <ele>1249.128565</ele>
        <time>2021-11-15T20:47:30.415Z</time>
      </trkpt>
      <trkpt lat="38.72015" lon="37.35637">
        <ele>1249.86905</ele>
        <time>2021-11-15T20:47:41.059Z</time>
      </trkpt>
      <trkpt lat="38.72023" lon="37.35565">
        <ele>1250.584816</ele>
        <time>2021-11-15T20:47:57.531Z</time>
      </trkpt>
      <trkpt lat="38.72007" lon="37.35504">
        <ele>1251.208022</ele>
        <time>2021-11-15T20:48:11.460Z</time>
      </trkpt>
      <trkpt lat="38.71968" lon="37.35428">
        <ele>1252.109272</ele>
        <time>2021-11-15T20:48:28.495Z</time>
      </trkpt>
      <trkpt lat="38.71943" lon="37.35369">
        <ele>1252.98159</ele>
        <time>2021-11-15T20:48:41.761Z</time>
      </trkpt>
      <trkpt lat="38.71934" lon="37.35316">
        <ele>1253.675238</ele>
        <time>2021-11-15T20:48:53.233Z</time>
      </trkpt>
      <trkpt lat="38.71936" lon="37.35244">
        <ele>1254.617279</ele>
        <time>2021-11-15T20:49:09.845Z</time>
      </trkpt>
      <trkpt lat="38.7208" lon="37.34385">
        <ele>1279.411231</ele>
        <time>2021-11-15T20:53:21.464Z</time>
      </trkpt>
      <trkpt lat="38.72098" lon="37.34308">
        <ele>1282.093061</ele>
        <time>2021-11-15T20:53:48.625Z</time>
      </trkpt>
      <trkpt lat="38.72153" lon="37.34133">
        <ele>1289.83483</ele>
        <time>2021-11-15T20:54:53.915Z</time>
      </trkpt>
      <trkpt lat="38.72266" lon="37.33878">
        <ele>1300.408732</ele>
        <time>2021-11-15T20:56:27.012Z</time>
      </trkpt>
      <trkpt lat="38.72272" lon="37.3384">
        <ele>1301.535076</ele>
        <time>2021-11-15T20:56:38.506Z</time>
      </trkpt>
      <trkpt lat="38.72269" lon="37.33803">
        <ele>1302.62142</ele>
        <time>2021-11-15T20:56:49.335Z</time>
      </trkpt>
      <trkpt lat="38.72259" lon="37.33767">
        <ele>1303.728701</ele>
        <time>2021-11-15T20:57:00.182Z</time>
      </trkpt>
      <trkpt lat="38.72242" lon="37.3374">
        <ele>1304.769953</ele>
        <time>2021-11-15T20:57:10.277Z</time>
      </trkpt>
      <trkpt lat="38.72212" lon="37.3371">
        <ele>1306.179056</ele>
        <time>2021-11-15T20:57:23.720Z</time>
      </trkpt>
      <trkpt lat="38.72193" lon="37.33701">
        <ele>1306.881088</ele>
        <time>2021-11-15T20:57:30.604Z</time>
      </trkpt>
      <trkpt lat="38.72158" lon="37.337">
        <ele>1308.122886</ele>
        <time>2021-11-15T20:57:43.256Z</time>
      </trkpt>
      <trkpt lat="38.72056" lon="37.33757">
        <ele>1312.020372</ele>
        <time>2021-11-15T20:58:23.066Z</time>
      </trkpt>
      <trkpt lat="38.72026" lon="37.33769">
        <ele>1313.288465</ele>
        <time>2021-11-15T20:58:34.863Z</time>
      </trkpt>
      <trkpt lat="38.71979" lon="37.33777">
        <ele>1315.648618</ele>
        <time>2021-11-15T20:58:53.584Z</time>
      </trkpt>
      <trkpt lat="38.71839" lon="37.33751">
        <ele>1322.658239</ele>
        <time>2021-11-15T20:59:55.748Z</time>
      </trkpt>
      <trkpt lat="38.71715" lon="37.33716">
        <ele>1329.109396</ele>
        <time>2021-11-15T21:00:53.026Z</time>
      </trkpt>
      <trkpt lat="38.71682" lon="37.33694">
        <ele>1330.789128</ele>
        <time>2021-11-15T21:01:07.313Z</time>
      </trkpt>
      <trkpt lat="38.71646" lon="37.33653">
        <ele>1331.009034</ele>
        <time>2021-11-15T21:01:22.783Z</time>
      </trkpt>
      <trkpt lat="38.71615" lon="37.33579">
        <ele>1331.313292</ele>
        <time>2021-11-15T21:01:38.812Z</time>
      </trkpt>
      <trkpt lat="38.71606" lon="37.3351">
        <ele>1331.561354</ele>
        <time>2021-11-15T21:01:48.632Z</time>
      </trkpt>
      <trkpt lat="38.71638" lon="37.33147">
        <ele>1323.64195</ele>
        <time>2021-11-15T21:02:35.046Z</time>
      </trkpt>
      <trkpt lat="38.71653" lon="37.33028">
        <ele>1321.252197</ele>
        <time>2021-11-15T21:02:51.902Z</time>
      </trkpt>
      <trkpt lat="38.71652" lon="37.32933">
        <ele>1319.611953</ele>
        <time>2021-11-15T21:03:05.096Z</time>
      </trkpt>
      <trkpt lat="38.71648" lon="37.32899">
        <ele>1319.003318</ele>
        <time>2021-11-15T21:03:09.896Z</time>
      </trkpt>
      <trkpt lat="38.71625" lon="37.32813">
        <ele>1317.381103</ele>
        <time>2021-11-15T21:03:21.839Z</time>
      </trkpt>
      <trkpt lat="38.71532" lon="37.32552">
        <ele>1311.037409</ele>
        <time>2021-11-15T21:03:57.868Z</time>
      </trkpt>
      <trkpt lat="38.71513" lon="37.32462">
        <ele>1310.08609</ele>
        <time>2021-11-15T21:04:11.490Z</time>
      </trkpt>
      <trkpt lat="38.71503" lon="37.32356">
        <ele>1309.568067</ele>
        <time>2021-11-15T21:04:31.376Z</time>
      </trkpt>
      <trkpt lat="38.71505" lon="37.32288">
        <ele>1310.077296</ele>
        <time>2021-11-15T21:04:46.245Z</time>
      </trkpt>
      <trkpt lat="38.71519" lon="37.32239">
        <ele>1310.460922</ele>
        <time>2021-11-15T21:04:57.552Z</time>
      </trkpt>
      <trkpt lat="38.7153" lon="37.32215">
        <ele>1310.668801</ele>
        <time>2021-11-15T21:05:03.546Z</time>
      </trkpt>
      <trkpt lat="38.7159" lon="37.32148">
        <ele>1310.629751</ele>
        <time>2021-11-15T21:05:23.569Z</time>
      </trkpt>
      <trkpt lat="38.71604" lon="37.32125">
        <ele>1310.385122</ele>
        <time>2021-11-15T21:05:28.354Z</time>
      </trkpt>
      <trkpt lat="38.71644" lon="37.32039">
        <ele>1309.571377</ele>
        <time>2021-11-15T21:05:42.456Z</time>
      </trkpt>
      <trkpt lat="38.71662" lon="37.31955">
        <ele>1308.603725</ele>
        <time>2021-11-15T21:05:54.182Z</time>
      </trkpt>
      <trkpt lat="38.71668" lon="37.319">
        <ele>1307.773899</ele>
        <time>2021-11-15T21:06:01.480Z</time>
      </trkpt>
      <trkpt lat="38.71665" lon="37.3171">
        <ele>1305.989876</ele>
        <time>2021-11-15T21:06:28.262Z</time>
      </trkpt>
      <trkpt lat="38.71669" lon="37.3168">
        <ele>1306.141006</ele>
        <time>2021-11-15T21:06:33.603Z</time>
      </trkpt>
      <trkpt lat="38.71708" lon="37.31548">
        <ele>1306.850968</ele>
        <time>2021-11-15T21:07:03.892Z</time>
      </trkpt>
      <trkpt lat="38.7181" lon="37.3094">
        <ele>1319.099735</ele>
        <time>2021-11-15T21:09:50.200Z</time>
      </trkpt>
      <trkpt lat="38.71841" lon="37.30819">
        <ele>1318.84022</ele>
        <time>2021-11-15T21:10:09.027Z</time>
      </trkpt>
      <trkpt lat="38.7187" lon="37.30762">
        <ele>1317.310668</ele>
        <time>2021-11-15T21:10:17.649Z</time>
      </trkpt>
      <trkpt lat="38.71896" lon="37.30729">
        <ele>1316.24258</ele>
        <time>2021-11-15T21:10:23.510Z</time>
      </trkpt>
      <trkpt lat="38.7192" lon="37.30697">
        <ele>1315.251314</ele>
        <time>2021-11-15T21:10:28.932Z</time>
      </trkpt>
      <trkpt lat="38.71938" lon="37.30677">
        <ele>1314.579436</ele>
        <time>2021-11-15T21:10:32.555Z</time>
      </trkpt>
      <trkpt lat="38.72025" lon="37.30565">
        <ele>1310.967905</ele>
        <time>2021-11-15T21:10:52.401Z</time>
      </trkpt>
      <trkpt lat="38.72076" lon="37.30479">
        <ele>1309.264836</ele>
        <time>2021-11-15T21:11:07.765Z</time>
      </trkpt>
      <trkpt lat="38.72103" lon="37.30377">
        <ele>1308.611918</ele>
        <time>2021-11-15T21:11:24.278Z</time>
      </trkpt>
      <trkpt lat="38.72103" lon="37.30377">
        <ele>1308.611918</ele>
        <time>2021-11-15T21:11:24.283Z</time>
      </trkpt>
      <trkpt lat="38.72114" lon="37.30271">
        <ele>1308.163659</ele>
        <time>2021-11-15T21:11:42.839Z</time>
      </trkpt>
      <trkpt lat="38.72114" lon="37.30191">
        <ele>1308.220296</ele>
        <time>2021-11-15T21:11:57.105Z</time>
      </trkpt>
      <trkpt lat="38.72114" lon="37.30179">
        <ele>1308.228598</ele>
        <time>2021-11-15T21:11:59.498Z</time>
      </trkpt>
      <trkpt lat="38.72118" lon="37.30057">
        <ele>1308.265082</ele>
        <time>2021-11-15T21:12:21.220Z</time>
      </trkpt>
      <trkpt lat="38.72136" lon="37.29918">
        <ele>1307.807735</ele>
        <time>2021-11-15T21:12:44.297Z</time>
      </trkpt>
      <trkpt lat="38.72161" lon="37.29829">
        <ele>1307.514808</ele>
        <time>2021-11-15T21:12:58.637Z</time>
      </trkpt>
      <trkpt lat="38.72216" lon="37.29672">
        <ele>1307.072516</ele>
        <time>2021-11-15T21:13:26.562Z</time>
      </trkpt>
      <trkpt lat="38.72231" lon="37.2963">
        <ele>1306.999744</ele>
        <time>2021-11-15T21:13:34.885Z</time>
      </trkpt>
      <trkpt lat="38.72236" lon="37.29616">
        <ele>1307.082881</ele>
        <time>2021-11-15T21:13:37.645Z</time>
      </trkpt>
      <trkpt lat="38.72248" lon="37.2958">
        <ele>1307.304075</ele>
        <time>2021-11-15T21:13:44.960Z</time>
      </trkpt>
      <trkpt lat="38.7231" lon="37.29392">
        <ele>1308.556907</ele>
        <time>2021-11-15T21:14:26.497Z</time>
      </trkpt>
      <trkpt lat="38.72337" lon="37.29275">
        <ele>1309.609664</ele>
        <time>2021-11-15T21:14:51.452Z</time>
      </trkpt>
      <trkpt lat="38.72362" lon="37.29116">
        <ele>1311.484085</ele>
        <time>2021-11-15T21:15:25.877Z</time>
      </trkpt>
      <trkpt lat="38.72365" lon="37.28982">
        <ele>1313.37351</ele>
        <time>2021-11-15T21:15:58.062Z</time>
      </trkpt>
      <trkpt lat="38.72366" lon="37.28961">
        <ele>1313.679783</ele>
        <time>2021-11-15T21:16:03.204Z</time>
      </trkpt>
      <trkpt lat="38.7237" lon="37.28864">
        <ele>1315.172727</ele>
        <time>2021-11-15T21:16:27.160Z</time>
      </trkpt>
      <trkpt lat="38.7238" lon="37.28633">
        <ele>1318.195256</ele>
        <time>2021-11-15T21:17:19.687Z</time>
      </trkpt>
      <trkpt lat="38.72378" lon="37.28574">
        <ele>1318.818967</ele>
        <time>2021-11-15T21:17:31.662Z</time>
      </trkpt>
      <trkpt lat="38.72376" lon="37.28522">
        <ele>1319.37903</ele>
        <time>2021-11-15T21:17:42.517Z</time>
      </trkpt>
      <trkpt lat="38.72343" lon="37.28338">
        <ele>1320.905665</ele>
        <time>2021-11-15T21:18:21.207Z</time>
      </trkpt>
      <trkpt lat="38.72323" lon="37.28261">
        <ele>1321.66675</ele>
        <time>2021-11-15T21:18:37.492Z</time>
      </trkpt>
      <trkpt lat="38.72319" lon="37.28248">
        <ele>1321.830035</ele>
        <time>2021-11-15T21:18:40.739Z</time>
      </trkpt>
      <trkpt lat="38.7228" lon="37.28131">
        <ele>1323.291571</ele>
        <time>2021-11-15T21:19:09.503Z</time>
      </trkpt>
      <trkpt lat="38.72257" lon="37.28062">
        <ele>1324.033822</ele>
        <time>2021-11-15T21:19:26.490Z</time>
      </trkpt>
      <trkpt lat="38.72236" lon="37.27998">
        <ele>1324.263702</ele>
        <time>2021-11-15T21:19:41.099Z</time>
      </trkpt>
      <trkpt lat="38.72204" lon="37.27904">
        <ele>1324.59951</ele>
        <time>2021-11-15T21:20:00.286Z</time>
      </trkpt>
      <trkpt lat="38.7219" lon="37.27861">
        <ele>1324.687595</ele>
        <time>2021-11-15T21:20:07.627Z</time>
      </trkpt>
      <trkpt lat="38.72182" lon="37.27836">
        <ele>1324.335684</ele>
        <time>2021-11-15T21:20:11.477Z</time>
      </trkpt>
      <trkpt lat="38.72169" lon="37.27785">
        <ele>1323.631134</ele>
        <time>2021-11-15T21:20:18.726Z</time>
      </trkpt>
      <trkpt lat="38.72163" lon="37.27763">
        <ele>1323.317742</ele>
        <time>2021-11-15T21:20:21.867Z</time>
      </trkpt>
      <trkpt lat="38.72143" lon="37.27672">
        <ele>1322.061258</ele>
        <time>2021-11-15T21:20:34.860Z</time>
      </trkpt>
      <trkpt lat="38.72135" lon="37.27619">
        <ele>1321.575553</ele>
        <time>2021-11-15T21:20:42.390Z</time>
      </trkpt>
      <trkpt lat="38.72128" lon="37.27564">
        <ele>1321.318341</ele>
        <time>2021-11-15T21:20:50.734Z</time>
      </trkpt>
      <trkpt lat="38.72119" lon="37.27436">
        <ele>1320.728128</ele>
        <time>2021-11-15T21:21:11.722Z</time>
      </trkpt>
      <trkpt lat="38.7212" lon="37.27395">
        <ele>1320.776622</ele>
        <time>2021-11-15T21:21:19.456Z</time>
      </trkpt>
      <trkpt lat="38.72125" lon="37.27236">
        <ele>1321.898266</ele>
        <time>2021-11-15T21:21:50.901Z</time>
      </trkpt>
      <trkpt lat="38.7214" lon="37.27096">
        <ele>1323.749431</ele>
        <time>2021-11-15T21:22:22.943Z</time>
      </trkpt>
      <trkpt lat="38.72142" lon="37.27081">
        <ele>1324.003798</ele>
        <time>2021-11-15T21:22:26.744Z</time>
      </trkpt>
      <trkpt lat="38.72144" lon="37.27043">
        <ele>1324.635312</ele>
        <time>2021-11-15T21:22:36.457Z</time>
      </trkpt>
      <trkpt lat="38.72153" lon="37.26915">
        <ele>1326.499105</ele>
        <time>2021-11-15T21:23:08.681Z</time>
      </trkpt>
      <trkpt lat="38.72157" lon="37.26875">
        <ele>1326.925335</ele>
        <time>2021-11-15T21:23:18.607Z</time>
      </trkpt>
      <trkpt lat="38.7217" lon="37.26708">
        <ele>1328.440516</ele>
        <time>2021-11-15T21:23:52.145Z</time>
      </trkpt>
      <trkpt lat="38.72178" lon="37.26634">
        <ele>1328.260394</ele>
        <time>2021-11-15T21:24:04.344Z</time>
      </trkpt>
      <trkpt lat="38.72182" lon="37.26597">
        <ele>1328.168636</ele>
        <time>2021-11-15T21:24:10.335Z</time>
      </trkpt>
      <trkpt lat="38.72186" lon="37.26566">
        <ele>1328.093934</ele>
        <time>2021-11-15T21:24:15.269Z</time>
      </trkpt>
      <trkpt lat="38.72187" lon="37.26559">
        <ele>1328.077074</ele>
        <time>2021-11-15T21:24:16.279Z</time>
      </trkpt>
      <trkpt lat="38.7219" lon="37.26517">
        <ele>1327.974988</ele>
        <time>2021-11-15T21:24:22.876Z</time>
      </trkpt>
      <trkpt lat="38.72191" lon="37.26508">
        <ele>1327.952647</ele>
        <time>2021-11-15T21:24:24.271Z</time>
      </trkpt>
      <trkpt lat="38.72201" lon="37.26372">
        <ele>1328.169759</ele>
        <time>2021-11-15T21:24:46.688Z</time>
      </trkpt>
      <trkpt lat="38.72205" lon="37.26322">
        <ele>1328.264938</ele>
        <time>2021-11-15T21:24:56.590Z</time>
      </trkpt>
      <trkpt lat="38.72213" lon="37.26229">
        <ele>1329.068777</ele>
        <time>2021-11-15T21:25:16.290Z</time>
      </trkpt>
      <trkpt lat="38.72217" lon="37.2618">
        <ele>1329.918732</ele>
        <time>2021-11-15T21:25:27.091Z</time>
      </trkpt>
      <trkpt lat="38.72225" lon="37.26087">
        <ele>1331.534579</ele>
        <time>2021-11-15T21:25:50.864Z</time>
      </trkpt>
      <trkpt lat="38.72244" lon="37.25997">
        <ele>1333.500123</ele>
        <time>2021-11-15T21:26:16.367Z</time>
      </trkpt>
      <trkpt lat="38.72248" lon="37.25986">
        <ele>1333.785729</ele>
        <time>2021-11-15T21:26:20.141Z</time>
      </trkpt>
      <trkpt lat="38.72281" lon="37.25903">
        <ele>1336.08782</ele>
        <time>2021-11-15T21:26:45.198Z</time>
      </trkpt>
      <trkpt lat="38.72384" lon="37.25706">
        <ele>1341.75527</ele>
        <time>2021-11-15T21:27:49.833Z</time>
      </trkpt>
      <trkpt lat="38.724" lon="37.25672">
        <ele>1342.673594</ele>
        <time>2021-11-15T21:28:00.034Z</time>
      </trkpt>
      <trkpt lat="38.72411" lon="37.25647">
        <ele>1343.354472</ele>
        <time>2021-11-15T21:28:07.765Z</time>
      </trkpt>
      <trkpt lat="38.72432" lon="37.25559">
        <ele>1344.669061</ele>
        <time>2021-11-15T21:28:31.065Z</time>
      </trkpt>
      <trkpt lat="38.72453" lon="37.25318">
        <ele>1347.140964</ele>
        <time>2021-11-15T21:29:22.424Z</time>
      </trkpt>
      <trkpt lat="38.72469" lon="37.25244">
        <ele>1347.518336</ele>
        <time>2021-11-15T21:29:36.177Z</time>
      </trkpt>
      <trkpt lat="38.72492" lon="37.25185">
        <ele>1347.830625</ele>
        <time>2021-11-15T21:29:47.924Z</time>
      </trkpt>
      <trkpt lat="38.72497" lon="37.25175">
        <ele>1347.876787</ele>
        <time>2021-11-15T21:29:49.948Z</time>
      </trkpt>
      <trkpt lat="38.72524" lon="37.2512">
        <ele>1348.136765</ele>
        <time>2021-11-15T21:30:01.459Z</time>
      </trkpt>
      <trkpt lat="38.72666" lon="37.24927">
        <ele>1349.478909</ele>
        <time>2021-11-15T21:30:53.567Z</time>
      </trkpt>
      <trkpt lat="38.72726" lon="37.24824">
        <ele>1350.250928</ele>
        <time>2021-11-15T21:31:19.927Z</time>
      </trkpt>
      <trkpt lat="38.72907" lon="37.24427">
        <ele>1352.252238</ele>
        <time>2021-11-15T21:32:46.378Z</time>
      </trkpt>
      <trkpt lat="38.72923" lon="37.24397">
        <ele>1352.594051</ele>
        <time>2021-11-15T21:32:53.438Z</time>
      </trkpt>
      <trkpt lat="38.73004" lon="37.24247">
        <ele>1354.366454</ele>
        <time>2021-11-15T21:33:32.689Z</time>
      </trkpt>
      <trkpt lat="38.73199" lon="37.23838">
        <ele>1362.747261</ele>
        <time>2021-11-15T21:35:31.893Z</time>
      </trkpt>
      <trkpt lat="38.73212" lon="37.23798">
        <ele>1363.169958</ele>
        <time>2021-11-15T21:35:41.732Z</time>
      </trkpt>
      <trkpt lat="38.73245" lon="37.23557">
        <ele>1365.681862</ele>
        <time>2021-11-15T21:36:30.529Z</time>
      </trkpt>
      <trkpt lat="38.73262" lon="37.23398">
        <ele>1367.654876</ele>
        <time>2021-11-15T21:37:05.955Z</time>
      </trkpt>
      <trkpt lat="38.73264" lon="37.23299">
        <ele>1370.310247</ele>
        <time>2021-11-15T21:37:32.484Z</time>
      </trkpt>
      <trkpt lat="38.7324" lon="37.23152">
        <ele>1374.390806</ele>
        <time>2021-11-15T21:38:18.977Z</time>
      </trkpt>
      <trkpt lat="38.73195" lon="37.23042">
        <ele>1377.991931</ele>
        <time>2021-11-15T21:38:55.430Z</time>
      </trkpt>
      <trkpt lat="38.73109" lon="37.22899">
        <ele>1382.661157</ele>
        <time>2021-11-15T21:39:43.822Z</time>
      </trkpt>
      <trkpt lat="38.73084" lon="37.22826">
        <ele>1384.572428</ele>
        <time>2021-11-15T21:40:05.106Z</time>
      </trkpt>
      <trkpt lat="38.73052" lon="37.22703">
        <ele>1387.665924</ele>
        <time>2021-11-15T21:40:40.305Z</time>
      </trkpt>
      <trkpt lat="38.73014" lon="37.22589">
        <ele>1390.674885</ele>
        <time>2021-11-15T21:41:14.167Z</time>
      </trkpt>
      <trkpt lat="38.72983" lon="37.22524">
        <ele>1392.427522</ele>
        <time>2021-11-15T21:41:33.729Z</time>
      </trkpt>
      <trkpt lat="38.72939" lon="37.22444">
        <ele>1394.697331</ele>
        <time>2021-11-15T21:41:59.372Z</time>
      </trkpt>
      <trkpt lat="38.72903" lon="37.22389">
        <ele>1396.358432</ele>
        <time>2021-11-15T21:42:18.225Z</time>
      </trkpt>
      <trkpt lat="38.72469" lon="37.2182">
        <ele>1421.16421</ele>
        <time>2021-11-15T21:46:13.057Z</time>
      </trkpt>
      <trkpt lat="38.72394" lon="37.21713">
        <ele>1426.923887</ele>
        <time>2021-11-15T21:47:03.757Z</time>
      </trkpt>
      <trkpt lat="38.72301" lon="37.2155">
        <ele>1436.936314</ele>
        <time>2021-11-15T21:48:20.455Z</time>
      </trkpt>
      <trkpt lat="38.72222" lon="37.21375">
        <ele>1445.917204</ele>
        <time>2021-11-15T21:49:32.978Z</time>
      </trkpt>
      <trkpt lat="38.72177" lon="37.21249">
        <ele>1450.649961</ele>
        <time>2021-11-15T21:50:16.012Z</time>
      </trkpt>
      <trkpt lat="38.72124" lon="37.21049">
        <ele>1456.451366</ele>
        <time>2021-11-15T21:51:13.977Z</time>
      </trkpt>
      <trkpt lat="38.721" lon="37.20908">
        <ele>1459.892528</ele>
        <time>2021-11-15T21:51:52.320Z</time>
      </trkpt>
      <trkpt lat="38.72019" lon="37.20328">
        <ele>1473.456061</ele>
        <time>2021-11-15T21:54:28.630Z</time>
      </trkpt>
      <trkpt lat="38.72008" lon="37.20268">
        <ele>1474.899087</ele>
        <time>2021-11-15T21:54:44.975Z</time>
      </trkpt>
      <trkpt lat="38.71978" lon="37.20161">
        <ele>1477.852171</ele>
        <time>2021-11-15T21:55:16.075Z</time>
      </trkpt>
      <trkpt lat="38.71951" lon="37.20046">
        <ele>1481.219698</ele>
        <time>2021-11-15T21:55:50.394Z</time>
      </trkpt>
      <trkpt lat="38.71936" lon="37.19915">
        <ele>1485.199417</ele>
        <time>2021-11-15T21:56:30.405Z</time>
      </trkpt>
      <trkpt lat="38.71931" lon="37.1981">
        <ele>1488.500865</ele>
        <time>2021-11-15T21:57:02.251Z</time>
      </trkpt>
      <trkpt lat="38.71931" lon="37.19765">
        <ele>1489.900249</ele>
        <time>2021-11-15T21:57:15.537Z</time>
      </trkpt>
      <trkpt lat="38.71932" lon="37.19288">
        <ele>1504.000734</ele>
        <time>2021-11-15T21:59:32.173Z</time>
      </trkpt>
      <trkpt lat="38.71925" lon="37.19124">
        <ele>1510.680305</ele>
        <time>2021-11-15T22:00:27.788Z</time>
      </trkpt>
      <trkpt lat="38.71917" lon="37.19047">
        <ele>1513.926615</ele>
        <time>2021-11-15T22:00:56.302Z</time>
      </trkpt>
      <trkpt lat="38.71898" lon="37.18947">
        <ele>1518.397398</ele>
        <time>2021-11-15T22:01:33.856Z</time>
      </trkpt>
      <trkpt lat="38.71867" lon="37.18825">
        <ele>1523.422221</ele>
        <time>2021-11-15T22:02:16.597Z</time>
      </trkpt>
      <trkpt lat="38.71826" lon="37.1871">
        <ele>1526.830304</ele>
        <time>2021-11-15T22:02:52.900Z</time>
      </trkpt>
      <trkpt lat="38.7175" lon="37.1855">
        <ele>1530.654419</ele>
        <time>2021-11-15T22:03:38.374Z</time>
      </trkpt>
      <trkpt lat="38.71425" lon="37.17959">
        <ele>1543.250553</ele>
        <time>2021-11-15T22:06:29.802Z</time>
      </trkpt>
      <trkpt lat="38.71071" lon="37.17361">
        <ele>1567.654019</ele>
        <time>2021-11-15T22:10:19.697Z</time>
      </trkpt>
      <trkpt lat="38.7106" lon="37.17302">
        <ele>1569.915948</ele>
        <time>2021-11-15T22:10:41.290Z</time>
      </trkpt>
      <trkpt lat="38.71069" lon="37.17257">
        <ele>1571.691531</ele>
        <time>2021-11-15T22:10:57.383Z</time>
      </trkpt>
      <trkpt lat="38.71099" lon="37.17217">
        <ele>1573.838392</ele>
        <time>2021-11-15T22:11:16.368Z</time>
      </trkpt>
      <trkpt lat="38.71125" lon="37.17206">
        <ele>1575.176032</ele>
        <time>2021-11-15T22:11:27.873Z</time>
      </trkpt>
      <trkpt lat="38.71155" lon="37.17206">
        <ele>1576.66804</ele>
        <time>2021-11-15T22:11:40.250Z</time>
      </trkpt>
      <trkpt lat="38.71213" lon="37.17249">
        <ele>1579.02575</ele>
        <time>2021-11-15T22:12:04.437Z</time>
      </trkpt>
      <trkpt lat="38.71296" lon="37.17381">
        <ele>1583.208657</ele>
        <time>2021-11-15T22:12:47.944Z</time>
      </trkpt>
      <trkpt lat="38.71332" lon="37.17425">
        <ele>1585.615106</ele>
        <time>2021-11-15T22:13:05.452Z</time>
      </trkpt>
      <trkpt lat="38.7137" lon="37.17462">
        <ele>1587.925283</ele>
        <time>2021-11-15T22:13:23.698Z</time>
      </trkpt>
      <trkpt lat="38.71621" lon="37.17664">
        <ele>1607.056092</ele>
        <time>2021-11-15T22:15:48.368Z</time>
      </trkpt>
      <trkpt lat="38.71663" lon="37.17692">
        <ele>1611.118692</ele>
        <time>2021-11-15T22:16:15.882Z</time>
      </trkpt>
      <trkpt lat="38.71707" lon="37.17714">
        <ele>1615.247273</ele>
        <time>2021-11-15T22:16:44.497Z</time>
      </trkpt>
      <trkpt lat="38.71754" lon="37.17714">
        <ele>1619.35285</ele>
        <time>2021-11-15T22:17:13.153Z</time>
      </trkpt>
      <trkpt lat="38.71805" lon="37.17698">
        <ele>1623.768222</ele>
        <time>2021-11-15T22:17:44.356Z</time>
      </trkpt>
      <trkpt lat="38.71835" lon="37.17677">
        <ele>1626.595982</ele>
        <time>2021-11-15T22:18:03.370Z</time>
      </trkpt>
      <trkpt lat="38.71882" lon="37.17632">
        <ele>1631.60707</ele>
        <time>2021-11-15T22:18:35.428Z</time>
      </trkpt>
      <trkpt lat="38.71911" lon="37.17594">
        <ele>1635.0716</ele>
        <time>2021-11-15T22:18:57.044Z</time>
      </trkpt>
      <trkpt lat="38.71926" lon="37.17559">
        <ele>1637.778797</ele>
        <time>2021-11-15T22:19:13.778Z</time>
      </trkpt>
      <trkpt lat="38.71942" lon="37.17487">
        <ele>1642.770254</ele>
        <time>2021-11-15T22:19:45.230Z</time>
      </trkpt>
      <trkpt lat="38.71945" lon="37.17443">
        <ele>1645.780758</ele>
        <time>2021-11-15T22:20:05.167Z</time>
      </trkpt>
      <trkpt lat="38.71936" lon="37.17333">
        <ele>1653.735765</ele>
        <time>2021-11-15T22:20:57.694Z</time>
      </trkpt>
      <trkpt lat="38.71928" lon="37.17275">
        <ele>1658.49833</ele>
        <time>2021-11-15T22:21:27.870Z</time>
      </trkpt>
      <trkpt lat="38.71907" lon="37.1722">
        <ele>1663.311514</ele>
        <time>2021-11-15T22:21:58.914Z</time>
      </trkpt>
      <trkpt lat="38.71835" lon="37.17075">
        <ele>1675.782496</ele>
        <time>2021-11-15T22:23:22.453Z</time>
      </trkpt>
      <trkpt lat="38.71807" lon="37.17009">
        <ele>1680.818926</ele>
        <time>2021-11-15T22:23:54.694Z</time>
      </trkpt>
      <trkpt lat="38.71794" lon="37.16957">
        <ele>1684.348768</ele>
        <time>2021-11-15T22:24:16.691Z</time>
      </trkpt>
      <trkpt lat="38.71785" lon="37.16833">
        <ele>1689.548118</ele>
        <time>2021-11-15T22:25:01.049Z</time>
      </trkpt>
      <trkpt lat="38.71797" lon="37.1669">
        <ele>1695.201706</ele>
        <time>2021-11-15T22:25:44.868Z</time>
      </trkpt>
      <trkpt lat="38.71833" lon="37.16565">
        <ele>1699.704784</ele>
        <time>2021-11-15T22:26:23.746Z</time>
      </trkpt>
      <trkpt lat="38.71943" lon="37.16319">
        <ele>1711.85163</ele>
        <time>2021-11-15T22:28:01.723Z</time>
      </trkpt>
      <trkpt lat="38.71978" lon="37.16196">
        <ele>1719.822433</ele>
        <time>2021-11-15T22:28:56.739Z</time>
      </trkpt>
      <trkpt lat="38.71994" lon="37.16087">
        <ele>1726.506361</ele>
        <time>2021-11-15T22:29:45.330Z</time>
      </trkpt>
      <trkpt lat="38.72002" lon="37.15988">
        <ele>1732.190269</ele>
        <time>2021-11-15T22:30:27.402Z</time>
      </trkpt>
      <trkpt lat="38.72003" lon="37.1592">
        <ele>1736.062404</ele>
        <time>2021-11-15T22:30:54.515Z</time>
      </trkpt>
      <trkpt lat="38.71996" lon="37.15698">
        <ele>1746.59156</ele>
        <time>2021-11-15T22:32:14.256Z</time>
      </trkpt>
      <trkpt lat="38.71999" lon="37.15628">
        <ele>1749.609759</ele>
        <time>2021-11-15T22:32:37.249Z</time>
      </trkpt>
      <trkpt lat="38.72007" lon="37.15558">
        <ele>1752.244747</ele>
        <time>2021-11-15T22:33:00.137Z</time>
      </trkpt>
      <trkpt lat="38.72029" lon="37.15472">
        <ele>1755.596714</ele>
        <time>2021-11-15T22:33:28.754Z</time>
      </trkpt>
      <trkpt lat="38.72061" lon="37.15392">
        <ele>1758.959605</ele>
        <time>2021-11-15T22:33:57.542Z</time>
      </trkpt>
      <trkpt lat="38.72102" lon="37.1532">
        <ele>1762.368533</ele>
        <time>2021-11-15T22:34:26.837Z</time>
      </trkpt>
      <trkpt lat="38.72142" lon="37.1527">
        <ele>1765.072615</ele>
        <time>2021-11-15T22:34:50.289Z</time>
      </trkpt>
      <trkpt lat="38.72199" lon="37.15217">
        <ele>1768.304036</ele>
        <time>2021-11-15T22:35:19.660Z</time>
      </trkpt>
      <trkpt lat="38.72261" lon="37.15177">
        <ele>1771.358341</ele>
        <time>2021-11-15T22:35:48.041Z</time>
      </trkpt>
      <trkpt lat="38.72748" lon="37.14946">
        <ele>1789.887242</ele>
        <time>2021-11-15T22:39:02.682Z</time>
      </trkpt>
      <trkpt lat="38.72975" lon="37.14848">
        <ele>1790.945027</ele>
        <time>2021-11-15T22:39:57.967Z</time>
      </trkpt>
      <trkpt lat="38.7303" lon="37.14842">
        <ele>1789.701975</ele>
        <time>2021-11-15T22:40:07.266Z</time>
      </trkpt>
      <trkpt lat="38.73087" lon="37.14848">
        <ele>1787.144928</ele>
        <time>2021-11-15T22:40:16.309Z</time>
      </trkpt>
      <trkpt lat="38.73127" lon="37.14859">
        <ele>1785.327765</ele>
        <time>2021-11-15T22:40:22.450Z</time>
      </trkpt>
      <trkpt lat="38.73186" lon="37.14885">
        <ele>1782.360792</ele>
        <time>2021-11-15T22:40:31.715Z</time>
      </trkpt>
      <trkpt lat="38.73225" lon="37.14909">
        <ele>1779.239421</ele>
        <time>2021-11-15T22:40:37.958Z</time>
      </trkpt>
      <trkpt lat="38.73366" lon="37.15018">
        <ele>1766.968666</ele>
        <time>2021-11-15T22:41:01.224Z</time>
      </trkpt>
      <trkpt lat="38.73441" lon="37.15054">
        <ele>1760.288069</ele>
        <time>2021-11-15T22:41:12.348Z</time>
      </trkpt>
      <trkpt lat="38.73503" lon="37.1506">
        <ele>1755.096944</ele>
        <time>2021-11-15T22:41:20.962Z</time>
      </trkpt>
      <trkpt lat="38.73545" lon="37.15052">
        <ele>1751.503934</ele>
        <time>2021-11-15T22:41:26.830Z</time>
      </trkpt>
      <trkpt lat="38.73779" lon="37.1496">
        <ele>1731.823579</ele>
        <time>2021-11-15T22:42:00.947Z</time>
      </trkpt>
      <trkpt lat="38.73843" lon="37.14949">
        <ele>1727.013299</ele>
        <time>2021-11-15T22:42:10.287Z</time>
      </trkpt>
      <trkpt lat="38.73886" lon="37.14949">
        <ele>1724.951169</ele>
        <time>2021-11-15T22:42:16.539Z</time>
      </trkpt>
      <trkpt lat="38.74079" lon="37.15022">
        <ele>1718.570537</ele>
        <time>2021-11-15T22:42:49.415Z</time>
      </trkpt>
      <trkpt lat="38.74583" lon="37.15282">
        <ele>1712.497963</ele>
        <time>2021-11-15T22:44:34.945Z</time>
      </trkpt>
      <trkpt lat="38.74683" lon="37.15309">
        <ele>1711.69731</ele>
        <time>2021-11-15T22:44:55.369Z</time>
      </trkpt>
      <trkpt lat="38.74759" lon="37.15317">
        <ele>1711.306797</ele>
        <time>2021-11-15T22:45:10.461Z</time>
      </trkpt>
      <trkpt lat="38.74881" lon="37.15297">
        <ele>1710.810473</ele>
        <time>2021-11-15T22:45:35.861Z</time>
      </trkpt>
      <trkpt lat="38.74984" lon="37.15258">
        <ele>1711.539917</ele>
        <time>2021-11-15T22:46:02.161Z</time>
      </trkpt>
      <trkpt lat="38.75075" lon="37.15189">
        <ele>1712.341503</ele>
        <time>2021-11-15T22:46:31.132Z</time>
      </trkpt>
      <trkpt lat="38.75187" lon="37.15081">
        <ele>1713.608121</ele>
        <time>2021-11-15T22:47:08.105Z</time>
      </trkpt>
      <trkpt lat="38.7525" lon="37.14992">
        <ele>1713.180124</ele>
        <time>2021-11-15T22:47:28.487Z</time>
      </trkpt>
      <trkpt lat="38.75317" lon="37.14849">
        <ele>1711.905722</ele>
        <time>2021-11-15T22:47:53.078Z</time>
      </trkpt>
      <trkpt lat="38.75387" lon="37.14603">
        <ele>1706.632786</ele>
        <time>2021-11-15T22:48:28.344Z</time>
      </trkpt>
      <trkpt lat="38.75418" lon="37.14442">
        <ele>1701.311418</ele>
        <time>2021-11-15T22:48:48.221Z</time>
      </trkpt>
      <trkpt lat="38.75452" lon="37.1434">
        <ele>1695.883526</ele>
        <time>2021-11-15T22:49:00.735Z</time>
      </trkpt>
      <trkpt lat="38.75486" lon="37.14268">
        <ele>1691.733079</ele>
        <time>2021-11-15T22:49:10.200Z</time>
      </trkpt>
      <trkpt lat="38.75514" lon="37.14222">
        <ele>1688.988059</ele>
        <time>2021-11-15T22:49:16.650Z</time>
      </trkpt>
      <trkpt lat="38.75563" lon="37.1416">
        <ele>1684.890855</ele>
        <time>2021-11-15T22:49:26.633Z</time>
      </trkpt>
      <trkpt lat="38.75621" lon="37.1411">
        <ele>1680.707865</ele>
        <time>2021-11-15T22:49:37.043Z</time>
      </trkpt>
      <trkpt lat="38.75724" lon="37.1405">
        <ele>1675.005259</ele>
        <time>2021-11-15T22:49:54.312Z</time>
      </trkpt>
      <trkpt lat="38.75799" lon="37.13999">
        <ele>1670.843654</ele>
        <time>2021-11-15T22:50:07.244Z</time>
      </trkpt>
      <trkpt lat="38.75834" lon="37.13968">
        <ele>1668.644681</ele>
        <time>2021-11-15T22:50:13.626Z</time>
      </trkpt>
      <trkpt lat="38.75882" lon="37.13913">
        <ele>1665.320311</ele>
        <time>2021-11-15T22:50:23.234Z</time>
      </trkpt>
      <trkpt lat="38.75909" lon="37.13871">
        <ele>1663.093793</ele>
        <time>2021-11-15T22:50:29.634Z</time>
      </trkpt>
      <trkpt lat="38.75945" lon="37.138">
        <ele>1659.305559</ele>
        <time>2021-11-15T22:50:39.421Z</time>
      </trkpt>
      <trkpt lat="38.75964" lon="37.13748">
        <ele>1656.56162</ele>
        <time>2021-11-15T22:50:46.037Z</time>
      </trkpt>
      <trkpt lat="38.76005" lon="37.13604">
        <ele>1648.971681</ele>
        <time>2021-11-15T22:51:03.372Z</time>
      </trkpt>
      <trkpt lat="38.76058" lon="37.1346">
        <ele>1639.910891</ele>
        <time>2021-11-15T22:51:21.006Z</time>
      </trkpt>
      <trkpt lat="38.76146" lon="37.1328">
        <ele>1628.632948</ele>
        <time>2021-11-15T22:51:44.557Z</time>
      </trkpt>
      <trkpt lat="38.76296" lon="37.13">
        <ele>1614.836951</ele>
        <time>2021-11-15T22:52:24.335Z</time>
      </trkpt>
      <trkpt lat="38.76368" lon="37.12873">
        <ele>1610.212103</ele>
        <time>2021-11-15T22:52:43.902Z</time>
      </trkpt>
      <trkpt lat="38.76483" lon="37.12691">
        <ele>1605.705455</ele>
        <time>2021-11-15T22:53:15.077Z</time>
      </trkpt>
      <trkpt lat="38.76746" lon="37.12297">
        <ele>1601.574852</ele>
        <time>2021-11-15T22:54:32.434Z</time>
      </trkpt>
      <trkpt lat="38.76811" lon="37.12189">
        <ele>1602.193987</ele>
        <time>2021-11-15T22:54:59.171Z</time>
      </trkpt>
      <trkpt lat="38.76855" lon="37.12101">
        <ele>1602.935092</ele>
        <time>2021-11-15T22:55:22.441Z</time>
      </trkpt>
      <trkpt lat="38.76878" lon="37.1204">
        <ele>1603.618136</ele>
        <time>2021-11-15T22:55:37.507Z</time>
      </trkpt>
      <trkpt lat="38.76906" lon="37.11926">
        <ele>1604.818864</ele>
        <time>2021-11-15T22:56:02.868Z</time>
      </trkpt>
      <trkpt lat="38.76926" lon="37.11798">
        <ele>1605.636963</ele>
        <time>2021-11-15T22:56:27.577Z</time>
      </trkpt>
      <trkpt lat="38.76929" lon="37.11686">
        <ele>1606.476423</ele>
        <time>2021-11-15T22:56:49.361Z</time>
      </trkpt>
      <trkpt lat="38.76823" lon="37.10887">
        <ele>1618.27799</ele>
        <time>2021-11-15T23:00:00.977Z</time>
      </trkpt>
      <trkpt lat="38.76785" lon="37.10627">
        <ele>1620.035134</ele>
        <time>2021-11-15T23:00:53.415Z</time>
      </trkpt>
      <trkpt lat="38.7675" lon="37.1038">
        <ele>1619.169762</ele>
        <time>2021-11-15T23:01:34.512Z</time>
      </trkpt>
      <trkpt lat="38.76709" lon="37.101">
        <ele>1615.263825</ele>
        <time>2021-11-15T23:02:13.049Z</time>
      </trkpt>
      <trkpt lat="38.76684" lon="37.09913">
        <ele>1613.579802</ele>
        <time>2021-11-15T23:02:40.956Z</time>
      </trkpt>
      <trkpt lat="38.76673" lon="37.0979">
        <ele>1613.298313</ele>
        <time>2021-11-15T23:03:01.964Z</time>
      </trkpt>
      <trkpt lat="38.7669" lon="37.09395">
        <ele>1613.538165</ele>
        <time>2021-11-15T23:04:12.863Z</time>
      </trkpt>
      <trkpt lat="38.76692" lon="37.09286">
        <ele>1613.520244</ele>
        <time>2021-11-15T23:04:31.408Z</time>
      </trkpt>
      <trkpt lat="38.76677" lon="37.09189">
        <ele>1613.50721</ele>
        <time>2021-11-15T23:04:48.153Z</time>
      </trkpt>
      <trkpt lat="38.76655" lon="37.09096">
        <ele>1613.546509</ele>
        <time>2021-11-15T23:05:04.766Z</time>
      </trkpt>
      <trkpt lat="38.76619" lon="37.09004">
        <ele>1613.58867</ele>
        <time>2021-11-15T23:05:23.206Z</time>
      </trkpt>
      <trkpt lat="38.76394" lon="37.08626">
        <ele>1614.655404</ele>
        <time>2021-11-15T23:06:50.837Z</time>
      </trkpt>
      <trkpt lat="38.76325" lon="37.08472">
        <ele>1614.562133</ele>
        <time>2021-11-15T23:07:20.515Z</time>
      </trkpt>
      <trkpt lat="38.76297" lon="37.08383">
        <ele>1614.638355</ele>
        <time>2021-11-15T23:07:36.690Z</time>
      </trkpt>
      <trkpt lat="38.76181" lon="37.07849">
        <ele>1616.798149</ele>
        <time>2021-11-15T23:09:22.277Z</time>
      </trkpt>
      <trkpt lat="38.76027" lon="37.07108">
        <ele>1620.422753</ele>
        <time>2021-11-15T23:11:48.580Z</time>
      </trkpt>
      <trkpt lat="38.76011" lon="37.07031">
        <ele>1621.154189</ele>
        <time>2021-11-15T23:12:06.279Z</time>
      </trkpt>
      <trkpt lat="38.75988" lon="37.06775">
        <ele>1623.668679</ele>
        <time>2021-11-15T23:13:02.989Z</time>
      </trkpt>
      <trkpt lat="38.75972" lon="37.06297">
        <ele>1625.674267</ele>
        <time>2021-11-15T23:14:32.955Z</time>
      </trkpt>
      <trkpt lat="38.75955" lon="37.05766">
        <ele>1626.732968</ele>
        <time>2021-11-15T23:16:09.212Z</time>
      </trkpt>
      <trkpt lat="38.75891" lon="37.05246">
        <ele>1627.190557</ele>
        <time>2021-11-15T23:17:41.429Z</time>
      </trkpt>
      <trkpt lat="38.75771" lon="37.04833">
        <ele>1628.70648</ele>
        <time>2021-11-15T23:19:04.450Z</time>
      </trkpt>
      <trkpt lat="38.75724" lon="37.04716">
        <ele>1629.224485</ele>
        <time>2021-11-15T23:19:29.158Z</time>
      </trkpt>
      <trkpt lat="38.75204" lon="37.03578">
        <ele>1634.591916</ele>
        <time>2021-11-15T23:23:38.929Z</time>
      </trkpt>
      <trkpt lat="38.75188" lon="37.03519">
        <ele>1634.96258</ele>
        <time>2021-11-15T23:23:51.209Z</time>
      </trkpt>
      <trkpt lat="38.75069" lon="37.02726">
        <ele>1639.749932</ele>
        <time>2021-11-15T23:26:31.142Z</time>
      </trkpt>
      <trkpt lat="38.75045" lon="37.02489">
        <ele>1640.844525</ele>
        <time>2021-11-15T23:27:16.928Z</time>
      </trkpt>
      <trkpt lat="38.75038" lon="37.02157">
        <ele>1641.87046</ele>
        <time>2021-11-15T23:28:18.073Z</time>
      </trkpt>
      <trkpt lat="38.75048" lon="37.02043">
        <ele>1642.261204</ele>
        <time>2021-11-15T23:28:39.692Z</time>
      </trkpt>
      <trkpt lat="38.75078" lon="37.01733">
        <ele>1643.88793</ele>
        <time>2021-11-15T23:29:40.093Z</time>
      </trkpt>
      <trkpt lat="38.75091" lon="37.0159">
        <ele>1644.79783</ele>
        <time>2021-11-15T23:30:08.975Z</time>
      </trkpt>
      <trkpt lat="38.75132" lon="37.01137">
        <ele>1648.888378</ele>
        <time>2021-11-15T23:31:43.943Z</time>
      </trkpt>
      <trkpt lat="38.75146" lon="37.0104">
        <ele>1650.550378</ele>
        <time>2021-11-15T23:32:06.357Z</time>
      </trkpt>
      <trkpt lat="38.75162" lon="37.00949">
        <ele>1652.353787</ele>
        <time>2021-11-15T23:32:29.415Z</time>
      </trkpt>
      <trkpt lat="38.75192" lon="37.00856">
        <ele>1654.32113</ele>
        <time>2021-11-15T23:32:58.189Z</time>
      </trkpt>
      <trkpt lat="38.75228" lon="37.00786">
        <ele>1655.997889</ele>
        <time>2021-11-15T23:33:21.266Z</time>
      </trkpt>
      <trkpt lat="38.7527" lon="37.00726">
        <ele>1657.604979</ele>
        <time>2021-11-15T23:33:41.128Z</time>
      </trkpt>
      <trkpt lat="38.75307" lon="37.00682">
        <ele>1658.370655</ele>
        <time>2021-11-15T23:33:54.313Z</time>
      </trkpt>
      <trkpt lat="38.75437" lon="37.0052">
        <ele>1659.853469</ele>
        <time>2021-11-15T23:34:37.567Z</time>
      </trkpt>
      <trkpt lat="38.75492" lon="37.00448">
        <ele>1661.05721</ele>
        <time>2021-11-15T23:34:59.811Z</time>
      </trkpt>
      <trkpt lat="38.75545" lon="37.00355">
        <ele>1662.397981</ele>
        <time>2021-11-15T23:35:28.488Z</time>
      </trkpt>
      <trkpt lat="38.75699" lon="37.00039">
        <ele>1665.922</ele>
        <time>2021-11-15T23:36:45.379Z</time>
      </trkpt>
      <trkpt lat="38.75795" lon="36.99857">
        <ele>1667.999532</ele>
        <time>2021-11-15T23:37:32.659Z</time>
      </trkpt>
      <trkpt lat="38.75829" lon="36.99811">
        <ele>1668.610636</ele>
        <time>2021-11-15T23:37:46.076Z</time>
      </trkpt>
      <trkpt lat="38.76009" lon="36.99634">
        <ele>1670.740327</ele>
        <time>2021-11-15T23:38:44.893Z</time>
      </trkpt>
      <trkpt lat="38.7611" lon="36.99518">
        <ele>1671.806909</ele>
        <time>2021-11-15T23:39:19.331Z</time>
      </trkpt>
      <trkpt lat="38.76167" lon="36.99432">
        <ele>1672.096943</ele>
        <time>2021-11-15T23:39:40.440Z</time>
      </trkpt>
      <trkpt lat="38.76211" lon="36.99348">
        <ele>1672.323763</ele>
        <time>2021-11-15T23:39:58.429Z</time>
      </trkpt>
      <trkpt lat="38.76256" lon="36.99255">
        <ele>1672.411132</ele>
        <time>2021-11-15T23:40:17.393Z</time>
      </trkpt>
      <trkpt lat="38.76289" lon="36.99166">
        <ele>1672.44427</ele>
        <time>2021-11-15T23:40:34.445Z</time>
      </trkpt>
      <trkpt lat="38.76318" lon="36.99058">
        <ele>1672.656497</ele>
        <time>2021-11-15T23:40:54.647Z</time>
      </trkpt>
      <trkpt lat="38.76338" lon="36.98944">
        <ele>1673.009634</ele>
        <time>2021-11-15T23:41:16.167Z</time>
      </trkpt>
      <trkpt lat="38.76349" lon="36.98847">
        <ele>1673.550068</ele>
        <time>2021-11-15T23:41:35.512Z</time>
      </trkpt>
      <trkpt lat="38.76351" lon="36.98654">
        <ele>1675.078867</ele>
        <time>2021-11-15T23:42:15.997Z</time>
      </trkpt>
      <trkpt lat="38.76315" lon="36.98291">
        <ele>1677.876275</ele>
        <time>2021-11-15T23:43:31.534Z</time>
      </trkpt>
      <trkpt lat="38.76315" lon="36.9822">
        <ele>1678.346452</ele>
        <time>2021-11-15T23:43:44.662Z</time>
      </trkpt>
      <trkpt lat="38.76325" lon="36.98134">
        <ele>1679.077149</ele>
        <time>2021-11-15T23:44:01.282Z</time>
      </trkpt>
      <trkpt lat="38.76337" lon="36.98059">
        <ele>1679.747168</ele>
        <time>2021-11-15T23:44:16.826Z</time>
      </trkpt>
      <trkpt lat="38.76358" lon="36.9797">
        <ele>1680.68335</ele>
        <time>2021-11-15T23:44:37.585Z</time>
      </trkpt>
      <trkpt lat="38.76395" lon="36.97876">
        <ele>1682.607346</ele>
        <time>2021-11-15T23:45:03.849Z</time>
      </trkpt>
      <trkpt lat="38.76434" lon="36.978">
        <ele>1684.292126</ele>
        <time>2021-11-15T23:45:27.171Z</time>
      </trkpt>
      <trkpt lat="38.7647" lon="36.97745">
        <ele>1685.678881</ele>
        <time>2021-11-15T23:45:44.412Z</time>
      </trkpt>
      <trkpt lat="38.76481" lon="36.97729">
        <ele>1686.111134</ele>
        <time>2021-11-15T23:45:50.263Z</time>
      </trkpt>
      <trkpt lat="38.76523" lon="36.97675">
        <ele>1687.615446</ele>
        <time>2021-11-15T23:46:08.847Z</time>
      </trkpt>
      <trkpt lat="38.76561" lon="36.9763">
        <ele>1688.944691</ele>
        <time>2021-11-15T23:46:26.089Z</time>
      </trkpt>
      <trkpt lat="38.76674" lon="36.97549">
        <ele>1692.543162</ele>
        <time>2021-11-15T23:47:09.964Z</time>
      </trkpt>
      <trkpt lat="38.76832" lon="36.97472">
        <ele>1696.320508</ele>
        <time>2021-11-15T23:48:05.800Z</time>
      </trkpt>
      <trkpt lat="38.76919" lon="36.97418">
        <ele>1697.81347</ele>
        <time>2021-11-15T23:48:30.469Z</time>
      </trkpt>
      <trkpt lat="38.77022" lon="36.97321">
        <ele>1698.376194</ele>
        <time>2021-11-15T23:48:59.626Z</time>
      </trkpt>
      <trkpt lat="38.77059" lon="36.97275">
        <ele>1698.805288</ele>
        <time>2021-11-15T23:49:12.482Z</time>
      </trkpt>
      <trkpt lat="38.77108" lon="36.97198">
        <ele>1699.87162</ele>
        <time>2021-11-15T23:49:33.823Z</time>
      </trkpt>
      <trkpt lat="38.77275" lon="36.96921">
        <ele>1704.351452</ele>
        <time>2021-11-15T23:50:54.591Z</time>
      </trkpt>
      <trkpt lat="38.77411" lon="36.96787">
        <ele>1706.734633</ele>
        <time>2021-11-15T23:51:41.520Z</time>
      </trkpt>
      <trkpt lat="38.77473" lon="36.9672">
        <ele>1708.059491</ele>
        <time>2021-11-15T23:52:03.698Z</time>
      </trkpt>
      <trkpt lat="38.77683" lon="36.96356">
        <ele>1714.594243</ele>
        <time>2021-11-15T23:53:49.299Z</time>
      </trkpt>
      <trkpt lat="38.7774" lon="36.96274">
        <ele>1716.234879</ele>
        <time>2021-11-15T23:54:15.061Z</time>
      </trkpt>
      <trkpt lat="38.77778" lon="36.96232">
        <ele>1717.237645</ele>
        <time>2021-11-15T23:54:30.089Z</time>
      </trkpt>
      <trkpt lat="38.77966" lon="36.96064">
        <ele>1721.939916</ele>
        <time>2021-11-15T23:55:39.676Z</time>
      </trkpt>
      <trkpt lat="38.78064" lon="36.95969">
        <ele>1724.440473</ele>
        <time>2021-11-15T23:56:17.951Z</time>
      </trkpt>
      <trkpt lat="38.78236" lon="36.95788">
        <ele>1728.080059</ele>
        <time>2021-11-15T23:57:22.639Z</time>
      </trkpt>
      <trkpt lat="38.78389" lon="36.95659">
        <ele>1729.432364</ele>
        <time>2021-11-15T23:58:10.633Z</time>
      </trkpt>
      <trkpt lat="38.78485" lon="36.95594">
        <ele>1729.361276</ele>
        <time>2021-11-15T23:58:32.504Z</time>
      </trkpt>
      <trkpt lat="38.78602" lon="36.95538">
        <ele>1727.619708</ele>
        <time>2021-11-15T23:58:55.215Z</time>
      </trkpt>
      <trkpt lat="38.78799" lon="36.95419">
        <ele>1725.005482</ele>
        <time>2021-11-15T23:59:35.755Z</time>
      </trkpt>
      <trkpt lat="38.78936" lon="36.95316">
        <ele>1725.102173</ele>
        <time>2021-11-16T00:00:11.663Z</time>
      </trkpt>
      <trkpt lat="38.79035" lon="36.95225">
        <ele>1726.183946</ele>
        <time>2021-11-16T00:00:43.701Z</time>
      </trkpt>
      <trkpt lat="38.79148" lon="36.9511">
        <ele>1728.022293</ele>
        <time>2021-11-16T00:01:23.762Z</time>
      </trkpt>
      <trkpt lat="38.79234" lon="36.95003">
        <ele>1729.737124</ele>
        <time>2021-11-16T00:01:57.313Z</time>
      </trkpt>
      <trkpt lat="38.79286" lon="36.94928">
        <ele>1731.05049</ele>
        <time>2021-11-16T00:02:19.534Z</time>
      </trkpt>
      <trkpt lat="38.79379" lon="36.94743">
        <ele>1734.092429</ele>
        <time>2021-11-16T00:03:10.590Z</time>
      </trkpt>
      <trkpt lat="38.79469" lon="36.94489">
        <ele>1738.147888</ele>
        <time>2021-11-16T00:04:14.991Z</time>
      </trkpt>
      <trkpt lat="38.79533" lon="36.94273">
        <ele>1742.120439</ele>
        <time>2021-11-16T00:05:09.106Z</time>
      </trkpt>
      <trkpt lat="38.79554" lon="36.9418">
        <ele>1743.990569</ele>
        <time>2021-11-16T00:05:34.031Z</time>
      </trkpt>
      <trkpt lat="38.79601" lon="36.93928">
        <ele>1751.600373</ele>
        <time>2021-11-16T00:06:50.059Z</time>
      </trkpt>
      <trkpt lat="38.79629" lon="36.93861">
        <ele>1754.126316</ele>
        <time>2021-11-16T00:07:13.756Z</time>
      </trkpt>
      <trkpt lat="38.79662" lon="36.93807">
        <ele>1756.418179</ele>
        <time>2021-11-16T00:07:35.349Z</time>
      </trkpt>
      <trkpt lat="38.79763" lon="36.93699">
        <ele>1761.102661</ele>
        <time>2021-11-16T00:08:26.578Z</time>
      </trkpt>
      <trkpt lat="38.79854" lon="36.93646">
        <ele>1764.170188</ele>
        <time>2021-11-16T00:08:59.805Z</time>
      </trkpt>
      <trkpt lat="38.79994" lon="36.93595">
        <ele>1763.823908</ele>
        <time>2021-11-16T00:09:32.980Z</time>
      </trkpt>
      <trkpt lat="38.80178" lon="36.93532">
        <ele>1759.85301</ele>
        <time>2021-11-16T00:10:04.796Z</time>
      </trkpt>
      <trkpt lat="38.80224" lon="36.93516">
        <ele>1758.960052</ele>
        <time>2021-11-16T00:10:12.776Z</time>
      </trkpt>
      <trkpt lat="38.80345" lon="36.93476">
        <ele>1757.503024</ele>
        <time>2021-11-16T00:10:35.802Z</time>
      </trkpt>
      <trkpt lat="38.80496" lon="36.93416">
        <ele>1758.552079</ele>
        <time>2021-11-16T00:11:16.941Z</time>
      </trkpt>
      <trkpt lat="38.80596" lon="36.93363">
        <ele>1760.050055</ele>
        <time>2021-11-16T00:11:49.280Z</time>
      </trkpt>
      <trkpt lat="38.80931" lon="36.93114">
        <ele>1765.91744</ele>
        <time>2021-11-16T00:13:38.468Z</time>
      </trkpt>
      <trkpt lat="38.81051" lon="36.93003">
        <ele>1768.237659</ele>
        <time>2021-11-16T00:14:19.248Z</time>
      </trkpt>
      <trkpt lat="38.81138" lon="36.92865">
        <ele>1770.844725</ele>
        <time>2021-11-16T00:15:01.619Z</time>
      </trkpt>
      <trkpt lat="38.81178" lon="36.92642">
        <ele>1774.450803</ele>
        <time>2021-11-16T00:15:58.004Z</time>
      </trkpt>
      <trkpt lat="38.81188" lon="36.92102">
        <ele>1775.514245</ele>
        <time>2021-11-16T00:17:34.219Z</time>
      </trkpt>
      <trkpt lat="38.81188" lon="36.91665">
        <ele>1775.007095</ele>
        <time>2021-11-16T00:18:46.908Z</time>
      </trkpt>
      <trkpt lat="38.81179" lon="36.91487">
        <ele>1775.226677</ele>
        <time>2021-11-16T00:19:19.019Z</time>
      </trkpt>
      <trkpt lat="38.81156" lon="36.9136">
        <ele>1776.121067</ele>
        <time>2021-11-16T00:19:43.948Z</time>
      </trkpt>
      <trkpt lat="38.81109" lon="36.91223">
        <ele>1777.906032</ele>
        <time>2021-11-16T00:20:16.252Z</time>
      </trkpt>
      <trkpt lat="38.81044" lon="36.91106">
        <ele>1780.731382</ele>
        <time>2021-11-16T00:20:52.966Z</time>
      </trkpt>
      <trkpt lat="38.80945" lon="36.90959">
        <ele>1786.278288</ele>
        <time>2021-11-16T00:21:50.241Z</time>
      </trkpt>
      <trkpt lat="38.80908" lon="36.90893">
        <ele>1788.747542</ele>
        <time>2021-11-16T00:22:14.919Z</time>
      </trkpt>
      <trkpt lat="38.80885" lon="36.90839">
        <ele>1790.684504</ele>
        <time>2021-11-16T00:22:33.248Z</time>
      </trkpt>
      <trkpt lat="38.80869" lon="36.90785">
        <ele>1792.529473</ele>
        <time>2021-11-16T00:22:50.641Z</time>
      </trkpt>
      <trkpt lat="38.80855" lon="36.90705">
        <ele>1795.115708</ele>
        <time>2021-11-16T00:23:14.943Z</time>
      </trkpt>
      <trkpt lat="38.80851" lon="36.90646">
        <ele>1797.226599</ele>
        <time>2021-11-16T00:23:32.821Z</time>
      </trkpt>
      <trkpt lat="38.80855" lon="36.90585">
        <ele>1799.412101</ele>
        <time>2021-11-16T00:23:51.385Z</time>
      </trkpt>
      <trkpt lat="38.80864" lon="36.90525">
        <ele>1801.631183</ele>
        <time>2021-11-16T00:24:11.000Z</time>
      </trkpt>
      <trkpt lat="38.80881" lon="36.90463">
        <ele>1804.077288</ele>
        <time>2021-11-16T00:24:33.150Z</time>
      </trkpt>
      <trkpt lat="38.80898" lon="36.90416">
        <ele>1806.559259</ele>
        <time>2021-11-16T00:24:51.358Z</time>
      </trkpt>
      <trkpt lat="38.80931" lon="36.90346">
        <ele>1810.446295</ele>
        <time>2021-11-16T00:25:21.041Z</time>
      </trkpt>
      <trkpt lat="38.81024" lon="36.90192">
        <ele>1820.070917</ele>
        <time>2021-11-16T00:26:35.075Z</time>
      </trkpt>
      <trkpt lat="38.81145" lon="36.89999">
        <ele>1832.625011</ele>
        <time>2021-11-16T00:28:08.448Z</time>
      </trkpt>
      <trkpt lat="38.81212" lon="36.89918">
        <ele>1838.554369</ele>
        <time>2021-11-16T00:28:52.138Z</time>
      </trkpt>
      <trkpt lat="38.81265" lon="36.89861">
        <ele>1843.141758</ele>
        <time>2021-11-16T00:29:25.492Z</time>
      </trkpt>
      <trkpt lat="38.81311" lon="36.89821">
        <ele>1846.824441</ele>
        <time>2021-11-16T00:29:52.653Z</time>
      </trkpt>
      <trkpt lat="38.81378" lon="36.89788">
        <ele>1851.617639</ele>
        <time>2021-11-16T00:30:28.409Z</time>
      </trkpt>
      <trkpt lat="38.81499" lon="36.89758">
        <ele>1859.984256</ele>
        <time>2021-11-16T00:31:30.011Z</time>
      </trkpt>
      <trkpt lat="38.81574" lon="36.89763">
        <ele>1864.744673</ele>
        <time>2021-11-16T00:32:06.177Z</time>
      </trkpt>
      <trkpt lat="38.81677" lon="36.89795">
        <ele>1871.068727</ele>
        <time>2021-11-16T00:32:54.759Z</time>
      </trkpt>
      <trkpt lat="38.8174" lon="36.89827">
        <ele>1874.961829</ele>
        <time>2021-11-16T00:33:24.312Z</time>
      </trkpt>
      <trkpt lat="38.81871" lon="36.89927">
        <ele>1883.637322</ele>
        <time>2021-11-16T00:34:32.175Z</time>
      </trkpt>
      <trkpt lat="38.81933" lon="36.89964">
        <ele>1888.436684</ele>
        <time>2021-11-16T00:35:04.648Z</time>
      </trkpt>
      <trkpt lat="38.82018" lon="36.90006">
        <ele>1894.871474</ele>
        <time>2021-11-16T00:35:52.294Z</time>
      </trkpt>
      <trkpt lat="38.8208" lon="36.90029">
        <ele>1900.165787</ele>
        <time>2021-11-16T00:36:28.285Z</time>
      </trkpt>
      <trkpt lat="38.82263" lon="36.90071">
        <ele>1914.925235</ele>
        <time>2021-11-16T00:38:15.613Z</time>
      </trkpt>
      <trkpt lat="38.82323" lon="36.90076">
        <ele>1918.718035</ele>
        <time>2021-11-16T00:38:44.644Z</time>
      </trkpt>
      <trkpt lat="38.82369" lon="36.90075">
        <ele>1921.64748</ele>
        <time>2021-11-16T00:39:04.211Z</time>
      </trkpt>
      <trkpt lat="38.82452" lon="36.90054">
        <ele>1923.118483</ele>
        <time>2021-11-16T00:39:32.872Z</time>
      </trkpt>
      <trkpt lat="38.82553" lon="36.89996">
        <ele>1923.685061</ele>
        <time>2021-11-16T00:39:55.172Z</time>
      </trkpt>
      <trkpt lat="38.82596" lon="36.8996">
        <ele>1921.236416</ele>
        <time>2021-11-16T00:40:03.406Z</time>
      </trkpt>
      <trkpt lat="38.82637" lon="36.89911">
        <ele>1918.43942</ele>
        <time>2021-11-16T00:40:11.966Z</time>
      </trkpt>
      <trkpt lat="38.8266" lon="36.8988">
        <ele>1916.784629</ele>
        <time>2021-11-16T00:40:16.862Z</time>
      </trkpt>
      <trkpt lat="38.82742" lon="36.8973">
        <ele>1906.76365</ele>
        <time>2021-11-16T00:40:36.972Z</time>
      </trkpt>
      <trkpt lat="38.82787" lon="36.89662">
        <ele>1901.27468</ele>
        <time>2021-11-16T00:40:46.684Z</time>
      </trkpt>
      <trkpt lat="38.82825" lon="36.89615">
        <ele>1897.402007</ele>
        <time>2021-11-16T00:40:54.143Z</time>
      </trkpt>
      <trkpt lat="38.8287" lon="36.89574">
        <ele>1893.499571</ele>
        <time>2021-11-16T00:41:01.856Z</time>
      </trkpt>
      <trkpt lat="38.8296" lon="36.89525">
        <ele>1886.990321</ele>
        <time>2021-11-16T00:41:16.049Z</time>
      </trkpt>
      <trkpt lat="38.83134" lon="36.89482">
        <ele>1879.753185</ele>
        <time>2021-11-16T00:41:43.738Z</time>
      </trkpt>
      <trkpt lat="38.83171" lon="36.89466">
        <ele>1879.034147</ele>
        <time>2021-11-16T00:41:50.667Z</time>
      </trkpt>
      <trkpt lat="38.83239" lon="36.89421">
        <ele>1877.636027</ele>
        <time>2021-11-16T00:42:04.865Z</time>
      </trkpt>
      <trkpt lat="38.8327" lon="36.8939">
        <ele>1876.922245</ele>
        <time>2021-11-16T00:42:12.407Z</time>
      </trkpt>
      <trkpt lat="38.83302" lon="36.89348">
        <ele>1876.188872</ele>
        <time>2021-11-16T00:42:21.198Z</time>
      </trkpt>
      <trkpt lat="38.83335" lon="36.89293">
        <ele>1875.335197</ele>
        <time>2021-11-16T00:42:31.524Z</time>
      </trkpt>
      <trkpt lat="38.8343" lon="36.89077">
        <ele>1871.791392</ele>
        <time>2021-11-16T00:43:05.239Z</time>
      </trkpt>
      <trkpt lat="38.83476" lon="36.8899">
        <ele>1870.096774</ele>
        <time>2021-11-16T00:43:19.589Z</time>
      </trkpt>
      <trkpt lat="38.83498" lon="36.88957">
        <ele>1869.538538</ele>
        <time>2021-11-16T00:43:25.538Z</time>
      </trkpt>
      <trkpt lat="38.83529" lon="36.88921">
        <ele>1868.843079</ele>
        <time>2021-11-16T00:43:33.005Z</time>
      </trkpt>
      <trkpt lat="38.83608" lon="36.88855">
        <ele>1867.265243</ele>
        <time>2021-11-16T00:43:50.349Z</time>
      </trkpt>
      <trkpt lat="38.83645" lon="36.88832">
        <ele>1866.766947</ele>
        <time>2021-11-16T00:43:57.976Z</time>
      </trkpt>
      <trkpt lat="38.83696" lon="36.88811">
        <ele>1866.141077</ele>
        <time>2021-11-16T00:44:08.051Z</time>
      </trkpt>
      <trkpt lat="38.83777" lon="36.88792">
        <ele>1865.176806</ele>
        <time>2021-11-16T00:44:23.725Z</time>
      </trkpt>
      <trkpt lat="38.83861" lon="36.88796">
        <ele>1864.936488</ele>
        <time>2021-11-16T00:44:40.219Z</time>
      </trkpt>
      <trkpt lat="38.84731" lon="36.88934">
        <ele>1863.413449</ele>
        <time>2021-11-16T00:47:51.197Z</time>
      </trkpt>
      <trkpt lat="38.84977" lon="36.88973">
        <ele>1863.069371</ele>
        <time>2021-11-16T00:48:45.781Z</time>
      </trkpt>
      <trkpt lat="38.85045" lon="36.88975">
        <ele>1862.832378</ele>
        <time>2021-11-16T00:49:00.260Z</time>
      </trkpt>
      <trkpt lat="38.85111" lon="36.88965">
        <ele>1861.920366</ele>
        <time>2021-11-16T00:49:13.496Z</time>
      </trkpt>
      <trkpt lat="38.85198" lon="36.88934">
        <ele>1860.674952</ele>
        <time>2021-11-16T00:49:29.920Z</time>
      </trkpt>
      <trkpt lat="38.85287" lon="36.88882">
        <ele>1857.75565</ele>
        <time>2021-11-16T00:49:46.191Z</time>
      </trkpt>
      <trkpt lat="38.85344" lon="36.88833">
        <ele>1855.563925</ele>
        <time>2021-11-16T00:49:57.018Z</time>
      </trkpt>
      <trkpt lat="38.85395" lon="36.88777">
        <ele>1853.357496</ele>
        <time>2021-11-16T00:50:07.633Z</time>
      </trkpt>
      <trkpt lat="38.85449" lon="36.88701">
        <ele>1850.682003</ele>
        <time>2021-11-16T00:50:20.444Z</time>
      </trkpt>
      <trkpt lat="38.85591" lon="36.88412">
        <ele>1843.383104</ele>
        <time>2021-11-16T00:51:04.942Z</time>
      </trkpt>
      <trkpt lat="38.85655" lon="36.8829">
        <ele>1841.422862</ele>
        <time>2021-11-16T00:51:25.534Z</time>
      </trkpt>
      <trkpt lat="38.85752" lon="36.88145">
        <ele>1840.258271</ele>
        <time>2021-11-16T00:51:55.074Z</time>
      </trkpt>
      <trkpt lat="38.85871" lon="36.88016">
        <ele>1840.504601</ele>
        <time>2021-11-16T00:52:30.897Z</time>
      </trkpt>
      <trkpt lat="38.86066" lon="36.87834">
        <ele>1842.669811</ele>
        <time>2021-11-16T00:53:34.819Z</time>
      </trkpt>
      <trkpt lat="38.86194" lon="36.87708">
        <ele>1844.630502</ele>
        <time>2021-11-16T00:54:17.165Z</time>
      </trkpt>
      <trkpt lat="38.86238" lon="36.87658">
        <ele>1845.460828</ele>
        <time>2021-11-16T00:54:33.636Z</time>
      </trkpt>
      <trkpt lat="38.86354" lon="36.87501">
        <ele>1849.495428</ele>
        <time>2021-11-16T00:55:27.438Z</time>
      </trkpt>
      <trkpt lat="38.864" lon="36.87417">
        <ele>1851.567787</ele>
        <time>2021-11-16T00:55:55.778Z</time>
      </trkpt>
      <trkpt lat="38.86442" lon="36.87318">
        <ele>1853.846753</ele>
        <time>2021-11-16T00:56:24.343Z</time>
      </trkpt>
      <trkpt lat="38.86461" lon="36.87267">
        <ele>1854.540141</ele>
        <time>2021-11-16T00:56:37.384Z</time>
      </trkpt>
      <trkpt lat="38.86487" lon="36.87194">
        <ele>1855.174836</ele>
        <time>2021-11-16T00:56:54.244Z</time>
      </trkpt>
      <trkpt lat="38.86711" lon="36.86372">
        <ele>1860.582748</ele>
        <time>2021-11-16T00:59:36.549Z</time>
      </trkpt>
      <trkpt lat="38.86778" lon="36.8617">
        <ele>1868.265026</ele>
        <time>2021-11-16T01:00:52.015Z</time>
      </trkpt>
      <trkpt lat="38.86826" lon="36.86067">
        <ele>1873.937046</ele>
        <time>2021-11-16T01:01:38.165Z</time>
      </trkpt>
      <trkpt lat="38.86857" lon="36.86019">
        <ele>1876.840283</ele>
        <time>2021-11-16T01:02:00.510Z</time>
      </trkpt>
      <trkpt lat="38.86918" lon="36.85941">
        <ele>1880.029123</ele>
        <time>2021-11-16T01:02:36.355Z</time>
      </trkpt>
      <trkpt lat="38.87013" lon="36.85838">
        <ele>1883.667107</ele>
        <time>2021-11-16T01:03:16.283Z</time>
      </trkpt>
      <trkpt lat="38.87102" lon="36.85759">
        <ele>1884.536082</ele>
        <time>2021-11-16T01:03:43.113Z</time>
      </trkpt>
      <trkpt lat="38.87207" lon="36.8569">
        <ele>1884.439455</ele>
        <time>2021-11-16T01:04:08.204Z</time>
      </trkpt>
      <trkpt lat="38.87318" lon="36.85631">
        <ele>1883.601449</ele>
        <time>2021-11-16T01:04:32.219Z</time>
      </trkpt>
      <trkpt lat="38.87377" lon="36.85593">
        <ele>1882.49427</ele>
        <time>2021-11-16T01:04:44.345Z</time>
      </trkpt>
      <trkpt lat="38.87419" lon="36.85558">
        <ele>1881.640719</ele>
        <time>2021-11-16T01:04:53.351Z</time>
      </trkpt>
      <trkpt lat="38.87446" lon="36.85535">
        <ele>1881.080952</ele>
        <time>2021-11-16T01:04:59.024Z</time>
      </trkpt>
      <trkpt lat="38.87513" lon="36.85462">
        <ele>1878.130386</ele>
        <time>2021-11-16T01:05:13.496Z</time>
      </trkpt>
      <trkpt lat="38.87821" lon="36.85028">
        <ele>1861.101477</ele>
        <time>2021-11-16T01:06:25.622Z</time>
      </trkpt>
      <trkpt lat="38.87892" lon="36.84945">
        <ele>1857.345591</ele>
        <time>2021-11-16T01:06:40.737Z</time>
      </trkpt>
      <trkpt lat="38.87955" lon="36.84895">
        <ele>1854.421451</ele>
        <time>2021-11-16T01:06:52.454Z</time>
      </trkpt>
      <trkpt lat="38.88133" lon="36.848">
        <ele>1846.548411</ele>
        <time>2021-11-16T01:07:22.415Z</time>
      </trkpt>
      <trkpt lat="38.88176" lon="36.84767">
        <ele>1844.701504</ele>
        <time>2021-11-16T01:07:30.388Z</time>
      </trkpt>
      <trkpt lat="38.88218" lon="36.84734">
        <ele>1842.922559</ele>
        <time>2021-11-16T01:07:38.206Z</time>
      </trkpt>
      <trkpt lat="38.88243" lon="36.84708">
        <ele>1841.783482</ele>
        <time>2021-11-16T01:07:43.290Z</time>
      </trkpt>
      <trkpt lat="38.88267" lon="36.84679">
        <ele>1840.60747</ele>
        <time>2021-11-16T01:07:48.615Z</time>
      </trkpt>
      <trkpt lat="38.8832" lon="36.84596">
        <ele>1838.620032</ele>
        <time>2021-11-16T01:08:02.514Z</time>
      </trkpt>
      <trkpt lat="38.88551" lon="36.84231">
        <ele>1833.47867</ele>
        <time>2021-11-16T01:09:09.992Z</time>
      </trkpt>
      <trkpt lat="38.88686" lon="36.84004">
        <ele>1833.785713</ele>
        <time>2021-11-16T01:10:04.064Z</time>
      </trkpt>
      <trkpt lat="38.88734" lon="36.83891">
        <ele>1834.102525</ele>
        <time>2021-11-16T01:10:28.703Z</time>
      </trkpt>
      <trkpt lat="38.88775" lon="36.83765">
        <ele>1833.991316</ele>
        <time>2021-11-16T01:10:51.944Z</time>
      </trkpt>
      <trkpt lat="38.88811" lon="36.83619">
        <ele>1833.022818</ele>
        <time>2021-11-16T01:11:15.574Z</time>
      </trkpt>
      <trkpt lat="38.88822" lon="36.83543">
        <ele>1832.317053</ele>
        <time>2021-11-16T01:11:26.742Z</time>
      </trkpt>
      <trkpt lat="38.88828" lon="36.83503">
        <ele>1831.944383</ele>
        <time>2021-11-16T01:11:32.525Z</time>
      </trkpt>
      <trkpt lat="38.88834" lon="36.83444">
        <ele>1831.177363</ele>
        <time>2021-11-16T01:11:40.911Z</time>
      </trkpt>
      <trkpt lat="38.88835" lon="36.83428">
        <ele>1830.946597</ele>
        <time>2021-11-16T01:11:43.200Z</time>
      </trkpt>
      <trkpt lat="38.88837" lon="36.8338">
        <ele>1830.290312</ele>
        <time>2021-11-16T01:11:49.836Z</time>
      </trkpt>
      <trkpt lat="38.88834" lon="36.83183">
        <ele>1827.543212</ele>
        <time>2021-11-16T01:12:16.990Z</time>
      </trkpt>
      <trkpt lat="38.88823" lon="36.83082">
        <ele>1826.095977</ele>
        <time>2021-11-16T01:12:31.204Z</time>
      </trkpt>
      <trkpt lat="38.888" lon="36.82969">
        <ele>1824.686359</ele>
        <time>2021-11-16T01:12:47.585Z</time>
      </trkpt>
      <trkpt lat="38.88746" lon="36.82746">
        <ele>1823.645829</ele>
        <time>2021-11-16T01:13:21.619Z</time>
      </trkpt>
      <trkpt lat="38.88694" lon="36.82525">
        <ele>1826.029552</ele>
        <time>2021-11-16T01:14:19.826Z</time>
      </trkpt>
      <trkpt lat="38.88635" lon="36.82291">
        <ele>1825.774901</ele>
        <time>2021-11-16T01:15:09.935Z</time>
      </trkpt>
      <trkpt lat="38.88617" lon="36.8222">
        <ele>1823.923185</ele>
        <time>2021-11-16T01:15:18.422Z</time>
      </trkpt>
      <trkpt lat="38.88605" lon="36.82176">
        <ele>1822.784271</ele>
        <time>2021-11-16T01:15:23.503Z</time>
      </trkpt>
      <trkpt lat="38.88442" lon="36.81499">
        <ele>1808.243423</ele>
        <time>2021-11-16T01:16:56.820Z</time>
      </trkpt>
      <trkpt lat="38.88423" lon="36.81424">
        <ele>1807.137101</ele>
        <time>2021-11-16T01:17:08.370Z</time>
      </trkpt>
      <trkpt lat="38.88362" lon="36.8118">
        <ele>1803.313781</ele>
        <time>2021-11-16T01:17:44.247Z</time>
      </trkpt>
      <trkpt lat="38.88125" lon="36.80231">
        <ele>1786.078538</ele>
        <time>2021-11-16T01:19:57.449Z</time>
      </trkpt>
      <trkpt lat="38.88116" lon="36.80192">
        <ele>1785.462861</ele>
        <time>2021-11-16T01:20:03.134Z</time>
      </trkpt>
      <trkpt lat="38.88067" lon="36.79996">
        <ele>1784.164859</ele>
        <time>2021-11-16T01:20:34.822Z</time>
      </trkpt>
      <trkpt lat="38.878" lon="36.78896">
        <ele>1784.519612</ele>
        <time>2021-11-16T01:23:58.114Z</time>
      </trkpt>
      <trkpt lat="38.87716" lon="36.78557">
        <ele>1783.805165</ele>
        <time>2021-11-16T01:24:53.935Z</time>
      </trkpt>
      <trkpt lat="38.87709" lon="36.78528">
        <ele>1783.986897</ele>
        <time>2021-11-16T01:24:58.854Z</time>
      </trkpt>
      <trkpt lat="38.86922" lon="36.75304">
        <ele>1804.843685</ele>
        <time>2021-11-16T01:36:09.741Z</time>
      </trkpt>
      <trkpt lat="38.86862" lon="36.75057">
        <ele>1808.437494</ele>
        <time>2021-11-16T01:37:15.103Z</time>
      </trkpt>
      <trkpt lat="38.86781" lon="36.74724">
        <ele>1808.508185</ele>
        <time>2021-11-16T01:38:10.531Z</time>
      </trkpt>
      <trkpt lat="38.86306" lon="36.72783">
        <ele>1818.122442</ele>
        <time>2021-11-16T01:44:47.534Z</time>
      </trkpt>
      <trkpt lat="38.86272" lon="36.72632">
        <ele>1816.839296</ele>
        <time>2021-11-16T01:45:09.972Z</time>
      </trkpt>
      <trkpt lat="38.86203" lon="36.72374">
        <ele>1812.906099</ele>
        <time>2021-11-16T01:45:45.111Z</time>
      </trkpt>
      <trkpt lat="38.85969" lon="36.71416">
        <ele>1811.185681</ele>
        <time>2021-11-16T01:48:39.893Z</time>
      </trkpt>
      <trkpt lat="38.85921" lon="36.71194">
        <ele>1810.100026</ele>
        <time>2021-11-16T01:49:16.854Z</time>
      </trkpt>
      <trkpt lat="38.85911" lon="36.71138">
        <ele>1809.747701</ele>
        <time>2021-11-16T01:49:25.227Z</time>
      </trkpt>
      <trkpt lat="38.85904" lon="36.7109">
        <ele>1808.911255</ele>
        <time>2021-11-16T01:49:32.123Z</time>
      </trkpt>
      <trkpt lat="38.85888" lon="36.70943">
        <ele>1805.931145</ele>
        <time>2021-11-16T01:49:52.004Z</time>
      </trkpt>
      <trkpt lat="38.85878" lon="36.70756">
        <ele>1800.349306</ele>
        <time>2021-11-16T01:50:14.802Z</time>
      </trkpt>
      <trkpt lat="38.85878" lon="36.70656">
        <ele>1797.105496</ele>
        <time>2021-11-16T01:50:26.702Z</time>
      </trkpt>
      <trkpt lat="38.85878" lon="36.70609">
        <ele>1795.682829</ele>
        <time>2021-11-16T01:50:32.236Z</time>
      </trkpt>
      <trkpt lat="38.85899" lon="36.70311">
        <ele>1788.090856</ele>
        <time>2021-11-16T01:51:09.377Z</time>
      </trkpt>
      <trkpt lat="38.86198" lon="36.66948">
        <ele>1768.034923</ele>
        <time>2021-11-16T01:59:53.071Z</time>
      </trkpt>
      <trkpt lat="38.86224" lon="36.66656">
        <ele>1772.811512</ele>
        <time>2021-11-16T02:01:05.600Z</time>
      </trkpt>
      <trkpt lat="38.86226" lon="36.66636">
        <ele>1773.265642</ele>
        <time>2021-11-16T02:01:11.898Z</time>
      </trkpt>
      <trkpt lat="38.86241" lon="36.6647">
        <ele>1776.687371</ele>
        <time>2021-11-16T02:01:57.610Z</time>
      </trkpt>
      <trkpt lat="38.86253" lon="36.6634">
        <ele>1778.972645</ele>
        <time>2021-11-16T02:02:29.106Z</time>
      </trkpt>
      <trkpt lat="38.8631" lon="36.65696">
        <ele>1782.992358</ele>
        <time>2021-11-16T02:04:38.490Z</time>
      </trkpt>
      <trkpt lat="38.86316" lon="36.65585">
        <ele>1782.759838</ele>
        <time>2021-11-16T02:04:55.794Z</time>
      </trkpt>
      <trkpt lat="38.8632" lon="36.65391">
        <ele>1780.5943</ele>
        <time>2021-11-16T02:05:23.166Z</time>
      </trkpt>
      <trkpt lat="38.86305" lon="36.65151">
        <ele>1777.799007</ele>
        <time>2021-11-16T02:05:57.019Z</time>
      </trkpt>
      <trkpt lat="38.86275" lon="36.6494">
        <ele>1777.129572</ele>
        <time>2021-11-16T02:06:31.462Z</time>
      </trkpt>
      <trkpt lat="38.86168" lon="36.64411">
        <ele>1781.307497</ele>
        <time>2021-11-16T02:08:26.278Z</time>
      </trkpt>
      <trkpt lat="38.86103" lon="36.64078">
        <ele>1781.609191</ele>
        <time>2021-11-16T02:09:27.939Z</time>
      </trkpt>
      <trkpt lat="38.85982" lon="36.63471">
        <ele>1773.768384</ele>
        <time>2021-11-16T02:10:55.452Z</time>
      </trkpt>
      <trkpt lat="38.85851" lon="36.62806">
        <ele>1764.802181</ele>
        <time>2021-11-16T02:12:32.406Z</time>
      </trkpt>
      <trkpt lat="38.85806" lon="36.62611">
        <ele>1761.669246</ele>
        <time>2021-11-16T02:12:59.683Z</time>
      </trkpt>
      <trkpt lat="38.85742" lon="36.62374">
        <ele>1758.180107</ele>
        <time>2021-11-16T02:13:34.505Z</time>
      </trkpt>
      <trkpt lat="38.85642" lon="36.62064">
        <ele>1755.227975</ele>
        <time>2021-11-16T02:14:24.492Z</time>
      </trkpt>
      <trkpt lat="38.85574" lon="36.61888">
        <ele>1754.374312</ele>
        <time>2021-11-16T02:14:55.757Z</time>
      </trkpt>
      <trkpt lat="38.85424" lon="36.61545">
        <ele>1753.34352</ele>
        <time>2021-11-16T02:16:01.838Z</time>
      </trkpt>
      <trkpt lat="38.84906" lon="36.60401">
        <ele>1746.816332</ele>
        <time>2021-11-16T02:19:29.825Z</time>
      </trkpt>
      <trkpt lat="38.84841" lon="36.60241">
        <ele>1744.760856</ele>
        <time>2021-11-16T02:19:55.181Z</time>
      </trkpt>
      <trkpt lat="38.84662" lon="36.59846">
        <ele>1738.464592</ele>
        <time>2021-11-16T02:20:58.552Z</time>
      </trkpt>
      <trkpt lat="38.84603" lon="36.59715">
        <ele>1736.998868</ele>
        <time>2021-11-16T02:21:20.937Z</time>
      </trkpt>
      <trkpt lat="38.84417" lon="36.59295">
        <ele>1732.880879</ele>
        <time>2021-11-16T02:22:33.129Z</time>
      </trkpt>
      <trkpt lat="38.84357" lon="36.59182">
        <ele>1731.834911</ele>
        <time>2021-11-16T02:22:53.329Z</time>
      </trkpt>
      <trkpt lat="38.84291" lon="36.59073">
        <ele>1730.877759</ele>
        <time>2021-11-16T02:23:14.437Z</time>
      </trkpt>
      <trkpt lat="38.84212" lon="36.58976">
        <ele>1729.662276</ele>
        <time>2021-11-16T02:23:36.489Z</time>
      </trkpt>
      <trkpt lat="38.84146" lon="36.58907">
        <ele>1728.683644</ele>
        <time>2021-11-16T02:23:52.663Z</time>
      </trkpt>
      <trkpt lat="38.84031" lon="36.58812">
        <ele>1724.045577</ele>
        <time>2021-11-16T02:24:15.353Z</time>
      </trkpt>
      <trkpt lat="38.839" lon="36.58733">
        <ele>1715.508661</ele>
        <time>2021-11-16T02:24:36.772Z</time>
      </trkpt>
      <trkpt lat="38.83767" lon="36.58642">
        <ele>1703.661376</ele>
        <time>2021-11-16T02:24:57.570Z</time>
      </trkpt>
      <trkpt lat="38.83733" lon="36.58613">
        <ele>1700.13418</ele>
        <time>2021-11-16T02:25:03.113Z</time>
      </trkpt>
      <trkpt lat="38.83731" lon="36.58611">
        <ele>1699.831377</ele>
        <time>2021-11-16T02:25:03.554Z</time>
      </trkpt>
      <trkpt lat="38.8369" lon="36.58567">
        <ele>1695.206231</ele>
        <time>2021-11-16T02:25:10.924Z</time>
      </trkpt>
      <trkpt lat="38.83631" lon="36.5847">
        <ele>1688.941201</ele>
        <time>2021-11-16T02:25:24.491Z</time>
      </trkpt>
      <trkpt lat="38.83578" lon="36.58341">
        <ele>1682.390187</ele>
        <time>2021-11-16T02:25:41.818Z</time>
      </trkpt>
      <trkpt lat="38.83554" lon="36.58245">
        <ele>1679.330489</ele>
        <time>2021-11-16T02:25:54.023Z</time>
      </trkpt>
      <trkpt lat="38.83548" lon="36.58206">
        <ele>1678.116987</ele>
        <time>2021-11-16T02:25:58.967Z</time>
      </trkpt>
      <trkpt lat="38.83539" lon="36.58152">
        <ele>1676.437797</ele>
        <time>2021-11-16T02:26:05.922Z</time>
      </trkpt>
      <trkpt lat="38.83542" lon="36.58005">
        <ele>1673.488901</ele>
        <time>2021-11-16T02:26:24.889Z</time>
      </trkpt>
      <trkpt lat="38.83627" lon="36.57477">
        <ele>1665.950898</ele>
        <time>2021-11-16T02:27:40.756Z</time>
      </trkpt>
      <trkpt lat="38.83637" lon="36.57384">
        <ele>1664.889773</ele>
        <time>2021-11-16T02:27:54.251Z</time>
      </trkpt>
      <trkpt lat="38.83648" lon="36.57104">
        <ele>1661.661704</ele>
        <time>2021-11-16T02:28:34.842Z</time>
      </trkpt>
      <trkpt lat="38.83644" lon="36.57006">
        <ele>1660.449282</ele>
        <time>2021-11-16T02:28:48.577Z</time>
      </trkpt>
      <trkpt lat="38.83632" lon="36.5686">
        <ele>1658.327426</ele>
        <time>2021-11-16T02:29:08.815Z</time>
      </trkpt>
      <trkpt lat="38.83626" lon="36.56812">
        <ele>1657.618609</ele>
        <time>2021-11-16T02:29:15.470Z</time>
      </trkpt>
      <trkpt lat="38.83604" lon="36.56675">
        <ele>1655.735937</ele>
        <time>2021-11-16T02:29:34.795Z</time>
      </trkpt>
      <trkpt lat="38.83571" lon="36.56525">
        <ele>1653.755568</ele>
        <time>2021-11-16T02:29:57.077Z</time>
      </trkpt>
      <trkpt lat="38.83499" lon="36.56288">
        <ele>1651.058495</ele>
        <time>2021-11-16T02:30:33.871Z</time>
      </trkpt>
      <trkpt lat="38.83243" lon="36.55666">
        <ele>1644.564056</ele>
        <time>2021-11-16T02:32:17.340Z</time>
      </trkpt>
      <trkpt lat="38.83205" lon="36.55574">
        <ele>1643.912408</ele>
        <time>2021-11-16T02:32:32.693Z</time>
      </trkpt>
      <trkpt lat="38.83164" lon="36.55474">
        <ele>1643.766254</ele>
        <time>2021-11-16T02:32:50.793Z</time>
      </trkpt>
      <trkpt lat="38.83094" lon="36.55303">
        <ele>1645.543085</ele>
        <time>2021-11-16T02:33:32.640Z</time>
      </trkpt>
      <trkpt lat="38.83057" lon="36.55226">
        <ele>1647.73464</ele>
        <time>2021-11-16T02:33:57.610Z</time>
      </trkpt>
      <trkpt lat="38.82991" lon="36.55116">
        <ele>1651.096616</ele>
        <time>2021-11-16T02:34:37.519Z</time>
      </trkpt>
      <trkpt lat="38.82989" lon="36.55113">
        <ele>1651.153852</ele>
        <time>2021-11-16T02:34:39.505Z</time>
      </trkpt>
      <trkpt lat="38.82939" lon="36.55052">
        <ele>1652.08964</ele>
        <time>2021-11-16T02:34:59.733Z</time>
      </trkpt>
      <trkpt lat="38.82875" lon="36.54998">
        <ele>1653.108377</ele>
        <time>2021-11-16T02:35:20.659Z</time>
      </trkpt>
      <trkpt lat="38.82798" lon="36.54949">
        <ele>1653.786521</ele>
        <time>2021-11-16T02:35:37.728Z</time>
      </trkpt>
      <trkpt lat="38.82702" lon="36.54914">
        <ele>1654.225189</ele>
        <time>2021-11-16T02:35:59.980Z</time>
      </trkpt>
      <trkpt lat="38.82604" lon="36.54887">
        <ele>1657.219886</ele>
        <time>2021-11-16T02:36:33.218Z</time>
      </trkpt>
      <trkpt lat="38.82567" lon="36.54883">
        <ele>1658.710836</ele>
        <time>2021-11-16T02:36:48.187Z</time>
      </trkpt>
      <trkpt lat="38.82526" lon="36.54883">
        <ele>1660.300222</ele>
        <time>2021-11-16T02:37:05.369Z</time>
      </trkpt>
      <trkpt lat="38.82131" lon="36.54938">
        <ele>1682.362465</ele>
        <time>2021-11-16T02:40:04.935Z</time>
      </trkpt>
      <trkpt lat="38.81962" lon="36.54954">
        <ele>1691.258858</ele>
        <time>2021-11-16T02:41:18.011Z</time>
      </trkpt>
      <trkpt lat="38.81901" lon="36.54955">
        <ele>1694.284533</ele>
        <time>2021-11-16T02:41:44.086Z</time>
      </trkpt>
      <trkpt lat="38.81694" lon="36.54935">
        <ele>1704.30216</ele>
        <time>2021-11-16T02:43:09.824Z</time>
      </trkpt>
      <trkpt lat="38.81548" lon="36.54904">
        <ele>1711.504318</ele>
        <time>2021-11-16T02:44:10.267Z</time>
      </trkpt>
      <trkpt lat="38.81475" lon="36.5488">
        <ele>1715.370533</ele>
        <time>2021-11-16T02:44:42.772Z</time>
      </trkpt>
      <trkpt lat="38.81327" lon="36.54819">
        <ele>1723.306076</ele>
        <time>2021-11-16T02:45:51.931Z</time>
      </trkpt>
      <trkpt lat="38.81175" lon="36.54737">
        <ele>1730.042695</ele>
        <time>2021-11-16T02:46:58.504Z</time>
      </trkpt>
      <trkpt lat="38.81075" lon="36.54675">
        <ele>1732.872341</ele>
        <time>2021-11-16T02:47:32.727Z</time>
      </trkpt>
      <trkpt lat="38.79983" lon="36.53943">
        <ele>1731.366748</ele>
        <time>2021-11-16T02:51:59.100Z</time>
      </trkpt>
      <trkpt lat="38.79874" lon="36.53868">
        <ele>1729.890147</ele>
        <time>2021-11-16T02:52:22.670Z</time>
      </trkpt>
      <trkpt lat="38.79692" lon="36.53748">
        <ele>1727.025454</ele>
        <time>2021-11-16T02:52:59.344Z</time>
      </trkpt>
      <trkpt lat="38.79264" lon="36.53462">
        <ele>1723.859282</ele>
        <time>2021-11-16T02:54:35.039Z</time>
      </trkpt>
      <trkpt lat="38.79171" lon="36.53394">
        <ele>1724.372573</ele>
        <time>2021-11-16T02:55:04.142Z</time>
      </trkpt>
      <trkpt lat="38.79079" lon="36.53312">
        <ele>1726.190262</ele>
        <time>2021-11-16T02:55:37.985Z</time>
      </trkpt>
      <trkpt lat="38.79007" lon="36.53236">
        <ele>1726.980985</ele>
        <time>2021-11-16T02:56:04.109Z</time>
      </trkpt>
      <trkpt lat="38.78915" lon="36.53114">
        <ele>1726.725242</ele>
        <time>2021-11-16T02:56:31.635Z</time>
      </trkpt>
      <trkpt lat="38.78876" lon="36.53056">
        <ele>1725.356744</ele>
        <time>2021-11-16T02:56:41.940Z</time>
      </trkpt>
      <trkpt lat="38.78844" lon="36.53002">
        <ele>1723.970071</ele>
        <time>2021-11-16T02:56:50.521Z</time>
      </trkpt>
      <trkpt lat="38.78773" lon="36.5286">
        <ele>1721.299388</ele>
        <time>2021-11-16T02:57:12.173Z</time>
      </trkpt>
      <trkpt lat="38.78731" lon="36.52754">
        <ele>1720.217068</ele>
        <time>2021-11-16T02:57:30.316Z</time>
      </trkpt>
      <trkpt lat="38.78684" lon="36.52613">
        <ele>1720.440881</ele>
        <time>2021-11-16T02:58:01.356Z</time>
      </trkpt>
      <trkpt lat="38.78653" lon="36.52478">
        <ele>1720.877891</ele>
        <time>2021-11-16T02:58:29.905Z</time>
      </trkpt>
      <trkpt lat="38.78626" lon="36.52272">
        <ele>1719.261156</ele>
        <time>2021-11-16T02:59:01.098Z</time>
      </trkpt>
      <trkpt lat="38.7862" lon="36.52167">
        <ele>1716.174673</ele>
        <time>2021-11-16T02:59:14.480Z</time>
      </trkpt>
      <trkpt lat="38.78625" lon="36.5198">
        <ele>1710.506792</ele>
        <time>2021-11-16T02:59:36.800Z</time>
      </trkpt>
      <trkpt lat="38.78641" lon="36.51838">
        <ele>1705.818681</ele>
        <time>2021-11-16T02:59:54.053Z</time>
      </trkpt>
      <trkpt lat="38.78669" lon="36.51693">
        <ele>1702.436357</ele>
        <time>2021-11-16T03:00:13.312Z</time>
      </trkpt>
      <trkpt lat="38.78717" lon="36.51535">
        <ele>1699.028273</ele>
        <time>2021-11-16T03:00:36.535Z</time>
      </trkpt>
      <trkpt lat="38.79345" lon="36.498">
        <ele>1661.155017</ele>
        <time>2021-11-16T03:04:49.806Z</time>
      </trkpt>
      <trkpt lat="38.79387" lon="36.4965">
        <ele>1655.683546</ele>
        <time>2021-11-16T03:05:08.851Z</time>
      </trkpt>
      <trkpt lat="38.794" lon="36.49583">
        <ele>1652.37441</ele>
        <time>2021-11-16T03:05:16.812Z</time>
      </trkpt>
      <trkpt lat="38.79415" lon="36.49488">
        <ele>1647.761097</ele>
        <time>2021-11-16T03:05:27.686Z</time>
      </trkpt>
      <trkpt lat="38.79423" lon="36.49365">
        <ele>1641.179688</ele>
        <time>2021-11-16T03:05:41.196Z</time>
      </trkpt>
      <trkpt lat="38.79411" lon="36.49184">
        <ele>1632.884824</ele>
        <time>2021-11-16T03:06:01.700Z</time>
      </trkpt>
      <trkpt lat="38.79361" lon="36.48868">
        <ele>1623.497973</ele>
        <time>2021-11-16T03:06:42.810Z</time>
      </trkpt>
      <trkpt lat="38.79305" lon="36.48573">
        <ele>1614.773852</ele>
        <time>2021-11-16T03:07:20.859Z</time>
      </trkpt>
      <trkpt lat="38.79199" lon="36.47948">
        <ele>1582.752262</ele>
        <time>2021-11-16T03:08:33.038Z</time>
      </trkpt>
      <trkpt lat="38.79116" lon="36.47569">
        <ele>1561.357889</ele>
        <time>2021-11-16T03:09:16.735Z</time>
      </trkpt>
      <trkpt lat="38.7908" lon="36.47447">
        <ele>1554.818578</ele>
        <time>2021-11-16T03:09:31.464Z</time>
      </trkpt>
      <trkpt lat="38.79056" lon="36.47385">
        <ele>1552.610977</ele>
        <time>2021-11-16T03:09:39.566Z</time>
      </trkpt>
      <trkpt lat="38.79026" lon="36.47312">
        <ele>1549.978267</ele>
        <time>2021-11-16T03:09:49.648Z</time>
      </trkpt>
      <trkpt lat="38.79008" lon="36.4727">
        <ele>1548.426</ele>
        <time>2021-11-16T03:09:55.923Z</time>
      </trkpt>
      <trkpt lat="38.78981" lon="36.47206">
        <ele>1547.441078</ele>
        <time>2021-11-16T03:10:05.782Z</time>
      </trkpt>
      <trkpt lat="38.78951" lon="36.47144">
        <ele>1546.889445</ele>
        <time>2021-11-16T03:10:16.785Z</time>
      </trkpt>
      <trkpt lat="38.78902" lon="36.4705">
        <ele>1546.192756</ele>
        <time>2021-11-16T03:10:35.691Z</time>
      </trkpt>
      <trkpt lat="38.78867" lon="36.46991">
        <ele>1546.833597</ele>
        <time>2021-11-16T03:10:49.286Z</time>
      </trkpt>
      <trkpt lat="38.78845" lon="36.46959">
        <ele>1547.196816</ele>
        <time>2021-11-16T03:10:57.893Z</time>
      </trkpt>
      <trkpt lat="38.78818" lon="36.4692">
        <ele>1547.639482</ele>
        <time>2021-11-16T03:11:09.017Z</time>
      </trkpt>
      <trkpt lat="38.78777" lon="36.46867">
        <ele>1548.61579</ele>
        <time>2021-11-16T03:11:26.621Z</time>
      </trkpt>
      <trkpt lat="38.78688" lon="36.46759">
        <ele>1552.445898</ele>
        <time>2021-11-16T03:12:10.421Z</time>
      </trkpt>
      <trkpt lat="38.78604" lon="36.4667">
        <ele>1555.420368</ele>
        <time>2021-11-16T03:12:49.784Z</time>
      </trkpt>
      <trkpt lat="38.785" lon="36.46588">
        <ele>1558.493654</ele>
        <time>2021-11-16T03:13:26.242Z</time>
      </trkpt>
      <trkpt lat="38.78431" lon="36.46539">
        <ele>1560.475958</ele>
        <time>2021-11-16T03:13:50.330Z</time>
      </trkpt>
      <trkpt lat="38.78375" lon="36.46502">
        <ele>1562.049913</ele>
        <time>2021-11-16T03:14:11.021Z</time>
      </trkpt>
      <trkpt lat="38.7831" lon="36.46459">
        <ele>1564.338652</ele>
        <time>2021-11-16T03:14:37.070Z</time>
      </trkpt>
      <trkpt lat="38.78183" lon="36.46391">
        <ele>1569.032394</ele>
        <time>2021-11-16T03:15:29.474Z</time>
      </trkpt>
      <trkpt lat="38.78134" lon="36.46372">
        <ele>1569.346135</ele>
        <time>2021-11-16T03:15:45.179Z</time>
      </trkpt>
      <trkpt lat="38.78103" lon="36.46361">
        <ele>1569.536087</ele>
        <time>2021-11-16T03:15:53.671Z</time>
      </trkpt>
      <trkpt lat="38.78077" lon="36.46352">
        <ele>1569.700841</ele>
        <time>2021-11-16T03:16:00.385Z</time>
      </trkpt>
      <trkpt lat="38.77859" lon="36.46296">
        <ele>1566.981995</ele>
        <time>2021-11-16T03:16:40.648Z</time>
      </trkpt>
      <trkpt lat="38.77574" lon="36.46236">
        <ele>1557.309564</ele>
        <time>2021-11-16T03:17:26.830Z</time>
      </trkpt>
      <trkpt lat="38.77409" lon="36.46201">
        <ele>1551.455777</ele>
        <time>2021-11-16T03:17:53.864Z</time>
      </trkpt>
      <trkpt lat="38.77255" lon="36.46168">
        <ele>1546.186097</ele>
        <time>2021-11-16T03:18:18.709Z</time>
      </trkpt>
      <trkpt lat="38.77104" lon="36.46137">
        <ele>1541.933948</ele>
        <time>2021-11-16T03:18:44.157Z</time>
      </trkpt>
      <trkpt lat="38.77085" lon="36.46132">
        <ele>1541.669642</ele>
        <time>2021-11-16T03:18:47.509Z</time>
      </trkpt>
      <trkpt lat="38.76887" lon="36.4609">
        <ele>1539.2607</ele>
        <time>2021-11-16T03:19:26.368Z</time>
      </trkpt>
      <trkpt lat="38.76308" lon="36.45971">
        <ele>1534.100462</ele>
        <time>2021-11-16T03:21:23.494Z</time>
      </trkpt>
      <trkpt lat="38.76077" lon="36.45915">
        <ele>1528.545156</ele>
        <time>2021-11-16T03:22:03.180Z</time>
      </trkpt>
      <trkpt lat="38.76044" lon="36.45906">
        <ele>1527.449412</ele>
        <time>2021-11-16T03:22:08.603Z</time>
      </trkpt>
      <trkpt lat="38.76006" lon="36.45891">
        <ele>1526.048922</ele>
        <time>2021-11-16T03:22:14.866Z</time>
      </trkpt>
      <trkpt lat="38.75951" lon="36.4587">
        <ele>1524.003128</ele>
        <time>2021-11-16T03:22:23.902Z</time>
      </trkpt>
      <trkpt lat="38.75865" lon="36.45829">
        <ele>1521.191631</ele>
        <time>2021-11-16T03:22:38.646Z</time>
      </trkpt>
      <trkpt lat="38.75783" lon="36.45786">
        <ele>1519.463438</ele>
        <time>2021-11-16T03:22:54.046Z</time>
      </trkpt>
      <trkpt lat="38.75747" lon="36.45764">
        <ele>1518.674568</ele>
        <time>2021-11-16T03:23:01.625Z</time>
      </trkpt>
      <trkpt lat="38.75696" lon="36.45734">
        <ele>1518.096794</ele>
        <time>2021-11-16T03:23:12.528Z</time>
      </trkpt>
      <trkpt lat="38.75586" lon="36.45663">
        <ele>1517.640064</ele>
        <time>2021-11-16T03:23:39.190Z</time>
      </trkpt>
      <trkpt lat="38.75526" lon="36.45618">
        <ele>1517.380486</ele>
        <time>2021-11-16T03:23:54.293Z</time>
      </trkpt>
      <trkpt lat="38.75415" lon="36.45527">
        <ele>1516.886349</ele>
        <time>2021-11-16T03:24:21.374Z</time>
      </trkpt>
      <trkpt lat="38.75338" lon="36.45447">
        <ele>1516.620444</ele>
        <time>2021-11-16T03:24:41.846Z</time>
      </trkpt>
      <trkpt lat="38.75206" lon="36.45294">
        <ele>1516.592332</ele>
        <time>2021-11-16T03:25:21.378Z</time>
      </trkpt>
      <trkpt lat="38.75096" lon="36.45139">
        <ele>1516.971831</ele>
        <time>2021-11-16T03:26:00.790Z</time>
      </trkpt>
      <trkpt lat="38.75048" lon="36.4506">
        <ele>1517.179338</ele>
        <time>2021-11-16T03:26:18.884Z</time>
      </trkpt>
      <trkpt lat="38.74975" lon="36.44918">
        <ele>1517.201725</ele>
        <time>2021-11-16T03:26:47.880Z</time>
      </trkpt>
      <trkpt lat="38.74925" lon="36.44821">
        <ele>1517.229981</ele>
        <time>2021-11-16T03:27:07.669Z</time>
      </trkpt>
      <trkpt lat="38.74276" lon="36.43444">
        <ele>1520.598463</ele>
        <time>2021-11-16T03:32:01.313Z</time>
      </trkpt>
      <trkpt lat="38.74245" lon="36.43377">
        <ele>1520.466799</ele>
        <time>2021-11-16T03:32:14.960Z</time>
      </trkpt>
      <trkpt lat="38.74202" lon="36.43285">
        <ele>1520.285256</ele>
        <time>2021-11-16T03:32:32.575Z</time>
      </trkpt>
      <trkpt lat="38.73979" lon="36.42802">
        <ele>1517.007031</ele>
        <time>2021-11-16T03:33:57.971Z</time>
      </trkpt>
      <trkpt lat="38.73926" lon="36.42689">
        <ele>1516.90493</ele>
        <time>2021-11-16T03:34:22.068Z</time>
      </trkpt>
      <trkpt lat="38.73899" lon="36.42631">
        <ele>1516.939317</ele>
        <time>2021-11-16T03:34:34.711Z</time>
      </trkpt>
      <trkpt lat="38.73874" lon="36.42578">
        <ele>1517.013478</ele>
        <time>2021-11-16T03:34:45.808Z</time>
      </trkpt>
      <trkpt lat="38.73839" lon="36.42505">
        <ele>1517.11756</ele>
        <time>2021-11-16T03:35:01.082Z</time>
      </trkpt>
      <trkpt lat="38.73828" lon="36.42481">
        <ele>1517.151138</ele>
        <time>2021-11-16T03:35:05.841Z</time>
      </trkpt>
      <trkpt lat="38.73779" lon="36.4238">
        <ele>1516.990815</ele>
        <time>2021-11-16T03:35:25.685Z</time>
      </trkpt>
      <trkpt lat="38.73744" lon="36.42303">
        <ele>1516.844687</ele>
        <time>2021-11-16T03:35:40.365Z</time>
      </trkpt>
      <trkpt lat="38.73695" lon="36.42197">
        <ele>1516.592469</ele>
        <time>2021-11-16T03:36:01.170Z</time>
      </trkpt>
      <trkpt lat="38.73559" lon="36.41909">
        <ele>1515.942452</ele>
        <time>2021-11-16T03:36:55.981Z</time>
      </trkpt>
      <trkpt lat="38.73444" lon="36.41666">
        <ele>1516.541442</ele>
        <time>2021-11-16T03:37:48.785Z</time>
      </trkpt>
      <trkpt lat="38.73388" lon="36.41547">
        <ele>1517.018723</ele>
        <time>2021-11-16T03:38:15.309Z</time>
      </trkpt>
      <trkpt lat="38.73351" lon="36.41469">
        <ele>1517.269864</ele>
        <time>2021-11-16T03:38:32.118Z</time>
      </trkpt>
      <trkpt lat="38.73344" lon="36.41455">
        <ele>1517.269874</ele>
        <time>2021-11-16T03:38:35.163Z</time>
      </trkpt>
      <trkpt lat="38.73329" lon="36.4142">
        <ele>1517.269899</ele>
        <time>2021-11-16T03:38:42.280Z</time>
      </trkpt>
      <trkpt lat="38.73315" lon="36.41388">
        <ele>1517.26992</ele>
        <time>2021-11-16T03:38:48.435Z</time>
      </trkpt>
      <trkpt lat="38.73281" lon="36.41315">
        <ele>1517.269971</ele>
        <time>2021-11-16T03:39:02.909Z</time>
      </trkpt>
      <trkpt lat="38.73246" lon="36.41244">
        <ele>1517.362811</ele>
        <time>2021-11-16T03:39:17.209Z</time>
      </trkpt>
      <trkpt lat="38.73205" lon="36.41159">
        <ele>1517.547068</ele>
        <time>2021-11-16T03:39:34.158Z</time>
      </trkpt>
      <trkpt lat="38.73111" lon="36.40937">
        <ele>1518.567292</ele>
        <time>2021-11-16T03:40:24.045Z</time>
      </trkpt>
      <trkpt lat="38.73016" lon="36.40646">
        <ele>1518.96645</ele>
        <time>2021-11-16T03:41:22.873Z</time>
      </trkpt>
      <trkpt lat="38.72999" lon="36.40595">
        <ele>1518.196394</ele>
        <time>2021-11-16T03:41:30.646Z</time>
      </trkpt>
      <trkpt lat="38.72984" lon="36.40538">
        <ele>1517.345104</ele>
        <time>2021-11-16T03:41:38.871Z</time>
      </trkpt>
      <trkpt lat="38.72945" lon="36.40404">
        <ele>1515.354698</ele>
        <time>2021-11-16T03:41:57.518Z</time>
      </trkpt>
      <trkpt lat="38.72882" lon="36.40206">
        <ele>1512.854309</ele>
        <time>2021-11-16T03:42:27.848Z</time>
      </trkpt>
      <trkpt lat="38.72853" lon="36.40128">
        <ele>1512.718921</ele>
        <time>2021-11-16T03:42:42.825Z</time>
      </trkpt>
      <trkpt lat="38.72845" lon="36.40109">
        <ele>1512.684949</ele>
        <time>2021-11-16T03:42:46.840Z</time>
      </trkpt>
      <trkpt lat="38.72801" lon="36.40011">
        <ele>1512.588228</ele>
        <time>2021-11-16T03:43:08.178Z</time>
      </trkpt>
      <trkpt lat="38.72745" lon="36.39894">
        <ele>1512.775448</ele>
        <time>2021-11-16T03:43:31.571Z</time>
      </trkpt>
      <trkpt lat="38.727" lon="36.39803">
        <ele>1513.283873</ele>
        <time>2021-11-16T03:43:51.074Z</time>
      </trkpt>
      <trkpt lat="38.72648" lon="36.39695">
        <ele>1514.550641</ele>
        <time>2021-11-16T03:44:17.501Z</time>
      </trkpt>
      <trkpt lat="38.72641" lon="36.39681">
        <ele>1514.720151</ele>
        <time>2021-11-16T03:44:21.408Z</time>
      </trkpt>
      <trkpt lat="38.72615" lon="36.39626">
        <ele>1515.496486</ele>
        <time>2021-11-16T03:44:37.354Z</time>
      </trkpt>
      <trkpt lat="38.726" lon="36.39595">
        <ele>1516.091094</ele>
        <time>2021-11-16T03:44:46.583Z</time>
      </trkpt>
      <trkpt lat="38.72588" lon="36.3957">
        <ele>1516.584696</ele>
        <time>2021-11-16T03:44:54.199Z</time>
      </trkpt>
      <trkpt lat="38.72549" lon="36.39486">
        <ele>1518.233214</ele>
        <time>2021-11-16T03:45:19.462Z</time>
      </trkpt>
      <trkpt lat="38.72491" lon="36.39361">
        <ele>1518.629248</ele>
        <time>2021-11-16T03:45:48.846Z</time>
      </trkpt>
      <trkpt lat="38.72475" lon="36.39326">
        <ele>1518.46774</ele>
        <time>2021-11-16T03:45:55.441Z</time>
      </trkpt>
      <trkpt lat="38.72411" lon="36.39181">
        <ele>1516.355679</ele>
        <time>2021-11-16T03:46:18.010Z</time>
      </trkpt>
      <trkpt lat="38.7233" lon="36.39023">
        <ele>1512.070951</ele>
        <time>2021-11-16T03:46:41.632Z</time>
      </trkpt>
      <trkpt lat="38.72282" lon="36.38928">
        <ele>1509.922621</ele>
        <time>2021-11-16T03:46:56.435Z</time>
      </trkpt>
      <trkpt lat="38.72202" lon="36.38795">
        <ele>1507.407664</ele>
        <time>2021-11-16T03:47:20.392Z</time>
      </trkpt>
      <trkpt lat="38.72173" lon="36.38755">
        <ele>1506.813763</ele>
        <time>2021-11-16T03:47:28.272Z</time>
      </trkpt>
      <trkpt lat="38.72154" lon="36.38728">
        <ele>1506.420375</ele>
        <time>2021-11-16T03:47:33.550Z</time>
      </trkpt>
      <trkpt lat="38.72115" lon="36.38681">
        <ele>1505.712566</ele>
        <time>2021-11-16T03:47:43.624Z</time>
      </trkpt>
      <trkpt lat="38.72073" lon="36.38634">
        <ele>1505.177516</ele>
        <time>2021-11-16T03:47:54.233Z</time>
      </trkpt>
      <trkpt lat="38.72034" lon="36.38597">
        <ele>1504.714652</ele>
        <time>2021-11-16T03:48:03.482Z</time>
      </trkpt>
      <trkpt lat="38.72019" lon="36.38584">
        <ele>1504.542671</ele>
        <time>2021-11-16T03:48:06.963Z</time>
      </trkpt>
      <trkpt lat="38.71948" lon="36.38518">
        <ele>1504.080951</ele>
        <time>2021-11-16T03:48:24.782Z</time>
      </trkpt>
      <trkpt lat="38.7186" lon="36.38442">
        <ele>1504.065343</ele>
        <time>2021-11-16T03:48:48.313Z</time>
      </trkpt>
      <trkpt lat="38.71711" lon="36.38311">
        <ele>1505.644369</ele>
        <time>2021-11-16T03:49:34.329Z</time>
      </trkpt>
      <trkpt lat="38.71552" lon="36.38163">
        <ele>1509.5237</ele>
        <time>2021-11-16T03:50:34.452Z</time>
      </trkpt>
      <trkpt lat="38.71535" lon="36.38148">
        <ele>1509.988659</ele>
        <time>2021-11-16T03:50:41.431Z</time>
      </trkpt>
      <trkpt lat="38.71532" lon="36.38146">
        <ele>1510.066092</ele>
        <time>2021-11-16T03:50:42.399Z</time>
      </trkpt>
      <trkpt lat="38.71401" lon="36.38039">
        <ele>1514.039285</ele>
        <time>2021-11-16T03:51:34.129Z</time>
      </trkpt>
      <trkpt lat="38.71124" lon="36.37764">
        <ele>1519.870739</ele>
        <time>2021-11-16T03:53:17.920Z</time>
      </trkpt>
      <trkpt lat="38.71082" lon="36.37729">
        <ele>1520.056845</ele>
        <time>2021-11-16T03:53:27.992Z</time>
      </trkpt>
      <trkpt lat="38.71019" lon="36.37686">
        <ele>1519.605975</ele>
        <time>2021-11-16T03:53:41.762Z</time>
      </trkpt>
      <trkpt lat="38.70906" lon="36.37627">
        <ele>1519.505066</ele>
        <time>2021-11-16T03:54:05.609Z</time>
      </trkpt>
      <trkpt lat="38.70495" lon="36.37438">
        <ele>1524.257624</ele>
        <time>2021-11-16T03:56:07.612Z</time>
      </trkpt>
      <trkpt lat="38.70432" lon="36.37405">
        <ele>1524.854664</ele>
        <time>2021-11-16T03:56:23.778Z</time>
      </trkpt>
      <trkpt lat="38.70358" lon="36.37355">
        <ele>1524.134273</ele>
        <time>2021-11-16T03:56:40.896Z</time>
      </trkpt>
      <trkpt lat="38.70307" lon="36.37313">
        <ele>1523.606859</ele>
        <time>2021-11-16T03:56:52.351Z</time>
      </trkpt>
      <trkpt lat="38.70258" lon="36.37266">
        <ele>1522.956712</ele>
        <time>2021-11-16T03:57:03.400Z</time>
      </trkpt>
      <trkpt lat="38.70216" lon="36.37215">
        <ele>1522.191089</ele>
        <time>2021-11-16T03:57:13.989Z</time>
      </trkpt>
      <trkpt lat="38.70135" lon="36.37093">
        <ele>1521.207565</ele>
        <time>2021-11-16T03:57:37.267Z</time>
      </trkpt>
      <trkpt lat="38.70069" lon="36.36943">
        <ele>1522.255189</ele>
        <time>2021-11-16T03:58:11.985Z</time>
      </trkpt>
      <trkpt lat="38.70008" lon="36.36787">
        <ele>1526.348363</ele>
        <time>2021-11-16T03:58:59.906Z</time>
      </trkpt>
      <trkpt lat="38.69953" lon="36.36652">
        <ele>1530.335365</ele>
        <time>2021-11-16T03:59:44.904Z</time>
      </trkpt>
      <trkpt lat="38.6991" lon="36.3657">
        <ele>1532.987798</ele>
        <time>2021-11-16T04:00:11.984Z</time>
      </trkpt>
      <trkpt lat="38.69864" lon="36.36485">
        <ele>1535.445764</ele>
        <time>2021-11-16T04:00:40.273Z</time>
      </trkpt>
      <trkpt lat="38.69783" lon="36.3637">
        <ele>1538.674939</ele>
        <time>2021-11-16T04:01:21.162Z</time>
      </trkpt>
      <trkpt lat="38.69341" lon="36.3581">
        <ele>1547.84217</ele>
        <time>2021-11-16T04:04:15.072Z</time>
      </trkpt>
      <trkpt lat="38.6921" lon="36.35646">
        <ele>1550.112863</ele>
        <time>2021-11-16T04:05:02.014Z</time>
      </trkpt>
      <trkpt lat="38.69203" lon="36.35638">
        <ele>1550.26712</ele>
        <time>2021-11-16T04:05:04.735Z</time>
      </trkpt>
      <trkpt lat="38.69081" lon="36.35485">
        <ele>1554.113147</ele>
        <time>2021-11-16T04:05:56.576Z</time>
      </trkpt>
      <trkpt lat="38.68597" lon="36.34866">
        <ele>1575.500032</ele>
        <time>2021-11-16T04:10:05.267Z</time>
      </trkpt>
      <trkpt lat="38.68504" lon="36.34744">
        <ele>1574.119927</ele>
        <time>2021-11-16T04:10:29.242Z</time>
      </trkpt>
      <trkpt lat="38.68426" lon="36.34648">
        <ele>1570.126319</ele>
        <time>2021-11-16T04:10:45.862Z</time>
      </trkpt>
      <trkpt lat="38.68342" lon="36.34542">
        <ele>1565.697402</ele>
        <time>2021-11-16T04:11:04.095Z</time>
      </trkpt>
      <trkpt lat="38.68299" lon="36.34488">
        <ele>1564.295651</ele>
        <time>2021-11-16T04:11:13.886Z</time>
      </trkpt>
      <trkpt lat="38.68258" lon="36.34435">
        <ele>1562.9285</ele>
        <time>2021-11-16T04:11:23.980Z</time>
      </trkpt>
      <trkpt lat="38.68122" lon="36.34261">
        <ele>1564.691966</ele>
        <time>2021-11-16T04:12:11.596Z</time>
      </trkpt>
      <trkpt lat="38.6793" lon="36.34013">
        <ele>1580.375494</ele>
        <time>2021-11-16T04:14:21.059Z</time>
      </trkpt>
      <trkpt lat="38.67869" lon="36.33936">
        <ele>1586.049834</ele>
        <time>2021-11-16T04:15:06.070Z</time>
      </trkpt>
      <trkpt lat="38.67681" lon="36.3369">
        <ele>1599.450402</ele>
        <time>2021-11-16T04:17:03.609Z</time>
      </trkpt>
      <trkpt lat="38.67639" lon="36.33625">
        <ele>1601.457386</ele>
        <time>2021-11-16T04:17:24.821Z</time>
      </trkpt>
      <trkpt lat="38.67588" lon="36.33524">
        <ele>1602.341335</ele>
        <time>2021-11-16T04:17:48.286Z</time>
      </trkpt>
      <trkpt lat="38.67544" lon="36.33409">
        <ele>1601.281628</ele>
        <time>2021-11-16T04:18:06.858Z</time>
      </trkpt>
      <trkpt lat="38.6752" lon="36.33323">
        <ele>1599.75151</ele>
        <time>2021-11-16T04:18:18.931Z</time>
      </trkpt>
      <trkpt lat="38.67461" lon="36.33084">
        <ele>1593.837538</ele>
        <time>2021-11-16T04:18:50.549Z</time>
      </trkpt>
      <trkpt lat="38.67371" lon="36.32705">
        <ele>1584.657944</ele>
        <time>2021-11-16T04:19:41.739Z</time>
      </trkpt>
      <trkpt lat="38.67211" lon="36.32044">
        <ele>1570.298135</ele>
        <time>2021-11-16T04:21:12.213Z</time>
      </trkpt>
      <trkpt lat="38.67172" lon="36.31881">
        <ele>1568.643325</ele>
        <time>2021-11-16T04:21:36.723Z</time>
      </trkpt>
      <trkpt lat="38.67128" lon="36.31698">
        <ele>1568.124416</ele>
        <time>2021-11-16T04:22:11.177Z</time>
      </trkpt>
      <trkpt lat="38.67095" lon="36.31589">
        <ele>1567.85668</ele>
        <time>2021-11-16T04:22:31.190Z</time>
      </trkpt>
      <trkpt lat="38.67086" lon="36.31566">
        <ele>1567.583962</ele>
        <time>2021-11-16T04:22:35.573Z</time>
      </trkpt>
      <trkpt lat="38.67075" lon="36.31536">
        <ele>1567.231968</ele>
        <time>2021-11-16T04:22:40.447Z</time>
      </trkpt>
      <trkpt lat="38.67013" lon="36.31399">
        <ele>1565.492677</ele>
        <time>2021-11-16T04:23:02.489Z</time>
      </trkpt>
      <trkpt lat="38.66887" lon="36.31204">
        <ele>1561.73415</ele>
        <time>2021-11-16T04:23:36.649Z</time>
      </trkpt>
      <trkpt lat="38.6682" lon="36.31102">
        <ele>1560.861859</ele>
        <time>2021-11-16T04:23:57.442Z</time>
      </trkpt>
      <trkpt lat="38.66657" lon="36.30863">
        <ele>1560.67632</ele>
        <time>2021-11-16T04:24:52.818Z</time>
      </trkpt>
      <trkpt lat="38.66527" lon="36.30668">
        <ele>1561.570546</ele>
        <time>2021-11-16T04:25:42.576Z</time>
      </trkpt>
      <trkpt lat="38.66478" lon="36.30584">
        <ele>1561.703679</ele>
        <time>2021-11-16T04:26:01.120Z</time>
      </trkpt>
      <trkpt lat="38.66474" lon="36.30578">
        <ele>1561.713095</ele>
        <time>2021-11-16T04:26:02.032Z</time>
      </trkpt>
      <trkpt lat="38.66431" lon="36.30487">
        <ele>1562.127734</ele>
        <time>2021-11-16T04:26:20.247Z</time>
      </trkpt>
      <trkpt lat="38.66378" lon="36.30334">
        <ele>1563.551091</ele>
        <time>2021-11-16T04:26:55.761Z</time>
      </trkpt>
      <trkpt lat="38.66365" lon="36.30289">
        <ele>1564.095818</ele>
        <time>2021-11-16T04:27:07.346Z</time>
      </trkpt>
      <trkpt lat="38.6635" lon="36.30221">
        <ele>1565.08619</ele>
        <time>2021-11-16T04:27:24.748Z</time>
      </trkpt>
      <trkpt lat="38.66325" lon="36.30024">
        <ele>1567.2085</ele>
        <time>2021-11-16T04:28:09.724Z</time>
      </trkpt>
      <trkpt lat="38.66324" lon="36.29923">
        <ele>1567.538777</ele>
        <time>2021-11-16T04:28:27.663Z</time>
      </trkpt>
      <trkpt lat="38.66332" lon="36.29786">
        <ele>1566.856715</ele>
        <time>2021-11-16T04:28:50.318Z</time>
      </trkpt>
      <trkpt lat="38.66351" lon="36.29661">
        <ele>1565.286748</ele>
        <time>2021-11-16T04:29:08.446Z</time>
      </trkpt>
      <trkpt lat="38.66534" lon="36.28879">
        <ele>1542.319901</ele>
        <time>2021-11-16T04:30:49.309Z</time>
      </trkpt>
      <trkpt lat="38.66584" lon="36.28701">
        <ele>1537.73181</ele>
        <time>2021-11-16T04:31:13.894Z</time>
      </trkpt>
      <trkpt lat="38.66645" lon="36.28451">
        <ele>1530.948855</ele>
        <time>2021-11-16T04:31:48.148Z</time>
      </trkpt>
      <trkpt lat="38.66676" lon="36.2825">
        <ele>1523.015892</ele>
        <time>2021-11-16T04:32:12.094Z</time>
      </trkpt>
      <trkpt lat="38.66689" lon="36.28039">
        <ele>1512.940926</ele>
        <time>2021-11-16T04:32:35.867Z</time>
      </trkpt>
      <trkpt lat="38.66713" lon="36.27628">
        <ele>1495.44749</ele>
        <time>2021-11-16T04:33:24.250Z</time>
      </trkpt>
      <trkpt lat="38.6674" lon="36.27436">
        <ele>1485.150132</ele>
        <time>2021-11-16T04:33:46.121Z</time>
      </trkpt>
      <trkpt lat="38.66761" lon="36.27352">
        <ele>1480.906651</ele>
        <time>2021-11-16T04:33:55.871Z</time>
      </trkpt>
      <trkpt lat="38.66796" lon="36.27249">
        <ele>1476.00535</ele>
        <time>2021-11-16T04:34:08.699Z</time>
      </trkpt>
      <trkpt lat="38.66957" lon="36.26824">
        <ele>1461.680973</ele>
        <time>2021-11-16T04:35:08.076Z</time>
      </trkpt>
      <trkpt lat="38.67015" lon="36.26677">
        <ele>1456.539306</ele>
        <time>2021-11-16T04:35:27.908Z</time>
      </trkpt>
      <trkpt lat="38.67037" lon="36.26617">
        <ele>1454.410102</ele>
        <time>2021-11-16T04:35:35.863Z</time>
      </trkpt>
      <trkpt lat="38.67081" lon="36.26495">
        <ele>1451.000803</ele>
        <time>2021-11-16T04:35:52.575Z</time>
      </trkpt>
      <trkpt lat="38.671" lon="36.26431">
        <ele>1449.642177</ele>
        <time>2021-11-16T04:36:01.763Z</time>
      </trkpt>
      <trkpt lat="38.67118" lon="36.26346">
        <ele>1447.903899</ele>
        <time>2021-11-16T04:36:14.102Z</time>
      </trkpt>
      <trkpt lat="38.67127" lon="36.26283">
        <ele>1447.519406</ele>
        <time>2021-11-16T04:36:23.362Z</time>
      </trkpt>
      <trkpt lat="38.67132" lon="36.2622">
        <ele>1447.145855</ele>
        <time>2021-11-16T04:36:32.834Z</time>
      </trkpt>
      <trkpt lat="38.67135" lon="36.26139">
        <ele>1446.660598</ele>
        <time>2021-11-16T04:36:46.285Z</time>
      </trkpt>
      <trkpt lat="38.67131" lon="36.26089">
        <ele>1446.570543</ele>
        <time>2021-11-16T04:36:55.398Z</time>
      </trkpt>
      <trkpt lat="38.67107" lon="36.25773">
        <ele>1446.843848</ele>
        <time>2021-11-16T04:37:52.720Z</time>
      </trkpt>
      <trkpt lat="38.67099" lon="36.25669">
        <ele>1446.808433</ele>
        <time>2021-11-16T04:38:10.035Z</time>
      </trkpt>
      <trkpt lat="38.67092" lon="36.25577">
        <ele>1446.864659</ele>
        <time>2021-11-16T04:38:25.386Z</time>
      </trkpt>
      <trkpt lat="38.67072" lon="36.253">
        <ele>1447.400901</ele>
        <time>2021-11-16T04:39:16.358Z</time>
      </trkpt>
      <trkpt lat="38.66965" lon="36.23906">
        <ele>1453.160034</ele>
        <time>2021-11-16T04:43:43.505Z</time>
      </trkpt>
      <trkpt lat="38.6695" lon="36.23673">
        <ele>1453.789509</ele>
        <time>2021-11-16T04:44:25.773Z</time>
      </trkpt>
      <trkpt lat="38.66928" lon="36.23411">
        <ele>1454.242563</ele>
        <time>2021-11-16T04:45:15.000Z</time>
      </trkpt>
      <trkpt lat="38.66899" lon="36.23082">
        <ele>1452.646861</ele>
        <time>2021-11-16T04:46:07.520Z</time>
      </trkpt>
      <trkpt lat="38.6688" lon="36.22967">
        <ele>1451.267732</ele>
        <time>2021-11-16T04:46:24.257Z</time>
      </trkpt>
      <trkpt lat="38.66822" lon="36.2268">
        <ele>1446.825514</ele>
        <time>2021-11-16T04:47:04.378Z</time>
      </trkpt>
      <trkpt lat="38.66813" lon="36.22635">
        <ele>1446.433827</ele>
        <time>2021-11-16T04:47:11.041Z</time>
      </trkpt>
      <trkpt lat="38.66732" lon="36.22236">
        <ele>1443.640871</ele>
        <time>2021-11-16T04:48:14.937Z</time>
      </trkpt>
      <trkpt lat="38.66654" lon="36.2185">
        <ele>1441.749436</ele>
        <time>2021-11-16T04:49:18.392Z</time>
      </trkpt>
      <trkpt lat="38.66286" lon="36.20096">
        <ele>1431.870814</ele>
        <time>2021-11-16T04:54:01.490Z</time>
      </trkpt>
      <trkpt lat="38.66178" lon="36.19578">
        <ele>1430.519125</ele>
        <time>2021-11-16T04:55:29.986Z</time>
      </trkpt>
      <trkpt lat="38.66153" lon="36.19433">
        <ele>1430.799382</ele>
        <time>2021-11-16T04:55:56.630Z</time>
      </trkpt>
      <trkpt lat="38.66092" lon="36.19163">
        <ele>1431.503459</ele>
        <time>2021-11-16T04:56:50.079Z</time>
      </trkpt>
      <trkpt lat="38.65854" lon="36.18012">
        <ele>1428.475901</ele>
        <time>2021-11-16T05:00:05.512Z</time>
      </trkpt>
      <trkpt lat="38.65843" lon="36.1796">
        <ele>1428.187428</ele>
        <time>2021-11-16T05:00:13.578Z</time>
      </trkpt>
      <trkpt lat="38.65775" lon="36.17627">
        <ele>1426.677554</ele>
        <time>2021-11-16T05:01:07.234Z</time>
      </trkpt>
      <trkpt lat="38.65677" lon="36.17158">
        <ele>1427.708529</ele>
        <time>2021-11-16T05:02:35.792Z</time>
      </trkpt>
      <trkpt lat="38.65644" lon="36.16984">
        <ele>1429.623622</ele>
        <time>2021-11-16T05:03:15.345Z</time>
      </trkpt>
      <trkpt lat="38.65641" lon="36.16954">
        <ele>1429.994505</ele>
        <time>2021-11-16T05:03:22.318Z</time>
      </trkpt>
      <trkpt lat="38.65636" lon="36.1692">
        <ele>1430.424689</ele>
        <time>2021-11-16T05:03:30.394Z</time>
      </trkpt>
      <trkpt lat="38.65632" lon="36.168">
        <ele>1431.951752</ele>
        <time>2021-11-16T05:03:58.088Z</time>
      </trkpt>
      <trkpt lat="38.65634" lon="36.16705">
        <ele>1433.157647</ele>
        <time>2021-11-16T05:04:19.161Z</time>
      </trkpt>
      <trkpt lat="38.6566" lon="36.16545">
        <ele>1435.484425</ele>
        <time>2021-11-16T05:04:54.915Z</time>
      </trkpt>
      <trkpt lat="38.65683" lon="36.16452">
        <ele>1436.9168</ele>
        <time>2021-11-16T05:05:18.252Z</time>
      </trkpt>
      <trkpt lat="38.65713" lon="36.16373">
        <ele>1439.319672</ele>
        <time>2021-11-16T05:05:41.223Z</time>
      </trkpt>
      <trkpt lat="38.65787" lon="36.16233">
        <ele>1444.352321</ele>
        <time>2021-11-16T05:06:32.411Z</time>
      </trkpt>
      <trkpt lat="38.6582" lon="36.16177">
        <ele>1447.167224</ele>
        <time>2021-11-16T05:06:55.423Z</time>
      </trkpt>
      <trkpt lat="38.66065" lon="36.15799">
        <ele>1467.563792</ele>
        <time>2021-11-16T05:09:41.474Z</time>
      </trkpt>
      <trkpt lat="38.66089" lon="36.1576">
        <ele>1469.888407</ele>
        <time>2021-11-16T05:10:00.136Z</time>
      </trkpt>
      <trkpt lat="38.66204" lon="36.15566">
        <ele>1482.287239</ele>
        <time>2021-11-16T05:11:35.441Z</time>
      </trkpt>
      <trkpt lat="38.66241" lon="36.15501">
        <ele>1486.036765</ele>
        <time>2021-11-16T05:12:04.887Z</time>
      </trkpt>
      <trkpt lat="38.6629" lon="36.15387">
        <ele>1491.220463</ele>
        <time>2021-11-16T05:12:49.066Z</time>
      </trkpt>
      <trkpt lat="38.66339" lon="36.15218">
        <ele>1496.571783</ele>
        <time>2021-11-16T05:13:42.442Z</time>
      </trkpt>
      <trkpt lat="38.66343" lon="36.15194">
        <ele>1497.142649</ele>
        <time>2021-11-16T05:13:48.966Z</time>
      </trkpt>
      <trkpt lat="38.66358" lon="36.15096">
        <ele>1499.384511</ele>
        <time>2021-11-16T05:14:13.048Z</time>
      </trkpt>
      <trkpt lat="38.66362" lon="36.14987">
        <ele>1499.801648</ele>
        <time>2021-11-16T05:14:35.658Z</time>
      </trkpt>
      <trkpt lat="38.66362" lon="36.14905">
        <ele>1500.114285</ele>
        <time>2021-11-16T05:14:49.762Z</time>
      </trkpt>
      <trkpt lat="38.66347" lon="36.14562">
        <ele>1498.554869</ele>
        <time>2021-11-16T05:15:43.135Z</time>
      </trkpt>
      <trkpt lat="38.66343" lon="36.1446">
        <ele>1498.031257</ele>
        <time>2021-11-16T05:15:58.997Z</time>
      </trkpt>
      <trkpt lat="38.66333" lon="36.14221">
        <ele>1496.734231</ele>
        <time>2021-11-16T05:16:37.190Z</time>
      </trkpt>
      <trkpt lat="38.66294" lon="36.13183">
        <ele>1488.185989</ele>
        <time>2021-11-16T05:19:12.227Z</time>
      </trkpt>
      <trkpt lat="38.66264" lon="36.12346">
        <ele>1482.140434</ele>
        <time>2021-11-16T05:21:19.306Z</time>
      </trkpt>
      <trkpt lat="38.66259" lon="36.12162">
        <ele>1481.125915</ele>
        <time>2021-11-16T05:21:49.868Z</time>
      </trkpt>
      <trkpt lat="38.66259" lon="36.12156">
        <ele>1481.095325</ele>
        <time>2021-11-16T05:21:50.792Z</time>
      </trkpt>
      <trkpt lat="38.66243" lon="36.11793">
        <ele>1477.129709</ele>
        <time>2021-11-16T05:22:42.561Z</time>
      </trkpt>
      <trkpt lat="38.66234" lon="36.11589">
        <ele>1474.932112</ele>
        <time>2021-11-16T05:23:11.812Z</time>
      </trkpt>
      <trkpt lat="38.66233" lon="36.11554">
        <ele>1474.645573</ele>
        <time>2021-11-16T05:23:16.988Z</time>
      </trkpt>
      <trkpt lat="38.66231" lon="36.11488">
        <ele>1474.097409</ele>
        <time>2021-11-16T05:23:27.130Z</time>
      </trkpt>
      <trkpt lat="38.66228" lon="36.11407">
        <ele>1473.443119</ele>
        <time>2021-11-16T05:23:39.770Z</time>
      </trkpt>
      <trkpt lat="38.66202" lon="36.10725">
        <ele>1468.758226</ele>
        <time>2021-11-16T05:25:24.132Z</time>
      </trkpt>
      <trkpt lat="38.66201" lon="36.10697">
        <ele>1468.46989</ele>
        <time>2021-11-16T05:25:28.339Z</time>
      </trkpt>
      <trkpt lat="38.662" lon="36.10648">
        <ele>1467.963857</ele>
        <time>2021-11-16T05:25:35.736Z</time>
      </trkpt>
      <trkpt lat="38.66198" lon="36.10598">
        <ele>1467.459967</ele>
        <time>2021-11-16T05:25:42.936Z</time>
      </trkpt>
      <trkpt lat="38.66197" lon="36.10578">
        <ele>1467.255416</ele>
        <time>2021-11-16T05:25:45.849Z</time>
      </trkpt>
      <trkpt lat="38.66187" lon="36.10314">
        <ele>1464.364989</ele>
        <time>2021-11-16T05:26:23.151Z</time>
      </trkpt>
      <trkpt lat="38.66156" lon="36.09469">
        <ele>1459.54598</ele>
        <time>2021-11-16T05:28:36.411Z</time>
      </trkpt>
      <trkpt lat="38.66146" lon="36.09321">
        <ele>1458.259949</ele>
        <time>2021-11-16T05:28:58.562Z</time>
      </trkpt>
      <trkpt lat="38.6613" lon="36.09205">
        <ele>1456.565117</ele>
        <time>2021-11-16T05:29:15.141Z</time>
      </trkpt>
      <trkpt lat="38.66116" lon="36.09136">
        <ele>1455.54997</ele>
        <time>2021-11-16T05:29:24.730Z</time>
      </trkpt>
      <trkpt lat="38.65845" lon="36.07938">
        <ele>1430.986181</ele>
        <time>2021-11-16T05:32:09.294Z</time>
      </trkpt>
      <trkpt lat="38.65824" lon="36.0783">
        <ele>1429.241461</ele>
        <time>2021-11-16T05:32:24.943Z</time>
      </trkpt>
      <trkpt lat="38.65806" lon="36.077">
        <ele>1427.373797</ele>
        <time>2021-11-16T05:32:43.598Z</time>
      </trkpt>
      <trkpt lat="38.65799" lon="36.07585">
        <ele>1425.800664</ele>
        <time>2021-11-16T05:32:59.629Z</time>
      </trkpt>
      <trkpt lat="38.65804" lon="36.07494">
        <ele>1424.568827</ele>
        <time>2021-11-16T05:33:12.348Z</time>
      </trkpt>
      <trkpt lat="38.65822" lon="36.07393">
        <ele>1423.173837</ele>
        <time>2021-11-16T05:33:26.810Z</time>
      </trkpt>
      <trkpt lat="38.65832" lon="36.0735">
        <ele>1422.563205</ele>
        <time>2021-11-16T05:33:33.221Z</time>
      </trkpt>
      <trkpt lat="38.65838" lon="36.07324">
        <ele>1422.268428</ele>
        <time>2021-11-16T05:33:36.984Z</time>
      </trkpt>
      <trkpt lat="38.65897" lon="36.07078">
        <ele>1420.029955</ele>
        <time>2021-11-16T05:34:15.019Z</time>
      </trkpt>
      <trkpt lat="38.65913" lon="36.07014">
        <ele>1419.794461</ele>
        <time>2021-11-16T05:34:25.733Z</time>
      </trkpt>
      <trkpt lat="38.65943" lon="36.06892">
        <ele>1419.387497</ele>
        <time>2021-11-16T05:34:47.378Z</time>
      </trkpt>
      <trkpt lat="38.66068" lon="36.06384">
        <ele>1419.967496</ele>
        <time>2021-11-16T05:36:22.524Z</time>
      </trkpt>
      <trkpt lat="38.66106" lon="36.06226">
        <ele>1420.280896</ele>
        <time>2021-11-16T05:36:52.706Z</time>
      </trkpt>
      <trkpt lat="38.6611" lon="36.06211">
        <ele>1420.308022</ele>
        <time>2021-11-16T05:36:55.563Z</time>
      </trkpt>
      <trkpt lat="38.66125" lon="36.0611">
        <ele>1420.486355</ele>
        <time>2021-11-16T05:37:14.266Z</time>
      </trkpt>
      <trkpt lat="38.66129" lon="36.06043">
        <ele>1420.604038</ele>
        <time>2021-11-16T05:37:26.505Z</time>
      </trkpt>
      <trkpt lat="38.66129" lon="36.05985">
        <ele>1420.637137</ele>
        <time>2021-11-16T05:37:36.503Z</time>
      </trkpt>
      <trkpt lat="38.66157" lon="36.05932">
        <ele>1420.608365</ele>
        <time>2021-11-16T05:37:47.354Z</time>
      </trkpt>
      <trkpt lat="38.66188" lon="36.05876">
        <ele>1420.577652</ele>
        <time>2021-11-16T05:37:59.034Z</time>
      </trkpt>
      <trkpt lat="38.66199" lon="36.0585">
        <ele>1420.564277</ele>
        <time>2021-11-16T05:38:04.075Z</time>
      </trkpt>
      <trkpt lat="38.66217" lon="36.05758">
        <ele>1420.65291</ele>
        <time>2021-11-16T05:38:20.352Z</time>
      </trkpt>
      <trkpt lat="38.66292" lon="36.05443">
        <ele>1421.656504</ele>
        <time>2021-11-16T05:39:21.013Z</time>
      </trkpt>
      <trkpt lat="38.6637" lon="36.05143">
        <ele>1423.758916</ele>
        <time>2021-11-16T05:40:25.498Z</time>
      </trkpt>
      <trkpt lat="38.66421" lon="36.04962">
        <ele>1424.85335</ele>
        <time>2021-11-16T05:41:04.158Z</time>
      </trkpt>
      <trkpt lat="38.66729" lon="36.04112">
        <ele>1425.464548</ele>
        <time>2021-11-16T05:43:48.401Z</time>
      </trkpt>
      <trkpt lat="38.66781" lon="36.03974">
        <ele>1425.372872</ele>
        <time>2021-11-16T05:44:15.057Z</time>
      </trkpt>
      <trkpt lat="38.66795" lon="36.03931">
        <ele>1425.342172</ele>
        <time>2021-11-16T05:44:23.020Z</time>
      </trkpt>
      <trkpt lat="38.66803" lon="36.03904">
        <ele>1425.322961</ele>
        <time>2021-11-16T05:44:27.850Z</time>
      </trkpt>
      <trkpt lat="38.66816" lon="36.03859">
        <ele>1425.220911</ele>
        <time>2021-11-16T05:44:35.905Z</time>
      </trkpt>
      <trkpt lat="38.66821" lon="36.03792">
        <ele>1425.042478</ele>
        <time>2021-11-16T05:44:46.882Z</time>
      </trkpt>
      <trkpt lat="38.66815" lon="36.03644">
        <ele>1424.710315</ele>
        <time>2021-11-16T05:45:10.779Z</time>
      </trkpt>
      <trkpt lat="38.66808" lon="36.03601">
        <ele>1424.725967</ele>
        <time>2021-11-16T05:45:18.249Z</time>
      </trkpt>
      <trkpt lat="38.66796" lon="36.03537">
        <ele>1424.749129</ele>
        <time>2021-11-16T05:45:29.404Z</time>
      </trkpt>
      <trkpt lat="38.66791" lon="36.03513">
        <ele>1424.758044</ele>
        <time>2021-11-16T05:45:33.726Z</time>
      </trkpt>
      <trkpt lat="38.66784" lon="36.0348">
        <ele>1424.770117</ele>
        <time>2021-11-16T05:45:39.662Z</time>
      </trkpt>
      <trkpt lat="38.66736" lon="36.03226">
        <ele>1426.041902</ele>
        <time>2021-11-16T05:46:30.847Z</time>
      </trkpt>
      <trkpt lat="38.66731" lon="36.03194">
        <ele>1426.292187</ele>
        <time>2021-11-16T05:46:37.737Z</time>
      </trkpt>
      <trkpt lat="38.6673" lon="36.03134">
        <ele>1426.801232</ele>
        <time>2021-11-16T05:46:50.580Z</time>
      </trkpt>
      <trkpt lat="38.66747" lon="36.03045">
        <ele>1427.577784</ele>
        <time>2021-11-16T05:47:10.065Z</time>
      </trkpt>
      <trkpt lat="38.66783" lon="36.02933">
        <ele>1428.169604</ele>
        <time>2021-11-16T05:47:34.741Z</time>
      </trkpt>
      <trkpt lat="38.66841" lon="36.02803">
        <ele>1428.420013</ele>
        <time>2021-11-16T05:48:00.523Z</time>
      </trkpt>
      <trkpt lat="38.66873" lon="36.02736">
        <ele>1428.161468</ele>
        <time>2021-11-16T05:48:13.315Z</time>
      </trkpt>
      <trkpt lat="38.66915" lon="36.02632">
        <ele>1427.633189</ele>
        <time>2021-11-16T05:48:31.473Z</time>
      </trkpt>
      <trkpt lat="38.66938" lon="36.02567">
        <ele>1427.425885</ele>
        <time>2021-11-16T05:48:42.510Z</time>
      </trkpt>
      <trkpt lat="38.66949" lon="36.02536">
        <ele>1427.45506</ele>
        <time>2021-11-16T05:48:47.987Z</time>
      </trkpt>
      <trkpt lat="38.66987" lon="36.02356">
        <ele>1427.737206</ele>
        <time>2021-11-16T05:49:21.620Z</time>
      </trkpt>
      <trkpt lat="38.67013" lon="36.02288">
        <ele>1428.677579</ele>
        <time>2021-11-16T05:49:38.128Z</time>
      </trkpt>
      <trkpt lat="38.67112" lon="36.02147">
        <ele>1430.971451</ele>
        <time>2021-11-16T05:50:22.852Z</time>
      </trkpt>
      <trkpt lat="38.67149" lon="36.02074">
        <ele>1431.951752</ele>
        <time>2021-11-16T05:50:42.640Z</time>
      </trkpt>
      <trkpt lat="38.67172" lon="36.02038">
        <ele>1432.48703</ele>
        <time>2021-11-16T05:50:52.787Z</time>
      </trkpt>
      <trkpt lat="38.672" lon="36.02007">
        <ele>1433.022263</ele>
        <time>2021-11-16T05:51:02.465Z</time>
      </trkpt>
      <trkpt lat="38.67339" lon="36.01897">
        <ele>1433.542709</ele>
        <time>2021-11-16T05:51:40.631Z</time>
      </trkpt>
      <trkpt lat="38.6739" lon="36.01848">
        <ele>1433.513154</ele>
        <time>2021-11-16T05:51:54.460Z</time>
      </trkpt>
      <trkpt lat="38.67447" lon="36.01781">
        <ele>1433.363532</ele>
        <time>2021-11-16T05:52:11.073Z</time>
      </trkpt>
      <trkpt lat="38.67604" lon="36.01633">
        <ele>1433.181731</ele>
        <time>2021-11-16T05:52:52.534Z</time>
      </trkpt>
      <trkpt lat="38.67752" lon="36.01423">
        <ele>1434.415092</ele>
        <time>2021-11-16T05:53:45.923Z</time>
      </trkpt>
      <trkpt lat="38.67762" lon="36.0141">
        <ele>1434.710432</ele>
        <time>2021-11-16T05:53:50.358Z</time>
      </trkpt>
      <trkpt lat="38.67803" lon="36.01354">
        <ele>1436.092217</ele>
        <time>2021-11-16T05:54:09.314Z</time>
      </trkpt>
      <trkpt lat="38.67837" lon="36.01324">
        <ele>1437.048408</ele>
        <time>2021-11-16T05:54:22.941Z</time>
      </trkpt>
      <trkpt lat="38.6781" lon="36.01281">
        <ele>1438.039358</ele>
        <time>2021-11-16T05:54:37.419Z</time>
      </trkpt>
      <trkpt lat="38.67778" lon="36.0125">
        <ele>1438.816171</ele>
        <time>2021-11-16T05:54:50.949Z</time>
      </trkpt>
      <trkpt lat="38.6771" lon="36.0121">
        <ele>1439.880283</ele>
        <time>2021-11-16T05:55:13.381Z</time>
      </trkpt>
      <trkpt lat="38.67687" lon="36.0118">
        <ele>1440.35169</ele>
        <time>2021-11-16T05:55:22.204Z</time>
      </trkpt>
      <trkpt lat="38.67674" lon="36.01142">
        <ele>1440.812033</ele>
        <time>2021-11-16T05:55:29.928Z</time>
      </trkpt>
      <trkpt lat="38.67665" lon="36.01074">
        <ele>1441.180995</ele>
        <time>2021-11-16T05:55:42.376Z</time>
      </trkpt>
      <trkpt lat="38.67651" lon="36.00964">
        <ele>1441.306181</ele>
        <time>2021-11-16T05:56:01.818Z</time>
      </trkpt>
      <trkpt lat="38.67605" lon="36.00623">
        <ele>1441.651393</ele>
        <time>2021-11-16T05:57:03.639Z</time>
      </trkpt>
      <trkpt lat="38.67592" lon="36.00278">
        <ele>1441.733839</ele>
        <time>2021-11-16T05:58:03.598Z</time>
      </trkpt>
      <trkpt lat="38.67593" lon="35.99801">
        <ele>1441.939499</ele>
        <time>2021-11-16T05:59:27.533Z</time>
      </trkpt>
      <trkpt lat="38.67588" lon="35.99629">
        <ele>1441.942974</ele>
        <time>2021-11-16T05:59:56.984Z</time>
      </trkpt>
      <trkpt lat="38.67559" lon="35.99129">
        <ele>1442.040931</ele>
        <time>2021-11-16T06:01:23.916Z</time>
      </trkpt>
      <trkpt lat="38.67547" lon="35.98823">
        <ele>1442.698633</ele>
        <time>2021-11-16T06:02:20.331Z</time>
      </trkpt>
      <trkpt lat="38.67565" lon="35.98393">
        <ele>1443.641355</ele>
        <time>2021-11-16T06:03:39.753Z</time>
      </trkpt>
      <trkpt lat="38.67552" lon="35.98005">
        <ele>1443.896973</ele>
        <time>2021-11-16T06:04:45.094Z</time>
      </trkpt>
      <trkpt lat="38.67548" lon="35.97588">
        <ele>1447.212275</ele>
        <time>2021-11-16T06:06:12.575Z</time>
      </trkpt>
      <trkpt lat="38.6754" lon="35.97439">
        <ele>1448.780428</ele>
        <time>2021-11-16T06:06:45.786Z</time>
      </trkpt>
      <trkpt lat="38.67531" lon="35.97389">
        <ele>1449.22489</ele>
        <time>2021-11-16T06:06:56.935Z</time>
      </trkpt>
      <trkpt lat="38.67496" lon="35.97235">
        <ele>1450.625312</ele>
        <time>2021-11-16T06:07:29.916Z</time>
      </trkpt>
      <trkpt lat="38.67492" lon="35.97218">
        <ele>1450.777539</ele>
        <time>2021-11-16T06:07:33.568Z</time>
      </trkpt>
      <trkpt lat="38.67484" lon="35.97184">
        <ele>1450.932911</ele>
        <time>2021-11-16T06:07:40.605Z</time>
      </trkpt>
      <trkpt lat="38.67473" lon="35.97115">
        <ele>1451.222491</ele>
        <time>2021-11-16T06:07:54.308Z</time>
      </trkpt>
      <trkpt lat="38.67449" lon="35.97066">
        <ele>1451.458446</ele>
        <time>2021-11-16T06:08:04.975Z</time>
      </trkpt>
      <trkpt lat="38.67442" lon="35.9704">
        <ele>1451.570155</ele>
        <time>2021-11-16T06:08:10.036Z</time>
      </trkpt>
      <trkpt lat="38.67394" lon="35.96952">
        <ele>1451.971009</ele>
        <time>2021-11-16T06:08:30.206Z</time>
      </trkpt>
      <trkpt lat="38.67372" lon="35.96907">
        <ele>1452.160959</ele>
        <time>2021-11-16T06:08:40.748Z</time>
      </trkpt>
      <trkpt lat="38.67348" lon="35.96875">
        <ele>1452.319377</ele>
        <time>2021-11-16T06:08:49.706Z</time>
      </trkpt>
      <trkpt lat="38.67327" lon="35.96833">
        <ele>1452.496207</ele>
        <time>2021-11-16T06:08:59.556Z</time>
      </trkpt>
      <trkpt lat="38.67313" lon="35.96793">
        <ele>1452.572087</ele>
        <time>2021-11-16T06:09:08.117Z</time>
      </trkpt>
      <trkpt lat="38.67292" lon="35.96769">
        <ele>1452.594438</ele>
        <time>2021-11-16T06:09:14.969Z</time>
      </trkpt>
      <trkpt lat="38.67291" lon="35.96739">
        <ele>1452.613433</ele>
        <time>2021-11-16T06:09:20.733Z</time>
      </trkpt>
      <trkpt lat="38.6729" lon="35.96729">
        <ele>1452.619531</ele>
        <time>2021-11-16T06:09:22.553Z</time>
      </trkpt>
      <trkpt lat="38.67289" lon="35.96711">
        <ele>1452.631415</ele>
        <time>2021-11-16T06:09:26.052Z</time>
      </trkpt>
      <trkpt lat="38.67288" lon="35.96678">
        <ele>1452.651914</ele>
        <time>2021-11-16T06:09:32.151Z</time>
      </trkpt>
      <trkpt lat="38.67287" lon="35.96655">
        <ele>1452.666121</ele>
        <time>2021-11-16T06:09:36.238Z</time>
      </trkpt>
      <trkpt lat="38.67285" lon="35.96595">
        <ele>1452.635356</ele>
        <time>2021-11-16T06:09:46.702Z</time>
      </trkpt>
      <trkpt lat="38.67276" lon="35.96572">
        <ele>1452.406543</ele>
        <time>2021-11-16T06:09:50.862Z</time>
      </trkpt>
      <trkpt lat="38.67274" lon="35.96522">
        <ele>1451.954211</ele>
        <time>2021-11-16T06:09:58.912Z</time>
      </trkpt>
      <trkpt lat="38.67288" lon="35.96485">
        <ele>1451.58663</ele>
        <time>2021-11-16T06:10:05.132Z</time>
      </trkpt>
      <trkpt lat="38.67302" lon="35.96449">
        <ele>1451.218474</ele>
        <time>2021-11-16T06:10:11.212Z</time>
      </trkpt>
      <trkpt lat="38.67292" lon="35.96416">
        <ele>1450.893659</ele>
        <time>2021-11-16T06:10:16.530Z</time>
      </trkpt>
      <trkpt lat="38.67295" lon="35.96298">
        <ele>1449.582438</ele>
        <time>2021-11-16T06:10:33.915Z</time>
      </trkpt>
      <trkpt lat="38.67301" lon="35.96265">
        <ele>1449.180164</ele>
        <time>2021-11-16T06:10:38.907Z</time>
      </trkpt>
      <trkpt lat="38.67256" lon="35.96163">
        <ele>1447.853301</ele>
        <time>2021-11-16T06:10:55.624Z</time>
      </trkpt>
      <trkpt lat="38.67181" lon="35.96077">
        <ele>1447.286718</ele>
        <time>2021-11-16T06:11:15.407Z</time>
      </trkpt>
      <trkpt lat="38.67161" lon="35.96057">
        <ele>1447.144524</ele>
        <time>2021-11-16T06:11:20.784Z</time>
      </trkpt>
      <trkpt lat="38.6711" lon="35.96006">
        <ele>1446.903347</ele>
        <time>2021-11-16T06:11:35.260Z</time>
      </trkpt>
      <trkpt lat="38.67056" lon="35.95947">
        <ele>1447.049679</ele>
        <time>2021-11-16T06:11:52.145Z</time>
      </trkpt>
      <trkpt lat="38.67045" lon="35.95934">
        <ele>1447.081252</ele>
        <time>2021-11-16T06:11:55.893Z</time>
      </trkpt>
      <trkpt lat="38.67011" lon="35.95872">
        <ele>1447.203545</ele>
        <time>2021-11-16T06:12:09.771Z</time>
      </trkpt>
      <trkpt lat="38.66995" lon="35.95844">
        <ele>1447.215507</ele>
        <time>2021-11-16T06:12:15.971Z</time>
      </trkpt>
      <trkpt lat="38.66967" lon="35.95786">
        <ele>1447.063064</ele>
        <time>2021-11-16T06:12:27.429Z</time>
      </trkpt>
      <trkpt lat="38.66957" lon="35.95774">
        <ele>1447.025767</ele>
        <time>2021-11-16T06:12:30.318Z</time>
      </trkpt>
      <trkpt lat="38.66946" lon="35.95766">
        <ele>1446.988384</ele>
        <time>2021-11-16T06:12:32.900Z</time>
      </trkpt>
      <trkpt lat="38.66846" lon="35.95763">
        <ele>1446.700184</ele>
        <time>2021-11-16T06:12:53.607Z</time>
      </trkpt>
      <trkpt lat="38.66779" lon="35.95742">
        <ele>1446.463081</ele>
        <time>2021-11-16T06:13:07.867Z</time>
      </trkpt>
      <trkpt lat="38.66555" lon="35.95598">
        <ele>1445.54087</ele>
        <time>2021-11-16T06:14:01.068Z</time>
      </trkpt>
      <trkpt lat="38.66403" lon="35.95533">
        <ele>1444.568234</ele>
        <time>2021-11-16T06:14:32.908Z</time>
      </trkpt>
      <trkpt lat="38.6611" lon="35.95339">
        <ele>1443.095803</ele>
        <time>2021-11-16T06:15:40.232Z</time>
      </trkpt>
      <trkpt lat="38.66049" lon="35.95296">
        <ele>1442.99445</ele>
        <time>2021-11-16T06:15:56.510Z</time>
      </trkpt>
      <trkpt lat="38.66036" lon="35.95287">
        <ele>1442.985162</ele>
        <time>2021-11-16T06:16:00.200Z</time>
      </trkpt>
      <trkpt lat="38.65966" lon="35.95226">
        <ele>1443.154601</ele>
        <time>2021-11-16T06:16:20.426Z</time>
      </trkpt>
      <trkpt lat="38.65855" lon="35.95105">
        <ele>1443.071988</ele>
        <time>2021-11-16T06:16:53.249Z</time>
      </trkpt>
      <trkpt lat="38.65808" lon="35.95046">
        <ele>1442.744804</ele>
        <time>2021-11-16T06:17:06.603Z</time>
      </trkpt>
      <trkpt lat="38.65703" lon="35.94882">
        <ele>1441.574394</ele>
        <time>2021-11-16T06:17:38.698Z</time>
      </trkpt>
      <trkpt lat="38.65664" lon="35.94834">
        <ele>1441.124121</ele>
        <time>2021-11-16T06:17:49.291Z</time>
      </trkpt>
      <trkpt lat="38.65326" lon="35.94474">
        <ele>1439.250197</ele>
        <time>2021-11-16T06:19:19.773Z</time>
      </trkpt>
      <trkpt lat="38.65197" lon="35.9433">
        <ele>1439.748415</ele>
        <time>2021-11-16T06:20:01.553Z</time>
      </trkpt>
      <trkpt lat="38.65126" lon="35.94252">
        <ele>1440.202481</ele>
        <time>2021-11-16T06:20:24.564Z</time>
      </trkpt>
      <trkpt lat="38.65045" lon="35.94163">
        <ele>1440.472999</ele>
        <time>2021-11-16T06:20:49.614Z</time>
      </trkpt>
      <trkpt lat="38.64968" lon="35.94076">
        <ele>1440.611806</ele>
        <time>2021-11-16T06:21:12.140Z</time>
      </trkpt>
      <trkpt lat="38.64877" lon="35.93958">
        <ele>1440.782636</ele>
        <time>2021-11-16T06:21:41.664Z</time>
      </trkpt>
      <trkpt lat="38.64837" lon="35.93924">
        <ele>1440.846254</ele>
        <time>2021-11-16T06:21:52.784Z</time>
      </trkpt>
      <trkpt lat="38.64832" lon="35.9392">
        <ele>1440.853809</ele>
        <time>2021-11-16T06:21:54.183Z</time>
      </trkpt>
      <trkpt lat="38.6481" lon="35.93905">
        <ele>1440.934666</ele>
        <time>2021-11-16T06:21:59.990Z</time>
      </trkpt>
      <trkpt lat="38.64781" lon="35.93887">
        <ele>1441.043609</ele>
        <time>2021-11-16T06:22:07.467Z</time>
      </trkpt>
      <trkpt lat="38.64754" lon="35.9386">
        <ele>1441.162232</ele>
        <time>2021-11-16T06:22:15.641Z</time>
      </trkpt>
      <trkpt lat="38.64728" lon="35.93834">
        <ele>1441.274351</ele>
        <time>2021-11-16T06:22:23.414Z</time>
      </trkpt>
      <trkpt lat="38.64531" lon="35.93565">
        <ele>1442.202142</ele>
        <time>2021-11-16T06:23:31.391Z</time>
      </trkpt>
      <trkpt lat="38.64514" lon="35.9354">
        <ele>1442.284248</ele>
        <time>2021-11-16T06:23:37.465Z</time>
      </trkpt>
      <trkpt lat="38.64511" lon="35.93535">
        <ele>1442.29772</ele>
        <time>2021-11-16T06:23:38.487Z</time>
      </trkpt>
      <trkpt lat="38.64496" lon="35.93511">
        <ele>1442.374314</ele>
        <time>2021-11-16T06:23:44.240Z</time>
      </trkpt>
      <trkpt lat="38.64476" lon="35.93484">
        <ele>1442.464498</ele>
        <time>2021-11-16T06:23:50.938Z</time>
      </trkpt>
      <trkpt lat="38.64472" lon="35.93478">
        <ele>1442.483209</ele>
        <time>2021-11-16T06:23:52.399Z</time>
      </trkpt>
      <trkpt lat="38.64463" lon="35.93443">
        <ele>1442.573249</ele>
        <time>2021-11-16T06:23:59.099Z</time>
      </trkpt>
      <trkpt lat="38.6445" lon="35.93398">
        <ele>1442.638907</ele>
        <time>2021-11-16T06:24:07.761Z</time>
      </trkpt>
      <trkpt lat="38.64447" lon="35.93372">
        <ele>1442.664069</ele>
        <time>2021-11-16T06:24:12.613Z</time>
      </trkpt>
      <trkpt lat="38.64444" lon="35.93362">
        <ele>1442.674611</ele>
        <time>2021-11-16T06:24:14.581Z</time>
      </trkpt>
      <trkpt lat="38.64438" lon="35.93354">
        <ele>1442.685074</ele>
        <time>2021-11-16T06:24:16.616Z</time>
      </trkpt>
      <trkpt lat="38.6443" lon="35.93349">
        <ele>1442.695746</ele>
        <time>2021-11-16T06:24:18.692Z</time>
      </trkpt>
      <trkpt lat="38.64405" lon="35.9335">
        <ele>1442.726386</ele>
        <time>2021-11-16T06:24:24.389Z</time>
      </trkpt>
      <trkpt lat="38.6438" lon="35.93359">
        <ele>1442.75705</ele>
        <time>2021-11-16T06:24:30.111Z</time>
      </trkpt>
      <trkpt lat="38.64383" lon="35.93293">
        <ele>1442.819788</ele>
        <time>2021-11-16T06:24:41.926Z</time>
      </trkpt>
      <trkpt lat="38.64383" lon="35.93252">
        <ele>1442.829029</ele>
        <time>2021-11-16T06:24:49.227Z</time>
      </trkpt>
      <trkpt lat="38.64387" lon="35.93222">
        <ele>1442.832201</ele>
        <time>2021-11-16T06:24:54.951Z</time>
      </trkpt>
      <trkpt lat="38.64355" lon="35.93101">
        <ele>1442.845242</ele>
        <time>2021-11-16T06:25:18.417Z</time>
      </trkpt>
      <trkpt lat="38.64348" lon="35.93085">
        <ele>1442.847105</ele>
        <time>2021-11-16T06:25:21.552Z</time>
      </trkpt>
      <trkpt lat="38.64341" lon="35.9307">
        <ele>1442.84888</ele>
        <time>2021-11-16T06:25:24.842Z</time>
      </trkpt>
      <trkpt lat="38.64327" lon="35.93061">
        <ele>1442.825826</ele>
        <time>2021-11-16T06:25:28.380Z</time>
      </trkpt>
      <trkpt lat="38.64295" lon="35.93063">
        <ele>1442.77597</ele>
        <time>2021-11-16T06:25:35.814Z</time>
      </trkpt>
      <trkpt lat="38.64247" lon="35.9243">
        <ele>1442.132171</ele>
        <time>2021-11-16T06:27:23.213Z</time>
      </trkpt>
      <trkpt lat="38.64196" lon="35.91898">
        <ele>1443.316049</ele>
        <time>2021-11-16T06:29:02.741Z</time>
      </trkpt>
      <trkpt lat="38.64154" lon="35.91366">
        <ele>1443.096172</ele>
        <time>2021-11-16T06:30:33.100Z</time>
      </trkpt>
      <trkpt lat="38.64097" lon="35.90647">
        <ele>1443.606222</ele>
        <time>2021-11-16T06:32:40.537Z</time>
      </trkpt>
      <trkpt lat="38.64088" lon="35.90541">
        <ele>1443.957441</ele>
        <time>2021-11-16T06:33:00.291Z</time>
      </trkpt>
      <trkpt lat="38.64077" lon="35.90326">
        <ele>1445.007693</ele>
        <time>2021-11-16T06:33:42.562Z</time>
      </trkpt>
      <trkpt lat="38.64056" lon="35.90144">
        <ele>1446.045798</ele>
        <time>2021-11-16T06:34:19.203Z</time>
      </trkpt>
      <trkpt lat="38.64029" lon="35.89808">
        <ele>1447.590029</ele>
        <time>2021-11-16T06:35:23.229Z</time>
      </trkpt>
      <trkpt lat="38.64024" lon="35.89746">
        <ele>1447.900068</ele>
        <time>2021-11-16T06:35:35.459Z</time>
      </trkpt>
      <trkpt lat="38.64012" lon="35.89594">
        <ele>1448.638603</ele>
        <time>2021-11-16T06:36:05.749Z</time>
      </trkpt>
      <trkpt lat="38.63958" lon="35.88919">
        <ele>1451.906861</ele>
        <time>2021-11-16T06:38:15.162Z</time>
      </trkpt>
      <trkpt lat="38.63933" lon="35.88598">
        <ele>1454.256636</ele>
        <time>2021-11-16T06:39:21.862Z</time>
      </trkpt>
      <trkpt lat="38.63917" lon="35.88404">
        <ele>1455.542425</ele>
        <time>2021-11-16T06:40:01.354Z</time>
      </trkpt>
      <trkpt lat="38.63897" lon="35.88155">
        <ele>1456.836357</ele>
        <time>2021-11-16T06:40:49.265Z</time>
      </trkpt>
      <trkpt lat="38.63874" lon="35.87864">
        <ele>1458.221556</ele>
        <time>2021-11-16T06:41:45.814Z</time>
      </trkpt>
      <trkpt lat="38.63865" lon="35.87751">
        <ele>1458.518157</ele>
        <time>2021-11-16T06:42:07.113Z</time>
      </trkpt>
      <trkpt lat="38.63861" lon="35.877">
        <ele>1458.64185</ele>
        <time>2021-11-16T06:42:16.364Z</time>
      </trkpt>
      <trkpt lat="38.63845" lon="35.87496">
        <ele>1459.23931</ele>
        <time>2021-11-16T06:42:52.602Z</time>
      </trkpt>
      <trkpt lat="38.6387" lon="35.87473">
        <ele>1459.36603</ele>
        <time>2021-11-16T06:43:00.162Z</time>
      </trkpt>
      <trkpt lat="38.63887" lon="35.87452">
        <ele>1459.463214</ele>
        <time>2021-11-16T06:43:06.012Z</time>
      </trkpt>
      <trkpt lat="38.63892" lon="35.87445">
        <ele>1459.492639</ele>
        <time>2021-11-16T06:43:08.039Z</time>
      </trkpt>
      <trkpt lat="38.6392" lon="35.87423">
        <ele>1459.977754</ele>
        <time>2021-11-16T06:43:16.594Z</time>
      </trkpt>
      <trkpt lat="38.63995" lon="35.87405">
        <ele>1461.791247</ele>
        <time>2021-11-16T06:43:38.108Z</time>
      </trkpt>
      <trkpt lat="38.64036" lon="35.87384">
        <ele>1462.826152</ele>
        <time>2021-11-16T06:43:53.444Z</time>
      </trkpt>
      <trkpt lat="38.64141" lon="35.87301">
        <ele>1467.300812</ele>
        <time>2021-11-16T06:44:40.192Z</time>
      </trkpt>
      <trkpt lat="38.64146" lon="35.8729">
        <ele>1467.726026</ele>
        <time>2021-11-16T06:44:44.403Z</time>
      </trkpt>
      <trkpt lat="38.64148" lon="35.87278">
        <ele>1468.148305</ele>
        <time>2021-11-16T06:44:48.966Z</time>
      </trkpt>
      <trkpt lat="38.64109" lon="35.87048">
        <ele>1475.243916</ele>
        <time>2021-11-16T06:46:01.966Z</time>
      </trkpt>
      <trkpt lat="38.64111" lon="35.8702">
        <ele>1476.019454</ele>
        <time>2021-11-16T06:46:09.483Z</time>
      </trkpt>
      <trkpt lat="38.64116" lon="35.87008">
        <ele>1476.410338</ele>
        <time>2021-11-16T06:46:13.177Z</time>
      </trkpt>
      <trkpt lat="38.64132" lon="35.86993">
        <ele>1477.105794</ele>
        <time>2021-11-16T06:46:19.774Z</time>
      </trkpt>
      <trkpt lat="38.64145" lon="35.8698">
        <ele>1477.668116</ele>
        <time>2021-11-16T06:46:24.914Z</time>
      </trkpt>
      <trkpt lat="38.64376" lon="35.86811">
        <ele>1482.352514</ele>
        <time>2021-11-16T06:47:41.744Z</time>
      </trkpt>
      <trkpt lat="38.64599" lon="35.86661">
        <ele>1486.520541</ele>
        <time>2021-11-16T06:48:53.413Z</time>
      </trkpt>
      <trkpt lat="38.64614" lon="35.86644">
        <ele>1486.856859</ele>
        <time>2021-11-16T06:48:59.425Z</time>
      </trkpt>
      <trkpt lat="38.64628" lon="35.86614">
        <ele>1487.495103</ele>
        <time>2021-11-16T06:49:07.888Z</time>
      </trkpt>
      <trkpt lat="38.64666" lon="35.86526">
        <ele>1489.550678</ele>
        <time>2021-11-16T06:49:33.146Z</time>
      </trkpt>
      <trkpt lat="38.6495" lon="35.85905">
        <ele>1505.507562</ele>
        <time>2021-11-16T06:52:46.283Z</time>
      </trkpt>
      <trkpt lat="38.65153" lon="35.85304">
        <ele>1512.328836</ele>
        <time>2021-11-16T06:55:03.497Z</time>
      </trkpt>
      <trkpt lat="38.65269" lon="35.84944">
        <ele>1517.113861</ele>
        <time>2021-11-16T06:56:31.031Z</time>
      </trkpt>
      <trkpt lat="38.65288" lon="35.84903">
        <ele>1517.718963</ele>
        <time>2021-11-16T06:56:41.700Z</time>
      </trkpt>
      <trkpt lat="38.65293" lon="35.84896">
        <ele>1517.849527</ele>
        <time>2021-11-16T06:56:44.424Z</time>
      </trkpt>
      <trkpt lat="38.65313" lon="35.84869">
        <ele>1518.322655</ele>
        <time>2021-11-16T06:56:52.284Z</time>
      </trkpt>
      <trkpt lat="38.65374" lon="35.84787">
        <ele>1519.783443</ele>
        <time>2021-11-16T06:57:17.711Z</time>
      </trkpt>
      <trkpt lat="38.65451" lon="35.84691">
        <ele>1521.594636</ele>
        <time>2021-11-16T06:57:48.565Z</time>
      </trkpt>
      <trkpt lat="38.65518" lon="35.84595">
        <ele>1523.440801</ele>
        <time>2021-11-16T06:58:18.139Z</time>
      </trkpt>
      <trkpt lat="38.65585" lon="35.84499">
        <ele>1525.490583</ele>
        <time>2021-11-16T06:58:49.181Z</time>
      </trkpt>
      <trkpt lat="38.65633" lon="35.84412">
        <ele>1527.191048</ele>
        <time>2021-11-16T06:59:14.492Z</time>
      </trkpt>
      <trkpt lat="38.65745" lon="35.84185">
        <ele>1531.737148</ele>
        <time>2021-11-16T07:00:18.501Z</time>
      </trkpt>
      <trkpt lat="38.65784" lon="35.84131">
        <ele>1533.05673</ele>
        <time>2021-11-16T07:00:36.576Z</time>
      </trkpt>
      <trkpt lat="38.65798" lon="35.84118">
        <ele>1533.469741</ele>
        <time>2021-11-16T07:00:42.674Z</time>
      </trkpt>
      <trkpt lat="38.65828" lon="35.84087">
        <ele>1534.462144</ele>
        <time>2021-11-16T07:00:55.337Z</time>
      </trkpt>
      <trkpt lat="38.65867" lon="35.84046">
        <ele>1535.946847</ele>
        <time>2021-11-16T07:01:11.823Z</time>
      </trkpt>
      <trkpt lat="38.65875" lon="35.84038">
        <ele>1536.231874</ele>
        <time>2021-11-16T07:01:15.427Z</time>
      </trkpt>
      <trkpt lat="38.65946" lon="35.83934">
        <ele>1539.405835</ele>
        <time>2021-11-16T07:01:52.811Z</time>
      </trkpt>
      <trkpt lat="38.66045" lon="35.8382">
        <ele>1543.47006</ele>
        <time>2021-11-16T07:02:38.698Z</time>
      </trkpt>
      <trkpt lat="38.66095" lon="35.8377">
        <ele>1545.346067</ele>
        <time>2021-11-16T07:03:00.672Z</time>
      </trkpt>
      <trkpt lat="38.66194" lon="35.83698">
        <ele>1548.395423</ele>
        <time>2021-11-16T07:03:38.303Z</time>
      </trkpt>
      <trkpt lat="38.66248" lon="35.83653">
        <ele>1550.11847</ele>
        <time>2021-11-16T07:03:59.009Z</time>
      </trkpt>
      <trkpt lat="38.66338" lon="35.83573">
        <ele>1552.975743</ele>
        <time>2021-11-16T07:04:34.106Z</time>
      </trkpt>
      <trkpt lat="38.66617" lon="35.83312">
        <ele>1563.399326</ele>
        <time>2021-11-16T07:06:31.079Z</time>
      </trkpt>
      <trkpt lat="38.66669" lon="35.83252">
        <ele>1565.802328</ele>
        <time>2021-11-16T07:06:58.044Z</time>
      </trkpt>
      <trkpt lat="38.66711" lon="35.83197">
        <ele>1568.602973</ele>
        <time>2021-11-16T07:07:22.045Z</time>
      </trkpt>
      <trkpt lat="38.66757" lon="35.83135">
        <ele>1571.687057</ele>
        <time>2021-11-16T07:07:48.931Z</time>
      </trkpt>
      <trkpt lat="38.66882" lon="35.82984">
        <ele>1580.155504</ele>
        <time>2021-11-16T07:09:03.086Z</time>
      </trkpt>
      <trkpt lat="38.66895" lon="35.82973">
        <ele>1580.95843</ele>
        <time>2021-11-16T07:09:09.928Z</time>
      </trkpt>
      <trkpt lat="38.66925" lon="35.82946">
        <ele>1582.828519</ele>
        <time>2021-11-16T07:09:25.135Z</time>
      </trkpt>
      <trkpt lat="38.66971" lon="35.82929">
        <ele>1584.690617</ele>
        <time>2021-11-16T07:09:44.530Z</time>
      </trkpt>
      <trkpt lat="38.66988" lon="35.82916">
        <ele>1585.436751</ele>
        <time>2021-11-16T07:09:52.454Z</time>
      </trkpt>
      <trkpt lat="38.66993" lon="35.8291">
        <ele>1585.662877</ele>
        <time>2021-11-16T07:09:54.708Z</time>
      </trkpt>
      <trkpt lat="38.66998" lon="35.82903">
        <ele>1585.960208</ele>
        <time>2021-11-16T07:09:57.928Z</time>
      </trkpt>
      <trkpt lat="38.67006" lon="35.82892">
        <ele>1586.364914</ele>
        <time>2021-11-16T07:10:01.976Z</time>
      </trkpt>
      <trkpt lat="38.67052" lon="35.82843">
        <ele>1588.587193</ele>
        <time>2021-11-16T07:10:23.972Z</time>
      </trkpt>
      <trkpt lat="38.67095" lon="35.82822">
        <ele>1589.950694</ele>
        <time>2021-11-16T07:10:39.431Z</time>
      </trkpt>
      <trkpt lat="38.67173" lon="35.828">
        <ele>1590.971339</ele>
        <time>2021-11-16T07:11:02.783Z</time>
      </trkpt>
      <trkpt lat="38.67214" lon="35.82779">
        <ele>1591.537451</ele>
        <time>2021-11-16T07:11:14.450Z</time>
      </trkpt>
      <trkpt lat="38.67228" lon="35.82771">
        <ele>1591.741881</ele>
        <time>2021-11-16T07:11:18.233Z</time>
      </trkpt>
      <trkpt lat="38.67235" lon="35.82756">
        <ele>1591.912144</ele>
        <time>2021-11-16T07:11:21.296Z</time>
      </trkpt>
      <trkpt lat="38.67249" lon="35.82667">
        <ele>1590.934734</ele>
        <time>2021-11-16T07:11:35.481Z</time>
      </trkpt>
      <trkpt lat="38.67249" lon="35.82655">
        <ele>1590.748541</ele>
        <time>2021-11-16T07:11:37.319Z</time>
      </trkpt>
      <trkpt lat="38.67247" lon="35.82654">
        <ele>1590.705012</ele>
        <time>2021-11-16T07:11:37.674Z</time>
      </trkpt>
      <trkpt lat="38.67234" lon="35.82646">
        <ele>1590.430513</ele>
        <time>2021-11-16T07:11:40.240Z</time>
      </trkpt>
      <trkpt lat="38.67174" lon="35.82615">
        <ele>1589.144489</ele>
        <time>2021-11-16T07:11:51.135Z</time>
      </trkpt>
      <trkpt lat="38.67156" lon="35.82595">
        <ele>1588.674289</ele>
        <time>2021-11-16T07:11:54.960Z</time>
      </trkpt>
      <trkpt lat="38.67117" lon="35.82543">
        <ele>1586.843775</ele>
        <time>2021-11-16T07:12:03.865Z</time>
      </trkpt>
      <trkpt lat="38.67104" lon="35.82526">
        <ele>1586.183129</ele>
        <time>2021-11-16T07:12:06.814Z</time>
      </trkpt>
      <trkpt lat="38.67009" lon="35.82391">
        <ele>1581.632551</ele>
        <time>2021-11-16T07:12:29.510Z</time>
      </trkpt>
      <trkpt lat="38.66967" lon="35.82339">
        <ele>1580.368898</ele>
        <time>2021-11-16T07:12:39.607Z</time>
      </trkpt>
      <trkpt lat="38.66963" lon="35.82334">
        <ele>1580.245299</ele>
        <time>2021-11-16T07:12:40.604Z</time>
      </trkpt>
      <trkpt lat="38.66917" lon="35.82281">
        <ele>1578.916391</ele>
        <time>2021-11-16T07:12:51.616Z</time>
      </trkpt>
      <trkpt lat="38.66873" lon="35.82236">
        <ele>1578.208128</ele>
        <time>2021-11-16T07:13:02.180Z</time>
      </trkpt>
      <trkpt lat="38.66783" lon="35.82123">
        <ele>1577.534386</ele>
        <time>2021-11-16T07:13:28.938Z</time>
      </trkpt>
      <trkpt lat="38.66687" lon="35.81972">
        <ele>1577.039967</ele>
        <time>2021-11-16T07:14:02.280Z</time>
      </trkpt>
      <trkpt lat="38.66584" lon="35.81862">
        <ele>1575.93595</ele>
        <time>2021-11-16T07:14:28.701Z</time>
      </trkpt>
      <trkpt lat="38.66544" lon="35.81821">
        <ele>1575.340913</ele>
        <time>2021-11-16T07:14:38.285Z</time>
      </trkpt>
      <trkpt lat="38.66504" lon="35.8177">
        <ele>1574.601267</ele>
        <time>2021-11-16T07:14:48.570Z</time>
      </trkpt>
      <trkpt lat="38.66484" lon="35.81736">
        <ele>1573.973391</ele>
        <time>2021-11-16T07:14:54.451Z</time>
      </trkpt>
      <trkpt lat="38.66447" lon="35.81675">
        <ele>1572.823061</ele>
        <time>2021-11-16T07:15:05.116Z</time>
      </trkpt>
      <trkpt lat="38.66133" lon="35.81179">
        <ele>1563.179816</ele>
        <time>2021-11-16T07:16:32.811Z</time>
      </trkpt>
      <trkpt lat="38.65914" lon="35.8082">
        <ele>1558.367987</ele>
        <time>2021-11-16T07:17:38.935Z</time>
      </trkpt>
      <trkpt lat="38.65705" lon="35.80454">
        <ele>1555.470928</ele>
        <time>2021-11-16T07:18:49.780Z</time>
      </trkpt>
      <trkpt lat="38.6567" lon="35.80393">
        <ele>1554.929919</ele>
        <time>2021-11-16T07:19:00.998Z</time>
      </trkpt>
      <trkpt lat="38.65642" lon="35.80344">
        <ele>1554.490517</ele>
        <time>2021-11-16T07:19:10.128Z</time>
      </trkpt>
      <trkpt lat="38.65589" lon="35.80256">
        <ele>1553.901037</ele>
        <time>2021-11-16T07:19:26.991Z</time>
      </trkpt>
      <trkpt lat="38.65407" lon="35.79956">
        <ele>1552.545794</ele>
        <time>2021-11-16T07:20:29.208Z</time>
      </trkpt>
      <trkpt lat="38.65401" lon="35.79943">
        <ele>1552.487273</ele>
        <time>2021-11-16T07:20:31.616Z</time>
      </trkpt>
      <trkpt lat="38.65352" lon="35.79854">
        <ele>1552.064447</ele>
        <time>2021-11-16T07:20:49.049Z</time>
      </trkpt>
      <trkpt lat="38.653" lon="35.79733">
        <ele>1551.561622</ele>
        <time>2021-11-16T07:21:11.105Z</time>
      </trkpt>
      <trkpt lat="38.65281" lon="35.79685">
        <ele>1551.400015</ele>
        <time>2021-11-16T07:21:19.768Z</time>
      </trkpt>
      <trkpt lat="38.65278" lon="35.79676">
        <ele>1551.368855</ele>
        <time>2021-11-16T07:21:21.429Z</time>
      </trkpt>
      <trkpt lat="38.65263" lon="35.79622">
        <ele>1551.195939</ele>
        <time>2021-11-16T07:21:30.789Z</time>
      </trkpt>
      <trkpt lat="38.65242" lon="35.79524">
        <ele>1550.946543</ele>
        <time>2021-11-16T07:21:47.602Z</time>
      </trkpt>
      <trkpt lat="38.65199" lon="35.79314">
        <ele>1550.649247</ele>
        <time>2021-11-16T07:22:24.775Z</time>
      </trkpt>
      <trkpt lat="38.65172" lon="35.79182">
        <ele>1550.222514</ele>
        <time>2021-11-16T07:22:47.458Z</time>
      </trkpt>
      <trkpt lat="38.65117" lon="35.78885">
        <ele>1548.444473</ele>
        <time>2021-11-16T07:23:34.508Z</time>
      </trkpt>
      <trkpt lat="38.65116" lon="35.78843">
        <ele>1548.207495</ele>
        <time>2021-11-16T07:23:40.677Z</time>
      </trkpt>
      <trkpt lat="38.65122" lon="35.78799">
        <ele>1547.951594</ele>
        <time>2021-11-16T07:23:47.436Z</time>
      </trkpt>
      <trkpt lat="38.65132" lon="35.78734">
        <ele>1547.578356</ele>
        <time>2021-11-16T07:23:57.423Z</time>
      </trkpt>
      <trkpt lat="38.65149" lon="35.78588">
        <ele>1547.529467</ele>
        <time>2021-11-16T07:24:21.627Z</time>
      </trkpt>
      <trkpt lat="38.65148" lon="35.78541">
        <ele>1547.801102</ele>
        <time>2021-11-16T07:24:30.781Z</time>
      </trkpt>
      <trkpt lat="38.65139" lon="35.78496">
        <ele>1548.072708</ele>
        <time>2021-11-16T07:24:40.456Z</time>
      </trkpt>
      <trkpt lat="38.65058" lon="35.78281">
        <ele>1551.291001</ele>
        <time>2021-11-16T07:25:35.052Z</time>
      </trkpt>
      <trkpt lat="38.64928" lon="35.77969">
        <ele>1560.116603</ele>
        <time>2021-11-16T07:27:10.065Z</time>
      </trkpt>
      <trkpt lat="38.64891" lon="35.77854">
        <ele>1564.64469</ele>
        <time>2021-11-16T07:27:51.024Z</time>
      </trkpt>
      <trkpt lat="38.6487" lon="35.77815">
        <ele>1566.425528</ele>
        <time>2021-11-16T07:28:07.970Z</time>
      </trkpt>
      <trkpt lat="38.64796" lon="35.77713">
        <ele>1573.093104</ele>
        <time>2021-11-16T07:29:01.084Z</time>
      </trkpt>
      <trkpt lat="38.64762" lon="35.77693">
        <ele>1575.374254</ele>
        <time>2021-11-16T07:29:19.715Z</time>
      </trkpt>
      <trkpt lat="38.64692" lon="35.77694">
        <ele>1577.563851</ele>
        <time>2021-11-16T07:29:50.222Z</time>
      </trkpt>
      <trkpt lat="38.64641" lon="35.77666">
        <ele>1578.073027</ele>
        <time>2021-11-16T07:30:07.375Z</time>
      </trkpt>
      <trkpt lat="38.64565" lon="35.77625">
        <ele>1578.831439</ele>
        <time>2021-11-16T07:30:23.474Z</time>
      </trkpt>
      <trkpt lat="38.64555" lon="35.7762">
        <ele>1578.201026</ele>
        <time>2021-11-16T07:30:25.019Z</time>
      </trkpt>
      <trkpt lat="38.6446" lon="35.77548">
        <ele>1570.420406</ele>
        <time>2021-11-16T07:30:40.942Z</time>
      </trkpt>
      <trkpt lat="38.64437" lon="35.7752">
        <ele>1568.178296</ele>
        <time>2021-11-16T07:30:45.289Z</time>
      </trkpt>
      <trkpt lat="38.64409" lon="35.77466">
        <ele>1564.004815</ele>
        <time>2021-11-16T07:30:52.228Z</time>
      </trkpt>
      <trkpt lat="38.64339" lon="35.77323">
        <ele>1551.333484</ele>
        <time>2021-11-16T07:31:10.051Z</time>
      </trkpt>
      <trkpt lat="38.64324" lon="35.77292">
        <ele>1548.659122</ele>
        <time>2021-11-16T07:31:14.001Z</time>
      </trkpt>
      <trkpt lat="38.64297" lon="35.77236">
        <ele>1545.624162</ele>
        <time>2021-11-16T07:31:21.211Z</time>
      </trkpt>
      <trkpt lat="38.64166" lon="35.77012">
        <ele>1534.75744</ele>
        <time>2021-11-16T07:31:54.700Z</time>
      </trkpt>
      <trkpt lat="38.64136" lon="35.76962">
        <ele>1532.943581</ele>
        <time>2021-11-16T07:32:02.844Z</time>
      </trkpt>
      <trkpt lat="38.64102" lon="35.76886">
        <ele>1531.153762</ele>
        <time>2021-11-16T07:32:14.840Z</time>
      </trkpt>
      <trkpt lat="38.64079" lon="35.76831">
        <ele>1530.531375</ele>
        <time>2021-11-16T07:32:23.951Z</time>
      </trkpt>
      <trkpt lat="38.64074" lon="35.7682">
        <ele>1530.411976</ele>
        <time>2021-11-16T07:32:25.625Z</time>
      </trkpt>
      <trkpt lat="38.64049" lon="35.7676">
        <ele>1529.738036</ele>
        <time>2021-11-16T07:32:36.724Z</time>
      </trkpt>
      <trkpt lat="38.6404" lon="35.76719">
        <ele>1529.311164</ele>
        <time>2021-11-16T07:32:44.668Z</time>
      </trkpt>
      <trkpt lat="38.64036" lon="35.76691">
        <ele>1529.30199</ele>
        <time>2021-11-16T07:32:50.024Z</time>
      </trkpt>
      <trkpt lat="38.64037" lon="35.76665">
        <ele>1529.347745</ele>
        <time>2021-11-16T07:32:55.624Z</time>
      </trkpt>
      <trkpt lat="38.64028" lon="35.76662">
        <ele>1529.369271</ele>
        <time>2021-11-16T07:32:57.799Z</time>
      </trkpt>
      <trkpt lat="38.6402" lon="35.76635">
        <ele>1529.422188</ele>
        <time>2021-11-16T07:33:03.970Z</time>
      </trkpt>
      <trkpt lat="38.64035" lon="35.76612">
        <ele>1529.47555</ele>
        <time>2021-11-16T07:33:09.756Z</time>
      </trkpt>
      <trkpt lat="38.64042" lon="35.76575">
        <ele>1529.544014</ele>
        <time>2021-11-16T07:33:17.164Z</time>
      </trkpt>
      <trkpt lat="38.6405" lon="35.76537">
        <ele>1529.614602</ele>
        <time>2021-11-16T07:33:24.344Z</time>
      </trkpt>
      <trkpt lat="38.64053" lon="35.76506">
        <ele>1529.670259</ele>
        <time>2021-11-16T07:33:30.101Z</time>
      </trkpt>
      <trkpt lat="38.64053" lon="35.76475">
        <ele>1529.361408</ele>
        <time>2021-11-16T07:33:35.255Z</time>
      </trkpt>
      <trkpt lat="38.64047" lon="35.76454">
        <ele>1529.137227</ele>
        <time>2021-11-16T07:33:39.282Z</time>
      </trkpt>
      <trkpt lat="38.64046" lon="35.76448">
        <ele>1529.06818</ele>
        <time>2021-11-16T07:33:40.278Z</time>
      </trkpt>
      <trkpt lat="38.64044" lon="35.76433">
        <ele>1528.914573</ele>
        <time>2021-11-16T07:33:42.549Z</time>
      </trkpt>
      <trkpt lat="38.64038" lon="35.76419">
        <ele>1528.742315</ele>
        <time>2021-11-16T07:33:45.164Z</time>
      </trkpt>
      <trkpt lat="38.6403" lon="35.76395">
        <ele>1528.469502</ele>
        <time>2021-11-16T07:33:49.303Z</time>
      </trkpt>
      <trkpt lat="38.64027" lon="35.76364">
        <ele>1528.153613</ele>
        <time>2021-11-16T07:33:54.073Z</time>
      </trkpt>
      <trkpt lat="38.64022" lon="35.76358">
        <ele>1528.06178</ele>
        <time>2021-11-16T07:33:55.209Z</time>
      </trkpt>
      <trkpt lat="38.64033" lon="35.76325">
        <ele>1527.696062</ele>
        <time>2021-11-16T07:34:00.343Z</time>
      </trkpt>
      <trkpt lat="38.64032" lon="35.7628">
        <ele>1527.190106</ele>
        <time>2021-11-16T07:34:06.630Z</time>
      </trkpt>
      <trkpt lat="38.64031" lon="35.76248">
        <ele>1526.641486</ele>
        <time>2021-11-16T07:34:10.955Z</time>
      </trkpt>
      <trkpt lat="38.64028" lon="35.76198">
        <ele>1525.76612</ele>
        <time>2021-11-16T07:34:18.240Z</time>
      </trkpt>
      <trkpt lat="38.64028" lon="35.7608">
        <ele>1523.729645</ele>
        <time>2021-11-16T07:34:35.317Z</time>
      </trkpt>
      <trkpt lat="38.64055" lon="35.75967">
        <ele>1521.207656</ele>
        <time>2021-11-16T07:34:51.552Z</time>
      </trkpt>
      <trkpt lat="38.64083" lon="35.75897">
        <ele>1519.446105</ele>
        <time>2021-11-16T07:35:02.151Z</time>
      </trkpt>
      <trkpt lat="38.64097" lon="35.75864">
        <ele>1518.606797</ele>
        <time>2021-11-16T07:35:07.124Z</time>
      </trkpt>
      <trkpt lat="38.64127" lon="35.75801">
        <ele>1516.889623</ele>
        <time>2021-11-16T07:35:16.980Z</time>
      </trkpt>
      <trkpt lat="38.64131" lon="35.75746">
        <ele>1515.573698</ele>
        <time>2021-11-16T07:35:24.394Z</time>
      </trkpt>
      <trkpt lat="38.64123" lon="35.75691">
        <ele>1514.256625</ele>
        <time>2021-11-16T07:35:31.881Z</time>
      </trkpt>
      <trkpt lat="38.64082" lon="35.75551">
        <ele>1511.299294</ele>
        <time>2021-11-16T07:35:52.505Z</time>
      </trkpt>
      <trkpt lat="38.64061" lon="35.75506">
        <ele>1510.416815</ele>
        <time>2021-11-16T07:35:59.881Z</time>
      </trkpt>
      <trkpt lat="38.64064" lon="35.75488">
        <ele>1510.105458</ele>
        <time>2021-11-16T07:36:02.512Z</time>
      </trkpt>
      <trkpt lat="38.64095" lon="35.75442">
        <ele>1509.062667</ele>
        <time>2021-11-16T07:36:11.519Z</time>
      </trkpt>
      <trkpt lat="38.64104" lon="35.75418">
        <ele>1508.68777</ele>
        <time>2021-11-16T07:36:15.467Z</time>
      </trkpt>
      <trkpt lat="38.64104" lon="35.75405">
        <ele>1508.541981</ele>
        <time>2021-11-16T07:36:17.471Z</time>
      </trkpt>
      <trkpt lat="38.64079" lon="35.75331">
        <ele>1507.665108</ele>
        <time>2021-11-16T07:36:29.678Z</time>
      </trkpt>
      <trkpt lat="38.64082" lon="35.75258">
        <ele>1506.872925</ele>
        <time>2021-11-16T07:36:40.907Z</time>
      </trkpt>
      <trkpt lat="38.64084" lon="35.75237">
        <ele>1506.638284</ele>
        <time>2021-11-16T07:36:44.235Z</time>
      </trkpt>
      <trkpt lat="38.64097" lon="35.75077">
        <ele>1504.558636</ele>
        <time>2021-11-16T07:37:08.441Z</time>
      </trkpt>
      <trkpt lat="38.64107" lon="35.74925">
        <ele>1502.482105</ele>
        <time>2021-11-16T07:37:30.256Z</time>
      </trkpt>
      <trkpt lat="38.64132" lon="35.74779">
        <ele>1500.348683</ele>
        <time>2021-11-16T07:37:51.837Z</time>
      </trkpt>
      <trkpt lat="38.64173" lon="35.74623">
        <ele>1499.063294</ele>
        <time>2021-11-16T07:38:17.187Z</time>
      </trkpt>
      <trkpt lat="38.6427" lon="35.74341">
        <ele>1498.230542</ele>
        <time>2021-11-16T07:39:11.153Z</time>
      </trkpt>
      <trkpt lat="38.64301" lon="35.74204">
        <ele>1498.348758</ele>
        <time>2021-11-16T07:39:38.178Z</time>
      </trkpt>
      <trkpt lat="38.64326" lon="35.74139">
        <ele>1498.425676</ele>
        <time>2021-11-16T07:39:51.620Z</time>
      </trkpt>
      <trkpt lat="38.64363" lon="35.74086">
        <ele>1498.415134</ele>
        <time>2021-11-16T07:40:04.823Z</time>
      </trkpt>
      <trkpt lat="38.64522" lon="35.73927">
        <ele>1498.087666</ele>
        <time>2021-11-16T07:40:49.816Z</time>
      </trkpt>
      <trkpt lat="38.64576" lon="35.73846">
        <ele>1497.903238</ele>
        <time>2021-11-16T07:41:08.497Z</time>
      </trkpt>
      <trkpt lat="38.64656" lon="35.73764">
        <ele>1497.518598</ele>
        <time>2021-11-16T07:41:31.272Z</time>
      </trkpt>
      <trkpt lat="38.6474" lon="35.73715">
        <ele>1497.058252</ele>
        <time>2021-11-16T07:41:51.340Z</time>
      </trkpt>
      <trkpt lat="38.64938" lon="35.73637">
        <ele>1495.362538</ele>
        <time>2021-11-16T07:42:33.561Z</time>
      </trkpt>
      <trkpt lat="38.65175" lon="35.73496">
        <ele>1492.313999</ele>
        <time>2021-11-16T07:43:26.200Z</time>
      </trkpt>
      <trkpt lat="38.6531" lon="35.73437">
        <ele>1490.017719</ele>
        <time>2021-11-16T07:43:52.746Z</time>
      </trkpt>
      <trkpt lat="38.65427" lon="35.73374">
        <ele>1487.676461</ele>
        <time>2021-11-16T07:44:16.253Z</time>
      </trkpt>
      <trkpt lat="38.65465" lon="35.73349">
        <ele>1487.134331</ele>
        <time>2021-11-16T07:44:24.302Z</time>
      </trkpt>
      <trkpt lat="38.65606" lon="35.73222">
        <ele>1485.205254</ele>
        <time>2021-11-16T07:44:59.341Z</time>
      </trkpt>
      <trkpt lat="38.6571" lon="35.73138">
        <ele>1483.921867</ele>
        <time>2021-11-16T07:45:24.504Z</time>
      </trkpt>
      <trkpt lat="38.65906" lon="35.73004">
        <ele>1480.48393</ele>
        <time>2021-11-16T07:46:06.640Z</time>
      </trkpt>
      <trkpt lat="38.65951" lon="35.72972">
        <ele>1479.748614</ele>
        <time>2021-11-16T07:46:16.248Z</time>
      </trkpt>
      <trkpt lat="38.66013" lon="35.72937">
        <ele>1478.785552</ele>
        <time>2021-11-16T07:46:29.206Z</time>
      </trkpt>
      <trkpt lat="38.66054" lon="35.72906">
        <ele>1478.107271</ele>
        <time>2021-11-16T07:46:38.564Z</time>
      </trkpt>
      <trkpt lat="38.66213" lon="35.72702">
        <ele>1478.169851</ele>
        <time>2021-11-16T07:47:30.214Z</time>
      </trkpt>
      <trkpt lat="38.66288" lon="35.72618">
        <ele>1479.076097</ele>
        <time>2021-11-16T07:47:57.334Z</time>
      </trkpt>
      <trkpt lat="38.6631" lon="35.72586">
        <ele>1479.376566</ele>
        <time>2021-11-16T07:48:06.907Z</time>
      </trkpt>
      <trkpt lat="38.66383" lon="35.72444">
        <ele>1481.791733</ele>
        <time>2021-11-16T07:48:48.091Z</time>
      </trkpt>
      <trkpt lat="38.66427" lon="35.72387">
        <ele>1482.920008</ele>
        <time>2021-11-16T07:49:07.282Z</time>
      </trkpt>
      <trkpt lat="38.66474" lon="35.72343">
        <ele>1483.878429</ele>
        <time>2021-11-16T07:49:24.983Z</time>
      </trkpt>
      <trkpt lat="38.66477" lon="35.72341">
        <ele>1483.92637</ele>
        <time>2021-11-16T07:49:25.855Z</time>
      </trkpt>
      <trkpt lat="38.66538" lon="35.72302">
        <ele>1485.039428</ele>
        <time>2021-11-16T07:49:46.045Z</time>
      </trkpt>
      <trkpt lat="38.66594" lon="35.72277">
        <ele>1486.049165</ele>
        <time>2021-11-16T07:50:03.219Z</time>
      </trkpt>
      <trkpt lat="38.66644" lon="35.7226">
        <ele>1487.030542</ele>
        <time>2021-11-16T07:50:18.082Z</time>
      </trkpt>
      <trkpt lat="38.667" lon="35.72246">
        <ele>1488.113896</ele>
        <time>2021-11-16T07:50:35.436Z</time>
      </trkpt>
      <trkpt lat="38.66738" lon="35.72236">
        <ele>1488.850866</ele>
        <time>2021-11-16T07:50:48.138Z</time>
      </trkpt>
      <trkpt lat="38.66763" lon="35.72224">
        <ele>1489.472261</ele>
        <time>2021-11-16T07:50:57.069Z</time>
      </trkpt>
      <trkpt lat="38.6682" lon="35.72195">
        <ele>1491.092069</ele>
        <time>2021-11-16T07:51:17.940Z</time>
      </trkpt>
      <trkpt lat="38.66876" lon="35.72167">
        <ele>1492.673722</ele>
        <time>2021-11-16T07:51:38.538Z</time>
      </trkpt>
      <trkpt lat="38.6696" lon="35.72125">
        <ele>1494.497865</ele>
        <time>2021-11-16T07:52:08.929Z</time>
      </trkpt>
      <trkpt lat="38.67008" lon="35.72118">
        <ele>1495.209633</ele>
        <time>2021-11-16T07:52:24.160Z</time>
      </trkpt>
      <trkpt lat="38.67103" lon="35.72138">
        <ele>1496.365797</ele>
        <time>2021-11-16T07:52:48.478Z</time>
      </trkpt>
      <trkpt lat="38.67122" lon="35.72133">
        <ele>1496.204216</ele>
        <time>2021-11-16T07:52:53.664Z</time>
      </trkpt>
      <trkpt lat="38.6714" lon="35.72122">
        <ele>1496.042844</ele>
        <time>2021-11-16T07:52:57.628Z</time>
      </trkpt>
      <trkpt lat="38.67175" lon="35.72084">
        <ele>1495.661649</ele>
        <time>2021-11-16T07:53:07.888Z</time>
      </trkpt>
      <trkpt lat="38.67183" lon="35.72066">
        <ele>1495.531039</ele>
        <time>2021-11-16T07:53:11.094Z</time>
      </trkpt>
      <trkpt lat="38.67185" lon="35.72053">
        <ele>1495.443974</ele>
        <time>2021-11-16T07:53:12.926Z</time>
      </trkpt>
      <trkpt lat="38.67187" lon="35.72046">
        <ele>1495.400233</ele>
        <time>2021-11-16T07:53:14.140Z</time>
      </trkpt>
      <trkpt lat="38.67187" lon="35.72026">
        <ele>1495.269773</ele>
        <time>2021-11-16T07:53:17.404Z</time>
      </trkpt>
      <trkpt lat="38.67184" lon="35.71992">
        <ele>1495.048795</ele>
        <time>2021-11-16T07:53:22.373Z</time>
      </trkpt>
      <trkpt lat="38.67183" lon="35.71982">
        <ele>1494.982832</ele>
        <time>2021-11-16T07:53:23.902Z</time>
      </trkpt>
      <trkpt lat="38.67173" lon="35.71936">
        <ele>1493.997014</ele>
        <time>2021-11-16T07:53:30.603Z</time>
      </trkpt>
      <trkpt lat="38.6715" lon="35.71871">
        <ele>1492.50636</ele>
        <time>2021-11-16T07:53:40.378Z</time>
      </trkpt>
      <trkpt lat="38.67144" lon="35.71843">
        <ele>1491.895848</ele>
        <time>2021-11-16T07:53:44.442Z</time>
      </trkpt>
      <trkpt lat="38.67149" lon="35.71782">
        <ele>1490.590116</ele>
        <time>2021-11-16T07:53:52.871Z</time>
      </trkpt>
      <trkpt lat="38.67171" lon="35.71739">
        <ele>1489.205865</ele>
        <time>2021-11-16T07:53:59.596Z</time>
      </trkpt>
      <trkpt lat="38.67192" lon="35.71695">
        <ele>1487.622694</ele>
        <time>2021-11-16T07:54:05.994Z</time>
      </trkpt>
      <trkpt lat="38.67208" lon="35.71668">
        <ele>1486.573603</ele>
        <time>2021-11-16T07:54:10.229Z</time>
      </trkpt>
      <trkpt lat="38.6723" lon="35.71654">
        <ele>1485.56612</ele>
        <time>2021-11-16T07:54:14.374Z</time>
      </trkpt>
      <trkpt lat="38.67245" lon="35.71625">
        <ele>1484.500569</ele>
        <time>2021-11-16T07:54:18.746Z</time>
      </trkpt>
      <trkpt lat="38.67252" lon="35.71586">
        <ele>1483.266764</ele>
        <time>2021-11-16T07:54:23.847Z</time>
      </trkpt>
      <trkpt lat="38.67258" lon="35.71565">
        <ele>1482.702059</ele>
        <time>2021-11-16T07:54:26.821Z</time>
      </trkpt>
      <trkpt lat="38.6726" lon="35.71555">
        <ele>1482.51481</ele>
        <time>2021-11-16T07:54:28.077Z</time>
      </trkpt>
      <trkpt lat="38.67274" lon="35.71539">
        <ele>1482.046626</ele>
        <time>2021-11-16T07:54:31.332Z</time>
      </trkpt>
      <trkpt lat="38.67316" lon="35.71516">
        <ele>1480.900613</ele>
        <time>2021-11-16T07:54:39.207Z</time>
      </trkpt>
      <trkpt lat="38.67336" lon="35.7149">
        <ele>1480.181644</ele>
        <time>2021-11-16T07:54:44.222Z</time>
      </trkpt>
      <trkpt lat="38.67347" lon="35.71476">
        <ele>1479.790063</ele>
        <time>2021-11-16T07:54:46.928Z</time>
      </trkpt>
      <trkpt lat="38.67386" lon="35.71427">
        <ele>1478.453682</ele>
        <time>2021-11-16T07:54:57.350Z</time>
      </trkpt>
      <trkpt lat="38.67456" lon="35.71342">
        <ele>1478.842097</ele>
        <time>2021-11-16T07:55:18.270Z</time>
      </trkpt>
      <trkpt lat="38.6746" lon="35.71337">
        <ele>1478.864822</ele>
        <time>2021-11-16T07:55:19.607Z</time>
      </trkpt>
      <trkpt lat="38.67615" lon="35.7114">
        <ele>1482.846144</ele>
        <time>2021-11-16T07:56:22.581Z</time>
      </trkpt>
      <trkpt lat="38.67725" lon="35.70979">
        <ele>1490.069215</ele>
        <time>2021-11-16T07:57:35.707Z</time>
      </trkpt>
      <trkpt lat="38.67785" lon="35.70905">
        <ele>1492.911053</ele>
        <time>2021-11-16T07:58:09.087Z</time>
      </trkpt>
      <trkpt lat="38.67809" lon="35.70875">
        <ele>1493.301051</ele>
        <time>2021-11-16T07:58:20.533Z</time>
      </trkpt>
      <trkpt lat="38.67996" lon="35.7065">
        <ele>1493.273051</ele>
        <time>2021-11-16T07:59:12.991Z</time>
      </trkpt>
      <trkpt lat="38.68075" lon="35.70535">
        <ele>1490.81249</ele>
        <time>2021-11-16T07:59:33.655Z</time>
      </trkpt>
      <trkpt lat="38.68104" lon="35.70481">
        <ele>1489.497976</ele>
        <time>2021-11-16T07:59:42.212Z</time>
      </trkpt>
      <trkpt lat="38.68153" lon="35.70336">
        <ele>1485.752688</ele>
        <time>2021-11-16T08:00:02.373Z</time>
      </trkpt>
      <trkpt lat="38.68171" lon="35.70259">
        <ele>1483.674068</ele>
        <time>2021-11-16T08:00:12.535Z</time>
      </trkpt>
      <trkpt lat="38.68181" lon="35.70199">
        <ele>1481.964868</ele>
        <time>2021-11-16T08:00:20.372Z</time>
      </trkpt>
      <trkpt lat="38.68181" lon="35.70059">
        <ele>1477.11072</ele>
        <time>2021-11-16T08:00:37.240Z</time>
      </trkpt>
      <trkpt lat="38.68179" lon="35.70008">
        <ele>1475.301469</ele>
        <time>2021-11-16T08:00:43.388Z</time>
      </trkpt>
      <trkpt lat="38.68178" lon="35.69974">
        <ele>1474.05243</ele>
        <time>2021-11-16T08:00:47.379Z</time>
      </trkpt>
      <trkpt lat="38.68173" lon="35.6984">
        <ele>1467.695504</ele>
        <time>2021-11-16T08:01:02.738Z</time>
      </trkpt>
      <trkpt lat="38.68172" lon="35.69766">
        <ele>1464.199123</ele>
        <time>2021-11-16T08:01:11.073Z</time>
      </trkpt>
      <trkpt lat="38.68162" lon="35.69669">
        <ele>1458.969466</ele>
        <time>2021-11-16T08:01:22.134Z</time>
      </trkpt>
      <trkpt lat="38.68148" lon="35.69589">
        <ele>1454.498251</ele>
        <time>2021-11-16T08:01:31.294Z</time>
      </trkpt>
      <trkpt lat="38.68127" lon="35.69511">
        <ele>1449.895089</ele>
        <time>2021-11-16T08:01:40.412Z</time>
      </trkpt>
      <trkpt lat="38.68099" lon="35.69423">
        <ele>1444.132694</ele>
        <time>2021-11-16T08:01:50.903Z</time>
      </trkpt>
      <trkpt lat="38.68085" lon="35.69389">
        <ele>1441.783304</ele>
        <time>2021-11-16T08:01:55.088Z</time>
      </trkpt>
      <trkpt lat="38.68077" lon="35.69351">
        <ele>1439.372749</ele>
        <time>2021-11-16T08:01:59.361Z</time>
      </trkpt>
      <trkpt lat="38.68078" lon="35.69313">
        <ele>1437.06397</ele>
        <time>2021-11-16T08:02:03.450Z</time>
      </trkpt>
      <trkpt lat="38.68087" lon="35.69283">
        <ele>1435.701775</ele>
        <time>2021-11-16T08:02:07.045Z</time>
      </trkpt>
      <trkpt lat="38.68103" lon="35.69258">
        <ele>1434.498989</ele>
        <time>2021-11-16T08:02:10.598Z</time>
      </trkpt>
      <trkpt lat="38.68117" lon="35.69233">
        <ele>1433.334166</ele>
        <time>2021-11-16T08:02:14.032Z</time>
      </trkpt>
      <trkpt lat="38.68127" lon="35.69198">
        <ele>1431.915919</ele>
        <time>2021-11-16T08:02:18.470Z</time>
      </trkpt>
      <trkpt lat="38.68133" lon="35.69157">
        <ele>1430.330346</ele>
        <time>2021-11-16T08:02:23.608Z</time>
      </trkpt>
      <trkpt lat="38.68135" lon="35.6914">
        <ele>1429.701888</ele>
        <time>2021-11-16T08:02:25.681Z</time>
      </trkpt>
      <trkpt lat="38.68138" lon="35.69113">
        <ele>1428.660683</ele>
        <time>2021-11-16T08:02:29.526Z</time>
      </trkpt>
      <trkpt lat="38.68138" lon="35.69085">
        <ele>1428.134095</ele>
        <time>2021-11-16T08:02:33.695Z</time>
      </trkpt>
      <trkpt lat="38.68131" lon="35.69071">
        <ele>1428.340758</ele>
        <time>2021-11-16T08:02:35.973Z</time>
      </trkpt>
      <trkpt lat="38.68104" lon="35.69045">
        <ele>1428.873493</ele>
        <time>2021-11-16T08:02:43.423Z</time>
      </trkpt>
      <trkpt lat="38.68097" lon="35.69029">
        <ele>1429.097889</ele>
        <time>2021-11-16T08:02:46.917Z</time>
      </trkpt>
      <trkpt lat="38.68102" lon="35.68987">
        <ele>1429.628431</ele>
        <time>2021-11-16T08:02:56.985Z</time>
      </trkpt>
      <trkpt lat="38.68108" lon="35.68968">
        <ele>1429.884045</ele>
        <time>2021-11-16T08:03:03.112Z</time>
      </trkpt>
      <trkpt lat="38.6812" lon="35.68924">
        <ele>1430.468843</ele>
        <time>2021-11-16T08:03:16.447Z</time>
      </trkpt>
      <trkpt lat="38.68129" lon="35.68893">
        <ele>1430.888346</ele>
        <time>2021-11-16T08:03:25.236Z</time>
      </trkpt>
      <trkpt lat="38.68134" lon="35.68853">
        <ele>1432.299137</ele>
        <time>2021-11-16T08:03:37.369Z</time>
      </trkpt>
      <trkpt lat="38.68126" lon="35.68815">
        <ele>1433.662304</ele>
        <time>2021-11-16T08:03:49.650Z</time>
      </trkpt>
      <trkpt lat="38.68102" lon="35.68715">
        <ele>1437.238477</ele>
        <time>2021-11-16T08:04:22.717Z</time>
      </trkpt>
      <trkpt lat="38.68064" lon="35.68554">
        <ele>1443.461585</ele>
        <time>2021-11-16T08:05:17.522Z</time>
      </trkpt>
      <trkpt lat="38.6804" lon="35.68476">
        <ele>1446.608756</ele>
        <time>2021-11-16T08:05:45.575Z</time>
      </trkpt>
      <trkpt lat="38.68031" lon="35.68446">
        <ele>1447.714796</ele>
        <time>2021-11-16T08:05:55.853Z</time>
      </trkpt>
      <trkpt lat="38.68005" lon="35.68373">
        <ele>1449.900401</ele>
        <time>2021-11-16T08:06:20.045Z</time>
      </trkpt>
      <trkpt lat="38.67994" lon="35.68342">
        <ele>1450.844614</ele>
        <time>2021-11-16T08:06:30.252Z</time>
      </trkpt>
      <trkpt lat="38.67988" lon="35.68327">
        <ele>1451.292084</ele>
        <time>2021-11-16T08:06:34.740Z</time>
      </trkpt>
      <trkpt lat="38.67975" lon="35.68296">
        <ele>1452.238168</ele>
        <time>2021-11-16T08:06:44.060Z</time>
      </trkpt>
      <trkpt lat="38.67933" lon="35.68211">
        <ele>1454.423714</ele>
        <time>2021-11-16T08:07:08.814Z</time>
      </trkpt>
      <trkpt lat="38.6792" lon="35.68181">
        <ele>1454.935646</ele>
        <time>2021-11-16T08:07:17.292Z</time>
      </trkpt>
      <trkpt lat="38.67916" lon="35.68169">
        <ele>1455.130657</ele>
        <time>2021-11-16T08:07:20.151Z</time>
      </trkpt>
      <trkpt lat="38.67896" lon="35.68128">
        <ele>1455.849054</ele>
        <time>2021-11-16T08:07:30.896Z</time>
      </trkpt>
      <trkpt lat="38.67671" lon="35.67668">
        <ele>1463.243937</ele>
        <time>2021-11-16T08:09:33.985Z</time>
      </trkpt>
      <trkpt lat="38.67654" lon="35.67634">
        <ele>1463.50985</ele>
        <time>2021-11-16T08:09:43.871Z</time>
      </trkpt>
      <trkpt lat="38.6763" lon="35.67583">
        <ele>1463.802193</ele>
        <time>2021-11-16T08:09:56.937Z</time>
      </trkpt>
      <trkpt lat="38.67603" lon="35.67531">
        <ele>1464.110524</ele>
        <time>2021-11-16T08:10:09.848Z</time>
      </trkpt>
      <trkpt lat="38.67572" lon="35.67468">
        <ele>1464.478226</ele>
        <time>2021-11-16T08:10:22.776Z</time>
      </trkpt>
      <trkpt lat="38.67294" lon="35.66896">
        <ele>1452.14354</ele>
        <time>2021-11-16T08:11:51.432Z</time>
      </trkpt>
      <trkpt lat="38.67209" lon="35.667">
        <ele>1451.093442</ele>
        <time>2021-11-16T08:12:28.798Z</time>
      </trkpt>
      <trkpt lat="38.67196" lon="35.66666">
        <ele>1450.945517</ele>
        <time>2021-11-16T08:12:35.528Z</time>
      </trkpt>
      <trkpt lat="38.67187" lon="35.66645">
        <ele>1450.84043</ele>
        <time>2021-11-16T08:12:39.652Z</time>
      </trkpt>
      <trkpt lat="38.67178" lon="35.66621">
        <ele>1450.719478</ele>
        <time>2021-11-16T08:12:44.136Z</time>
      </trkpt>
      <trkpt lat="38.67115" lon="35.66466">
        <ele>1449.910718</ele>
        <time>2021-11-16T08:13:11.267Z</time>
      </trkpt>
      <trkpt lat="38.66954" lon="35.66112">
        <ele>1447.102843</ele>
        <time>2021-11-16T08:14:12.438Z</time>
      </trkpt>
      <trkpt lat="38.6694" lon="35.66058">
        <ele>1446.978282</ele>
        <time>2021-11-16T08:14:22.963Z</time>
      </trkpt>
      <trkpt lat="38.66944" lon="35.66027">
        <ele>1447.20323</ele>
        <time>2021-11-16T08:14:29.058Z</time>
      </trkpt>
      <trkpt lat="38.66951" lon="35.66013">
        <ele>1447.323839</ele>
        <time>2021-11-16T08:14:32.447Z</time>
      </trkpt>
      <trkpt lat="38.67039" lon="35.6586">
        <ele>1448.493475</ele>
        <time>2021-11-16T08:15:13.453Z</time>
      </trkpt>
      <trkpt lat="38.67119" lon="35.65687">
        <ele>1448.041938</ele>
        <time>2021-11-16T08:15:47.240Z</time>
      </trkpt>
      <trkpt lat="38.67142" lon="35.65649">
        <ele>1447.115932</ele>
        <time>2021-11-16T08:15:53.474Z</time>
      </trkpt>
      <trkpt lat="38.67159" lon="35.65624">
        <ele>1446.389188</ele>
        <time>2021-11-16T08:15:57.877Z</time>
      </trkpt>
      <trkpt lat="38.67176" lon="35.65585">
        <ele>1445.397905</ele>
        <time>2021-11-16T08:16:03.577Z</time>
      </trkpt>
      <trkpt lat="38.67176" lon="35.65573">
        <ele>1445.130778</ele>
        <time>2021-11-16T08:16:05.023Z</time>
      </trkpt>
      <trkpt lat="38.67176" lon="35.6557">
        <ele>1445.057413</ele>
        <time>2021-11-16T08:16:05.384Z</time>
      </trkpt>
      <trkpt lat="38.67171" lon="35.6554">
        <ele>1444.369147</ele>
        <time>2021-11-16T08:16:09.452Z</time>
      </trkpt>
      <trkpt lat="38.67168" lon="35.65522">
        <ele>1443.976998</ele>
        <time>2021-11-16T08:16:11.535Z</time>
      </trkpt>
      <trkpt lat="38.67181" lon="35.65482">
        <ele>1443.007351</ele>
        <time>2021-11-16T08:16:16.912Z</time>
      </trkpt>
      <trkpt lat="38.67244" lon="35.65261">
        <ele>1438.978986</ele>
        <time>2021-11-16T08:16:48.783Z</time>
      </trkpt>
      <trkpt lat="38.67281" lon="35.65142">
        <ele>1438.10475</ele>
        <time>2021-11-16T08:17:09.280Z</time>
      </trkpt>
      <trkpt lat="38.6739" lon="35.64799">
        <ele>1434.96845</ele>
        <time>2021-11-16T08:18:05.823Z</time>
      </trkpt>
      <trkpt lat="38.67511" lon="35.64422">
        <ele>1426.346977</ele>
        <time>2021-11-16T08:18:59.060Z</time>
      </trkpt>
      <trkpt lat="38.67536" lon="35.64346">
        <ele>1424.137755</ele>
        <time>2021-11-16T08:19:08.920Z</time>
      </trkpt>
      <trkpt lat="38.67548" lon="35.64307">
        <ele>1422.987432</ele>
        <time>2021-11-16T08:19:13.975Z</time>
      </trkpt>
      <trkpt lat="38.67579" lon="35.64213">
        <ele>1420.142914</ele>
        <time>2021-11-16T08:19:26.598Z</time>
      </trkpt>
      <trkpt lat="38.67652" lon="35.63988">
        <ele>1417.246201</ele>
        <time>2021-11-16T08:20:01.966Z</time>
      </trkpt>
      <trkpt lat="38.67705" lon="35.6382">
        <ele>1417.121597</ele>
        <time>2021-11-16T08:20:33.933Z</time>
      </trkpt>
      <trkpt lat="38.67758" lon="35.63655">
        <ele>1416.814118</ele>
        <time>2021-11-16T08:21:06.029Z</time>
      </trkpt>
      <trkpt lat="38.67835" lon="35.63412">
        <ele>1414.959645</ele>
        <time>2021-11-16T08:21:46.248Z</time>
      </trkpt>
      <trkpt lat="38.67995" lon="35.62919">
        <ele>1407.091466</ele>
        <time>2021-11-16T08:22:58.472Z</time>
      </trkpt>
      <trkpt lat="38.68046" lon="35.62757">
        <ele>1407.682749</ele>
        <time>2021-11-16T08:23:33.098Z</time>
      </trkpt>
      <trkpt lat="38.68084" lon="35.62636">
        <ele>1407.681674</ele>
        <time>2021-11-16T08:23:59.775Z</time>
      </trkpt>
      <trkpt lat="38.68161" lon="35.62395">
        <ele>1406.041203</ele>
        <time>2021-11-16T08:24:38.952Z</time>
      </trkpt>
      <trkpt lat="38.68189" lon="35.62321">
        <ele>1405.096417</ele>
        <time>2021-11-16T08:24:50.341Z</time>
      </trkpt>
      <trkpt lat="38.68263" lon="35.62169">
        <ele>1402.6675</ele>
        <time>2021-11-16T08:25:15.295Z</time>
      </trkpt>
      <trkpt lat="38.68309" lon="35.62094">
        <ele>1401.305522</ele>
        <time>2021-11-16T08:25:28.562Z</time>
      </trkpt>
      <trkpt lat="38.6837" lon="35.62015">
        <ele>1399.909348</ele>
        <time>2021-11-16T08:25:44.063Z</time>
      </trkpt>
      <trkpt lat="38.68414" lon="35.61967">
        <ele>1398.976331</ele>
        <time>2021-11-16T08:25:54.554Z</time>
      </trkpt>
      <trkpt lat="38.68507" lon="35.6188">
        <ele>1397.904224</ele>
        <time>2021-11-16T08:26:16.442Z</time>
      </trkpt>
      <trkpt lat="38.6866" lon="35.61768">
        <ele>1397.370101</ele>
        <time>2021-11-16T08:26:54.530Z</time>
      </trkpt>
      <trkpt lat="38.68665" lon="35.61758">
        <ele>1397.380364</ele>
        <time>2021-11-16T08:26:56.668Z</time>
      </trkpt>
      <trkpt lat="38.68668" lon="35.61759">
        <ele>1397.384201</ele>
        <time>2021-11-16T08:26:57.434Z</time>
      </trkpt>
      <trkpt lat="38.68678" lon="35.61757">
        <ele>1397.395633</ele>
        <time>2021-11-16T08:26:59.860Z</time>
      </trkpt>
      <trkpt lat="38.68684" lon="35.61746">
        <ele>1397.406986</ele>
        <time>2021-11-16T08:27:02.312Z</time>
      </trkpt>
      <trkpt lat="38.68685" lon="35.61742">
        <ele>1397.410861</ele>
        <time>2021-11-16T08:27:03.115Z</time>
      </trkpt>
      <trkpt lat="38.68689" lon="35.61747">
        <ele>1397.41734</ele>
        <time>2021-11-16T08:27:04.433Z</time>
      </trkpt>
      <trkpt lat="38.68788" lon="35.61666">
        <ele>1397.133071</ele>
        <time>2021-11-16T08:27:32.190Z</time>
      </trkpt>
      <trkpt lat="38.6887" lon="35.61601">
        <ele>1396.511039</ele>
        <time>2021-11-16T08:27:52.482Z</time>
      </trkpt>
      <trkpt lat="38.69833" lon="35.60869">
        <ele>1367.382648</ele>
        <time>2021-11-16T08:31:00.992Z</time>
      </trkpt>
      <trkpt lat="38.70064" lon="35.60691">
        <ele>1356.281546</ele>
        <time>2021-11-16T08:31:42.442Z</time>
      </trkpt>
      <trkpt lat="38.70101" lon="35.60662">
        <ele>1354.572473</ele>
        <time>2021-11-16T08:31:49.271Z</time>
      </trkpt>
      <trkpt lat="38.70229" lon="35.60563">
        <ele>1350.364444</ele>
        <time>2021-11-16T08:32:14.074Z</time>
      </trkpt>
      <trkpt lat="38.70292" lon="35.60517">
        <ele>1348.591848</ele>
        <time>2021-11-16T08:32:27.109Z</time>
      </trkpt>
      <trkpt lat="38.70457" lon="35.60409">
        <ele>1344.788146</ele>
        <time>2021-11-16T08:33:00.202Z</time>
      </trkpt>
      <trkpt lat="38.70703" lon="35.60243">
        <ele>1334.574276</ele>
        <time>2021-11-16T08:33:45.235Z</time>
      </trkpt>
      <trkpt lat="38.71145" lon="35.59945">
        <ele>1303.556312</ele>
        <time>2021-11-16T08:34:57.630Z</time>
      </trkpt>
      <trkpt lat="38.71154" lon="35.59939">
        <ele>1302.876936</ele>
        <time>2021-11-16T08:34:58.985Z</time>
      </trkpt>
      <trkpt lat="38.71446" lon="35.59748">
        <ele>1278.897657</ele>
        <time>2021-11-16T08:35:45.895Z</time>
      </trkpt>
      <trkpt lat="38.71645" lon="35.59627">
        <ele>1260.528735</ele>
        <time>2021-11-16T08:36:15.847Z</time>
      </trkpt>
      <trkpt lat="38.7206" lon="35.59374">
        <ele>1230.230972</ele>
        <time>2021-11-16T08:37:22.940Z</time>
      </trkpt>
      <trkpt lat="38.72172" lon="35.59304">
        <ele>1225.018241</ele>
        <time>2021-11-16T08:37:42.854Z</time>
      </trkpt>
      <trkpt lat="38.72171" lon="35.59298">
        <ele>1224.828146</ele>
        <time>2021-11-16T08:37:43.499Z</time>
      </trkpt>
      <trkpt lat="38.72173" lon="35.59299">
        <ele>1224.752355</ele>
        <time>2021-11-16T08:37:43.768Z</time>
      </trkpt>
      <trkpt lat="38.72186" lon="35.5929">
        <ele>1224.162585</ele>
        <time>2021-11-16T08:37:46.015Z</time>
      </trkpt>
      <trkpt lat="38.72187" lon="35.59285">
        <ele>1224.010797</ele>
        <time>2021-11-16T08:37:46.590Z</time>
      </trkpt>
      <trkpt lat="38.72196" lon="35.59287">
        <ele>1223.609817</ele>
        <time>2021-11-16T08:37:48.397Z</time>
      </trkpt>
      <trkpt lat="38.72224" lon="35.59272">
        <ele>1222.269201</ele>
        <time>2021-11-16T08:37:53.087Z</time>
      </trkpt>
      <trkpt lat="38.72405" lon="35.59148">
        <ele>1212.509462</ele>
        <time>2021-11-16T08:38:24.294Z</time>
      </trkpt>
      <trkpt lat="38.72466" lon="35.59098">
        <ele>1208.761961</ele>
        <time>2021-11-16T08:38:35.123Z</time>
      </trkpt>
      <trkpt lat="38.72505" lon="35.59058">
        <ele>1206.168737</ele>
        <time>2021-11-16T08:38:42.624Z</time>
      </trkpt>
      <trkpt lat="38.72563" lon="35.58994">
        <ele>1202.679186</ele>
        <time>2021-11-16T08:38:54.102Z</time>
      </trkpt>
      <trkpt lat="38.72586" lon="35.58966">
        <ele>1201.292049</ele>
        <time>2021-11-16T08:38:58.859Z</time>
      </trkpt>
      <trkpt lat="38.72618" lon="35.58915">
        <ele>1199.046484</ele>
        <time>2021-11-16T08:39:06.698Z</time>
      </trkpt>
      <trkpt lat="38.72688" lon="35.58806">
        <ele>1195.951045</ele>
        <time>2021-11-16T08:39:25.190Z</time>
      </trkpt>
      <trkpt lat="38.72701" lon="35.58811">
        <ele>1195.667906</ele>
        <time>2021-11-16T08:39:27.857Z</time>
      </trkpt>
      <trkpt lat="38.72726" lon="35.58811">
        <ele>1195.152912</ele>
        <time>2021-11-16T08:39:32.505Z</time>
      </trkpt>
      <trkpt lat="38.72771" lon="35.58812">
        <ele>1194.211844</ele>
        <time>2021-11-16T08:39:41.476Z</time>
      </trkpt>
      <trkpt lat="38.72815" lon="35.58813">
        <ele>1193.308781</ele>
        <time>2021-11-16T08:39:50.089Z</time>
      </trkpt>
      <trkpt lat="38.72814" lon="35.58777">
        <ele>1192.725362</ele>
        <time>2021-11-16T08:39:55.227Z</time>
      </trkpt>
      <trkpt lat="38.72814" lon="35.5872">
        <ele>1191.784693</ele>
        <time>2021-11-16T08:40:03.715Z</time>
      </trkpt>
      <trkpt lat="38.72813" lon="35.58666">
        <ele>1190.909565</ele>
        <time>2021-11-16T08:40:11.218Z</time>
      </trkpt>
      <trkpt lat="38.72808" lon="35.58624">
        <ele>1190.209421</ele>
        <time>2021-11-16T08:40:17.064Z</time>
      </trkpt>
      <trkpt lat="38.72806" lon="35.58606">
        <ele>1189.887971</ele>
        <time>2021-11-16T08:40:19.571Z</time>
      </trkpt>
      <trkpt lat="38.72812" lon="35.58596">
        <ele>1189.654013</ele>
        <time>2021-11-16T08:40:21.060Z</time>
      </trkpt>
      <trkpt lat="38.72877" lon="35.58488">
        <ele>1187.039726</ele>
        <time>2021-11-16T08:40:38.632Z</time>
      </trkpt>
      <trkpt lat="38.72953" lon="35.58373">
        <ele>1184.97307</ele>
        <time>2021-11-16T08:41:00.138Z</time>
      </trkpt>
      <trkpt lat="38.72972" lon="35.58345">
        <ele>1184.654602</ele>
        <time>2021-11-16T08:41:05.891Z</time>
      </trkpt>
      <trkpt lat="38.72976" lon="35.58341">
        <ele>1184.605035</ele>
        <time>2021-11-16T08:41:06.894Z</time>
      </trkpt>
      <trkpt lat="38.72981" lon="35.58328">
        <ele>1184.477683</ele>
        <time>2021-11-16T08:41:09.179Z</time>
      </trkpt>
      <trkpt lat="38.72981" lon="35.58324">
        <ele>1184.44482</ele>
        <time>2021-11-16T08:41:09.863Z</time>
      </trkpt>
      <trkpt lat="38.73036" lon="35.58231">
        <ele>1183.351929</ele>
        <time>2021-11-16T08:41:28.206Z</time>
      </trkpt>
      <trkpt lat="38.73163" lon="35.58014">
        <ele>1178.471627</ele>
        <time>2021-11-16T08:42:05.894Z</time>
      </trkpt>
      <trkpt lat="38.7318" lon="35.5803">
        <ele>1177.538728</ele>
        <time>2021-11-16T08:42:09.362Z</time>
      </trkpt>
      <trkpt lat="38.73265" lon="35.57889">
        <ele>1171.018733</ele>
        <time>2021-11-16T08:42:30.891Z</time>
      </trkpt>
      <trkpt lat="38.73346" lon="35.57747">
        <ele>1163.12968</ele>
        <time>2021-11-16T08:42:51.787Z</time>
      </trkpt>
      <trkpt lat="38.73388" lon="35.5767">
        <ele>1160.227966</ele>
        <time>2021-11-16T08:43:03.935Z</time>
      </trkpt>
      <trkpt lat="38.73408" lon="35.57647">
        <ele>1159.267565</ele>
        <time>2021-11-16T08:43:08.472Z</time>
      </trkpt>
      <trkpt lat="38.73434" lon="35.57603">
        <ele>1157.738603</ele>
        <time>2021-11-16T08:43:15.843Z</time>
      </trkpt>
      <trkpt lat="38.73425" lon="35.57576">
        <ele>1156.928661</ele>
        <time>2021-11-16T08:43:19.759Z</time>
      </trkpt>
      <trkpt lat="38.73429" lon="35.57573">
        <ele>1156.77151</ele>
        <time>2021-11-16T08:43:20.508Z</time>
      </trkpt>
      <trkpt lat="38.73432" lon="35.57564">
        <ele>1156.481452</ele>
        <time>2021-11-16T08:43:21.913Z</time>
      </trkpt>
      <trkpt lat="38.73432" lon="35.57558">
        <ele>1156.334605</ele>
        <time>2021-11-16T08:43:22.611Z</time>
      </trkpt>
      <trkpt lat="38.73431" lon="35.57553">
        <ele>1156.187458</ele>
        <time>2021-11-16T08:43:23.312Z</time>
      </trkpt>
      <trkpt lat="38.73421" lon="35.57545">
        <ele>1155.816773</ele>
        <time>2021-11-16T08:43:25.323Z</time>
      </trkpt>
      <trkpt lat="38.73416" lon="35.57545">
        <ele>1155.700946</ele>
        <time>2021-11-16T08:43:26.037Z</time>
      </trkpt>
      <trkpt lat="38.73386" lon="35.57417">
        <ele>1152.838024</ele>
        <time>2021-11-16T08:43:44.916Z</time>
      </trkpt>
      <trkpt lat="38.73394" lon="35.57416">
        <ele>1152.618522</ele>
        <time>2021-11-16T08:43:46.265Z</time>
      </trkpt>
      <trkpt lat="38.73402" lon="35.57415">
        <ele>1152.39738</ele>
        <time>2021-11-16T08:43:47.590Z</time>
      </trkpt>
      <trkpt lat="38.7342" lon="35.57414">
        <ele>1151.911125</ele>
        <time>2021-11-16T08:43:50.497Z</time>
      </trkpt>
      <trkpt lat="38.73422" lon="35.57375">
        <ele>1151.066621</ele>
        <time>2021-11-16T08:43:55.674Z</time>
      </trkpt>
      <trkpt lat="38.73424" lon="35.57304">
        <ele>1148.554748</ele>
        <time>2021-11-16T08:44:04.659Z</time>
      </trkpt>
      <trkpt lat="38.73424" lon="35.57279">
        <ele>1147.663448</ele>
        <time>2021-11-16T08:44:07.807Z</time>
      </trkpt>
      <trkpt lat="38.73423" lon="35.57231">
        <ele>1145.922988</ele>
        <time>2021-11-16T08:44:13.915Z</time>
      </trkpt>
      <trkpt lat="38.73427" lon="35.57152">
        <ele>1143.099343</ele>
        <time>2021-11-16T08:44:23.711Z</time>
      </trkpt>
      <trkpt lat="38.73427" lon="35.57115">
        <ele>1141.333553</ele>
        <time>2021-11-16T08:44:28.120Z</time>
      </trkpt>
      <trkpt lat="38.7342" lon="35.5697">
        <ele>1133.751321</ele>
        <time>2021-11-16T08:44:45.283Z</time>
      </trkpt>
      <trkpt lat="38.73415" lon="35.56921">
        <ele>1131.187028</ele>
        <time>2021-11-16T08:44:50.983Z</time>
      </trkpt>
      <trkpt lat="38.73408" lon="35.56915">
        <ele>1130.567564</ele>
        <time>2021-11-16T08:44:52.307Z</time>
      </trkpt>
      <trkpt lat="38.73401" lon="35.5691">
        <ele>1129.931592</ele>
        <time>2021-11-16T08:44:53.596Z</time>
      </trkpt>
      <trkpt lat="38.73396" lon="35.56908">
        <ele>1129.555425</ele>
        <time>2021-11-16T08:44:54.324Z</time>
      </trkpt>
      <trkpt lat="38.73393" lon="35.56906">
        <ele>1129.297504</ele>
        <time>2021-11-16T08:44:54.775Z</time>
      </trkpt>
      <trkpt lat="38.73382" lon="35.56904">
        <ele>1128.440683</ele>
        <time>2021-11-16T08:44:56.428Z</time>
      </trkpt>
      <trkpt lat="38.73382" lon="35.56896">
        <ele>1127.952473</ele>
        <time>2021-11-16T08:44:57.359Z</time>
      </trkpt>
      <trkpt lat="38.73434" lon="35.56829">
        <ele>1122.248997</ele>
        <time>2021-11-16T08:45:08.199Z</time>
      </trkpt>
      <trkpt lat="38.73447" lon="35.56803">
        <ele>1120.405728</ele>
        <time>2021-11-16T08:45:11.636Z</time>
      </trkpt>
      <trkpt lat="38.73448" lon="35.56794">
        <ele>1119.837915</ele>
        <time>2021-11-16T08:45:12.694Z</time>
      </trkpt>
      <trkpt lat="38.73457" lon="35.56754">
        <ele>1117.340969</ele>
        <time>2021-11-16T08:45:17.500Z</time>
      </trkpt>
      <trkpt lat="38.73485" lon="35.56709">
        <ele>1115.05382</ele>
        <time>2021-11-16T08:45:24.461Z</time>
      </trkpt>
      <trkpt lat="38.73487" lon="35.56695">
        <ele>1114.553924</ele>
        <time>2021-11-16T08:45:26.224Z</time>
      </trkpt>
      <trkpt lat="38.7349" lon="35.56689">
        <ele>1114.301997</ele>
        <time>2021-11-16T08:45:26.978Z</time>
      </trkpt>
      <trkpt lat="38.73492" lon="35.56683">
        <ele>1114.051702</ele>
        <time>2021-11-16T08:45:27.822Z</time>
      </trkpt>
      <trkpt lat="38.73581" lon="35.56609">
        <ele>1109.071225</ele>
        <time>2021-11-16T08:45:45.084Z</time>
      </trkpt>
      <trkpt lat="38.73705" lon="35.56536">
        <ele>1105.51382</ele>
        <time>2021-11-16T08:46:09.917Z</time>
      </trkpt>
      <trkpt lat="38.73719" lon="35.56521">
        <ele>1105.096587</ele>
        <time>2021-11-16T08:46:13.221Z</time>
      </trkpt>
      <trkpt lat="38.73732" lon="35.56507">
        <ele>1104.680685</ele>
        <time>2021-11-16T08:46:16.423Z</time>
      </trkpt>
      <trkpt lat="38.73755" lon="35.56476">
        <ele>1103.841313</ele>
        <time>2021-11-16T08:46:22.587Z</time>
      </trkpt>
      <trkpt lat="38.73781" lon="35.56446">
        <ele>1102.877899</ele>
        <time>2021-11-16T08:46:28.757Z</time>
      </trkpt>
      <trkpt lat="38.73828" lon="35.5638">
        <ele>1100.974372</ele>
        <time>2021-11-16T08:46:40.693Z</time>
      </trkpt>
      <trkpt lat="38.73836" lon="35.56365">
        <ele>1100.573902</ele>
        <time>2021-11-16T08:46:43.212Z</time>
      </trkpt>
      <trkpt lat="38.73847" lon="35.56344">
        <ele>1100.032145</ele>
        <time>2021-11-16T08:46:46.574Z</time>
      </trkpt>
      <trkpt lat="38.73862" lon="35.56327">
        <ele>1099.473253</ele>
        <time>2021-11-16T08:46:50.128Z</time>
      </trkpt>
      <trkpt lat="38.73856" lon="35.563">
        <ele>1098.988288</ele>
        <time>2021-11-16T08:46:53.736Z</time>
      </trkpt>
      <trkpt lat="38.73868" lon="35.56268">
        <ele>1098.45491</ele>
        <time>2021-11-16T08:46:58.747Z</time>
      </trkpt>
      <trkpt lat="38.73885" lon="35.56228">
        <ele>1097.769644</ele>
        <time>2021-11-16T08:47:05.127Z</time>
      </trkpt>
      <trkpt lat="38.73861" lon="35.56217">
        <ele>1097.291012</ele>
        <time>2021-11-16T08:47:09.614Z</time>
      </trkpt>
      <trkpt lat="38.73846" lon="35.56185">
        <ele>1096.736116</ele>
        <time>2021-11-16T08:47:14.789Z</time>
      </trkpt>
      <trkpt lat="38.73847" lon="35.56179">
        <ele>1096.638255</ele>
        <time>2021-11-16T08:47:15.756Z</time>
      </trkpt>
      <trkpt lat="38.73851" lon="35.56073">
        <ele>1096.388021</ele>
        <time>2021-11-16T08:47:33.293Z</time>
      </trkpt>
      <trkpt lat="38.73861" lon="35.56044">
        <ele>1096.791666</ele>
        <time>2021-11-16T08:47:40.394Z</time>
      </trkpt>
      <trkpt lat="38.73884" lon="35.5601">
        <ele>1097.360908</ele>
        <time>2021-11-16T08:47:50.819Z</time>
      </trkpt>
      <trkpt lat="38.73886" lon="35.56007">
        <ele>1097.409185</ele>
        <time>2021-11-16T08:47:51.488Z</time>
      </trkpt>
      <trkpt lat="38.73888" lon="35.56004">
        <ele>1097.465507</ele>
        <time>2021-11-16T08:47:52.596Z</time>
      </trkpt>
      <trkpt lat="38.73894" lon="35.55987">
        <ele>1097.696105</ele>
        <time>2021-11-16T08:47:57.226Z</time>
      </trkpt>
      <trkpt lat="38.73897" lon="35.55978">
        <ele>1097.822262</ele>
        <time>2021-11-16T08:47:59.789Z</time>
      </trkpt>
      <trkpt lat="38.73898" lon="35.55968">
        <ele>1097.948198</ele>
        <time>2021-11-16T08:48:03.729Z</time>
      </trkpt>
      <trkpt lat="38.739" lon="35.55824">
        <ele>1100.161202</ele>
        <time>2021-11-16T08:48:43.060Z</time>
      </trkpt>
      <trkpt lat="38.73901" lon="35.55781">
        <ele>1100.906874</ele>
        <time>2021-11-16T08:48:55.172Z</time>
      </trkpt>
      <trkpt lat="38.73904" lon="35.55781">
        <ele>1100.984899</ele>
        <time>2021-11-16T08:48:56.005Z</time>
      </trkpt>
      <trkpt lat="38.73907" lon="35.55781">
        <ele>1101.060749</ele>
        <time>2021-11-16T08:48:57.358Z</time>
      </trkpt>
      <trkpt lat="38.73911" lon="35.55779">
        <ele>1101.137977</ele>
        <time>2021-11-16T08:48:58.054Z</time>
      </trkpt>
      <trkpt lat="38.73913" lon="35.55775">
        <ele>1101.214585</ele>
        <time>2021-11-16T08:48:59.324Z</time>
      </trkpt>
      <trkpt lat="38.73915" lon="35.55763">
        <ele>1101.439001</ele>
        <time>2021-11-16T08:49:02.084Z</time>
      </trkpt>
      <trkpt lat="38.73907" lon="35.55753">
        <ele>1101.662908</ele>
        <time>2021-11-16T08:49:05.110Z</time>
      </trkpt>
      <trkpt lat="38.73904" lon="35.55753">
        <ele>1101.738758</ele>
        <time>2021-11-16T08:49:06.175Z</time>
      </trkpt>
      <trkpt lat="38.73901" lon="35.55753">
        <ele>1101.816783</ele>
        <time>2021-11-16T08:49:07.224Z</time>
      </trkpt>
      <trkpt lat="38.73897" lon="35.55755">
        <ele>1101.893223</ele>
        <time>2021-11-16T08:49:08.255Z</time>
      </trkpt>
      <trkpt lat="38.73897" lon="35.55732">
        <ele>1102.293631</ele>
        <time>2021-11-16T08:49:13.097Z</time>
      </trkpt>
      <trkpt lat="38.739" lon="35.55657">
        <ele>1102.69266</ele>
        <time>2021-11-16T08:49:28.577Z</time>
      </trkpt>
      <trkpt lat="38.73915" lon="35.55527">
        <ele>1102.741053</ele>
        <time>2021-11-16T08:49:50.907Z</time>
      </trkpt>
      <trkpt lat="38.73911" lon="35.5543">
        <ele>1102.2938</ele>
        <time>2021-11-16T08:50:08.375Z</time>
      </trkpt>
      <trkpt lat="38.73909" lon="35.5541">
        <ele>1102.10807</ele>
        <time>2021-11-16T08:50:11.615Z</time>
      </trkpt>
      <trkpt lat="38.73906" lon="35.55389">
        <ele>1101.906505</ele>
        <time>2021-11-16T08:50:15.180Z</time>
      </trkpt>
      <trkpt lat="38.73894" lon="35.55301">
        <ele>1101.087375</ele>
        <time>2021-11-16T08:50:28.724Z</time>
      </trkpt>
      <trkpt lat="38.73893" lon="35.55294">
        <ele>1101.023801</ele>
        <time>2021-11-16T08:50:29.941Z</time>
      </trkpt>
      <trkpt lat="38.73888" lon="35.55259">
        <ele>1100.695093</ele>
        <time>2021-11-16T08:50:34.945Z</time>
      </trkpt>
      <trkpt lat="38.73874" lon="35.55158">
        <ele>1098.309288</ele>
        <time>2021-11-16T08:50:49.290Z</time>
      </trkpt>
      <trkpt lat="38.7386" lon="35.55073">
        <ele>1096.220584</ele>
        <time>2021-11-16T08:51:00.734Z</time>
      </trkpt>
      <trkpt lat="38.73858" lon="35.55056">
        <ele>1095.821616</ele>
        <time>2021-11-16T08:51:02.846Z</time>
      </trkpt>
      <trkpt lat="38.73852" lon="35.5502">
        <ele>1094.911811</ele>
        <time>2021-11-16T08:51:07.607Z</time>
      </trkpt>
      <trkpt lat="38.73847" lon="35.54987">
        <ele>1094.017346</ele>
        <time>2021-11-16T08:51:11.923Z</time>
      </trkpt>
      <trkpt lat="38.73836" lon="35.54908">
        <ele>1091.875052</ele>
        <time>2021-11-16T08:51:22.441Z</time>
      </trkpt>
      <trkpt lat="38.73829" lon="35.54863">
        <ele>1090.666427</ele>
        <time>2021-11-16T08:51:28.559Z</time>
      </trkpt>
      <trkpt lat="38.73822" lon="35.54811">
        <ele>1089.264992</ele>
        <time>2021-11-16T08:51:35.735Z</time>
      </trkpt>
      <trkpt lat="38.7382" lon="35.54795">
        <ele>1088.825871</ele>
        <time>2021-11-16T08:51:37.893Z</time>
      </trkpt>
      <trkpt lat="38.73811" lon="35.54724">
        <ele>1086.882165</ele>
        <time>2021-11-16T08:51:47.478Z</time>
      </trkpt>
      <trkpt lat="38.73805" lon="35.54675">
        <ele>1085.554839</ele>
        <time>2021-11-16T08:51:53.839Z</time>
      </trkpt>
      <trkpt lat="38.73796" lon="35.54602">
        <ele>1083.556396</ele>
        <time>2021-11-16T08:52:03.564Z</time>
      </trkpt>
      <trkpt lat="38.73788" lon="35.54533">
        <ele>1081.758112</ele>
        <time>2021-11-16T08:52:12.718Z</time>
      </trkpt>
      <trkpt lat="38.73782" lon="35.54481">
        <ele>1080.420292</ele>
        <time>2021-11-16T08:52:19.694Z</time>
      </trkpt>
      <trkpt lat="38.73778" lon="35.5445">
        <ele>1079.638341</ele>
        <time>2021-11-16T08:52:23.586Z</time>
      </trkpt>
      <trkpt lat="38.73766" lon="35.54368">
        <ele>1077.528857</ele>
        <time>2021-11-16T08:52:34.067Z</time>
      </trkpt>
      <trkpt lat="38.73749" lon="35.54248">
        <ele>1075.823797</ele>
        <time>2021-11-16T08:52:50.492Z</time>
      </trkpt>
      <trkpt lat="38.73742" lon="35.54195">
        <ele>1075.221164</ele>
        <time>2021-11-16T08:52:58.291Z</time>
      </trkpt>
      <trkpt lat="38.73736" lon="35.54146">
        <ele>1074.665114</ele>
        <time>2021-11-16T08:53:06.150Z</time>
      </trkpt>
      <trkpt lat="38.73726" lon="35.54074">
        <ele>1074.353828</ele>
        <time>2021-11-16T08:53:18.563Z</time>
      </trkpt>
      <trkpt lat="38.73725" lon="35.54068">
        <ele>1074.356108</ele>
        <time>2021-11-16T08:53:19.544Z</time>
      </trkpt>
      <trkpt lat="38.73719" lon="35.54021">
        <ele>1074.374363</ele>
        <time>2021-11-16T08:53:28.027Z</time>
      </trkpt>
      <trkpt lat="38.73716" lon="35.54004">
        <ele>1074.381085</ele>
        <time>2021-11-16T08:53:31.360Z</time>
      </trkpt>
      <trkpt lat="38.73714" lon="35.53987">
        <ele>1074.38759</ele>
        <time>2021-11-16T08:53:34.699Z</time>
      </trkpt>
      <trkpt lat="38.73708" lon="35.53944">
        <ele>1074.404106</ele>
        <time>2021-11-16T08:53:42.919Z</time>
      </trkpt>
      <trkpt lat="38.73702" lon="35.53902">
        <ele>1074.420464</ele>
        <time>2021-11-16T08:53:50.675Z</time>
      </trkpt>
      <trkpt lat="38.73701" lon="35.53891">
        <ele>1074.424717</ele>
        <time>2021-11-16T08:53:52.545Z</time>
      </trkpt>
      <trkpt lat="38.73684" lon="35.5377">
        <ele>1073.717294</ele>
        <time>2021-11-16T08:54:12.103Z</time>
      </trkpt>
      <trkpt lat="38.73679" lon="35.53732">
        <ele>1073.491395</ele>
        <time>2021-11-16T08:54:17.877Z</time>
      </trkpt>
      <trkpt lat="38.73677" lon="35.53722">
        <ele>1073.43001</ele>
        <time>2021-11-16T08:54:19.517Z</time>
      </trkpt>
      <trkpt lat="38.73605" lon="35.53731">
        <ele>1072.725211</ele>
        <time>2021-11-16T08:54:34.018Z</time>
      </trkpt>
      <trkpt lat="38.73551" lon="35.53738">
        <ele>1072.000107</ele>
        <time>2021-11-16T08:54:43.921Z</time>
      </trkpt>
      <trkpt lat="38.73539" lon="35.53663">
        <ele>1071.192064</ele>
        <time>2021-11-16T08:54:55.504Z</time>
      </trkpt>
      <trkpt lat="38.73527" lon="35.5368">
        <ele>1070.937155</ele>
        <time>2021-11-16T08:54:59.017Z</time>
      </trkpt>
      <trkpt lat="38.73494" lon="35.53697">
        <ele>1070.627715</ele>
        <time>2021-11-16T08:55:06.272Z</time>
      </trkpt>
      <trkpt lat="38.73457" lon="35.53626">
        <ele>1070.51479</ele>
        <time>2021-11-16T08:55:21.038Z</time>
      </trkpt>
      <trkpt lat="38.73435" lon="35.53606">
        <ele>1070.470097</ele>
        <time>2021-11-16T08:55:27.355Z</time>
      </trkpt>
      <trkpt lat="38.73432" lon="35.53609">
        <ele>1070.46399</ele>
        <time>2021-11-16T08:55:27.983Z</time>
      </trkpt>
      <trkpt lat="38.7339" lon="35.53541">
        <ele>1070.350501</ele>
        <time>2021-11-16T08:55:44.461Z</time>
      </trkpt>
      <trkpt lat="38.73387" lon="35.53546">
        <ele>1070.353433</ele>
        <time>2021-11-16T08:55:45.442Z</time>
      </trkpt>
      <trkpt lat="38.73375" lon="35.53558">
        <ele>1070.37829</ele>
        <time>2021-11-16T08:55:49.433Z</time>
      </trkpt>
      <trkpt lat="38.73373" lon="35.53559">
        <ele>1070.383607</ele>
        <time>2021-11-16T08:55:50.030Z</time>
      </trkpt>
      <trkpt lat="38.73365" lon="35.53544">
        <ele>1070.407193</ele>
        <time>2021-11-16T08:55:53.912Z</time>
      </trkpt>
      <trkpt lat="38.73362" lon="35.53533">
        <ele>1070.422315</ele>
        <time>2021-11-16T08:55:55.974Z</time>
      </trkpt>
      <trkpt lat="38.73364" lon="35.53521">
        <ele>1070.438929</ele>
        <time>2021-11-16T08:55:58.494Z</time>
      </trkpt>
      <trkpt lat="38.73357" lon="35.53486">
        <ele>1070.48627</ele>
        <time>2021-11-16T08:56:05.156Z</time>
      </trkpt>
      <trkpt lat="38.73337" lon="35.53389">
        <ele>1070.618843</ele>
        <time>2021-11-16T08:56:23.828Z</time>
      </trkpt>
      <trkpt lat="38.7333" lon="35.53391">
        <ele>1070.630397</ele>
        <time>2021-11-16T08:56:25.195Z</time>
      </trkpt>
      <trkpt lat="38.73282" lon="35.53404">
        <ele>1070.378201</ele>
        <time>2021-11-16T08:56:36.690Z</time>
      </trkpt>
      <trkpt lat="38.73273" lon="35.53407">
        <ele>1070.305662</ele>
        <time>2021-11-16T08:56:38.966Z</time>
      </trkpt>
      <trkpt lat="38.73265" lon="35.53405">
        <ele>1070.246164</ele>
        <time>2021-11-16T08:56:40.764Z</time>
      </trkpt>
      <trkpt lat="38.73263" lon="35.53403">
        <ele>1070.22599</ele>
        <time>2021-11-16T08:56:41.249Z</time>
      </trkpt>
      <trkpt lat="38.73261" lon="35.534">
        <ele>1070.206196</ele>
        <time>2021-11-16T08:56:41.894Z</time>
      </trkpt>
      <trkpt lat="38.73222" lon="35.53242">
        <ele>1069.192502</ele>
        <time>2021-11-16T08:57:07.661Z</time>
      </trkpt>
      <trkpt lat="38.73218" lon="35.53228">
        <ele>1069.056115</ele>
        <time>2021-11-16T08:57:09.902Z</time>
      </trkpt>
      <trkpt lat="38.73213" lon="35.53209">
        <ele>1068.85969</ele>
        <time>2021-11-16T08:57:13.156Z</time>
      </trkpt>
      <trkpt lat="38.73204" lon="35.53176">
        <ele>1068.527459</ele>
        <time>2021-11-16T08:57:18.579Z</time>
      </trkpt>
      <trkpt lat="38.73206" lon="35.53173">
        <ele>1068.489673</ele>
        <time>2021-11-16T08:57:19.154Z</time>
      </trkpt>
      <trkpt lat="38.73208" lon="35.5317">
        <ele>1068.452069</ele>
        <time>2021-11-16T08:57:19.751Z</time>
      </trkpt>
      <trkpt lat="38.73209" lon="35.53166">
        <ele>1068.413436</ele>
        <time>2021-11-16T08:57:20.328Z</time>
      </trkpt>
      <trkpt lat="38.73209" lon="35.53162">
        <ele>1068.37529</ele>
        <time>2021-11-16T08:57:20.871Z</time>
      </trkpt>
      <trkpt lat="38.73202" lon="35.5315">
        <ele>1068.230994</ele>
        <time>2021-11-16T08:57:23.237Z</time>
      </trkpt>
      <trkpt lat="38.73199" lon="35.5315">
        <ele>1068.192356</ele>
        <time>2021-11-16T08:57:23.796Z</time>
      </trkpt>
      <trkpt lat="38.7319" lon="35.53121">
        <ele>1067.901057</ele>
        <time>2021-11-16T08:57:28.196Z</time>
      </trkpt>
      <trkpt lat="38.73154" lon="35.53002">
        <ele>1066.903832</ele>
        <time>2021-11-16T08:57:46.673Z</time>
      </trkpt>
      <trkpt lat="38.73129" lon="35.52918">
        <ele>1066.483108</ele>
        <time>2021-11-16T08:58:00.757Z</time>
      </trkpt>
      <trkpt lat="38.73095" lon="35.52807">
        <ele>1066.054014</ele>
        <time>2021-11-16T08:58:21.095Z</time>
      </trkpt>
      <trkpt lat="38.73064" lon="35.52706">
        <ele>1066.123917</ele>
        <time>2021-11-16T08:58:40.147Z</time>
      </trkpt>
      <trkpt lat="38.73052" lon="35.52665">
        <ele>1066.152797</ele>
        <time>2021-11-16T08:58:47.884Z</time>
      </trkpt>
      <trkpt lat="38.73025" lon="35.52576">
        <ele>1066.280539</ele>
        <time>2021-11-16T08:59:04.807Z</time>
      </trkpt>
      <trkpt lat="38.72997" lon="35.52489">
        <ele>1066.497717</ele>
        <time>2021-11-16T08:59:23.164Z</time>
      </trkpt>
      <trkpt lat="38.72994" lon="35.52479">
        <ele>1066.522547</ele>
        <time>2021-11-16T08:59:25.217Z</time>
      </trkpt>
      <trkpt lat="38.72993" lon="35.52474">
        <ele>1066.533667</ele>
        <time>2021-11-16T08:59:26.114Z</time>
      </trkpt>
      <trkpt lat="38.72989" lon="35.52463">
        <ele>1066.560954</ele>
        <time>2021-11-16T08:59:28.176Z</time>
      </trkpt>
      <trkpt lat="38.72976" lon="35.52421">
        <ele>1066.665327</ele>
        <time>2021-11-16T08:59:36.516Z</time>
      </trkpt>
      <trkpt lat="38.72971" lon="35.52406">
        <ele>1066.702543</ele>
        <time>2021-11-16T08:59:39.585Z</time>
      </trkpt>
      <trkpt lat="38.72941" lon="35.52307">
        <ele>1066.174089</ele>
        <time>2021-11-16T08:59:57.010Z</time>
      </trkpt>
      <trkpt lat="38.72905" lon="35.52186">
        <ele>1065.459397</ele>
        <time>2021-11-16T09:00:16.659Z</time>
      </trkpt>
      <trkpt lat="38.72892" lon="35.52144">
        <ele>1065.028865</ele>
        <time>2021-11-16T09:00:22.989Z</time>
      </trkpt>
      <trkpt lat="38.72846" lon="35.51997">
        <ele>1063.495635</ele>
        <time>2021-11-16T09:00:45.765Z</time>
      </trkpt>
      <trkpt lat="38.72815" lon="35.51885">
        <ele>1063.091234</ele>
        <time>2021-11-16T09:01:04.401Z</time>
      </trkpt>
      <trkpt lat="38.72807" lon="35.51867">
        <ele>1063.062113</ele>
        <time>2021-11-16T09:01:07.969Z</time>
      </trkpt>
      <trkpt lat="38.72795" lon="35.5184">
        <ele>1063.018352</ele>
        <time>2021-11-16T09:01:13.721Z</time>
      </trkpt>
      <trkpt lat="38.72771" lon="35.51782">
        <ele>1062.924507</ele>
        <time>2021-11-16T09:01:26.511Z</time>
      </trkpt>
      <trkpt lat="38.72893" lon="35.51725">
        <ele>1062.789468</ele>
        <time>2021-11-16T09:01:55.153Z</time>
      </trkpt>
      <trkpt lat="38.72872" lon="35.51646">
        <ele>1062.729087</ele>
        <time>2021-11-16T09:02:10.518Z</time>
      </trkpt>
      <trkpt lat="38.72836" lon="35.51524">
        <ele>1063.04447</ele>
        <time>2021-11-16T09:02:34.238Z</time>
      </trkpt>
      <trkpt lat="38.72795" lon="35.51374">
        <ele>1063.428457</ele>
        <time>2021-11-16T09:03:06.315Z</time>
      </trkpt>
      <trkpt lat="38.72752" lon="35.51224">
        <ele>1063.795067</ele>
        <time>2021-11-16T09:03:36.974Z</time>
      </trkpt>
      <trkpt lat="38.72732" lon="35.51147">
        <ele>1063.485173</ele>
        <time>2021-11-16T09:03:50.912Z</time>
      </trkpt>
      <trkpt lat="38.72688" lon="35.51004">
        <ele>1062.696316</ele>
        <time>2021-11-16T09:04:15.171Z</time>
      </trkpt>
      <trkpt lat="38.7264" lon="35.50874">
        <ele>1062.062143</ele>
        <time>2021-11-16T09:04:38.979Z</time>
      </trkpt>
      <trkpt lat="38.72594" lon="35.50749">
        <ele>1061.616531</ele>
        <time>2021-11-16T09:05:02.033Z</time>
      </trkpt>
      <trkpt lat="38.72615" lon="35.50738">
        <ele>1061.602138</ele>
        <time>2021-11-16T09:05:07.075Z</time>
      </trkpt>
      <trkpt lat="38.72662" lon="35.50715">
        <ele>1061.570155</ele>
        <time>2021-11-16T09:05:18.744Z</time>
      </trkpt>
      <trkpt lat="38.72702" lon="35.50698">
        <ele>1061.543469</ele>
        <time>2021-11-16T09:05:28.257Z</time>
      </trkpt>
      <trkpt lat="38.72706" lon="35.50701">
        <ele>1061.541063</ele>
        <time>2021-11-16T09:05:29.128Z</time>
      </trkpt>
      <trkpt lat="38.7272" lon="35.50699">
        <ele>1061.531749</ele>
        <time>2021-11-16T09:05:32.327Z</time>
      </trkpt>
      <trkpt lat="38.72729" lon="35.50684">
        <ele>1061.523595</ele>
        <time>2021-11-16T09:05:35.525Z</time>
      </trkpt>
      <trkpt lat="38.7273" lon="35.50679">
        <ele>1061.524702</ele>
        <time>2021-11-16T09:05:36.363Z</time>
      </trkpt>
      <trkpt lat="38.72729" lon="35.50674">
        <ele>1061.525878</ele>
        <time>2021-11-16T09:05:37.235Z</time>
      </trkpt>
      <trkpt lat="38.72726" lon="35.50665">
        <ele>1061.528214</ele>
        <time>2021-11-16T09:05:38.887Z</time>
      </trkpt>
      <trkpt lat="38.72723" lon="35.50661">
        <ele>1061.529396</ele>
        <time>2021-11-16T09:05:39.752Z</time>
      </trkpt>
      <trkpt lat="38.72653" lon="35.50421">
        <ele>1061.585285</ele>
        <time>2021-11-16T09:06:24.670Z</time>
      </trkpt>
      <trkpt lat="38.72624" lon="35.50345">
        <ele>1061.600047</ele>
        <time>2021-11-16T09:06:39.437Z</time>
      </trkpt>
      <trkpt lat="38.72606" lon="35.50279">
        <ele>1061.612211</ele>
        <time>2021-11-16T09:06:51.820Z</time>
      </trkpt>
      <trkpt lat="38.72588" lon="35.50212">
        <ele>1061.512889</ele>
        <time>2021-11-16T09:07:03.990Z</time>
      </trkpt>
      <trkpt lat="38.7257" lon="35.50147">
        <ele>1061.364887</ele>
        <time>2021-11-16T09:07:15.613Z</time>
      </trkpt>
      <trkpt lat="38.72552" lon="35.50102">
        <ele>1061.255533</ele>
        <time>2021-11-16T09:07:24.179Z</time>
      </trkpt>
      <trkpt lat="38.72486" lon="35.49843">
        <ele>1059.957421</ele>
        <time>2021-11-16T09:08:06.573Z</time>
      </trkpt>
      <trkpt lat="38.72459" lon="35.49747">
        <ele>1059.510773</ele>
        <time>2021-11-16T09:08:22.219Z</time>
      </trkpt>
      <trkpt lat="38.7239" lon="35.49498">
        <ele>1058.716826</ele>
        <time>2021-11-16T09:09:05.607Z</time>
      </trkpt>
      <trkpt lat="38.72375" lon="35.49439">
        <ele>1058.614559</ele>
        <time>2021-11-16T09:09:16.384Z</time>
      </trkpt>
      <trkpt lat="38.7236" lon="35.49385">
        <ele>1058.523891</ele>
        <time>2021-11-16T09:09:26.051Z</time>
      </trkpt>
      <trkpt lat="38.72345" lon="35.49341">
        <ele>1058.473254</ele>
        <time>2021-11-16T09:09:34.130Z</time>
      </trkpt>
      <trkpt lat="38.72286" lon="35.49129">
        <ele>1058.277517</ele>
        <time>2021-11-16T09:10:12.388Z</time>
      </trkpt>
      <trkpt lat="38.72258" lon="35.49027">
        <ele>1058.260422</ele>
        <time>2021-11-16T09:10:31.431Z</time>
      </trkpt>
      <trkpt lat="38.72254" lon="35.49015">
        <ele>1058.258508</ele>
        <time>2021-11-16T09:10:33.521Z</time>
      </trkpt>
      <trkpt lat="38.72237" lon="35.48919">
        <ele>1058.199419</ele>
        <time>2021-11-16T09:10:50.482Z</time>
      </trkpt>
      <trkpt lat="38.72237" lon="35.48914">
        <ele>1058.191724</ele>
        <time>2021-11-16T09:10:51.431Z</time>
      </trkpt>
      <trkpt lat="38.72237" lon="35.48903">
        <ele>1058.176316</ele>
        <time>2021-11-16T09:10:53.239Z</time>
      </trkpt>
      <trkpt lat="38.72235" lon="35.48898">
        <ele>1058.168578</ele>
        <time>2021-11-16T09:10:54.117Z</time>
      </trkpt>
      <trkpt lat="38.72234" lon="35.48891">
        <ele>1058.15763</ele>
        <time>2021-11-16T09:10:55.268Z</time>
      </trkpt>
      <trkpt lat="38.72238" lon="35.4886">
        <ele>1058.114173</ele>
        <time>2021-11-16T09:11:00.317Z</time>
      </trkpt>
      <trkpt lat="38.72265" lon="35.48798">
        <ele>1058.014229</ele>
        <time>2021-11-16T09:11:11.892Z</time>
      </trkpt>
      <trkpt lat="38.72284" lon="35.48736">
        <ele>1057.92601</ele>
        <time>2021-11-16T09:11:23.568Z</time>
      </trkpt>
      <trkpt lat="38.72286" lon="35.48703">
        <ele>1058.035638</ele>
        <time>2021-11-16T09:11:28.986Z</time>
      </trkpt>
      <trkpt lat="38.72287" lon="35.48699">
        <ele>1058.050279</ele>
        <time>2021-11-16T09:11:29.910Z</time>
      </trkpt>
      <trkpt lat="38.72284" lon="35.48683">
        <ele>1058.106885</ele>
        <time>2021-11-16T09:11:32.911Z</time>
      </trkpt>
      <trkpt lat="38.72276" lon="35.48675">
        <ele>1058.150211</ele>
        <time>2021-11-16T09:11:35.086Z</time>
      </trkpt>
      <trkpt lat="38.72273" lon="35.48675">
        <ele>1058.164968</ele>
        <time>2021-11-16T09:11:35.941Z</time>
      </trkpt>
      <trkpt lat="38.72214" lon="35.48641">
        <ele>1058.441769</ele>
        <time>2021-11-16T09:11:51.645Z</time>
      </trkpt>
      <trkpt lat="38.72183" lon="35.48581">
        <ele>1058.681254</ele>
        <time>2021-11-16T09:12:05.732Z</time>
      </trkpt>
      <trkpt lat="38.72178" lon="35.48567">
        <ele>1058.702553</ele>
        <time>2021-11-16T09:12:08.930Z</time>
      </trkpt>
      <trkpt lat="38.72175" lon="35.48555">
        <ele>1058.713155</ele>
        <time>2021-11-16T09:12:11.552Z</time>
      </trkpt>
      <trkpt lat="38.7215" lon="35.48473">
        <ele>1058.786856</ele>
        <time>2021-11-16T09:12:28.374Z</time>
      </trkpt>
      <trkpt lat="38.72175" lon="35.48462">
        <ele>1058.815613</ele>
        <time>2021-11-16T09:12:34.518Z</time>
      </trkpt>
      <trkpt lat="38.72168" lon="35.48436">
        <ele>1058.838892</ele>
        <time>2021-11-16T09:12:39.327Z</time>
      </trkpt>
      <trkpt lat="38.72161" lon="35.48411">
        <ele>1058.861272</ele>
        <time>2021-11-16T09:12:43.814Z</time>
      </trkpt>
      <trkpt lat="38.72153" lon="35.48386">
        <ele>1058.883536</ele>
        <time>2021-11-16T09:12:48.189Z</time>
      </trkpt>
      <trkpt lat="38.72146" lon="35.48361">
        <ele>1058.699536</ele>
        <time>2021-11-16T09:12:52.591Z</time>
      </trkpt>
      <trkpt lat="38.72122" lon="35.48372">
        <ele>1058.450756</ele>
        <time>2021-11-16T09:12:57.849Z</time>
      </trkpt>
      <trkpt lat="38.72086" lon="35.48275">
        <ele>1057.637037</ele>
        <time>2021-11-16T09:13:14.001Z</time>
      </trkpt>
      <trkpt lat="38.72087" lon="35.48269">
        <ele>1057.591604</ele>
        <time>2021-11-16T09:13:14.859Z</time>
      </trkpt>
      <trkpt lat="38.72087" lon="35.48257">
        <ele>1057.50207</ele>
        <time>2021-11-16T09:13:16.652Z</time>
      </trkpt>
      <trkpt lat="38.72085" lon="35.48252">
        <ele>1057.457277</ele>
        <time>2021-11-16T09:13:17.502Z</time>
      </trkpt>
      <trkpt lat="38.7207" lon="35.48198">
        <ele>1057.000719</ele>
        <time>2021-11-16T09:13:25.896Z</time>
      </trkpt>
      <trkpt lat="38.72073" lon="35.48163">
        <ele>1056.679282</ele>
        <time>2021-11-16T09:13:31.097Z</time>
      </trkpt>
      <trkpt lat="38.72087" lon="35.48118">
        <ele>1056.242053</ele>
        <time>2021-11-16T09:13:38.148Z</time>
      </trkpt>
      <trkpt lat="38.72129" lon="35.48139">
        <ele>1055.710365</ele>
        <time>2021-11-16T09:13:47.153Z</time>
      </trkpt>
      <trkpt lat="38.72182" lon="35.48096">
        <ele>1055.002559</ele>
        <time>2021-11-16T09:13:59.499Z</time>
      </trkpt>
      <trkpt lat="38.72199" lon="35.48076">
        <ele>1054.8112</ele>
        <time>2021-11-16T09:14:04.092Z</time>
      </trkpt>
      <trkpt lat="38.72249" lon="35.48046">
        <ele>1054.358487</ele>
        <time>2021-11-16T09:14:15.058Z</time>
      </trkpt>
      <trkpt lat="38.72268" lon="35.47976">
        <ele>1053.880246</ele>
        <time>2021-11-16T09:14:27.025Z</time>
      </trkpt>
      <trkpt lat="38.72291" lon="35.47986">
        <ele>1053.681253</ele>
        <time>2021-11-16T09:14:32.102Z</time>
      </trkpt>
      <trkpt lat="38.72355" lon="35.47723">
        <ele>1053.682521</ele>
        <time>2021-11-16T09:15:22.669Z</time>
      </trkpt>
      <trkpt lat="38.72336" lon="35.47714">
        <ele>1053.736021</ele>
        <time>2021-11-16T09:15:27.937Z</time>
      </trkpt>
      <trkpt lat="38.72272" lon="35.47687">
        <ele>1053.90604</ele>
        <time>2021-11-16T09:15:44.600Z</time>
      </trkpt>
      <trkpt lat="38.72315" lon="35.47523">
        <ele>1053.86565</ele>
        <time>2021-11-16T09:16:16.560Z</time>
      </trkpt>
      <trkpt lat="38.72342" lon="35.47421">
        <ele>1053.568421</ele>
        <time>2021-11-16T09:16:34.423Z</time>
      </trkpt>
      <trkpt lat="38.72369" lon="35.47319">
        <ele>1053.135628</ele>
        <time>2021-11-16T09:16:51.781Z</time>
      </trkpt>
      <trkpt lat="38.72389" lon="35.4724">
        <ele>1052.733719</ele>
        <time>2021-11-16T09:17:05.442Z</time>
      </trkpt>
      <trkpt lat="38.72411" lon="35.47157">
        <ele>1052.327446</ele>
        <time>2021-11-16T09:17:20.132Z</time>
      </trkpt>
      <trkpt lat="38.72418" lon="35.47119">
        <ele>1052.252887</ele>
        <time>2021-11-16T09:17:26.783Z</time>
      </trkpt>
      <trkpt lat="38.72424" lon="35.47091">
        <ele>1052.198435</ele>
        <time>2021-11-16T09:17:31.638Z</time>
      </trkpt>
      <trkpt lat="38.72429" lon="35.47064">
        <ele>1052.146122</ele>
        <time>2021-11-16T09:17:36.334Z</time>
      </trkpt>
      <trkpt lat="38.72434" lon="35.47038">
        <ele>1052.096006</ele>
        <time>2021-11-16T09:17:40.956Z</time>
      </trkpt>
      <trkpt lat="38.72441" lon="35.47012">
        <ele>1052.043493</ele>
        <time>2021-11-16T09:17:45.890Z</time>
      </trkpt>
      <trkpt lat="38.72446" lon="35.46987">
        <ele>1051.994727</ele>
        <time>2021-11-16T09:17:50.453Z</time>
      </trkpt>
      <trkpt lat="38.72451" lon="35.46959">
        <ele>1051.940644</ele>
        <time>2021-11-16T09:17:55.665Z</time>
      </trkpt>
      <trkpt lat="38.72463" lon="35.46904">
        <ele>1051.925174</ele>
        <time>2021-11-16T09:18:06.082Z</time>
      </trkpt>
      <trkpt lat="38.72409" lon="35.46885">
        <ele>1051.971179</ele>
        <time>2021-11-16T09:18:19.065Z</time>
      </trkpt>
      <trkpt lat="38.72475" lon="35.4657">
        <ele>1052.157226</ele>
        <time>2021-11-16T09:19:17.010Z</time>
      </trkpt>
      <trkpt lat="38.72481" lon="35.46563">
        <ele>1052.162672</ele>
        <time>2021-11-16T09:19:18.861Z</time>
      </trkpt>
      <trkpt lat="38.72488" lon="35.46554">
        <ele>1052.169312</ele>
        <time>2021-11-16T09:19:20.995Z</time>
      </trkpt>
      <trkpt lat="38.72495" lon="35.46546">
        <ele>1052.136722</ele>
        <time>2021-11-16T09:19:22.971Z</time>
      </trkpt>
      <trkpt lat="38.72502" lon="35.46539">
        <ele>1052.093866</ele>
        <time>2021-11-16T09:19:24.849Z</time>
      </trkpt>
      <trkpt lat="38.72509" lon="35.46533">
        <ele>1052.051273</ele>
        <time>2021-11-16T09:19:26.718Z</time>
      </trkpt>
      <trkpt lat="38.72517" lon="35.46528">
        <ele>1052.008516</ele>
        <time>2021-11-16T09:19:28.539Z</time>
      </trkpt>
      <trkpt lat="38.72522" lon="35.46524">
        <ele>1051.979276</ele>
        <time>2021-11-16T09:19:29.727Z</time>
      </trkpt>
      <trkpt lat="38.72522" lon="35.46523">
        <ele>1051.974602</ele>
        <time>2021-11-16T09:19:29.911Z</time>
      </trkpt>
      <trkpt lat="38.72526" lon="35.46519">
        <ele>1051.950339</ele>
        <time>2021-11-16T09:19:30.838Z</time>
      </trkpt>
      <trkpt lat="38.72537" lon="35.46499">
        <ele>1051.855885</ele>
        <time>2021-11-16T09:19:34.913Z</time>
      </trkpt>
      <trkpt lat="38.7254" lon="35.46491">
        <ele>1051.819253</ele>
        <time>2021-11-16T09:19:36.406Z</time>
      </trkpt>
      <trkpt lat="38.72542" lon="35.46482">
        <ele>1051.782427</ele>
        <time>2021-11-16T09:19:37.828Z</time>
      </trkpt>
      <trkpt lat="38.72544" lon="35.46465">
        <ele>1051.716103</ele>
        <time>2021-11-16T09:19:40.633Z</time>
      </trkpt>
      <trkpt lat="38.72544" lon="35.46457">
        <ele>1051.686095</ele>
        <time>2021-11-16T09:19:41.817Z</time>
      </trkpt>
      <trkpt lat="38.72538" lon="35.46403">
        <ele>1051.471933</ele>
        <time>2021-11-16T09:19:50.386Z</time>
      </trkpt>
      <trkpt lat="38.72538" lon="35.46346">
        <ele>1051.268588</ele>
        <time>2021-11-16T09:19:59.037Z</time>
      </trkpt>
      <trkpt lat="38.72552" lon="35.46207">
        <ele>1051.122052</ele>
        <time>2021-11-16T09:20:22.391Z</time>
      </trkpt>
      <trkpt lat="38.72595" lon="35.46016">
        <ele>1051.354353</ele>
        <time>2021-11-16T09:20:58.012Z</time>
      </trkpt>
      <trkpt lat="38.7269" lon="35.45541">
        <ele>1052.877761</ele>
        <time>2021-11-16T09:22:29.682Z</time>
      </trkpt>
      <trkpt lat="38.72691" lon="35.45537">
        <ele>1052.893014</ele>
        <time>2021-11-16T09:22:30.529Z</time>
      </trkpt>
      <trkpt lat="38.72716" lon="35.45444">
        <ele>1053.240109</ele>
        <time>2021-11-16T09:22:49.594Z</time>
      </trkpt>
      <trkpt lat="38.72742" lon="35.45356">
        <ele>1053.428224</ele>
        <time>2021-11-16T09:23:07.096Z</time>
      </trkpt>
      <trkpt lat="38.72759" lon="35.45337">
        <ele>1053.48596</ele>
        <time>2021-11-16T09:23:12.490Z</time>
      </trkpt>
      <trkpt lat="38.72778" lon="35.45274">
        <ele>1053.622058</ele>
        <time>2021-11-16T09:23:24.846Z</time>
      </trkpt>
      <trkpt lat="38.72787" lon="35.45247">
        <ele>1053.664974</ele>
        <time>2021-11-16T09:23:30.171Z</time>
      </trkpt>
      <trkpt lat="38.72797" lon="35.4522">
        <ele>1053.626482</ele>
        <time>2021-11-16T09:23:35.485Z</time>
      </trkpt>
      <trkpt lat="38.7282" lon="35.45162">
        <ele>1053.543737</ele>
        <time>2021-11-16T09:23:46.725Z</time>
      </trkpt>
      <trkpt lat="38.72825" lon="35.45153">
        <ele>1053.529397</ele>
        <time>2021-11-16T09:23:48.552Z</time>
      </trkpt>
      <trkpt lat="38.72868" lon="35.45063">
        <ele>1053.395586</ele>
        <time>2021-11-16T09:24:06.795Z</time>
      </trkpt>
      <trkpt lat="38.72909" lon="35.4498">
        <ele>1053.335767</ele>
        <time>2021-11-16T09:24:24.890Z</time>
      </trkpt>
      <trkpt lat="38.7296" lon="35.45001">
        <ele>1053.301623</ele>
        <time>2021-11-16T09:24:37.592Z</time>
      </trkpt>
      <trkpt lat="38.73039" lon="35.45029">
        <ele>1053.152132</ele>
        <time>2021-11-16T09:24:55.956Z</time>
      </trkpt>
      <trkpt lat="38.73173" lon="35.45078">
        <ele>1052.423497</ele>
        <time>2021-11-16T09:25:25.583Z</time>
      </trkpt>
      <trkpt lat="38.7326" lon="35.45108">
        <ele>1051.821664</ele>
        <time>2021-11-16T09:25:44.241Z</time>
      </trkpt>
      <trkpt lat="38.73309" lon="35.45124">
        <ele>1051.46325</ele>
        <time>2021-11-16T09:25:54.858Z</time>
      </trkpt>
      <trkpt lat="38.73345" lon="35.45136">
        <ele>1051.203786</ele>
        <time>2021-11-16T09:26:02.609Z</time>
      </trkpt>
      <trkpt lat="38.73357" lon="35.45135">
        <ele>1051.11593</ele>
        <time>2021-11-16T09:26:05.250Z</time>
      </trkpt>
      <trkpt lat="38.73408" lon="35.4498">
        <ele>1050.387363</ele>
        <time>2021-11-16T09:26:32.819Z</time>
      </trkpt>
      <trkpt lat="38.73459" lon="35.44803">
        <ele>1049.925619</ele>
        <time>2021-11-16T09:27:04.829Z</time>
      </trkpt>
      <trkpt lat="38.7348" lon="35.44742">
        <ele>1049.84238</ele>
        <time>2021-11-16T09:27:16.982Z</time>
      </trkpt>
      <trkpt lat="38.73501" lon="35.44675">
        <ele>1049.782848</ele>
        <time>2021-11-16T09:27:30.502Z</time>
      </trkpt>
      <trkpt lat="38.73523" lon="35.44609">
        <ele>1049.790571</ele>
        <time>2021-11-16T09:27:43.767Z</time>
      </trkpt>
      <trkpt lat="38.73545" lon="35.44541">
        <ele>1049.798374</ele>
        <time>2021-11-16T09:27:56.954Z</time>
      </trkpt>
      <trkpt lat="38.73568" lon="35.44475">
        <ele>1049.791998</ele>
        <time>2021-11-16T09:28:09.726Z</time>
      </trkpt>
      <trkpt lat="38.73591" lon="35.44403">
        <ele>1049.687142</ele>
        <time>2021-11-16T09:28:23.491Z</time>
      </trkpt>
      <trkpt lat="38.73616" lon="35.44327">
        <ele>1049.575001</ele>
        <time>2021-11-16T09:28:37.646Z</time>
      </trkpt>
      <trkpt lat="38.73636" lon="35.44266">
        <ele>1049.49978</ele>
        <time>2021-11-16T09:28:49.215Z</time>
      </trkpt>
      <trkpt lat="38.73657" lon="35.44204">
        <ele>1049.605547</ele>
        <time>2021-11-16T09:29:01.637Z</time>
      </trkpt>
      <trkpt lat="38.73679" lon="35.44136">
        <ele>1049.722755</ele>
        <time>2021-11-16T09:29:15.633Z</time>
      </trkpt>
      <trkpt lat="38.73701" lon="35.4407">
        <ele>1049.835185</ele>
        <time>2021-11-16T09:29:29.271Z</time>
      </trkpt>
      <trkpt lat="38.73722" lon="35.44004">
        <ele>1050.044722</ele>
        <time>2021-11-16T09:29:43.229Z</time>
      </trkpt>
      <trkpt lat="38.73745" lon="35.43935">
        <ele>1050.284125</ele>
        <time>2021-11-16T09:29:58.172Z</time>
      </trkpt>
      <trkpt lat="38.73766" lon="35.43868">
        <ele>1050.516065</ele>
        <time>2021-11-16T09:30:11.913Z</time>
      </trkpt>
      <trkpt lat="38.73788" lon="35.438">
        <ele>1050.551328</ele>
        <time>2021-11-16T09:30:25.589Z</time>
      </trkpt>
      <trkpt lat="38.7381" lon="35.43732">
        <ele>1050.490316</ele>
        <time>2021-11-16T09:30:38.947Z</time>
      </trkpt>
      <trkpt lat="38.73832" lon="35.43665">
        <ele>1050.429382</ele>
        <time>2021-11-16T09:30:51.693Z</time>
      </trkpt>
      <trkpt lat="38.73855" lon="35.43597">
        <ele>1050.365137</ele>
        <time>2021-11-16T09:31:03.960Z</time>
      </trkpt>
      <trkpt lat="38.73869" lon="35.43552">
        <ele>1050.321573</ele>
        <time>2021-11-16T09:31:12.138Z</time>
      </trkpt>
      <trkpt lat="38.73884" lon="35.43508">
        <ele>1050.277622</ele>
        <time>2021-11-16T09:31:20.794Z</time>
      </trkpt>
      <trkpt lat="38.73888" lon="35.43496">
        <ele>1050.265821</ele>
        <time>2021-11-16T09:31:23.138Z</time>
      </trkpt>
      <trkpt lat="38.73892" lon="35.43468">
        <ele>1050.240339</ele>
        <time>2021-11-16T09:31:28.280Z</time>
      </trkpt>
      <trkpt lat="38.73918" lon="35.43383">
        <ele>1050.285586</ele>
        <time>2021-11-16T09:31:45.232Z</time>
      </trkpt>
      <trkpt lat="38.73972" lon="35.43224">
        <ele>1050.721117</ele>
        <time>2021-11-16T09:32:18.481Z</time>
      </trkpt>
      <trkpt lat="38.73994" lon="35.43161">
        <ele>1050.90322</ele>
        <time>2021-11-16T09:32:31.910Z</time>
      </trkpt>
      <trkpt lat="38.74016" lon="35.43097">
        <ele>1051.090133</ele>
        <time>2021-11-16T09:32:45.391Z</time>
      </trkpt>
      <trkpt lat="38.74037" lon="35.43035">
        <ele>1051.273649</ele>
        <time>2021-11-16T09:32:58.290Z</time>
      </trkpt>
      <trkpt lat="38.74059" lon="35.42972">
        <ele>1051.456423</ele>
        <time>2021-11-16T09:33:11.353Z</time>
      </trkpt>
      <trkpt lat="38.74079" lon="35.42911">
        <ele>1051.628764</ele>
        <time>2021-11-16T09:33:23.936Z</time>
      </trkpt>
      <trkpt lat="38.741" lon="35.42845">
        <ele>1051.81508</ele>
        <time>2021-11-16T09:33:37.679Z</time>
      </trkpt>
      <trkpt lat="38.74122" lon="35.42778">
        <ele>1051.996943</ele>
        <time>2021-11-16T09:33:51.551Z</time>
      </trkpt>
      <trkpt lat="38.74141" lon="35.42719">
        <ele>1052.076413</ele>
        <time>2021-11-16T09:34:03.841Z</time>
      </trkpt>
      <trkpt lat="38.74168" lon="35.42626">
        <ele>1052.199755</ele>
        <time>2021-11-16T09:34:22.513Z</time>
      </trkpt>
      <trkpt lat="38.74191" lon="35.42567">
        <ele>1052.26892</ele>
        <time>2021-11-16T09:34:34.368Z</time>
      </trkpt>
      <trkpt lat="38.74213" lon="35.42511">
        <ele>1052.13194</ele>
        <time>2021-11-16T09:34:45.121Z</time>
      </trkpt>
      <trkpt lat="38.74242" lon="35.42437">
        <ele>1051.949082</ele>
        <time>2021-11-16T09:34:59.297Z</time>
      </trkpt>
      <trkpt lat="38.74179" lon="35.42398">
        <ele>1051.792845</ele>
        <time>2021-11-16T09:35:14.589Z</time>
      </trkpt>
      <trkpt lat="38.74156" lon="35.42383">
        <ele>1051.879363</ele>
        <time>2021-11-16T09:35:20.243Z</time>
      </trkpt>
      <trkpt lat="38.74188" lon="35.42303">
        <ele>1052.116583</ele>
        <time>2021-11-16T09:35:36.512Z</time>
      </trkpt>
      <trkpt lat="38.74194" lon="35.42275">
        <ele>1052.190755</ele>
        <time>2021-11-16T09:35:42.369Z</time>
      </trkpt>
      <trkpt lat="38.7419" lon="35.42244">
        <ele>1052.274828</ele>
        <time>2021-11-16T09:35:49.278Z</time>
      </trkpt>
      <trkpt lat="38.74163" lon="35.42203">
        <ele>1052.472529</ele>
        <time>2021-11-16T09:36:00.688Z</time>
      </trkpt>
      <trkpt lat="38.74154" lon="35.42192">
        <ele>1052.573095</ele>
        <time>2021-11-16T09:36:03.879Z</time>
      </trkpt>
      <trkpt lat="38.7412" lon="35.42171">
        <ele>1052.891311</ele>
        <time>2021-11-16T09:36:13.860Z</time>
      </trkpt>
      <trkpt lat="38.7411" lon="35.42164">
        <ele>1052.983625</ele>
        <time>2021-11-16T09:36:16.923Z</time>
      </trkpt>
      <trkpt lat="38.74097" lon="35.42149">
        <ele>1053.129601</ele>
        <time>2021-11-16T09:36:21.407Z</time>
      </trkpt>
      <trkpt lat="38.7408" lon="35.42134">
        <ele>1053.294954</ele>
        <time>2021-11-16T09:36:26.611Z</time>
      </trkpt>
      <trkpt lat="38.74152" lon="35.41949">
        <ele>1054.03125</ele>
        <time>2021-11-16T09:37:06.478Z</time>
      </trkpt>
      <trkpt lat="38.74224" lon="35.41753">
        <ele>1053.884077</ele>
        <time>2021-11-16T09:37:42.091Z</time>
      </trkpt>
      <trkpt lat="38.74285" lon="35.41593">
        <ele>1053.297167</ele>
        <time>2021-11-16T09:38:11.255Z</time>
      </trkpt>
      <trkpt lat="38.74255" lon="35.41566">
        <ele>1053.09971</ele>
        <time>2021-11-16T09:38:18.511Z</time>
      </trkpt>
      <trkpt lat="38.74312" lon="35.41417">
        <ele>1052.369811</ele>
        <time>2021-11-16T09:38:44.757Z</time>
      </trkpt>
      <trkpt lat="38.74361" lon="35.41284">
        <ele>1051.60345</ele>
        <time>2021-11-16T09:39:08.209Z</time>
      </trkpt>
      <trkpt lat="38.7442" lon="35.41121">
        <ele>1050.432433</ele>
        <time>2021-11-16T09:39:35.162Z</time>
      </trkpt>
      <trkpt lat="38.74449" lon="35.41039">
        <ele>1049.797262</ele>
        <time>2021-11-16T09:39:49.135Z</time>
      </trkpt>
      <trkpt lat="38.74469" lon="35.4098">
        <ele>1049.446976</ele>
        <time>2021-11-16T09:39:59.081Z</time>
      </trkpt>
      <trkpt lat="38.74487" lon="35.40952">
        <ele>1049.25581</ele>
        <time>2021-11-16T09:40:04.850Z</time>
      </trkpt>
      <trkpt lat="38.74514" lon="35.40877">
        <ele>1048.830938</ele>
        <time>2021-11-16T09:40:17.373Z</time>
      </trkpt>
      <trkpt lat="38.74548" lon="35.40769">
        <ele>1048.424841</ele>
        <time>2021-11-16T09:40:36.203Z</time>
      </trkpt>
      <trkpt lat="38.7452" lon="35.40748">
        <ele>1048.353032</ele>
        <time>2021-11-16T09:40:43.421Z</time>
      </trkpt>
      <trkpt lat="38.74537" lon="35.40691">
        <ele>1048.246623</ele>
        <time>2021-11-16T09:40:54.361Z</time>
      </trkpt>
      <trkpt lat="38.7455" lon="35.40649">
        <ele>1048.167948</ele>
        <time>2021-11-16T09:41:02.588Z</time>
      </trkpt>
      <trkpt lat="38.74552" lon="35.40642">
        <ele>1048.156224</ele>
        <time>2021-11-16T09:41:03.790Z</time>
      </trkpt>
      <trkpt lat="38.74565" lon="35.40562">
        <ele>1048.091848</ele>
        <time>2021-11-16T09:41:17.944Z</time>
      </trkpt>
      <trkpt lat="38.74601" lon="35.40453">
        <ele>1048.031133</ele>
        <time>2021-11-16T09:41:39.738Z</time>
      </trkpt>
      <trkpt lat="38.74607" lon="35.40435">
        <ele>1048.020562</ele>
        <time>2021-11-16T09:41:43.614Z</time>
      </trkpt>
      <trkpt lat="38.74624" lon="35.40383">
        <ele>1047.847184</ele>
        <time>2021-11-16T09:41:53.532Z</time>
      </trkpt>
      <trkpt lat="38.74638" lon="35.40341">
        <ele>1047.585451</ele>
        <time>2021-11-16T09:42:00.847Z</time>
      </trkpt>
      <trkpt lat="38.74642" lon="35.40329">
        <ele>1047.50779</ele>
        <time>2021-11-16T09:42:03.107Z</time>
      </trkpt>
      <trkpt lat="38.74708" lon="35.40365">
        <ele>1046.979322</ele>
        <time>2021-11-16T09:42:16.530Z</time>
      </trkpt>
      <trkpt lat="38.74736" lon="35.40381">
        <ele>1046.753381</ele>
        <time>2021-11-16T09:42:22.365Z</time>
      </trkpt>
      <trkpt lat="38.74736" lon="35.40388">
        <ele>1046.713831</ele>
        <time>2021-11-16T09:42:23.486Z</time>
      </trkpt>
      <trkpt lat="38.74738" lon="35.40394">
        <ele>1046.675245</ele>
        <time>2021-11-16T09:42:24.780Z</time>
      </trkpt>
      <trkpt lat="38.7474" lon="35.40401">
        <ele>1046.657928</ele>
        <time>2021-11-16T09:42:25.752Z</time>
      </trkpt>
      <trkpt lat="38.74757" lon="35.40416">
        <ele>1046.590013</ele>
        <time>2021-11-16T09:42:30.150Z</time>
      </trkpt>
      <trkpt lat="38.74778" lon="35.40413">
        <ele>1046.521929</ele>
        <time>2021-11-16T09:42:34.833Z</time>
      </trkpt>
      <trkpt lat="38.74783" lon="35.4041">
        <ele>1046.504567</ele>
        <time>2021-11-16T09:42:35.793Z</time>
      </trkpt>
      <trkpt lat="38.74786" lon="35.40406">
        <ele>1046.490513</ele>
        <time>2021-11-16T09:42:36.781Z</time>
      </trkpt>
      <trkpt lat="38.74794" lon="35.40384">
        <ele>1046.43138</ele>
        <time>2021-11-16T09:42:40.789Z</time>
      </trkpt>
      <trkpt lat="38.74794" lon="35.40379">
        <ele>1046.418297</ele>
        <time>2021-11-16T09:42:41.672Z</time>
      </trkpt>
      <trkpt lat="38.74794" lon="35.40372">
        <ele>1046.40085</ele>
        <time>2021-11-16T09:42:42.976Z</time>
      </trkpt>
      <trkpt lat="38.74789" lon="35.4036">
        <ele>1046.366184</ele>
        <time>2021-11-16T09:42:45.165Z</time>
      </trkpt>
      <trkpt lat="38.74777" lon="35.40346">
        <ele>1046.314337</ele>
        <time>2021-11-16T09:42:48.656Z</time>
      </trkpt>
      <trkpt lat="38.74761" lon="35.40343">
        <ele>1046.262756</ele>
        <time>2021-11-16T09:42:51.933Z</time>
      </trkpt>
      <trkpt lat="38.74751" lon="35.40347">
        <ele>1046.227929</ele>
        <time>2021-11-16T09:42:54.303Z</time>
      </trkpt>
      <trkpt lat="38.74747" lon="35.40351">
        <ele>1046.210298</ele>
        <time>2021-11-16T09:42:55.665Z</time>
      </trkpt>
      <trkpt lat="38.74743" lon="35.40356">
        <ele>1046.192879</ele>
        <time>2021-11-16T09:42:56.653Z</time>
      </trkpt>
      <trkpt lat="38.7474" lon="35.40361">
        <ele>1046.175621</ele>
        <time>2021-11-16T09:42:58.021Z</time>
      </trkpt>
      <trkpt lat="38.74693" lon="35.40335">
        <ele>1046.093425</ele>
        <time>2021-11-16T09:43:08.931Z</time>
      </trkpt>
      <trkpt lat="38.7467" lon="35.40322">
        <ele>1046.090328</ele>
        <time>2021-11-16T09:43:14.988Z</time>
      </trkpt>
      <trkpt lat="38.74652" lon="35.40312">
        <ele>1046.088006</ele>
        <time>2021-11-16T09:43:19.364Z</time>
      </trkpt>
      <trkpt lat="38.74659" lon="35.4029">
        <ele>1046.085782</ele>
        <time>2021-11-16T09:43:23.581Z</time>
      </trkpt>
      <trkpt lat="38.74687" lon="35.40203">
        <ele>1046.076832</ele>
        <time>2021-11-16T09:43:40.368Z</time>
      </trkpt>
      <trkpt lat="38.74736" lon="35.40053">
        <ele>1046.256863</ele>
        <time>2021-11-16T09:44:09.379Z</time>
      </trkpt>
      <trkpt lat="38.74752" lon="35.40003">
        <ele>1046.327381</ele>
        <time>2021-11-16T09:44:19.911Z</time>
      </trkpt>
      <trkpt lat="38.74792" lon="35.39877">
        <ele>1046.506155</ele>
        <time>2021-11-16T09:44:46.846Z</time>
      </trkpt>
      <trkpt lat="38.74823" lon="35.39795">
        <ele>1046.627666</ele>
        <time>2021-11-16T09:45:04.506Z</time>
      </trkpt>
      <trkpt lat="38.74868" lon="35.39628">
        <ele>1045.961181</ele>
        <time>2021-11-16T09:45:33.107Z</time>
      </trkpt>
      <trkpt lat="38.74874" lon="35.39608">
        <ele>1045.846601</ele>
        <time>2021-11-16T09:45:36.509Z</time>
      </trkpt>
      <trkpt lat="38.7489" lon="35.3956">
        <ele>1045.576178</ele>
        <time>2021-11-16T09:45:44.571Z</time>
      </trkpt>
      <trkpt lat="38.74899" lon="35.39532">
        <ele>1045.481339</ele>
        <time>2021-11-16T09:45:49.573Z</time>
      </trkpt>
      <trkpt lat="38.74909" lon="35.39498">
        <ele>1045.521112</ele>
        <time>2021-11-16T09:45:55.878Z</time>
      </trkpt>
      <trkpt lat="38.74917" lon="35.39464">
        <ele>1045.56156</ele>
        <time>2021-11-16T09:46:02.627Z</time>
      </trkpt>
      <trkpt lat="38.74926" lon="35.39427">
        <ele>1045.603182</ele>
        <time>2021-11-16T09:46:09.879Z</time>
      </trkpt>
      <trkpt lat="38.7493" lon="35.39428">
        <ele>1045.608005</ele>
        <time>2021-11-16T09:46:10.602Z</time>
      </trkpt>
      <trkpt lat="38.74933" lon="35.39427">
        <ele>1045.612852</ele>
        <time>2021-11-16T09:46:11.431Z</time>
      </trkpt>
      <trkpt lat="38.74941" lon="35.39419">
        <ele>1045.626851</ele>
        <time>2021-11-16T09:46:13.707Z</time>
      </trkpt>
      <trkpt lat="38.7494" lon="35.39403">
        <ele>1045.645142</ele>
        <time>2021-11-16T09:46:16.786Z</time>
      </trkpt>
      <trkpt lat="38.74938" lon="35.39399">
        <ele>1045.649919</ele>
        <time>2021-11-16T09:46:17.660Z</time>
      </trkpt>
      <trkpt lat="38.74946" lon="35.39355">
        <ele>1045.699701</ele>
        <time>2021-11-16T09:46:26.352Z</time>
      </trkpt>
      <trkpt lat="38.74956" lon="35.39307">
        <ele>1045.588738</ele>
        <time>2021-11-16T09:46:35.996Z</time>
      </trkpt>
      <trkpt lat="38.74967" lon="35.39262">
        <ele>1045.351418</ele>
        <time>2021-11-16T09:46:45.016Z</time>
      </trkpt>
      <trkpt lat="38.75017" lon="35.39088">
        <ele>1044.141355</ele>
        <time>2021-11-16T09:47:12.731Z</time>
      </trkpt>
      <trkpt lat="38.75019" lon="35.3908">
        <ele>1044.015197</ele>
        <time>2021-11-16T09:47:13.739Z</time>
      </trkpt>
      <trkpt lat="38.75022" lon="35.3903">
        <ele>1043.287656</ele>
        <time>2021-11-16T09:47:20.275Z</time>
      </trkpt>
      <trkpt lat="38.75008" lon="35.38919">
        <ele>1041.644937</ele>
        <time>2021-11-16T09:47:35.666Z</time>
      </trkpt>
      <trkpt lat="38.75004" lon="35.38887">
        <ele>1041.188943</ele>
        <time>2021-11-16T09:47:40.153Z</time>
      </trkpt>
      <trkpt lat="38.75004" lon="35.38882">
        <ele>1041.172184</ele>
        <time>2021-11-16T09:47:40.810Z</time>
      </trkpt>
      <trkpt lat="38.75004" lon="35.38878">
        <ele>1041.155319</ele>
        <time>2021-11-16T09:47:41.473Z</time>
      </trkpt>
      <trkpt lat="38.75003" lon="35.38856">
        <ele>1041.06701</ele>
        <time>2021-11-16T09:47:44.866Z</time>
      </trkpt>
      <trkpt lat="38.75002" lon="35.38812">
        <ele>1040.889833</ele>
        <time>2021-11-16T09:47:51.752Z</time>
      </trkpt>
      <trkpt lat="38.75003" lon="35.38792">
        <ele>1040.808748</ele>
        <time>2021-11-16T09:47:54.877Z</time>
      </trkpt>
      <trkpt lat="38.75004" lon="35.38771">
        <ele>1040.728344</ele>
        <time>2021-11-16T09:47:58.251Z</time>
      </trkpt>
      <trkpt lat="38.75013" lon="35.387">
        <ele>1040.440913</ele>
        <time>2021-11-16T09:48:10.160Z</time>
      </trkpt>
      <trkpt lat="38.7502" lon="35.38649">
        <ele>1040.288881</ele>
        <time>2021-11-16T09:48:19.839Z</time>
      </trkpt>
      <trkpt lat="38.75058" lon="35.38659">
        <ele>1040.333954</ele>
        <time>2021-11-16T09:48:29.151Z</time>
      </trkpt>
      <trkpt lat="38.75082" lon="35.38665">
        <ele>1040.362421</ele>
        <time>2021-11-16T09:48:34.846Z</time>
      </trkpt>
      <trkpt lat="38.75126" lon="35.38682">
        <ele>1040.416441</ele>
        <time>2021-11-16T09:48:45.405Z</time>
      </trkpt>
      <trkpt lat="38.75163" lon="35.38679">
        <ele>1040.459504</ele>
        <time>2021-11-16T09:48:54.016Z</time>
      </trkpt>
      <trkpt lat="38.75169" lon="35.38676">
        <ele>1040.467656</ele>
        <time>2021-11-16T09:48:55.665Z</time>
      </trkpt>
      <trkpt lat="38.75166" lon="35.38625">
        <ele>1040.567581</ele>
        <time>2021-11-16T09:49:05.397Z</time>
      </trkpt>
      <trkpt lat="38.75188" lon="35.38551">
        <ele>1040.782611</ele>
        <time>2021-11-16T09:49:21.193Z</time>
      </trkpt>
      <trkpt lat="38.75206" lon="35.38491">
        <ele>1040.957394</ele>
        <time>2021-11-16T09:49:33.307Z</time>
      </trkpt>
      <trkpt lat="38.75219" lon="35.3845">
        <ele>1041.076489</ele>
        <time>2021-11-16T09:49:41.589Z</time>
      </trkpt>
      <trkpt lat="38.75225" lon="35.38429">
        <ele>1041.119999</ele>
        <time>2021-11-16T09:49:46.104Z</time>
      </trkpt>
      <trkpt lat="38.75228" lon="35.38387">
        <ele>1041.14501</ele>
        <time>2021-11-16T09:49:54.208Z</time>
      </trkpt>
      <trkpt lat="38.7525" lon="35.38393">
        <ele>1041.161718</ele>
        <time>2021-11-16T09:49:59.237Z</time>
      </trkpt>
      <trkpt lat="38.7526" lon="35.38373">
        <ele>1041.175959</ele>
        <time>2021-11-16T09:50:03.929Z</time>
      </trkpt>
      <trkpt lat="38.7529" lon="35.38298">
        <ele>1041.226506</ele>
        <time>2021-11-16T09:50:19.361Z</time>
      </trkpt>
      <trkpt lat="38.7531" lon="35.38216">
        <ele>1041.14655</ele>
        <time>2021-11-16T09:50:33.678Z</time>
      </trkpt>
      <trkpt lat="38.75317" lon="35.38175">
        <ele>1041.041144</ele>
        <time>2021-11-16T09:50:40.640Z</time>
      </trkpt>
      <trkpt lat="38.75326" lon="35.38127">
        <ele>1040.915018</ele>
        <time>2021-11-16T09:50:49.171Z</time>
      </trkpt>
      <trkpt lat="38.75334" lon="35.38082">
        <ele>1040.796892</ele>
        <time>2021-11-16T09:50:57.252Z</time>
      </trkpt>
      <trkpt lat="38.75336" lon="35.38071">
        <ele>1040.768183</ele>
        <time>2021-11-16T09:50:59.201Z</time>
      </trkpt>
      <trkpt lat="38.75356" lon="35.37981">
        <ele>1040.583602</ele>
        <time>2021-11-16T09:51:15.717Z</time>
      </trkpt>
      <trkpt lat="38.75375" lon="35.37854">
        <ele>1040.380025</ele>
        <time>2021-11-16T09:51:38.650Z</time>
      </trkpt>
      <trkpt lat="38.75379" lon="35.37817">
        <ele>1040.322405</ele>
        <time>2021-11-16T09:51:44.883Z</time>
      </trkpt>
      <trkpt lat="38.75397" lon="35.3772">
        <ele>1039.895848</ele>
        <time>2021-11-16T09:52:01.605Z</time>
      </trkpt>
      <trkpt lat="38.75415" lon="35.37627">
        <ele>1039.460601</ele>
        <time>2021-11-16T09:52:17.258Z</time>
      </trkpt>
      <trkpt lat="38.75418" lon="35.37629">
        <ele>1039.436534</ele>
        <time>2021-11-16T09:52:18.136Z</time>
      </trkpt>
      <trkpt lat="38.75433" lon="35.37542">
        <ele>1038.955141</ele>
        <time>2021-11-16T09:52:32.528Z</time>
      </trkpt>
      <trkpt lat="38.75438" lon="35.37496">
        <ele>1038.67122</ele>
        <time>2021-11-16T09:52:40.048Z</time>
      </trkpt>
      <trkpt lat="38.75447" lon="35.37419">
        <ele>1038.194354</ele>
        <time>2021-11-16T09:52:52.604Z</time>
      </trkpt>
      <trkpt lat="38.75457" lon="35.37388">
        <ele>1037.989547</ele>
        <time>2021-11-16T09:52:57.928Z</time>
      </trkpt>
      <trkpt lat="38.75457" lon="35.37313">
        <ele>1037.567878</ele>
        <time>2021-11-16T09:53:09.968Z</time>
      </trkpt>
      <trkpt lat="38.75461" lon="35.37292">
        <ele>1037.450595</ele>
        <time>2021-11-16T09:53:13.550Z</time>
      </trkpt>
      <trkpt lat="38.75474" lon="35.37265">
        <ele>1037.282205</ele>
        <time>2021-11-16T09:53:18.592Z</time>
      </trkpt>
      <trkpt lat="38.75482" lon="35.37249">
        <ele>1037.179326</ele>
        <time>2021-11-16T09:53:21.739Z</time>
      </trkpt>
      <trkpt lat="38.75501" lon="35.37161">
        <ele>1036.68958</ele>
        <time>2021-11-16T09:53:36.741Z</time>
      </trkpt>
      <trkpt lat="38.75505" lon="35.37101">
        <ele>1036.529838</ele>
        <time>2021-11-16T09:53:46.811Z</time>
      </trkpt>
      <trkpt lat="38.75504" lon="35.37085">
        <ele>1036.504816</ele>
        <time>2021-11-16T09:53:49.492Z</time>
      </trkpt>
      <trkpt lat="38.7555" lon="35.37077">
        <ele>1036.411939</ele>
        <time>2021-11-16T09:53:59.432Z</time>
      </trkpt>
      <trkpt lat="38.75589" lon="35.37078">
        <ele>1036.33134</ele>
        <time>2021-11-16T09:54:08.175Z</time>
      </trkpt>
      <trkpt lat="38.75597" lon="35.37078">
        <ele>1036.31536</ele>
        <time>2021-11-16T09:54:09.886Z</time>
      </trkpt>
      <trkpt lat="38.75602" lon="35.3708">
        <ele>1036.305117</ele>
        <time>2021-11-16T09:54:10.981Z</time>
      </trkpt>
      <trkpt lat="38.75611" lon="35.37076">
        <ele>1036.284859</ele>
        <time>2021-11-16T09:54:13.239Z</time>
      </trkpt>
      <trkpt lat="38.75617" lon="35.37066">
        <ele>1036.264733</ele>
        <time>2021-11-16T09:54:15.433Z</time>
      </trkpt>
      <trkpt lat="38.75617" lon="35.37059">
        <ele>1036.254517</ele>
        <time>2021-11-16T09:54:16.505Z</time>
      </trkpt>
      <trkpt lat="38.75616" lon="35.37053">
        <ele>1036.244815</ele>
        <time>2021-11-16T09:54:17.534Z</time>
      </trkpt>
      <trkpt lat="38.75605" lon="35.37042">
        <ele>1036.224991</ele>
        <time>2021-11-16T09:54:20.575Z</time>
      </trkpt>
      <trkpt lat="38.75596" lon="35.37044">
        <ele>1036.215553</ele>
        <time>2021-11-16T09:54:22.653Z</time>
      </trkpt>
      <trkpt lat="38.75592" lon="35.37047">
        <ele>1036.210833</ele>
        <time>2021-11-16T09:54:23.662Z</time>
      </trkpt>
      <trkpt lat="38.75586" lon="35.3705">
        <ele>1036.204396</ele>
        <time>2021-11-16T09:54:25.028Z</time>
      </trkpt>
      <trkpt lat="38.7554" lon="35.37063">
        <ele>1036.155746</ele>
        <time>2021-11-16T09:54:35.388Z</time>
      </trkpt>
      <trkpt lat="38.75513" lon="35.37067">
        <ele>1036.128615</ele>
        <time>2021-11-16T09:54:41.117Z</time>
      </trkpt>
      <trkpt lat="38.75508" lon="35.36878">
        <ele>1036.011042</ele>
        <time>2021-11-16T09:55:13.691Z</time>
      </trkpt>
      <trkpt lat="38.75505" lon="35.36807">
        <ele>1035.98064</ele>
        <time>2021-11-16T09:55:25.992Z</time>
      </trkpt>
      <trkpt lat="38.75501" lon="35.36659">
        <ele>1035.888691</ele>
        <time>2021-11-16T09:55:51.179Z</time>
      </trkpt>
      <trkpt lat="38.75503" lon="35.36657">
        <ele>1035.885735</ele>
        <time>2021-11-16T09:55:51.795Z</time>
      </trkpt>
      <trkpt lat="38.75504" lon="35.36653">
        <ele>1035.882837</ele>
        <time>2021-11-16T09:55:52.405Z</time>
      </trkpt>
      <trkpt lat="38.75503" lon="35.36646">
        <ele>1035.877072</ele>
        <time>2021-11-16T09:55:53.657Z</time>
      </trkpt>
      <trkpt lat="38.75502" lon="35.36643">
        <ele>1035.874108</ele>
        <time>2021-11-16T09:55:54.274Z</time>
      </trkpt>
      <trkpt lat="38.75485" lon="35.3647">
        <ele>1035.777091</ele>
        <time>2021-11-16T09:56:23.835Z</time>
      </trkpt>
      <trkpt lat="38.75468" lon="35.36298">
        <ele>1035.820244</ele>
        <time>2021-11-16T09:56:54.065Z</time>
      </trkpt>
      <trkpt lat="38.75459" lon="35.36202">
        <ele>1035.805619</ele>
        <time>2021-11-16T09:57:11.342Z</time>
      </trkpt>
      <trkpt lat="38.75451" lon="35.36123">
        <ele>1035.786467</ele>
        <time>2021-11-16T09:57:25.338Z</time>
      </trkpt>
      <trkpt lat="38.75442" lon="35.36026">
        <ele>1035.665784</ele>
        <time>2021-11-16T09:57:41.775Z</time>
      </trkpt>
      <trkpt lat="38.75426" lon="35.35855">
        <ele>1034.971406</ele>
        <time>2021-11-16T09:58:09.326Z</time>
      </trkpt>
      <trkpt lat="38.75408" lon="35.35679">
        <ele>1034.039771</ele>
        <time>2021-11-16T09:58:36.499Z</time>
      </trkpt>
      <trkpt lat="38.75427" lon="35.35677">
        <ele>1033.910368</ele>
        <time>2021-11-16T09:58:40.123Z</time>
      </trkpt>
      <trkpt lat="38.75473" lon="35.3567">
        <ele>1033.5791</ele>
        <time>2021-11-16T09:58:49.580Z</time>
      </trkpt>
      <trkpt lat="38.75491" lon="35.35667">
        <ele>1033.551133</ele>
        <time>2021-11-16T09:58:53.209Z</time>
      </trkpt>
      <trkpt lat="38.75491" lon="35.35513">
        <ele>1033.423513</ele>
        <time>2021-11-16T09:59:19.220Z</time>
      </trkpt>
      <trkpt lat="38.75494" lon="35.35446">
        <ele>1033.395663</ele>
        <time>2021-11-16T09:59:31.463Z</time>
      </trkpt>
      <trkpt lat="38.75498" lon="35.35349">
        <ele>1033.549844</ele>
        <time>2021-11-16T09:59:49.307Z</time>
      </trkpt>
      <trkpt lat="38.75499" lon="35.35327">
        <ele>1033.583949</ele>
        <time>2021-11-16T09:59:53.247Z</time>
      </trkpt>
      <trkpt lat="38.7549" lon="35.35158">
        <ele>1033.725181</ele>
        <time>2021-11-16T10:00:23.155Z</time>
      </trkpt>
      <trkpt lat="38.75486" lon="35.3512">
        <ele>1033.715661</ele>
        <time>2021-11-16T10:00:29.486Z</time>
      </trkpt>
      <trkpt lat="38.75485" lon="35.35105">
        <ele>1033.711845</ele>
        <time>2021-11-16T10:00:32.028Z</time>
      </trkpt>
      <trkpt lat="38.75479" lon="35.35083">
        <ele>1033.705933</ele>
        <time>2021-11-16T10:00:35.993Z</time>
      </trkpt>
      <trkpt lat="38.75464" lon="35.35032">
        <ele>1033.692082</ele>
        <time>2021-11-16T10:00:45.631Z</time>
      </trkpt>
      <trkpt lat="38.75441" lon="35.34955">
        <ele>1033.63364</ele>
        <time>2021-11-16T10:00:59.726Z</time>
      </trkpt>
      <trkpt lat="38.75427" lon="35.34903">
        <ele>1033.579055</ele>
        <time>2021-11-16T10:01:09.190Z</time>
      </trkpt>
      <trkpt lat="38.75426" lon="35.34892">
        <ele>1033.568758</ele>
        <time>2021-11-16T10:01:11.039Z</time>
      </trkpt>
      <trkpt lat="38.75418" lon="35.34826">
        <ele>1033.503067</ele>
        <time>2021-11-16T10:01:22.165Z</time>
      </trkpt>
      <trkpt lat="38.75397" lon="35.34632">
        <ele>1033.211382</ele>
        <time>2021-11-16T10:01:55.219Z</time>
      </trkpt>
      <trkpt lat="38.75389" lon="35.34561">
        <ele>1033.092601</ele>
        <time>2021-11-16T10:02:07.057Z</time>
      </trkpt>
      <trkpt lat="38.75377" lon="35.34406">
        <ele>1032.729721</ele>
        <time>2021-11-16T10:02:32.582Z</time>
      </trkpt>
      <trkpt lat="38.75367" lon="35.34276">
        <ele>1032.50507</ele>
        <time>2021-11-16T10:02:54.363Z</time>
      </trkpt>
      <trkpt lat="38.75336" lon="35.33939">
        <ele>1032.405772</ele>
        <time>2021-11-16T10:03:53.009Z</time>
      </trkpt>
      <trkpt lat="38.75256" lon="35.33027">
        <ele>1032.47989</ele>
        <time>2021-11-16T10:06:32.892Z</time>
      </trkpt>
      <trkpt lat="38.75221" lon="35.32651">
        <ele>1032.460867</ele>
        <time>2021-11-16T10:07:38.130Z</time>
      </trkpt>
      <trkpt lat="38.75163" lon="35.31953">
        <ele>1033.023373</ele>
        <time>2021-11-16T10:09:41.639Z</time>
      </trkpt>
      <trkpt lat="38.75158" lon="35.31888">
        <ele>1033.166605</ele>
        <time>2021-11-16T10:09:53.695Z</time>
      </trkpt>
      <trkpt lat="38.75156" lon="35.31863">
        <ele>1033.221531</ele>
        <time>2021-11-16T10:09:58.327Z</time>
      </trkpt>
      <trkpt lat="38.75146" lon="35.31783">
        <ele>1033.418756</ele>
        <time>2021-11-16T10:10:13.553Z</time>
      </trkpt>
      <trkpt lat="38.75111" lon="35.31532">
        <ele>1034.225226</ele>
        <time>2021-11-16T10:11:00.774Z</time>
      </trkpt>
      <trkpt lat="38.75103" lon="35.31406">
        <ele>1034.671386</ele>
        <time>2021-11-16T10:11:24.581Z</time>
      </trkpt>
      <trkpt lat="38.75104" lon="35.31348">
        <ele>1034.876816</ele>
        <time>2021-11-16T10:11:35.147Z</time>
      </trkpt>
      <trkpt lat="38.75113" lon="35.31314">
        <ele>1035.094117</ele>
        <time>2021-11-16T10:11:41.848Z</time>
      </trkpt>
      <trkpt lat="38.75131" lon="35.31233">
        <ele>1035.616478</ele>
        <time>2021-11-16T10:11:58.981Z</time>
      </trkpt>
      <trkpt lat="38.75145" lon="35.31177">
        <ele>1035.986267</ele>
        <time>2021-11-16T10:12:10.904Z</time>
      </trkpt>
      <trkpt lat="38.75149" lon="35.31166">
        <ele>1036.059423</ele>
        <time>2021-11-16T10:12:13.891Z</time>
      </trkpt>
      <trkpt lat="38.75167" lon="35.31129">
        <ele>1036.329052</ele>
        <time>2021-11-16T10:12:22.469Z</time>
      </trkpt>
      <trkpt lat="38.75172" lon="35.31122">
        <ele>1036.383367</ele>
        <time>2021-11-16T10:12:24.505Z</time>
      </trkpt>
      <trkpt lat="38.75178" lon="35.31118">
        <ele>1036.432377</ele>
        <time>2021-11-16T10:12:26.162Z</time>
      </trkpt>
      <trkpt lat="38.75184" lon="35.31112">
        <ele>1036.481756</ele>
        <time>2021-11-16T10:12:27.573Z</time>
      </trkpt>
      <trkpt lat="38.75189" lon="35.31105">
        <ele>1036.530727</ele>
        <time>2021-11-16T10:12:29.140Z</time>
      </trkpt>
      <trkpt lat="38.75191" lon="35.31099">
        <ele>1036.567449</ele>
        <time>2021-11-16T10:12:31.000Z</time>
      </trkpt>
      <trkpt lat="38.75193" lon="35.31079">
        <ele>1036.677457</ele>
        <time>2021-11-16T10:12:34.939Z</time>
      </trkpt>
      <trkpt lat="38.75187" lon="35.3106">
        <ele>1036.787377</ele>
        <time>2021-11-16T10:12:38.360Z</time>
      </trkpt>
      <trkpt lat="38.75184" lon="35.31055">
        <ele>1036.82451</ele>
        <time>2021-11-16T10:12:40.249Z</time>
      </trkpt>
      <trkpt lat="38.7518" lon="35.31052">
        <ele>1036.8526</ele>
        <time>2021-11-16T10:12:41.318Z</time>
      </trkpt>
      <trkpt lat="38.75173" lon="35.31047">
        <ele>1036.908525</ele>
        <time>2021-11-16T10:12:43.322Z</time>
      </trkpt>
      <trkpt lat="38.75169" lon="35.31046">
        <ele>1036.936418</ele>
        <time>2021-11-16T10:12:44.224Z</time>
      </trkpt>
      <trkpt lat="38.75157" lon="35.31043">
        <ele>1037.020581</ele>
        <time>2021-11-16T10:12:46.764Z</time>
      </trkpt>
      <trkpt lat="38.75128" lon="35.31015">
        <ele>1037.272513</ele>
        <time>2021-11-16T10:12:56.430Z</time>
      </trkpt>
      <trkpt lat="38.75103" lon="35.30968">
        <ele>1037.572379</ele>
        <time>2021-11-16T10:13:08.149Z</time>
      </trkpt>
      <trkpt lat="38.75091" lon="35.30941">
        <ele>1037.649622</ele>
        <time>2021-11-16T10:13:13.541Z</time>
      </trkpt>
      <trkpt lat="38.7508" lon="35.30919">
        <ele>1037.714902</ele>
        <time>2021-11-16T10:13:18.387Z</time>
      </trkpt>
      <trkpt lat="38.75076" lon="35.30911">
        <ele>1037.73735</ele>
        <time>2021-11-16T10:13:20.124Z</time>
      </trkpt>
      <trkpt lat="38.75065" lon="35.30888">
        <ele>1037.805029</ele>
        <time>2021-11-16T10:13:24.582Z</time>
      </trkpt>
      <trkpt lat="38.75062" lon="35.30882">
        <ele>1037.823459</ele>
        <time>2021-11-16T10:13:25.890Z</time>
      </trkpt>
      <trkpt lat="38.75058" lon="35.30872">
        <ele>1037.850036</ele>
        <time>2021-11-16T10:13:28.024Z</time>
      </trkpt>
      <trkpt lat="38.7504" lon="35.30833">
        <ele>1037.963959</ele>
        <time>2021-11-16T10:13:36.255Z</time>
      </trkpt>
      <trkpt lat="38.7504" lon="35.30832">
        <ele>1037.96653</ele>
        <time>2021-11-16T10:13:36.481Z</time>
      </trkpt>
      <trkpt lat="38.75015" lon="35.30795">
        <ele>1038.087036</ele>
        <time>2021-11-16T10:13:45.226Z</time>
      </trkpt>
      <trkpt lat="38.74961" lon="35.30737">
        <ele>1038.138048</ele>
        <time>2021-11-16T10:14:01.702Z</time>
      </trkpt>
      <trkpt lat="38.74876" lon="35.30657">
        <ele>1038.134766</ele>
        <time>2021-11-16T10:14:24.985Z</time>
      </trkpt>
      <trkpt lat="38.74866" lon="35.30646">
        <ele>1038.134358</ele>
        <time>2021-11-16T10:14:27.543Z</time>
      </trkpt>
      <trkpt lat="38.7485" lon="35.30629">
        <ele>1038.10608</ele>
        <time>2021-11-16T10:14:32.215Z</time>
      </trkpt>
      <trkpt lat="38.74836" lon="35.30613">
        <ele>1038.067593</ele>
        <time>2021-11-16T10:14:35.882Z</time>
      </trkpt>
      <trkpt lat="38.74823" lon="35.30597">
        <ele>1038.029087</ele>
        <time>2021-11-16T10:14:39.983Z</time>
      </trkpt>
      <trkpt lat="38.7475" lon="35.30498">
        <ele>1037.805704</ele>
        <time>2021-11-16T10:15:02.465Z</time>
      </trkpt>
      <trkpt lat="38.74521" lon="35.30184">
        <ele>1038.062972</ele>
        <time>2021-11-16T10:16:17.724Z</time>
      </trkpt>
      <trkpt lat="38.7422" lon="35.29777">
        <ele>1039.809965</ele>
        <time>2021-11-16T10:18:03.681Z</time>
      </trkpt>
      <trkpt lat="38.73876" lon="35.29314">
        <ele>1039.925128</ele>
        <time>2021-11-16T10:19:53.752Z</time>
      </trkpt>
      <trkpt lat="38.73828" lon="35.29249">
        <ele>1040.231558</ele>
        <time>2021-11-16T10:20:10.288Z</time>
      </trkpt>
      <trkpt lat="38.73798" lon="35.29206">
        <ele>1040.462841</ele>
        <time>2021-11-16T10:20:21.364Z</time>
      </trkpt>
      <trkpt lat="38.7375" lon="35.2914">
        <ele>1040.823478</ele>
        <time>2021-11-16T10:20:38.976Z</time>
      </trkpt>
      <trkpt lat="38.73737" lon="35.2912">
        <ele>1040.938134</ele>
        <time>2021-11-16T10:20:44.140Z</time>
      </trkpt>
      <trkpt lat="38.73736" lon="35.29117">
        <ele>1040.950341</ele>
        <time>2021-11-16T10:20:44.700Z</time>
      </trkpt>
      <trkpt lat="38.73735" lon="35.29115">
        <ele>1040.962734</ele>
        <time>2021-11-16T10:20:45.256Z</time>
      </trkpt>
      <trkpt lat="38.73733" lon="35.29113">
        <ele>1040.975277</ele>
        <time>2021-11-16T10:20:45.792Z</time>
      </trkpt>
      <trkpt lat="38.73731" lon="35.29112">
        <ele>1040.987624</ele>
        <time>2021-11-16T10:20:46.333Z</time>
      </trkpt>
      <trkpt lat="38.73716" lon="35.29093">
        <ele>1041.109309</ele>
        <time>2021-11-16T10:20:51.672Z</time>
      </trkpt>
      <trkpt lat="38.73624" lon="35.28972">
        <ele>1041.868636</ele>
        <time>2021-11-16T10:21:24.060Z</time>
      </trkpt>
      <trkpt lat="38.73505" lon="35.28815">
        <ele>1042.008827</ele>
        <time>2021-11-16T10:22:02.615Z</time>
      </trkpt>
      <trkpt lat="38.73447" lon="35.28738">
        <ele>1041.744462</ele>
        <time>2021-11-16T10:22:20.493Z</time>
      </trkpt>
      <trkpt lat="38.73382" lon="35.28658">
        <ele>1041.394834</ele>
        <time>2021-11-16T10:22:39.107Z</time>
      </trkpt>
      <trkpt lat="38.73328" lon="35.28599">
        <ele>1040.857489</ele>
        <time>2021-11-16T10:22:53.281Z</time>
      </trkpt>
      <trkpt lat="38.73263" lon="35.28529">
        <ele>1040.10472</ele>
        <time>2021-11-16T10:23:09.729Z</time>
      </trkpt>
      <trkpt lat="38.73135" lon="35.28394">
        <ele>1038.462891</ele>
        <time>2021-11-16T10:23:41.356Z</time>
      </trkpt>
      <trkpt lat="38.73018" lon="35.28271">
        <ele>1037.147996</ele>
        <time>2021-11-16T10:24:10.764Z</time>
      </trkpt>
      <trkpt lat="38.72955" lon="35.28205">
        <ele>1036.512026</ele>
        <time>2021-11-16T10:24:27.225Z</time>
      </trkpt>
      <trkpt lat="38.72906" lon="35.28152">
        <ele>1036.306297</ele>
        <time>2021-11-16T10:24:40.424Z</time>
      </trkpt>
      <trkpt lat="38.72854" lon="35.28096">
        <ele>1036.110738</ele>
        <time>2021-11-16T10:24:54.700Z</time>
      </trkpt>
      <trkpt lat="38.72589" lon="35.27817">
        <ele>1036.240285</ele>
        <time>2021-11-16T10:26:12.167Z</time>
      </trkpt>
      <trkpt lat="38.72513" lon="35.27737">
        <ele>1036.347584</ele>
        <time>2021-11-16T10:26:34.853Z</time>
      </trkpt>
      <trkpt lat="38.72334" lon="35.27538">
        <ele>1036.282211</ele>
        <time>2021-11-16T10:27:27.959Z</time>
      </trkpt>
      <trkpt lat="38.72172" lon="35.27381">
        <ele>1035.909827</ele>
        <time>2021-11-16T10:28:10.066Z</time>
      </trkpt>
      <trkpt lat="38.71887" lon="35.27079">
        <ele>1036.724156</ele>
        <time>2021-11-16T10:29:36.019Z</time>
      </trkpt>
      <trkpt lat="38.71743" lon="35.26913">
        <ele>1037.517519</ele>
        <time>2021-11-16T10:30:23.422Z</time>
      </trkpt>
      <trkpt lat="38.71559" lon="35.26738">
        <ele>1037.912925</ele>
        <time>2021-11-16T10:31:15.477Z</time>
      </trkpt>
      <trkpt lat="38.71116" lon="35.26288">
        <ele>1038.578075</ele>
        <time>2021-11-16T10:33:24.182Z</time>
      </trkpt>
      <trkpt lat="38.70908" lon="35.26083">
        <ele>1038.071964</ele>
        <time>2021-11-16T10:34:20.438Z</time>
      </trkpt>
      <trkpt lat="38.70773" lon="35.2595">
        <ele>1037.809788</ele>
        <time>2021-11-16T10:34:56.570Z</time>
      </trkpt>
      <trkpt lat="38.70741" lon="35.2592">
        <ele>1037.775693</ele>
        <time>2021-11-16T10:35:05.241Z</time>
      </trkpt>
      <trkpt lat="38.70611" lon="35.25793">
        <ele>1038.239756</ele>
        <time>2021-11-16T10:35:43.709Z</time>
      </trkpt>
      <trkpt lat="38.7036" lon="35.25547">
        <ele>1040.188158</ele>
        <time>2021-11-16T10:37:01.823Z</time>
      </trkpt>
      <trkpt lat="38.70309" lon="35.25497">
        <ele>1040.667344</ele>
        <time>2021-11-16T10:37:18.240Z</time>
      </trkpt>
      <trkpt lat="38.70089" lon="35.25283">
        <ele>1043.287064</ele>
        <time>2021-11-16T10:38:29.835Z</time>
      </trkpt>
      <trkpt lat="38.70054" lon="35.25248">
        <ele>1043.815215</ele>
        <time>2021-11-16T10:38:41.778Z</time>
      </trkpt>
      <trkpt lat="38.7001" lon="35.25203">
        <ele>1044.478281</ele>
        <time>2021-11-16T10:38:57.056Z</time>
      </trkpt>
      <trkpt lat="38.69834" lon="35.25024">
        <ele>1047.604472</ele>
        <time>2021-11-16T10:40:00.485Z</time>
      </trkpt>
      <trkpt lat="38.6975" lon="35.24931">
        <ele>1048.937801</ele>
        <time>2021-11-16T10:40:30.689Z</time>
      </trkpt>
      <trkpt lat="38.697" lon="35.24877">
        <ele>1049.594496</ele>
        <time>2021-11-16T10:40:47.647Z</time>
      </trkpt>
      <trkpt lat="38.69677" lon="35.24854">
        <ele>1049.787596</ele>
        <time>2021-11-16T10:40:54.951Z</time>
      </trkpt>
      <trkpt lat="38.69657" lon="35.24837">
        <ele>1049.951349</ele>
        <time>2021-11-16T10:41:01.076Z</time>
      </trkpt>
      <trkpt lat="38.69657" lon="35.24837">
        <ele>1049.951349</ele>
        <time>2021-11-16T10:41:01.095Z</time>
      </trkpt>
      <trkpt lat="38.69657" lon="35.24837">
        <ele>1049.951349</ele>
        <time>2021-11-16T10:41:01.115Z</time>
      </trkpt>
      <trkpt lat="38.6955" lon="35.24747">
        <ele>1050.741451</ele>
        <time>2021-11-16T10:41:32.204Z</time>
      </trkpt>
      <trkpt lat="38.6935" lon="35.24559">
        <ele>1051.671969</ele>
        <time>2021-11-16T10:42:31.023Z</time>
      </trkpt>
      <trkpt lat="38.69287" lon="35.24499">
        <ele>1051.933193</ele>
        <time>2021-11-16T10:42:49.471Z</time>
      </trkpt>
      <trkpt lat="38.69256" lon="35.24468">
        <ele>1051.982476</ele>
        <time>2021-11-16T10:42:58.823Z</time>
      </trkpt>
      <trkpt lat="38.69184" lon="35.24398">
        <ele>1052.045611</ele>
        <time>2021-11-16T10:43:19.798Z</time>
      </trkpt>
      <trkpt lat="38.6913" lon="35.24344">
        <ele>1052.026039</ele>
        <time>2021-11-16T10:43:34.452Z</time>
      </trkpt>
      <trkpt lat="38.69078" lon="35.24293">
        <ele>1051.66082</ele>
        <time>2021-11-16T10:43:47.893Z</time>
      </trkpt>
      <trkpt lat="38.69067" lon="35.24284">
        <ele>1051.586525</ele>
        <time>2021-11-16T10:43:50.607Z</time>
      </trkpt>
      <trkpt lat="38.68995" lon="35.24216">
        <ele>1051.088225</ele>
        <time>2021-11-16T10:44:08.488Z</time>
      </trkpt>
      <trkpt lat="38.68986" lon="35.24209">
        <ele>1051.03768</ele>
        <time>2021-11-16T10:44:10.562Z</time>
      </trkpt>
      <trkpt lat="38.68884" lon="35.24121">
        <ele>1050.458224</ele>
        <time>2021-11-16T10:44:35.075Z</time>
      </trkpt>
      <trkpt lat="38.68639" lon="35.23911">
        <ele>1050.383591</ele>
        <time>2021-11-16T10:45:40.650Z</time>
      </trkpt>
      <trkpt lat="38.68579" lon="35.23861">
        <ele>1050.571691</ele>
        <time>2021-11-16T10:45:57.929Z</time>
      </trkpt>
      <trkpt lat="38.68564" lon="35.23809">
        <ele>1050.685507</ele>
        <time>2021-11-16T10:46:08.347Z</time>
      </trkpt>
      <trkpt lat="38.68554" lon="35.23801">
        <ele>1050.709915</ele>
        <time>2021-11-16T10:46:11.322Z</time>
      </trkpt>
      <trkpt lat="38.68544" lon="35.23792">
        <ele>1050.735821</ele>
        <time>2021-11-16T10:46:14.277Z</time>
      </trkpt>
      <trkpt lat="38.68534" lon="35.23785">
        <ele>1050.759965</ele>
        <time>2021-11-16T10:46:16.887Z</time>
      </trkpt>
      <trkpt lat="38.68504" lon="35.23799">
        <ele>1050.826478</ele>
        <time>2021-11-16T10:46:24.535Z</time>
      </trkpt>
      <trkpt lat="38.68438" lon="35.23739">
        <ele>1050.997145</ele>
        <time>2021-11-16T10:46:43.364Z</time>
      </trkpt>
      <trkpt lat="38.6833" lon="35.23652">
        <ele>1051.194675</ele>
        <time>2021-11-16T10:47:11.066Z</time>
      </trkpt>
      <trkpt lat="38.68308" lon="35.23634">
        <ele>1051.231868</ele>
        <time>2021-11-16T10:47:17.051Z</time>
      </trkpt>
      <trkpt lat="38.68235" lon="35.23568">
        <ele>1051.832231</ele>
        <time>2021-11-16T10:47:38.368Z</time>
      </trkpt>
      <trkpt lat="38.68214" lon="35.2354">
        <ele>1052.295802</ele>
        <time>2021-11-16T10:47:46.347Z</time>
      </trkpt>
      <trkpt lat="38.68189" lon="35.23494">
        <ele>1052.952826</ele>
        <time>2021-11-16T10:47:58.247Z</time>
      </trkpt>
      <trkpt lat="38.68171" lon="35.23447">
        <ele>1053.56681</ele>
        <time>2021-11-16T10:48:10.055Z</time>
      </trkpt>
      <trkpt lat="38.68112" lon="35.23254">
        <ele>1058.75204</ele>
        <time>2021-11-16T10:49:06.788Z</time>
      </trkpt>
      <trkpt lat="38.68099" lon="35.23186">
        <ele>1060.749242</ele>
        <time>2021-11-16T10:49:29.466Z</time>
      </trkpt>
      <trkpt lat="38.68098" lon="35.23151">
        <ele>1061.93995</ele>
        <time>2021-11-16T10:49:40.363Z</time>
      </trkpt>
      <trkpt lat="38.68096" lon="35.23091">
        <ele>1064.007858</ele>
        <time>2021-11-16T10:49:59.747Z</time>
      </trkpt>
      <trkpt lat="38.68097" lon="35.23046">
        <ele>1065.583955</ele>
        <time>2021-11-16T10:50:14.245Z</time>
      </trkpt>
      <trkpt lat="38.68096" lon="35.2283">
        <ele>1072.369709</ele>
        <time>2021-11-16T10:51:19.199Z</time>
      </trkpt>
      <trkpt lat="38.68096" lon="35.22777">
        <ele>1073.931955</ele>
        <time>2021-11-16T10:51:33.739Z</time>
      </trkpt>
      <trkpt lat="38.68094" lon="35.22445">
        <ele>1083.356392</ele>
        <time>2021-11-16T10:53:07.873Z</time>
      </trkpt>
      <trkpt lat="38.68105" lon="35.20387">
        <ele>1148.066138</ele>
        <time>2021-11-16T11:03:23.916Z</time>
      </trkpt>
      <trkpt lat="38.68119" lon="35.20275">
        <ele>1152.19266</ele>
        <time>2021-11-16T11:03:59.502Z</time>
      </trkpt>
      <trkpt lat="38.68146" lon="35.20175">
        <ele>1156.351806</ele>
        <time>2021-11-16T11:04:35.173Z</time>
      </trkpt>
      <trkpt lat="38.6816" lon="35.20139">
        <ele>1158.204307</ele>
        <time>2021-11-16T11:04:49.306Z</time>
      </trkpt>
      <trkpt lat="38.68164" lon="35.2012">
        <ele>1159.124369</ele>
        <time>2021-11-16T11:04:56.373Z</time>
      </trkpt>
      <trkpt lat="38.68302" lon="35.1971">
        <ele>1179.77958</ele>
        <time>2021-11-16T11:07:40.372Z</time>
      </trkpt>
      <trkpt lat="38.68383" lon="35.19464">
        <ele>1189.96245</ele>
        <time>2021-11-16T11:09:05.830Z</time>
      </trkpt>
      <trkpt lat="38.68448" lon="35.1927">
        <ele>1196.629208</ele>
        <time>2021-11-16T11:10:10.081Z</time>
      </trkpt>
      <trkpt lat="38.68571" lon="35.18895">
        <ele>1206.464375</ele>
        <time>2021-11-16T11:12:00.821Z</time>
      </trkpt>
      <trkpt lat="38.68632" lon="35.18711">
        <ele>1209.291847</ele>
        <time>2021-11-16T11:12:45.177Z</time>
      </trkpt>
      <trkpt lat="38.68665" lon="35.18638">
        <ele>1209.905626</ele>
        <time>2021-11-16T11:13:01.844Z</time>
      </trkpt>
      <trkpt lat="38.68694" lon="35.18579">
        <ele>1210.418806</ele>
        <time>2021-11-16T11:13:15.648Z</time>
      </trkpt>
      <trkpt lat="38.68725" lon="35.18531">
        <ele>1210.877614</ele>
        <time>2021-11-16T11:13:27.969Z</time>
      </trkpt>
      <trkpt lat="38.68741" lon="35.18506">
        <ele>1211.210196</ele>
        <time>2021-11-16T11:13:34.179Z</time>
      </trkpt>
      <trkpt lat="38.68839" lon="35.18353">
        <ele>1213.405882</ele>
        <time>2021-11-16T11:14:17.541Z</time>
      </trkpt>
      <trkpt lat="38.6884" lon="35.18352">
        <ele>1213.418165</ele>
        <time>2021-11-16T11:14:18.429Z</time>
      </trkpt>
      <trkpt lat="38.68904" lon="35.18252">
        <ele>1215.647087</ele>
        <time>2021-11-16T11:14:48.892Z</time>
      </trkpt>
      <trkpt lat="38.6898" lon="35.18133">
        <ele>1218.551179</ele>
        <time>2021-11-16T11:15:27.757Z</time>
      </trkpt>
      <trkpt lat="38.6913" lon="35.17902">
        <ele>1225.326262</ele>
        <time>2021-11-16T11:16:48.509Z</time>
      </trkpt>
      <trkpt lat="38.69462" lon="35.1739">
        <ele>1238.336665</ele>
        <time>2021-11-16T11:19:38.669Z</time>
      </trkpt>
      <trkpt lat="38.69501" lon="35.17318">
        <ele>1239.332338</ele>
        <time>2021-11-16T11:19:56.575Z</time>
      </trkpt>
      <trkpt lat="38.69544" lon="35.17217">
        <ele>1239.787266</ele>
        <time>2021-11-16T11:20:17.458Z</time>
      </trkpt>
      <trkpt lat="38.69558" lon="35.17173">
        <ele>1239.698544</ele>
        <time>2021-11-16T11:20:25.336Z</time>
      </trkpt>
      <trkpt lat="38.69576" lon="35.17106">
        <ele>1239.565875</ele>
        <time>2021-11-16T11:20:36.808Z</time>
      </trkpt>
      <trkpt lat="38.69593" lon="35.17001">
        <ele>1239.203538</ele>
        <time>2021-11-16T11:20:53.710Z</time>
      </trkpt>
      <trkpt lat="38.696" lon="35.16886">
        <ele>1238.675311</ele>
        <time>2021-11-16T11:21:11.861Z</time>
      </trkpt>
      <trkpt lat="38.69599" lon="35.16819">
        <ele>1238.382275</ele>
        <time>2021-11-16T11:21:22.490Z</time>
      </trkpt>
      <trkpt lat="38.69553" lon="35.14251">
        <ele>1230.423134</ele>
        <time>2021-11-16T11:28:19.414Z</time>
      </trkpt>
      <trkpt lat="38.69552" lon="35.14159">
        <ele>1230.796058</ele>
        <time>2021-11-16T11:28:37.129Z</time>
      </trkpt>
      <trkpt lat="38.69546" lon="35.13771">
        <ele>1232.935105</ele>
        <time>2021-11-16T11:29:55.894Z</time>
      </trkpt>
      <trkpt lat="38.6954" lon="35.13445">
        <ele>1233.156096</ele>
        <time>2021-11-16T11:30:52.531Z</time>
      </trkpt>
      <trkpt lat="38.69538" lon="35.13354">
        <ele>1233.028406</ele>
        <time>2021-11-16T11:31:07.324Z</time>
      </trkpt>
      <trkpt lat="38.69537" lon="35.13264">
        <ele>1232.749168</ele>
        <time>2021-11-16T11:31:21.738Z</time>
      </trkpt>
      <trkpt lat="38.69533" lon="35.13042">
        <ele>1232.384472</ele>
        <time>2021-11-16T11:31:58.260Z</time>
      </trkpt>
      <trkpt lat="38.69529" lon="35.12819">
        <ele>1232.917068</ele>
        <time>2021-11-16T11:32:39.080Z</time>
      </trkpt>
      <trkpt lat="38.69528" lon="35.1265">
        <ele>1233.965338</ele>
        <time>2021-11-16T11:33:13.442Z</time>
      </trkpt>
      <trkpt lat="38.69524" lon="35.12436">
        <ele>1235.867508</ele>
        <time>2021-11-16T11:33:58.520Z</time>
      </trkpt>
      <trkpt lat="38.69526" lon="35.12262">
        <ele>1237.30275</ele>
        <time>2021-11-16T11:34:34.842Z</time>
      </trkpt>
      <trkpt lat="38.69535" lon="35.12126">
        <ele>1237.935591</ele>
        <time>2021-11-16T11:35:02.369Z</time>
      </trkpt>
      <trkpt lat="38.6955" lon="35.1199">
        <ele>1238.335238</ele>
        <time>2021-11-16T11:35:26.896Z</time>
      </trkpt>
      <trkpt lat="38.69584" lon="35.11788">
        <ele>1237.607975</ele>
        <time>2021-11-16T11:35:59.841Z</time>
      </trkpt>
      <trkpt lat="38.69833" lon="35.10642">
        <ele>1230.868844</ele>
        <time>2021-11-16T11:39:04.059Z</time>
      </trkpt>
      <trkpt lat="38.69884" lon="35.10499">
        <ele>1231.344904</ele>
        <time>2021-11-16T11:39:33.320Z</time>
      </trkpt>
      <trkpt lat="38.69914" lon="35.10436">
        <ele>1231.606557</ele>
        <time>2021-11-16T11:39:48.307Z</time>
      </trkpt>
      <trkpt lat="38.69957" lon="35.10362">
        <ele>1232.071025</ele>
        <time>2021-11-16T11:40:07.298Z</time>
      </trkpt>
      <trkpt lat="38.70031" lon="35.10262">
        <ele>1232.425907</ele>
        <time>2021-11-16T11:40:33.447Z</time>
      </trkpt>
      <trkpt lat="38.7007" lon="35.10221">
        <ele>1231.60178</ele>
        <time>2021-11-16T11:40:44.184Z</time>
      </trkpt>
      <trkpt lat="38.70759" lon="35.09607">
        <ele>1216.5694</ele>
        <time>2021-11-16T11:43:13.816Z</time>
      </trkpt>
      <trkpt lat="38.70802" lon="35.09569">
        <ele>1213.30112</ele>
        <time>2021-11-16T11:43:21.778Z</time>
      </trkpt>
      <trkpt lat="38.71231" lon="35.09188">
        <ele>1179.837941</ele>
        <time>2021-11-16T11:44:36.701Z</time>
      </trkpt>
      <trkpt lat="38.71997" lon="35.08501">
        <ele>1136.156086</ele>
        <time>2021-11-16T11:46:59.830Z</time>
      </trkpt>
      <trkpt lat="38.72051" lon="35.08432">
        <ele>1132.896016</ele>
        <time>2021-11-16T11:47:11.807Z</time>
      </trkpt>
      <trkpt lat="38.72119" lon="35.08317">
        <ele>1129.009232</ele>
        <time>2021-11-16T11:47:29.659Z</time>
      </trkpt>
      <trkpt lat="38.72275" lon="35.08004">
        <ele>1121.316215</ele>
        <time>2021-11-16T11:48:18.497Z</time>
      </trkpt>
      <trkpt lat="38.7234" lon="35.07875">
        <ele>1119.834749</ele>
        <time>2021-11-16T11:48:42.225Z</time>
      </trkpt>
      <trkpt lat="38.73104" lon="35.06337">
        <ele>1097.455073</ele>
        <time>2021-11-16T11:53:03.183Z</time>
      </trkpt>
      <trkpt lat="38.7316" lon="35.06223">
        <ele>1093.839884</ele>
        <time>2021-11-16T11:53:19.524Z</time>
      </trkpt>
      <trkpt lat="38.73263" lon="35.0601">
        <ele>1085.261949</ele>
        <time>2021-11-16T11:53:48.794Z</time>
      </trkpt>
      <trkpt lat="38.73632" lon="35.05262">
        <ele>1064.310816</ele>
        <time>2021-11-16T11:55:42.916Z</time>
      </trkpt>
      <trkpt lat="38.73802" lon="35.04936">
        <ele>1060.231794</ele>
        <time>2021-11-16T11:56:41.444Z</time>
      </trkpt>
      <trkpt lat="38.73834" lon="35.04862">
        <ele>1059.031034</ele>
        <time>2021-11-16T11:56:53.559Z</time>
      </trkpt>
      <trkpt lat="38.73843" lon="35.04834">
        <ele>1058.501916</ele>
        <time>2021-11-16T11:56:57.774Z</time>
      </trkpt>
      <trkpt lat="38.73847" lon="35.04819">
        <ele>1058.235725</ele>
        <time>2021-11-16T11:56:59.895Z</time>
      </trkpt>
      <trkpt lat="38.73851" lon="35.04806">
        <ele>1057.987956</ele>
        <time>2021-11-16T11:57:01.820Z</time>
      </trkpt>
      <trkpt lat="38.73864" lon="35.04751">
        <ele>1056.998721</ele>
        <time>2021-11-16T11:57:09.484Z</time>
      </trkpt>
      <trkpt lat="38.73874" lon="35.04674">
        <ele>1055.567836</ele>
        <time>2021-11-16T11:57:19.650Z</time>
      </trkpt>
      <trkpt lat="38.73878" lon="35.0456">
        <ele>1053.097636</ele>
        <time>2021-11-16T11:57:34.124Z</time>
      </trkpt>
      <trkpt lat="38.73858" lon="35.04264">
        <ele>1047.584636</ele>
        <time>2021-11-16T11:58:13.464Z</time>
      </trkpt>
      <trkpt lat="38.73853" lon="35.04115">
        <ele>1046.736931</ele>
        <time>2021-11-16T11:58:36.707Z</time>
      </trkpt>
      <trkpt lat="38.73859" lon="35.03986">
        <ele>1046.385898</ele>
        <time>2021-11-16T11:59:00.646Z</time>
      </trkpt>
      <trkpt lat="38.73869" lon="35.03912">
        <ele>1046.14797</ele>
        <time>2021-11-16T11:59:13.713Z</time>
      </trkpt>
      <trkpt lat="38.73884" lon="35.03845">
        <ele>1045.926396</ele>
        <time>2021-11-16T11:59:25.060Z</time>
      </trkpt>
      <trkpt lat="38.73898" lon="35.03778">
        <ele>1045.705307</ele>
        <time>2021-11-16T11:59:35.560Z</time>
      </trkpt>
      <trkpt lat="38.73943" lon="35.03555">
        <ele>1043.493801</ele>
        <time>2021-11-16T12:00:08.688Z</time>
      </trkpt>
      <trkpt lat="38.7398" lon="35.03373">
        <ele>1042.775986</ele>
        <time>2021-11-16T12:00:38.918Z</time>
      </trkpt>
      <trkpt lat="38.74007" lon="35.03211">
        <ele>1042.62056</ele>
        <time>2021-11-16T12:01:08.236Z</time>
      </trkpt>
      <trkpt lat="38.74074" lon="35.02475">
        <ele>1041.588383</ele>
        <time>2021-11-16T12:03:14.784Z</time>
      </trkpt>
      <trkpt lat="38.74116" lon="35.0196">
        <ele>1035.733085</ele>
        <time>2021-11-16T12:04:27.687Z</time>
      </trkpt>
      <trkpt lat="38.74163" lon="35.0145">
        <ele>1032.296281</ele>
        <time>2021-11-16T12:05:53.261Z</time>
      </trkpt>
      <trkpt lat="38.74184" lon="35.01195">
        <ele>1022.79165</ele>
        <time>2021-11-16T12:06:22.500Z</time>
      </trkpt>
      <trkpt lat="38.74195" lon="35.00992">
        <ele>1016.913674</ele>
        <time>2021-11-16T12:06:46.418Z</time>
      </trkpt>
      <trkpt lat="38.74234" lon="35.00567">
        <ele>1023.43811</ele>
        <time>2021-11-16T12:08:40.232Z</time>
      </trkpt>
      <trkpt lat="38.74232" lon="35.00488">
        <ele>1023.695087</ele>
        <time>2021-11-16T12:08:59.456Z</time>
      </trkpt>
      <trkpt lat="38.7422" lon="35.00403">
        <ele>1023.978325</ele>
        <time>2021-11-16T12:09:14.799Z</time>
      </trkpt>
      <trkpt lat="38.74198" lon="35.00315">
        <ele>1022.85546</ele>
        <time>2021-11-16T12:09:27.270Z</time>
      </trkpt>
      <trkpt lat="38.74169" lon="35.00233">
        <ele>1020.091356</ele>
        <time>2021-11-16T12:09:38.301Z</time>
      </trkpt>
      <trkpt lat="38.73938" lon="34.99777">
        <ele>1000.708554</ele>
        <time>2021-11-16T12:10:42.524Z</time>
      </trkpt>
      <trkpt lat="38.73919" lon="34.99735">
        <ele>1000.244284</ele>
        <time>2021-11-16T12:10:49.110Z</time>
      </trkpt>
      <trkpt lat="38.73905" lon="34.99687">
        <ele>1000.330885</ele>
        <time>2021-11-16T12:10:56.824Z</time>
      </trkpt>
      <trkpt lat="38.7389" lon="34.996">
        <ele>1000.482164</ele>
        <time>2021-11-16T12:11:13.921Z</time>
      </trkpt>
      <trkpt lat="38.7386" lon="34.99151">
        <ele>1009.355133</ele>
        <time>2021-11-16T12:13:16.996Z</time>
      </trkpt>
      <trkpt lat="38.73849" lon="34.99068">
        <ele>1010.603678</ele>
        <time>2021-11-16T12:13:34.973Z</time>
      </trkpt>
      <trkpt lat="38.73833" lon="34.98986">
        <ele>1010.316302</ele>
        <time>2021-11-16T12:13:49.475Z</time>
      </trkpt>
      <trkpt lat="38.73794" lon="34.98841">
        <ele>1009.598236</ele>
        <time>2021-11-16T12:14:12.244Z</time>
      </trkpt>
      <trkpt lat="38.73728" lon="34.98547">
        <ele>1005.137676</ele>
        <time>2021-11-16T12:14:56.042Z</time>
      </trkpt>
      <trkpt lat="38.73502" lon="34.97657">
        <ele>986.315235</ele>
        <time>2021-11-16T12:16:56.621Z</time>
      </trkpt>
      <trkpt lat="38.73473" lon="34.9756">
        <ele>985.505884</ele>
        <time>2021-11-16T12:17:15.805Z</time>
      </trkpt>
      <trkpt lat="38.73411" lon="34.97414">
        <ele>987.633259</ele>
        <time>2021-11-16T12:17:55.115Z</time>
      </trkpt>
      <trkpt lat="38.73347" lon="34.97279">
        <ele>989.625209</ele>
        <time>2021-11-16T12:18:32.574Z</time>
      </trkpt>
      <trkpt lat="38.73341" lon="34.97267">
        <ele>989.780418</ele>
        <time>2021-11-16T12:18:35.964Z</time>
      </trkpt>
      <trkpt lat="38.73264" lon="34.97104">
        <ele>991.253901</ele>
        <time>2021-11-16T12:19:14.833Z</time>
      </trkpt>
      <trkpt lat="38.73003" lon="34.96561">
        <ele>991.157553</ele>
        <time>2021-11-16T12:21:03.269Z</time>
      </trkpt>
      <trkpt lat="38.72931" lon="34.96409">
        <ele>990.730906</ele>
        <time>2021-11-16T12:21:32.651Z</time>
      </trkpt>
      <trkpt lat="38.72861" lon="34.96263">
        <ele>990.22045</ele>
        <time>2021-11-16T12:22:00.327Z</time>
      </trkpt>
      <trkpt lat="38.72782" lon="34.96098">
        <ele>989.686388</ele>
        <time>2021-11-16T12:22:31.945Z</time>
      </trkpt>
      <trkpt lat="38.72592" lon="34.95701">
        <ele>988.892435</ele>
        <time>2021-11-16T12:23:50.019Z</time>
      </trkpt>
      <trkpt lat="38.72514" lon="34.95536">
        <ele>988.871348</ele>
        <time>2021-11-16T12:24:22.282Z</time>
      </trkpt>
      <trkpt lat="38.71861" lon="34.94187">
        <ele>995.854498</ele>
        <time>2021-11-16T12:29:26.331Z</time>
      </trkpt>
      <trkpt lat="38.71749" lon="34.93954">
        <ele>997.985047</ele>
        <time>2021-11-16T12:30:23.501Z</time>
      </trkpt>
      <trkpt lat="38.71703" lon="34.93859">
        <ele>998.783169</ele>
        <time>2021-11-16T12:30:46.117Z</time>
      </trkpt>
      <trkpt lat="38.71625" lon="34.93695">
        <ele>999.618837</ele>
        <time>2021-11-16T12:31:23.235Z</time>
      </trkpt>
      <trkpt lat="38.71497" lon="34.93427">
        <ele>999.69218</ele>
        <time>2021-11-16T12:32:18.208Z</time>
      </trkpt>
      <trkpt lat="38.71477" lon="34.93386">
        <ele>999.106542</ele>
        <time>2021-11-16T12:32:25.430Z</time>
      </trkpt>
      <trkpt lat="38.71445" lon="34.93317">
        <ele>997.971629</ele>
        <time>2021-11-16T12:32:36.935Z</time>
      </trkpt>
      <trkpt lat="38.71422" lon="34.93254">
        <ele>996.97744</ele>
        <time>2021-11-16T12:32:46.316Z</time>
      </trkpt>
      <trkpt lat="38.71395" lon="34.93137">
        <ele>994.076211</ele>
        <time>2021-11-16T12:33:01.972Z</time>
      </trkpt>
      <trkpt lat="38.71388" lon="34.93104">
        <ele>993.101056</ele>
        <time>2021-11-16T12:33:06.219Z</time>
      </trkpt>
      <trkpt lat="38.71388" lon="34.931">
        <ele>992.969594</ele>
        <time>2021-11-16T12:33:06.807Z</time>
      </trkpt>
      <trkpt lat="38.71387" lon="34.93095">
        <ele>992.835929</ele>
        <time>2021-11-16T12:33:07.395Z</time>
      </trkpt>
      <trkpt lat="38.71337" lon="34.92859">
        <ele>985.182982</ele>
        <time>2021-11-16T12:33:36.970Z</time>
      </trkpt>
      <trkpt lat="38.71279" lon="34.92553">
        <ele>975.139186</ele>
        <time>2021-11-16T12:34:15.304Z</time>
      </trkpt>
      <trkpt lat="38.7126" lon="34.92344">
        <ele>969.851116</ele>
        <time>2021-11-16T12:34:42.081Z</time>
      </trkpt>
      <trkpt lat="38.71245" lon="34.92112">
        <ele>964.78731</ele>
        <time>2021-11-16T12:35:12.535Z</time>
      </trkpt>
      <trkpt lat="38.71233" lon="34.9192">
        <ele>961.129661</ele>
        <time>2021-11-16T12:35:37.902Z</time>
      </trkpt>
      <trkpt lat="38.71218" lon="34.91697">
        <ele>957.340823</ele>
        <time>2021-11-16T12:36:08.352Z</time>
      </trkpt>
      <trkpt lat="38.71208" lon="34.91529">
        <ele>955.264057</ele>
        <time>2021-11-16T12:36:31.727Z</time>
      </trkpt>
      <trkpt lat="38.71202" lon="34.91449">
        <ele>954.476881</ele>
        <time>2021-11-16T12:36:43.632Z</time>
      </trkpt>
      <trkpt lat="38.712" lon="34.91388">
        <ele>954.009399</ele>
        <time>2021-11-16T12:36:53.253Z</time>
      </trkpt>
      <trkpt lat="38.71205" lon="34.91288">
        <ele>954.345536</ele>
        <time>2021-11-16T12:37:10.546Z</time>
      </trkpt>
      <trkpt lat="38.71209" lon="34.91257">
        <ele>954.452341</ele>
        <time>2021-11-16T12:37:16.619Z</time>
      </trkpt>
      <trkpt lat="38.71222" lon="34.91165">
        <ele>954.822376</ele>
        <time>2021-11-16T12:37:35.845Z</time>
      </trkpt>
      <trkpt lat="38.71239" lon="34.91015">
        <ele>956.986135</ele>
        <time>2021-11-16T12:38:10.738Z</time>
      </trkpt>
      <trkpt lat="38.71238" lon="34.90966">
        <ele>957.68783</ele>
        <time>2021-11-16T12:38:22.553Z</time>
      </trkpt>
      <trkpt lat="38.71235" lon="34.90916">
        <ele>958.486911</ele>
        <time>2021-11-16T12:38:34.523Z</time>
      </trkpt>
      <trkpt lat="38.7123" lon="34.90872">
        <ele>959.29215</ele>
        <time>2021-11-16T12:38:45.331Z</time>
      </trkpt>
      <trkpt lat="38.71171" lon="34.90555">
        <ele>965.757107</ele>
        <time>2021-11-16T12:40:06.212Z</time>
      </trkpt>
      <trkpt lat="38.71131" lon="34.90311">
        <ele>972.489321</ele>
        <time>2021-11-16T12:41:17.117Z</time>
      </trkpt>
      <trkpt lat="38.71052" lon="34.89675">
        <ele>993.080087</ele>
        <time>2021-11-16T12:44:36.460Z</time>
      </trkpt>
      <trkpt lat="38.70983" lon="34.89185">
        <ele>1002.337595</ele>
        <time>2021-11-16T12:46:37.335Z</time>
      </trkpt>
      <trkpt lat="38.7095" lon="34.8904">
        <ele>1004.640341</ele>
        <time>2021-11-16T12:47:09.839Z</time>
      </trkpt>
      <trkpt lat="38.70837" lon="34.88611">
        <ele>1012.733226</ele>
        <time>2021-11-16T12:49:01.462Z</time>
      </trkpt>
      <trkpt lat="38.7082" lon="34.88539">
        <ele>1014.312237</ele>
        <time>2021-11-16T12:49:21.634Z</time>
      </trkpt>
      <trkpt lat="38.7081" lon="34.88467">
        <ele>1015.824183</ele>
        <time>2021-11-16T12:49:41.299Z</time>
      </trkpt>
      <trkpt lat="38.70796" lon="34.88162">
        <ele>1019.404232</ele>
        <time>2021-11-16T12:50:55.769Z</time>
      </trkpt>
      <trkpt lat="38.70792" lon="34.87732">
        <ele>1012.632573</ele>
        <time>2021-11-16T12:51:52.813Z</time>
      </trkpt>
      <trkpt lat="38.70786" lon="34.87685">
        <ele>1011.439974</ele>
        <time>2021-11-16T12:51:58.629Z</time>
      </trkpt>
      <trkpt lat="38.70892" lon="34.87209">
        <ele>999.413885</ele>
        <time>2021-11-16T12:53:04.360Z</time>
      </trkpt>
      <trkpt lat="38.70895" lon="34.87183">
        <ele>998.844257</ele>
        <time>2021-11-16T12:53:07.973Z</time>
      </trkpt>
      <trkpt lat="38.70913" lon="34.87051">
        <ele>996.429673</ele>
        <time>2021-11-16T12:53:27.136Z</time>
      </trkpt>
      <trkpt lat="38.70926" lon="34.86928">
        <ele>994.767556</ele>
        <time>2021-11-16T12:53:45.862Z</time>
      </trkpt>
      <trkpt lat="38.70938" lon="34.86558">
        <ele>988.953033</ele>
        <time>2021-11-16T12:54:40.242Z</time>
      </trkpt>
      <trkpt lat="38.70951" lon="34.86473">
        <ele>987.008612</ele>
        <time>2021-11-16T12:54:51.913Z</time>
      </trkpt>
      <trkpt lat="38.7096" lon="34.86445">
        <ele>986.32253</ele>
        <time>2021-11-16T12:54:55.933Z</time>
      </trkpt>
      <trkpt lat="38.7098" lon="34.86429">
        <ele>985.425751</ele>
        <time>2021-11-16T12:54:59.793Z</time>
      </trkpt>
      <trkpt lat="38.71095" lon="34.86396">
        <ele>978.139246</ele>
        <time>2021-11-16T12:55:17.935Z</time>
      </trkpt>
      <trkpt lat="38.71149" lon="34.86364">
        <ele>974.336022</ele>
        <time>2021-11-16T12:55:26.908Z</time>
      </trkpt>
      <trkpt lat="38.71172" lon="34.86353">
        <ele>972.349574</ele>
        <time>2021-11-16T12:55:30.457Z</time>
      </trkpt>
      <trkpt lat="38.71191" lon="34.86336">
        <ele>970.45224</ele>
        <time>2021-11-16T12:55:33.791Z</time>
      </trkpt>
      <trkpt lat="38.71208" lon="34.86295">
        <ele>967.459804</ele>
        <time>2021-11-16T12:55:39.018Z</time>
      </trkpt>
      <trkpt lat="38.71205" lon="34.86255">
        <ele>964.844238</ele>
        <time>2021-11-16T12:55:43.624Z</time>
      </trkpt>
      <trkpt lat="38.71192" lon="34.86211">
        <ele>961.815799</ele>
        <time>2021-11-16T12:55:48.995Z</time>
      </trkpt>
      <trkpt lat="38.71188" lon="34.86169">
        <ele>959.37522</ele>
        <time>2021-11-16T12:55:53.846Z</time>
      </trkpt>
      <trkpt lat="38.71186" lon="34.86149">
        <ele>958.456834</ele>
        <time>2021-11-16T12:55:56.261Z</time>
      </trkpt>
      <trkpt lat="38.71186" lon="34.86117">
        <ele>957.038609</ele>
        <time>2021-11-16T12:56:00.082Z</time>
      </trkpt>
      <trkpt lat="38.71186" lon="34.86109">
        <ele>956.663967</ele>
        <time>2021-11-16T12:56:01.086Z</time>
      </trkpt>
      <trkpt lat="38.71192" lon="34.85985">
        <ele>951.133503</ele>
        <time>2021-11-16T12:56:16.119Z</time>
      </trkpt>
      <trkpt lat="38.71192" lon="34.85959">
        <ele>949.982257</ele>
        <time>2021-11-16T12:56:19.380Z</time>
      </trkpt>
      <trkpt lat="38.71199" lon="34.85854">
        <ele>946.910379</ele>
        <time>2021-11-16T12:56:33.279Z</time>
      </trkpt>
      <trkpt lat="38.71201" lon="34.85832">
        <ele>946.2963</ele>
        <time>2021-11-16T12:56:36.195Z</time>
      </trkpt>
      <trkpt lat="38.71201" lon="34.85817">
        <ele>945.87337</ele>
        <time>2021-11-16T12:56:38.104Z</time>
      </trkpt>
      <trkpt lat="38.71214" lon="34.85565">
        <ele>939.25573</ele>
        <time>2021-11-16T12:57:09.907Z</time>
      </trkpt>
      <trkpt lat="38.71248" lon="34.85562">
        <ele>938.160332</ele>
        <time>2021-11-16T12:57:15.771Z</time>
      </trkpt>
      <trkpt lat="38.71259" lon="34.85555">
        <ele>937.762642</ele>
        <time>2021-11-16T12:57:17.914Z</time>
      </trkpt>
      <trkpt lat="38.71286" lon="34.85516">
        <ele>936.692644</ele>
        <time>2021-11-16T12:57:24.947Z</time>
      </trkpt>
      <trkpt lat="38.71313" lon="34.85468">
        <ele>935.571422</ele>
        <time>2021-11-16T12:57:33.142Z</time>
      </trkpt>
      <trkpt lat="38.71345" lon="34.85416">
        <ele>934.335221</ele>
        <time>2021-11-16T12:57:42.396Z</time>
      </trkpt>
      <trkpt lat="38.71371" lon="34.85365">
        <ele>933.191561</ele>
        <time>2021-11-16T12:57:51.242Z</time>
      </trkpt>
      <trkpt lat="38.71393" lon="34.85321">
        <ele>932.489691</ele>
        <time>2021-11-16T12:57:58.972Z</time>
      </trkpt>
      <trkpt lat="38.71409" lon="34.85297">
        <ele>932.101307</ele>
        <time>2021-11-16T12:58:03.557Z</time>
      </trkpt>
      <trkpt lat="38.71438" lon="34.85303">
        <ele>931.624618</ele>
        <time>2021-11-16T12:58:13.123Z</time>
      </trkpt>
      <trkpt lat="38.71444" lon="34.85295">
        <ele>931.490351</ele>
        <time>2021-11-16T12:58:14.701Z</time>
      </trkpt>
      <trkpt lat="38.71445" lon="34.85284">
        <ele>931.357168</ele>
        <time>2021-11-16T12:58:16.281Z</time>
      </trkpt>
      <trkpt lat="38.71453" lon="34.8523">
        <ele>930.66743</ele>
        <time>2021-11-16T12:58:24.487Z</time>
      </trkpt>
      <trkpt lat="38.71454" lon="34.8521">
        <ele>930.406263</ele>
        <time>2021-11-16T12:58:27.631Z</time>
      </trkpt>
      <trkpt lat="38.71457" lon="34.85183">
        <ele>930.083158</ele>
        <time>2021-11-16T12:58:31.637Z</time>
      </trkpt>
      <trkpt lat="38.71459" lon="34.85145">
        <ele>929.667627</ele>
        <time>2021-11-16T12:58:37.370Z</time>
      </trkpt>
      <trkpt lat="38.71536" lon="34.85128">
        <ele>928.59782</ele>
        <time>2021-11-16T12:58:52.488Z</time>
      </trkpt>
      <trkpt lat="38.7156" lon="34.85125">
        <ele>928.264269</ele>
        <time>2021-11-16T12:58:57.290Z</time>
      </trkpt>
      <trkpt lat="38.71583" lon="34.85126">
        <ele>927.94392</ele>
        <time>2021-11-16T12:59:01.783Z</time>
      </trkpt>
      <trkpt lat="38.71607" lon="34.85119">
        <ele>927.638802</ele>
        <time>2021-11-16T12:59:06.560Z</time>
      </trkpt>
      <trkpt lat="38.71606" lon="34.85099">
        <ele>927.502482</ele>
        <time>2021-11-16T12:59:09.694Z</time>
      </trkpt>
      <trkpt lat="38.71605" lon="34.85052">
        <ele>927.186463</ele>
        <time>2021-11-16T12:59:16.941Z</time>
      </trkpt>
      <trkpt lat="38.71605" lon="34.8504">
        <ele>927.11163</ele>
        <time>2021-11-16T12:59:18.730Z</time>
      </trkpt>
      <trkpt lat="38.71662" lon="34.8503">
        <ele>926.615869</ele>
        <time>2021-11-16T12:59:30.651Z</time>
      </trkpt>
      <trkpt lat="38.71666" lon="34.85029">
        <ele>926.58573</ele>
        <time>2021-11-16T12:59:31.399Z</time>
      </trkpt>
      <trkpt lat="38.71679" lon="34.85025">
        <ele>926.472298</ele>
        <time>2021-11-16T12:59:35.074Z</time>
      </trkpt>
      <trkpt lat="38.7168" lon="34.85035">
        <ele>926.407865</ele>
        <time>2021-11-16T12:59:40.354Z</time>
      </trkpt>
      <trkpt lat="38.71744" lon="34.85018">
        <ele>926.154047</ele>
        <time>2021-11-16T13:00:25.464Z</time>
      </trkpt>
      <trkpt lat="38.71744" lon="34.84978">
        <ele>926.154047</ele>
        <time>2021-11-16T13:00:47.231Z</time>
      </trkpt>
      <trkpt lat="38.71759" lon="34.84942">
        <ele>926.154047</ele>
        <time>2021-11-16T13:01:09.762Z</time>
      </trkpt>
      <trkpt lat="38.71755" lon="34.8489">
        <ele>926.154047</ele>
        <time>2021-11-16T13:01:37.791Z</time>
      </trkpt>
      <trkpt lat="38.71744" lon="34.84863">
        <ele>926.154047</ele>
        <time>2021-11-16T13:01:54.394Z</time>
      </trkpt>
      <trkpt lat="38.71724" lon="34.84823">
        <ele>926.154047</ele>
        <time>2021-11-16T13:02:20.235Z</time>
      </trkpt>
      <trkpt lat="38.71723" lon="34.8482">
        <ele>926.154047</ele>
        <time>2021-11-16T13:02:22.127Z</time>
      </trkpt>
    </trkseg>
  </trk>
</gpx>